# Wetter Temperatur Luftdruck Luftfeuchtigkeit Sichtweite Windgeschwindigkeit Windrichtung Zeit
1 Rain 29 1015 65 0 1.34 65 07:27 11.07.2020
2 Clouds 29 1016 83 9656 2.6 50 06:59 11.07.2020
3 Clouds 30 1016 83 9656 2.6 50 06:23 11.07.2020
4 Clouds 30 1016 83 9656 2.6 50 05:46 11.07.2020
5 Clouds 30 1016 83 9656 2.6 50 05:46 11.07.2020
6 Clouds 30 1015 83 9656 2.1 50 04:59 11.07.2020
7 Clouds 30 1015 83 9656 2.1 50 04:37 11.07.2020
8 Clouds 30 1015 83 9656 2.1 50 04:18 11.07.2020
9 Clouds 31 1013 70 11265 4.1 40 02:51 11.07.2020
10 Clouds 31 1014 70 11265 4.1 50 01:53 11.07.2020
11 Clouds 31 1014 70 11265 4.1 50 01:20 11.07.2020
12 Clouds 32 1014 66 11265 4.6 50 00:41 11.07.2020
13 Clouds 32 1014 66 11265 4.6 50 00:22 11.07.2020
14 Clouds 32 1014 70 11265 4.1 60 23:58 10.07.2020
15 Clouds 32 1014 70 11265 4.1 60 23:58 10.07.2020
16 Clouds 32 1014 70 11265 4.1 60 23:40 10.07.2020
17 Clouds 33 1014 70 11265 4.1 60 23:20 10.07.2020
18 Clouds 32 1014 70 9656 5.7 40 22:47 10.07.2020
19 Clouds 32 1014 70 9656 5.7 40 22:23 10.07.2020
20 Clouds 33 1015 59 9656 3.6 40 21:59 10.07.2020
21 Clouds 33 1015 59 9656 3.6 40 21:38 10.07.2020
22 Clouds 33 1015 59 9656 3.6 40 21:19 10.07.2020
23 Clouds 33 1015 66 9656 3.6 70 20:43 10.07.2020
24 Clouds 32 1015 66 9656 3.6 70 20:24 10.07.2020
25 Clouds 33 1015 63 9656 2.1 100 19:59 10.07.2020
26 Clouds 33 1015 63 9656 2.1 100 19:41 10.07.2020
27 Clouds 33 1015 63 9656 2.1 100 19:21 10.07.2020
28 Clouds 32 1015 62 9656 1.86 25 18:42 10.07.2020
29 Clouds 32 1015 62 9656 1.14 319 18:22 10.07.2020
30 Clouds 31 1015 74 9656 1.14 319 17:59 10.07.2020
31 Clouds 30 1015 74 9656 1.14 319 17:41 10.07.2020
32 Clouds 30 1015 74 9656 1.7 289 17:22 10.07.2020
33 Clouds 30 1015 83 8047 2.6 60 16:56 10.07.2020
34 Clouds 30 1015 83 8047 2.6 60 16:37 10.07.2020
35 Clouds 30 1015 83 8047 2.6 60 16:18 10.07.2020
36 Clouds 28 1014 94 8047 2.1 60 15:42 10.07.2020
37 Clouds 28 1014 94 8047 2.1 60 15:18 10.07.2020
38 Clouds 26 1013 100 6437 1.5 60 14:43 10.07.2020
39 Clouds 26 1013 100 6437 1.5 60 14:22 10.07.2020
40 Mist 26 1013 100 8047 0.31 61 13:58 10.07.2020
41 Mist 26 1013 100 8047 0.31 61 13:39 10.07.2020
42 Mist 26 1013 100 8047 0.89 84 13:21 10.07.2020
43 Clouds 26 1011 84 0 0.45 286 12:58 10.07.2020
44 Clouds 26 1011 84 0 0.45 286 12:38 10.07.2020
45 Clouds 26 1012 83 0 0.45 258 12:19 10.07.2020
46 Clouds 26 1012 84 0 0.67 87 11:42 10.07.2020
47 Clouds 26 1012 83 0 0.45 252 11:21 10.07.2020
48 Clouds 26 1012 82 0 0.89 232 10:58 10.07.2020
49 Clouds 27 1012 82 0 0.89 218 10:39 10.07.2020
50 Clouds 27 1012 82 0 0.89 225 10:20 10.07.2020
51 Clouds 27 1013 81 0 1 259 09:41 10.07.2020
52 Clouds 27 1013 82 0 0.34 188 09:23 10.07.2020
53 Clouds 27 1013 80 0 0.45 234 08:59 10.07.2020
54 Clouds 27 1013 79 0 0.34 188 08:41 10.07.2020
55 Rain 28 1013 77 0 0.53 95 08:23 10.07.2020
56 Rain 28 1013 75 0 0.53 95 07:48 10.07.2020
57 Rain 29 1013 74 0 0.75 77 07:24 10.07.2020
58 Clouds 28 1014 94 11265 1 80 06:58 10.07.2020
59 Clouds 28 1014 94 11265 1 80 06:40 10.07.2020
60 Clouds 29 1013 88 11265 2.6 80 05:40 10.07.2020
61 Clouds 30 1012 89 11265 3.1 50 03:55 10.07.2020
62 Clouds 31 1012 74 11265 3.1 70 02:55 10.07.2020
63 Clouds 31 1012 74 11265 3.1 70 02:21 10.07.2020
64 Clouds 33 1011 59 9656 3.1 70 00:55 10.07.2020
65 Clouds 33 1011 59 9656 3.1 70 00:23 10.07.2020
66 Clouds 33 1012 66 8047 3.1 80 23:56 09.07.2020
67 Clouds 32 1012 66 8047 3.1 80 23:37 09.07.2020
68 Clouds 32 1012 66 8047 3.1 80 23:19 09.07.2020
69 Clouds 33 1012 63 8047 2.6 100 22:56 09.07.2020
70 Clouds 33 1012 63 8047 2.6 100 22:38 09.07.2020
71 Clouds 33 1012 63 8047 2.6 100 22:19 09.07.2020
72 Haze 32 1012 66 4828 1.5 130 21:54 09.07.2020
73 Haze 32 1012 66 4828 1.5 130 21:36 09.07.2020
74 Haze 32 1012 66 4828 1.5 130 21:18 09.07.2020
75 Clouds 32 1013 66 6437 3.27 78 20:41 09.07.2020
76 Clouds 32 1013 66 6437 2.29 86 20:22 09.07.2020
77 Haze 31 1013 74 4828 1.5 10 19:43 09.07.2020
78 Haze 31 1013 74 4828 1.5 10 19:22 09.07.2020
79 Haze 31 1013 74 4828 1.26 109 18:58 09.07.2020
80 Haze 30 1013 74 4828 1.26 109 18:40 09.07.2020
81 Haze 30 1013 74 4828 1.13 160 18:19 09.07.2020
82 Clouds 30 1013 83 8047 2.1 180 17:43 09.07.2020
83 Clouds 30 1013 83 8047 2.1 180 17:23 09.07.2020
84 Clouds 30 1013 89 8047 2.6 90 16:58 09.07.2020
85 Clouds 30 1013 89 8047 2.6 90 16:38 09.07.2020
86 Clouds 30 1013 89 8047 2.6 90 16:19 09.07.2020
87 Clouds 28 1013 94 8047 2.1 40 15:58 09.07.2020
88 Clouds 28 1013 94 8047 2.1 40 15:38 09.07.2020
89 Clouds 28 1013 94 8047 2.1 40 15:19 09.07.2020
90 Clouds 27 1012 100 9656 1.5 320 14:58 09.07.2020
91 Clouds 27 1012 100 9656 1.5 320 14:39 09.07.2020
92 Clouds 27 1012 100 9656 1.5 320 14:20 09.07.2020
93 Clouds 26 1012 100 9656 1.01 92 13:56 09.07.2020
94 Clouds 27 1012 100 9656 1.01 92 13:38 09.07.2020
95 Clouds 27 1012 100 9656 1.04 88 13:19 09.07.2020
96 Clouds 28 1010 77 0 0.89 9 12:42 09.07.2020
97 Clouds 28 1010 77 0 0.89 9 12:23 09.07.2020
98 Clouds 27 1010 77 0 1.05 82 11:57 09.07.2020
99 Clouds 27 1010 78 0 0.89 304 11:39 09.07.2020
100 Clouds 28 1010 77 0 0.45 351 11:19 09.07.2020
101 Clouds 28 1010 77 0 0.45 346 10:56 09.07.2020
102 Clouds 28 1010 77 0 0.89 336 10:38 09.07.2020
103 Clouds 27 1010 78 0 0.45 304 10:19 09.07.2020
104 Clouds 29 1011 73 0 0.2 339 09:43 09.07.2020
105 Clouds 28 1011 74 0 0.15 198 09:23 09.07.2020
106 Clouds 29 1012 72 0 0.89 62 08:49 09.07.2020
107 Clouds 29 1012 73 0 0.89 34 08:26 09.07.2020
108 Clouds 29 1012 73 0 0.89 57 07:56 09.07.2020
109 Clouds 29 1012 72 0 0.89 107 07:37 09.07.2020
110 Clouds 28 1013 88 11265 1.5 90 07:19 09.07.2020
111 Clouds 28 1013 88 11265 1.5 90 06:20 09.07.2020
112 Clouds 28 1012 88 11265 2.1 100 05:50 09.07.2020
113 Clouds 28 1011 88 11265 3.72 92 04:29 09.07.2020
114 Clouds 30 1010 74 11265 2.6 100 02:47 09.07.2020
115 Clouds 31 1010 66 11265 2.6 110 01:55 09.07.2020
116 Clouds 32 1011 70 11265 1 130 00:59 09.07.2020
117 Clouds 32 1011 70 11265 1 130 00:38 09.07.2020
118 Clouds 32 1011 70 11265 1 130 00:19 09.07.2020
119 Clouds 33 1011 66 11265 1 120 23:43 08.07.2020
120 Clouds 33 1011 66 11265 1 120 23:24 08.07.2020
121 Clouds 33 1012 70 11265 1 140 22:55 08.07.2020
122 Clouds 33 1012 70 11265 1 140 22:36 08.07.2020
123 Clouds 33 1012 70 11265 1 140 22:18 08.07.2020
124 Clouds 33 1013 70 11265 2.6 60 21:55 08.07.2020
125 Clouds 33 1013 70 11265 2.6 60 21:36 08.07.2020
126 Clouds 32 1013 70 11265 2.6 60 21:18 08.07.2020
127 Clouds 33 1014 66 9656 1 90 20:41 08.07.2020
128 Clouds 33 1014 66 9656 1 90 20:23 08.07.2020
129 Clouds 32 1014 66 9656 1.5 50 19:55 08.07.2020
130 Clouds 32 1014 66 9656 1.5 50 19:37 08.07.2020
131 Clouds 32 1014 66 9656 1.5 50 19:18 08.07.2020
132 Clouds 31 1014 70 9656 0.6 179 18:41 08.07.2020
133 Clouds 31 1014 70 9656 0.66 203 18:21 08.07.2020
134 Clouds 30 1014 83 9656 0.66 203 17:57 08.07.2020
135 Clouds 30 1014 83 9656 0.66 203 17:38 08.07.2020
136 Clouds 30 1014 83 9656 0.46 231 17:20 08.07.2020
137 Clouds 28 1014 88 9656 0.46 231 16:57 08.07.2020
138 Clouds 28 1014 88 9656 0.46 231 16:38 08.07.2020
139 Clouds 28 1014 88 9656 0.79 280 16:18 08.07.2020
140 Clouds 27 1013 94 9656 0.79 280 15:57 08.07.2020
141 Clouds 27 1013 94 9656 0.79 280 15:38 08.07.2020
142 Clouds 27 1013 94 9656 1.25 285 15:19 08.07.2020
143 Clouds 27 1013 94 9656 1.25 285 15:19 08.07.2020
144 Clouds 27 1013 100 9656 1.25 285 14:42 08.07.2020
145 Clouds 27 1013 100 9656 1.25 285 14:42 08.07.2020
146 Clouds 27 1013 100 9656 0.72 269 14:21 08.07.2020
147 Clouds 27 1011 81 0 0.72 269 13:56 08.07.2020
148 Clouds 27 1011 81 0 0.72 269 13:37 08.07.2020
149 Clouds 26 1011 80 0 0.45 258 13:18 08.07.2020
150 Clouds 26 1011 80 0 0.45 200 12:40 08.07.2020
151 Clouds 27 1011 79 0 0.9 199 12:20 08.07.2020
152 Clouds 27 1011 77 0 0.9 199 11:39 08.07.2020
153 Clouds 27 1011 76 0 1.23 194 11:21 08.07.2020
154 Clouds 27 1011 75 0 0.89 117 10:59 08.07.2020
155 Clouds 28 1011 75 0 0.45 130 10:41 08.07.2020
156 Clouds 28 1011 75 0 0.45 130 10:23 08.07.2020
157 Clouds 28 1011 76 0 0.45 117 09:45 08.07.2020
158 Clouds 28 1011 76 0 0.45 117 09:25 08.07.2020
159 Clouds 28 1012 76 0 0.89 118 08:44 08.07.2020
160 Clouds 28 1012 76 0 0.89 123 08:25 08.07.2020
161 Clouds 28 1012 76 0 0.89 111 07:51 08.07.2020
162 Clouds 28 1014 83 11265 2.27 129 07:25 08.07.2020
163 Clouds 28 1014 83 11265 2.27 129 06:59 08.07.2020
164 Clouds 28 1014 83 11265 2.27 129 06:39 08.07.2020
165 Clouds 28 1014 83 11265 2.99 120 06:20 08.07.2020
166 Clouds 28 1013 88 11265 2.99 120 05:44 08.07.2020
167 Clouds 28 1012 88 11265 1 130 04:43 08.07.2020
168 Clouds 29 1012 83 11265 1 100 03:30 08.07.2020
169 Clouds 30 1011 79 11265 3.87 96 01:59 08.07.2020
170 Clouds 30 1011 79 11265 3.87 96 01:37 08.07.2020
171 Clouds 30 1011 70 11265 2.1 150 00:46 08.07.2020
172 Clouds 31 1011 70 11265 2.1 150 00:19 08.07.2020
173 Clouds 31 1012 66 11265 3.1 180 23:43 07.07.2020
174 Clouds 31 1012 66 11265 3.1 180 23:21 07.07.2020
175 Clouds 31 1013 66 11265 4.6 170 22:54 07.07.2020
176 Clouds 31 1013 66 11265 4.6 170 22:36 07.07.2020
177 Clouds 31 1013 66 11265 4.6 170 22:18 07.07.2020
178 Clouds 32 1014 66 11265 3.1 140 21:41 07.07.2020
179 Clouds 32 1014 66 11265 3.1 140 21:41 07.07.2020
180 Clouds 32 1014 66 11265 3.1 140 21:22 07.07.2020
181 Clouds 31 1014 74 11265 2.1 90 20:59 07.07.2020
182 Clouds 31 1014 74 11265 2.1 90 20:41 07.07.2020
183 Clouds 31 1014 74 11265 2.1 90 20:23 07.07.2020
184 Clouds 30 1014 70 11265 2.1 160 19:55 07.07.2020
185 Clouds 31 1014 70 11265 2.1 160 19:36 07.07.2020
186 Clouds 31 1014 70 11265 2.1 160 19:18 07.07.2020
187 Clouds 30 1015 70 11265 2.1 210 18:54 07.07.2020
188 Clouds 30 1015 70 11265 2.1 210 18:36 07.07.2020
189 Clouds 29 1015 70 11265 2.1 210 18:18 07.07.2020
190 Clouds 28 1015 78 11265 3.1 200 17:43 07.07.2020
191 Clouds 28 1015 78 11265 3.1 200 17:23 07.07.2020
192 Clouds 26 1014 83 11265 2.1 230 16:58 07.07.2020
193 Clouds 26 1014 83 11265 2.1 230 16:40 07.07.2020
194 Clouds 26 1014 83 11265 2.1 230 16:21 07.07.2020
195 Haze 24 1014 88 11265 2.37 199 15:54 07.07.2020
196 Haze 23 1014 88 11265 2.37 199 15:36 07.07.2020
197 Haze 23 1014 88 11265 3.06 193 15:18 07.07.2020
198 Mist 22 1013 100 11265 3.06 193 14:42 07.07.2020
199 Mist 22 1013 100 11265 3.28 199 14:22 07.07.2020
200 Clouds 23 1013 88 9656 2.1 170 13:40 07.07.2020
201 Clouds 24 1011 72 0 1.34 199 13:19 07.07.2020
202 Clouds 24 1011 71 0 2.24 133 12:43 07.07.2020
203 Clouds 24 1011 71 0 2.24 126 12:25 07.07.2020
204 Clouds 24 1010 70 0 1.79 47 11:58 07.07.2020
205 Clouds 24 1010 70 0 0.89 338 11:40 07.07.2020
206 Clouds 24 1010 68 0 1.79 331 11:20 07.07.2020
207 Clouds 24 1011 70 0 3.13 265 10:57 07.07.2020
208 Clouds 24 1011 69 0 2.68 287 10:38 07.07.2020
209 Clouds 23 1011 71 0 3.13 268 10:19 07.07.2020
210 Clouds 23 1012 73 0 2.68 276 09:41 07.07.2020
211 Clouds 23 1012 74 0 4.02 250 09:21 07.07.2020
212 Clouds 26 1013 68 0 4.02 234 08:42 07.07.2020
213 Rain 28 1013 73 0 4.02 198 08:24 07.07.2020
214 Rain 28 1013 74 0 1.79 94 07:47 07.07.2020
215 Clouds 28 1013 88 9656 1.5 60 07:25 07.07.2020
216 Clouds 28 1013 88 9656 1.5 60 06:50 07.07.2020
217 Clouds 28 1013 88 9656 1.5 60 06:50 07.07.2020
218 Clouds 28 1013 88 9656 1.5 60 06:31 07.07.2020
219 Clouds 28 1012 88 8047 1.5 50 05:54 07.07.2020
220 Clouds 28 1012 88 8047 1.5 50 05:23 07.07.2020
221 Clouds 28 1012 88 8047 2.1 60 04:42 07.07.2020
222 Clouds 29 1011 83 8047 1.5 60 03:41 07.07.2020
223 Clouds 29 1010 79 8047 2.1 70 02:28 07.07.2020
224 Clouds 30 1010 74 9656 3.1 80 01:25 07.07.2020
225 Clouds 31 1011 70 9656 1.5 130 00:44 07.07.2020
226 Clouds 31 1011 70 9656 1.5 130 00:25 07.07.2020
227 Clouds 31 1011 74 9656 4.1 80 23:59 06.07.2020
228 Clouds 31 1011 74 9656 4.1 80 23:40 06.07.2020
229 Clouds 31 1011 74 9656 4.1 80 23:22 06.07.2020
230 Clouds 31 1011 74 8047 5.1 80 22:41 06.07.2020
231 Clouds 31 1011 74 8047 5.1 80 22:20 06.07.2020
232 Rain 32 1012 66 9656 3.6 100 21:58 06.07.2020
233 Rain 32 1012 66 9656 3.6 100 21:39 06.07.2020
234 Rain 32 1012 66 9656 3.6 100 21:19 06.07.2020
235 Rain 32 1012 66 9656 3.6 100 21:19 06.07.2020
236 Clouds 32 1012 66 9656 1.5 110 20:59 06.07.2020
237 Clouds 32 1012 66 9656 1.5 110 20:39 06.07.2020
238 Clouds 31 1012 66 9656 1.5 110 20:20 06.07.2020
239 Clouds 32 1012 66 9656 3.19 79 19:57 06.07.2020
240 Clouds 32 1012 66 9656 3.19 79 19:39 06.07.2020
241 Clouds 32 1012 66 9656 0.63 107 19:20 06.07.2020
242 Clouds 31 1012 70 9656 0.63 107 18:55 06.07.2020
243 Clouds 30 1012 70 9656 0.63 107 18:37 06.07.2020
244 Clouds 30 1012 70 9656 0.73 260 18:18 06.07.2020
245 Clouds 29 1012 83 9656 0.73 260 17:42 06.07.2020
246 Clouds 29 1012 83 9656 1.58 258 17:24 06.07.2020
247 Clouds 28 1013 94 8047 1.58 258 16:57 06.07.2020
248 Clouds 28 1013 94 8047 1.58 258 16:39 06.07.2020
249 Clouds 27 1013 94 8047 1.66 272 16:21 06.07.2020
250 Clouds 26 1013 94 8047 1.66 272 15:42 06.07.2020
251 Clouds 26 1013 94 8047 1.86 273 15:24 06.07.2020
252 Clouds 26 1012 94 9656 1.86 273 14:57 06.07.2020
253 Clouds 25 1012 94 9656 1.86 273 14:38 06.07.2020
254 Clouds 25 1012 94 9656 2.34 264 14:19 06.07.2020
255 Clear 25 1011 94 9656 2.34 264 13:51 06.07.2020
256 Clear 25 1011 94 9656 2.54 269 13:28 06.07.2020
257 Clouds 25 1009 81 0 0.89 227 12:59 06.07.2020
258 Clouds 26 1009 80 0 0.45 232 12:41 06.07.2020
259 Rain 26 1009 79 0 2.45 279 12:18 06.07.2020
260 Rain 26 1009 80 0 2.45 279 11:57 06.07.2020
261 Rain 26 1009 80 0 0.45 234 11:37 06.07.2020
262 Clouds 26 1009 79 0 0.45 234 11:19 06.07.2020
263 Clouds 26 1009 78 0 0.45 346 10:43 06.07.2020
264 Rain 26 1009 78 0 0.89 323 10:22 06.07.2020
265 Rain 27 1010 78 0 1.34 321 09:58 06.07.2020
266 Rain 27 1010 78 0 0.89 333 09:39 06.07.2020
267 Rain 27 1010 76 0 1.79 305 09:21 06.07.2020
268 Rain 27 1010 77 0 1.34 302 08:55 06.07.2020
269 Rain 27 1011 77 0 1.34 280 08:36 06.07.2020
270 Rain 27 1011 76 0 0.89 290 08:18 06.07.2020
271 Rain 27 1011 75 0 0.45 290 07:40 06.07.2020
272 Clouds 28 1013 83 11265 2.1 90 07:22 06.07.2020
273 Clouds 28 1013 83 11265 2.1 90 06:39 06.07.2020
274 Clouds 28 1013 83 11265 2.1 90 06:20 06.07.2020
275 Clouds 28 1013 83 11265 2.1 90 06:20 06.07.2020
276 Clouds 28 1012 83 11265 3.6 60 05:33 06.07.2020
277 Clouds 28 1012 83 11265 1 60 04:52 06.07.2020
278 Clouds 29 1011 78 11265 1.5 80 03:25 06.07.2020
279 Clouds 29 1011 79 11265 5.1 60 02:21 06.07.2020
280 Clouds 30 1010 74 11265 3.6 80 01:22 06.07.2020
281 Clouds 31 1010 66 11265 4.6 70 00:33 06.07.2020
282 Clouds 31 1011 66 11265 1 100 23:59 05.07.2020
283 Clouds 31 1011 66 11265 1 100 23:40 05.07.2020
284 Clouds 31 1011 66 11265 1 100 23:22 05.07.2020
285 Clouds 31 1011 66 11265 4.1 90 22:58 05.07.2020
286 Clouds 31 1011 66 11265 4.1 90 22:39 05.07.2020
287 Clouds 31 1011 66 11265 4.1 90 22:19 05.07.2020
288 Clouds 31 1012 74 9656 2.1 100 21:57 05.07.2020
289 Clouds 31 1012 74 9656 2.1 100 21:37 05.07.2020
290 Clouds 31 1012 74 9656 2.1 100 21:18 05.07.2020
291 Clouds 31 1013 74 9656 2.1 20 20:55 05.07.2020
292 Clouds 31 1013 74 9656 2.1 20 20:37 05.07.2020
293 Clouds 31 1013 74 9656 2.1 20 20:19 05.07.2020
294 Clouds 30 1013 74 9656 1.5 60 19:41 05.07.2020
295 Clouds 30 1013 74 9656 1.5 60 19:21 05.07.2020
296 Clouds 30 1013 79 9656 2.76 108 18:55 05.07.2020
297 Clouds 30 1013 79 9656 2.76 108 18:37 05.07.2020
298 Clouds 29 1013 79 9656 0.71 71 18:18 05.07.2020
299 Clouds 28 1013 88 8047 0.71 71 17:42 05.07.2020
300 Clouds 27 1013 88 8047 2.53 284 17:19 05.07.2020
301 Mist 26 1014 94 6437 2.53 284 16:47 05.07.2020
302 Mist 26 1014 94 6437 3.03 285 16:26 05.07.2020
303 Mist 25 1014 100 8047 1 320 15:59 05.07.2020
304 Mist 25 1014 100 8047 1 320 15:40 05.07.2020
305 Haze 25 1014 100 8047 1 320 15:40 05.07.2020
306 Mist 25 1014 100 8047 1 320 15:20 05.07.2020
307 Rain 25 1013 100 8047 1.5 340 14:43 05.07.2020
308 Rain 25 1013 100 8047 1.5 340 14:23 05.07.2020
309 Rain 25 1013 100 9656 1.54 297 13:59 05.07.2020
310 Rain 25 1013 100 9656 1.54 297 13:40 05.07.2020
311 Rain 25 1013 100 9656 0.98 301 13:20 05.07.2020
312 Rain 25 1011 81 0 0.45 333 12:42 05.07.2020
313 Rain 25 1011 80 0 0.45 350 12:20 05.07.2020
314 Rain 25 1011 80 0 1.79 198 11:55 05.07.2020
315 Rain 25 1011 80 0 1.34 335 11:37 05.07.2020
316 Rain 25 1011 79 0 0.45 315 11:18 05.07.2020
317 Rain 26 1011 77 0 1.34 329 10:42 05.07.2020
318 Rain 26 1011 78 0 3.13 65 10:21 05.07.2020
319 Rain 26 1012 76 0 0.45 249 09:59 05.07.2020
320 Rain 26 1012 76 0 1.34 279 09:41 05.07.2020
321 Rain 26 1012 75 0 0.45 279 09:20 05.07.2020
322 Rain 27 1012 77 0 0.45 302 08:55 05.07.2020
323 Rain 27 1012 78 0 1.09 276 08:36 05.07.2020
324 Rain 27 1013 76 0 0.45 338 07:51 05.07.2020
325 Rain 27 1013 76 0 1.34 89 07:30 05.07.2020
326 Clouds 28 1014 83 11265 1.5 70 06:54 05.07.2020
327 Clouds 27 1014 83 11265 1.5 70 06:20 05.07.2020
328 Clouds 28 1012 78 11265 1.5 60 03:54 05.07.2020
329 Clouds 29 1012 70 11265 3.1 90 02:47 05.07.2020
330 Clouds 29 1012 70 11265 3.1 90 02:29 05.07.2020
331 Clear 30 1012 66 11265 3.1 70 01:42 05.07.2020
332 Clear 30 1012 66 11265 3.1 70 01:20 05.07.2020
333 Clouds 30 1012 74 11265 4.1 90 00:42 05.07.2020
334 Clouds 30 1012 74 11265 4.1 90 00:24 05.07.2020
335 Clouds 31 1013 70 11265 2.6 80 23:53 04.07.2020
336 Clouds 31 1013 70 11265 2.6 80 23:31 04.07.2020
337 Clouds 31 1014 74 11265 2.6 100 22:58 04.07.2020
338 Clouds 31 1014 74 11265 2.6 100 22:40 04.07.2020
339 Clouds 31 1014 74 11265 2.6 100 22:21 04.07.2020
340 Clouds 31 1014 70 11265 4.6 60 21:55 04.07.2020
341 Clouds 31 1014 70 11265 4.6 60 21:36 04.07.2020
342 Rain 31 1014 70 11265 4.6 60 21:18 04.07.2020
343 Rain 31 1015 62 8047 3.51 48 20:41 04.07.2020
344 Clouds 31 1015 62 8047 2.75 52 20:20 04.07.2020
345 Clouds 31 1015 66 8047 2.75 52 19:55 04.07.2020
346 Clouds 30 1015 66 8047 2.75 52 19:36 04.07.2020
347 Clouds 30 1016 70 8047 2.31 44 19:18 04.07.2020
348 Clouds 30 1016 70 8047 2.31 44 18:42 04.07.2020
349 Clouds 29 1016 70 8047 1.83 15 18:22 04.07.2020
350 Clouds 28 1015 83 8047 1.83 15 17:44 04.07.2020
351 Clouds 28 1015 83 8047 2.19 323 17:26 04.07.2020
352 Clouds 26 1015 94 8047 2.19 323 16:58 04.07.2020
353 Clouds 26 1015 94 8047 2.19 323 16:38 04.07.2020
354 Clouds 26 1015 94 8047 2.53 299 16:20 04.07.2020
355 Clouds 25 1014 94 8047 2.53 299 15:55 04.07.2020
356 Clouds 25 1014 94 8047 2.53 299 15:37 04.07.2020
357 Clouds 25 1014 94 8047 2.89 295 15:18 04.07.2020
358 Clouds 23 1014 100 9656 2.89 295 14:38 04.07.2020
359 Clouds 22 1014 100 9656 2.41 287 14:19 04.07.2020
360 Clear 23 1014 100 9656 2.41 287 13:58 04.07.2020
361 Clear 22 1014 100 9656 2.41 287 13:40 04.07.2020
362 Clear 23 1014 100 9656 1.97 279 13:18 04.07.2020
363 Clouds 23 1012 80 0 1.97 279 12:42 04.07.2020
364 Rain 23 1012 80 0 1.59 276 12:21 04.07.2020
365 Rain 23 1012 78 0 0.89 238 11:56 04.07.2020
366 Rain 23 1012 78 0 0.45 234 11:38 04.07.2020
367 Rain 23 1012 77 0 0.89 275 11:19 04.07.2020
368 Rain 23 1012 76 0 0.89 281 10:41 04.07.2020
369 Rain 23 1013 77 0 1.79 301 10:22 04.07.2020
370 Rain 24 1013 77 0 1.34 279 09:58 04.07.2020
371 Rain 24 1013 77 0 1.34 279 09:58 04.07.2020
372 Rain 24 1013 77 0 2.24 260 09:37 04.07.2020
373 Rain 24 1014 77 0 2.68 292 09:19 04.07.2020
374 Rain 24 1014 78 0 2.68 263 08:46 04.07.2020
375 Rain 24 1014 79 0 3.13 268 08:27 04.07.2020
376 Rain 24 1015 76 0 0.45 236 07:46 04.07.2020
377 Rain 24 1014 75 0 3.13 279 07:28 04.07.2020
378 Rain 26 1016 78 9656 2.6 340 06:55 04.07.2020
379 Rain 26 1016 78 9656 2.6 340 06:22 04.07.2020
380 Rain 28 1015 78 11265 2.1 4 05:35 04.07.2020
381 Clouds 28 1014 78 11265 1.5 60 04:43 04.07.2020
382 Clouds 30 1013 66 11265 2.88 33 02:51 04.07.2020
383 Clouds 30 1013 66 11265 3.5 42 02:23 04.07.2020
384 Clouds 30 1012 66 11265 2.6 70 01:31 04.07.2020
385 Clouds 30 1013 66 11265 2.6 60 00:42 04.07.2020
386 Clouds 30 1013 66 11265 2.6 60 00:22 04.07.2020
387 Clouds 32 1013 59 11265 3.1 70 23:40 03.07.2020
388 Clouds 32 1013 59 11265 3.1 70 23:19 03.07.2020
389 Clouds 32 1014 55 11265 4.1 70 22:55 03.07.2020
390 Clouds 32 1014 55 11265 4.1 70 22:37 03.07.2020
391 Clouds 32 1014 55 11265 4.1 70 22:19 03.07.2020
392 Clouds 32 1015 62 11265 3.1 110 21:41 03.07.2020
393 Clouds 32 1015 62 11265 3.1 110 21:20 03.07.2020
394 Clouds 32 1015 66 11265 4.54 43 20:55 03.07.2020
395 Clouds 32 1015 66 11265 4.54 43 20:37 03.07.2020
396 Clouds 31 1015 66 11265 3.93 34 20:18 03.07.2020
397 Clear 32 1013 53 0 3.13 97 19:41 03.07.2020
398 Clouds 31 1016 66 11265 3.16 25 19:19 03.07.2020
399 Clouds 31 1016 66 11265 3.16 25 18:55 03.07.2020
400 Clouds 31 1016 66 11265 3.16 25 18:37 03.07.2020
401 Clouds 30 1015 74 9656 1 290 18:18 03.07.2020
402 Clouds 30 1015 74 9656 1 290 17:41 03.07.2020
403 Clouds 30 1015 74 9656 1 290 17:22 03.07.2020
404 Clouds 28 1015 78 9656 2.6 310 16:45 03.07.2020
405 Clouds 28 1015 78 9656 2.6 310 16:26 03.07.2020
406 Clouds 26 1015 94 9656 2.43 304 15:48 03.07.2020
407 Clouds 25 1015 94 9656 2.36 290 15:25 03.07.2020
408 Clouds 25 1014 94 9656 2.36 290 14:58 03.07.2020
409 Clouds 25 1014 94 9656 2.6 288 14:40 03.07.2020
410 Clouds 25 1014 94 9656 2.65 280 14:21 03.07.2020
411 Clear 25 1014 94 9656 1 340 13:48 03.07.2020
412 Clear 24 1014 94 9656 1 340 13:29 03.07.2020
413 Clouds 24 1011 72 0 2.4 277 12:57 03.07.2020
414 Clouds 24 1011 72 0 2.4 277 12:39 03.07.2020
415 Rain 25 1011 70 0 0.89 309 12:20 03.07.2020
416 Rain 25 1011 67 0 1.79 336 11:43 03.07.2020
417 Rain 26 1011 66 0 1.79 302 11:25 03.07.2020
418 Rain 25 1011 67 0 1.79 294 10:58 03.07.2020
419 Rain 25 1012 69 0 1.34 343 10:39 03.07.2020
420 Rain 25 1012 71 0 1.34 336 10:20 03.07.2020
421 Rain 26 1012 69 0 1.34 284 09:55 03.07.2020
422 Rain 26 1012 69 0 1.34 284 09:37 03.07.2020
423 Rain 26 1012 68 0 2.24 264 09:18 03.07.2020
424 Rain 27 1013 70 0 2.68 269 08:40 03.07.2020
425 Rain 29 1013 64 0 2.05 322 08:19 03.07.2020
426 Rain 29 1013 64 0 1.34 54 07:49 03.07.2020
427 Rain 29 1013 66 0 1.79 63 07:27 03.07.2020
428 Clouds 29 1015 88 11265 2.1 60 06:54 03.07.2020
429 Clouds 29 1015 88 11265 2.1 60 06:19 03.07.2020
430 Clouds 30 1013 79 11265 2.6 60 04:55 03.07.2020
431 Clear 30 1012 79 11265 2.6 60 03:32 03.07.2020
432 Clear 30 1012 74 11265 2.6 80 02:47 03.07.2020
433 Clear 31 1012 74 11265 2.6 80 02:27 03.07.2020
434 Clear 32 1011 66 11265 4.6 60 01:28 03.07.2020
435 Clear 32 1011 62 11265 5.1 80 00:49 03.07.2020
436 Clear 32 1011 62 11265 5.1 80 00:28 03.07.2020
437 Clear 32 1012 62 11265 3.1 80 23:47 02.07.2020
438 Clear 33 1012 62 11265 3.1 80 23:20 02.07.2020
439 Clouds 33 1013 62 9656 4.1 70 22:58 02.07.2020
440 Clouds 33 1013 62 9656 4.1 70 22:39 02.07.2020
441 Clouds 33 1013 62 9656 4.1 70 22:20 02.07.2020
442 Clouds 32 1013 55 9656 1 100 21:55 02.07.2020
443 Clouds 32 1013 55 9656 1 100 21:37 02.07.2020
444 Clouds 32 1013 55 9656 1 100 21:18 02.07.2020
445 Clouds 32 1013 70 9656 1 110 20:57 02.07.2020
446 Clouds 32 1013 70 9656 1 110 20:39 02.07.2020
447 Clouds 32 1013 70 9656 1 110 20:18 02.07.2020
448 Clouds 31 1014 70 9656 2.6 40 19:41 02.07.2020
449 Clouds 31 1014 70 9656 2.6 40 19:22 02.07.2020
450 Haze 31 1014 74 8047 2.6 40 18:57 02.07.2020
451 Haze 31 1014 74 8047 2.6 40 18:39 02.07.2020
452 Haze 30 1014 74 8047 2.6 40 18:20 02.07.2020
453 Mist 30 1013 79 8047 0.97 354 17:40 02.07.2020
454 Mist 30 1013 79 8047 1.28 314 17:20 02.07.2020
455 Mist 30 1013 79 8047 1.28 314 17:20 02.07.2020
456 Mist 29 1013 88 8047 1.5 310 16:58 02.07.2020
457 Mist 28 1013 88 8047 1.5 310 16:40 02.07.2020
458 Mist 28 1013 88 8047 1.5 310 16:20 02.07.2020
459 Mist 27 1013 94 8047 1 340 15:55 02.07.2020
460 Mist 27 1013 94 8047 1 340 15:36 02.07.2020
461 Mist 27 1013 94 8047 1 340 15:36 02.07.2020
462 Mist 27 1013 94 8047 1 340 15:18 02.07.2020
463 Mist 26 1012 94 8047 1.12 317 14:42 02.07.2020
464 Mist 26 1012 94 8047 1.2 347 14:19 02.07.2020
465 Clouds 26 1012 94 9656 1.5 330 13:55 02.07.2020
466 Clouds 27 1010 77 0 0.45 348 13:36 02.07.2020
467 Clouds 27 1010 77 0 0.45 348 13:18 02.07.2020
468 Clouds 27 1010 76 0 0.45 344 12:40 02.07.2020
469 Clouds 27 1010 76 0 0.89 355 12:21 02.07.2020
470 Clouds 27 1010 76 0 0.45 350 11:44 02.07.2020
471 Clouds 27 1010 76 0 0.45 301 11:26 02.07.2020
472 Clouds 27 1011 76 0 1.34 312 10:57 02.07.2020
473 Clouds 27 1011 75 0 0.45 348 10:39 02.07.2020
474 Clouds 27 1011 75 0 0.45 348 10:21 02.07.2020
475 Clouds 27 1011 76 0 1.07 356 09:42 02.07.2020
476 Clouds 27 1011 76 0 0.45 300 09:21 02.07.2020
477 Clouds 27 1012 76 0 0.45 250 08:57 02.07.2020
478 Clouds 27 1012 73 0 0.45 272 08:38 02.07.2020
479 Clouds 28 1012 68 0 0.45 63 08:19 02.07.2020
480 Clouds 28 1012 69 0 0.45 87 07:41 02.07.2020
481 Clear 28 1012 88 9656 2.1 90 07:20 02.07.2020
482 Clear 28 1012 88 9656 2.1 90 06:41 02.07.2020
483 Clear 28 1012 88 9656 2.1 90 06:41 02.07.2020
484 Clear 28 1012 88 9656 2.1 90 06:20 02.07.2020
485 Clear 28 1012 83 9656 1.5 90 05:47 02.07.2020
486 Clear 28 1011 88 9656 3.1 80 04:49 02.07.2020
487 Clouds 29 1011 83 8047 1.5 90 03:33 02.07.2020
488 Clear 31 1010 74 8047 4.6 80 01:48 02.07.2020
489 Clear 33 1010 59 8047 3.6 90 00:27 02.07.2020
490 Clear 33 1010 55 8047 3.6 90 23:55 01.07.2020
491 Clear 33 1010 55 8047 3.6 90 23:37 01.07.2020
492 Clear 33 1010 55 8047 3.6 90 23:18 01.07.2020
493 Clear 33 1011 59 8047 2.1 90 22:54 01.07.2020
494 Clear 33 1011 59 8047 2.1 90 22:36 01.07.2020
495 Clear 33 1011 59 8047 2.1 90 22:18 01.07.2020
496 Clear 33 1012 59 9656 4.66 81 21:54 01.07.2020
497 Clear 33 1012 59 9656 4.66 81 21:36 01.07.2020
498 Clear 33 1012 59 9656 4.26 81 21:18 01.07.2020
499 Clouds 33 1012 62 9656 1.5 130 20:43 01.07.2020
500 Clouds 32 1012 62 9656 1.5 130 20:25 01.07.2020
501 Clouds 32 1013 62 8047 1.5 110 19:56 01.07.2020
502 Clouds 32 1013 62 8047 1.5 110 19:38 01.07.2020
503 Clouds 32 1013 62 8047 1.5 110 19:19 01.07.2020
504 Clouds 31 1013 70 8047 1.5 140 18:42 01.07.2020
505 Clouds 31 1013 70 8047 1.5 140 18:21 01.07.2020
506 Clouds 30 1013 83 8047 2.02 156 17:59 01.07.2020
507 Clouds 30 1013 83 8047 2.02 156 17:39 01.07.2020
508 Clouds 29 1013 83 8047 1.68 181 17:19 01.07.2020
509 Clouds 28 1012 88 8047 1.68 181 16:47 01.07.2020
510 Clouds 28 1012 88 8047 1.38 208 16:28 01.07.2020
511 Mist 26 1012 100 4828 1.38 208 15:56 01.07.2020
512 Mist 26 1012 100 4828 1.38 208 15:38 01.07.2020
513 Mist 26 1012 100 4828 1.71 226 15:20 01.07.2020
514 Mist 25 1015 100 4828 1.71 226 14:44 01.07.2020
515 Mist 25 1015 100 4828 1.77 231 14:22 01.07.2020
516 Clear 25 1011 100 9656 1.98 225 13:58 01.07.2020
517 Clear 25 1011 100 9656 1.98 225 13:39 01.07.2020
518 Clear 25 1011 100 9656 2.09 217 13:20 01.07.2020
519 Clouds 26 1009 82 0 0.45 194 12:57 01.07.2020
520 Clouds 26 1009 82 0 0.45 198 12:38 01.07.2020
521 Clouds 26 1009 81 0 0.45 193 12:20 01.07.2020
522 Clouds 26 1009 81 0 0.45 191 11:42 01.07.2020
523 Rain 26 1010 81 0 0.45 204 11:23 01.07.2020
524 Rain 26 1010 79 0 0.45 238 10:58 01.07.2020
525 Rain 27 1009 79 0 2.92 256 10:40 01.07.2020
526 Clouds 27 1010 79 0 0.45 223 10:21 01.07.2020
527 Clouds 27 1010 77 0 0.89 221 09:40 01.07.2020
528 Clouds 27 1010 78 0 0.89 252 09:21 01.07.2020
529 Clouds 27 1010 76 0 1.79 259 08:59 01.07.2020
530 Clouds 27 1010 76 0 1.34 267 08:40 01.07.2020
531 Clouds 27 1010 75 0 0.89 265 08:21 01.07.2020
532 Clouds 29 1010 70 0 0.45 119 07:44 01.07.2020
533 Clouds 29 1010 70 0 0.89 113 07:25 01.07.2020
534 Clouds 28 1012 88 9656 1 100 06:59 01.07.2020
535 Clouds 28 1012 88 9656 1 100 06:40 01.07.2020
536 Clouds 28 1012 88 9656 1 100 06:20 01.07.2020
537 Clouds 28 1011 88 9656 1.5 90 04:30 01.07.2020
538 Clouds 29 1010 83 9656 2.6 110 03:44 01.07.2020
539 Clouds 29 1010 83 9656 2.6 110 03:22 01.07.2020
540 Clouds 30 1009 79 9656 1 110 02:19 01.07.2020
541 Clouds 30 1009 79 9656 3.6 90 01:23 01.07.2020
542 Clouds 31 1010 70 11265 1 110 00:38 01.07.2020
543 Clouds 31 1010 70 11265 1 110 00:19 01.07.2020
544 Clouds 32 1010 70 9656 2.6 110 23:40 30.06.2020
545 Clouds 32 1010 70 9656 2.6 110 23:20 30.06.2020
546 Clouds 32 1011 66 9656 3.1 100 22:42 30.06.2020
547 Clouds 32 1011 66 9656 3.1 100 22:19 30.06.2020
548 Clouds 32 1011 62 9656 1.5 120 21:54 30.06.2020
549 Clouds 32 1011 62 9656 1.5 120 21:36 30.06.2020
550 Clouds 32 1011 62 9656 1.5 120 21:18 30.06.2020
551 Clouds 32 1012 62 9656 1.5 120 20:42 30.06.2020
552 Clouds 33 1012 62 9656 1.5 120 20:21 30.06.2020
553 Clouds 33 1012 62 8047 2.59 82 19:44 30.06.2020
554 Clouds 32 1012 62 8047 0.79 86 19:21 30.06.2020
555 Clear 32 1013 66 8047 1 200 18:58 30.06.2020
556 Clear 32 1013 66 8047 1 200 18:40 30.06.2020
557 Clear 31 1013 66 8047 1 200 18:20 30.06.2020
558 Clouds 31 1013 74 6437 0.79 250 17:39 30.06.2020
559 Clouds 30 1013 74 6437 1.66 267 17:20 30.06.2020
560 Clear 29 1013 83 6437 1.66 267 16:57 30.06.2020
561 Clear 29 1013 83 6437 1.66 267 16:39 30.06.2020
562 Clear 28 1013 83 6437 1.73 287 16:19 30.06.2020
563 Haze 27 1012 88 6437 1.73 287 15:56 30.06.2020
564 Mist 27 1012 88 6437 1.73 287 15:37 30.06.2020
565 Mist 26 1012 88 6437 1.97 283 15:19 30.06.2020
566 Haze 25 1011 94 8047 1.97 283 14:43 30.06.2020
567 Mist 25 1011 94 8047 2.29 267 14:21 30.06.2020
568 Clear 25 1011 88 9656 2.29 267 13:54 30.06.2020
569 Clear 25 1011 88 9656 2.29 267 13:36 30.06.2020
570 Clear 25 1011 88 9656 2.85 265 13:18 30.06.2020
571 Clouds 26 1010 73 0 0.89 221 12:54 30.06.2020
572 Clouds 26 1010 73 0 1.79 261 12:36 30.06.2020
573 Rain 26 1010 75 0 1.34 217 12:18 30.06.2020
574 Rain 26 1010 76 0 2.68 213 11:39 30.06.2020
575 Rain 27 1010 74 0 2.24 161 11:20 30.06.2020
576 Rain 27 1010 72 0 0.45 153 10:59 30.06.2020
577 Clouds 28 1013 88 8047 1.5 310 16:45 28.06.2020
578 Clouds 28 1013 88 8047 1.5 310 16:27 28.06.2020
579 Clouds 27 1013 94 8047 1.5 320 15:59 28.06.2020
580 Clouds 27 1013 94 8047 1.5 320 15:39 28.06.2020
581 Clouds 26 1013 94 8047 1.5 320 15:20 28.06.2020
582 Clouds 26 1012 94 8047 2.5 273 14:55 28.06.2020
583 Clouds 26 1012 94 8047 2.5 273 14:37 28.06.2020
584 Clouds 25 1012 94 8047 2.44 282 14:19 28.06.2020
585 Clouds 25 1012 94 9656 2.77 281 13:38 28.06.2020
586 Clouds 25 1012 94 9656 2.51 288 13:20 28.06.2020
587 Clouds 26 1010 79 0 2.51 288 12:57 28.06.2020
588 Clouds 26 1010 79 0 2.51 288 12:37 28.06.2020
589 Clouds 26 1010 79 0 0.45 317 12:19 28.06.2020
590 Clouds 26 1010 78 0 0.89 269 11:57 28.06.2020
591 Clouds 26 1010 78 0 0.89 269 11:57 28.06.2020
592 Clouds 26 1010 78 0 0.45 304 11:39 28.06.2020
593 Rain 26 1010 78 0 0.89 296 11:20 28.06.2020
594 Rain 26 1011 78 0 0.89 279 10:55 28.06.2020
595 Rain 26 1011 78 0 0.89 293 10:36 28.06.2020
596 Rain 26 1011 78 0 0.89 293 10:36 28.06.2020
597 Rain 26 1011 78 0 0.89 293 10:36 28.06.2020
598 Rain 26 1011 78 0 0.45 299 10:18 28.06.2020
599 Rain 26 1011 78 0 0.45 287 09:39 28.06.2020
600 Rain 27 1011 77 0 2.83 260 09:21 28.06.2020
601 Rain 27 1012 77 0 0.45 278 08:48 28.06.2020
602 Rain 27 1012 76 0 1.34 277 08:26 28.06.2020
603 Rain 27 1012 73 0 1.65 238 07:49 28.06.2020
604 Rain 28 1012 73 0 1.65 238 07:29 28.06.2020
605 Clouds 28 1014 83 11265 1.06 129 06:43 28.06.2020
606 Clouds 28 1014 83 11265 2.18 99 06:24 28.06.2020
607 Clouds 28 1013 83 11265 3.05 81 05:26 28.06.2020
608 Clear 29 1012 79 11265 3.1 70 03:32 28.06.2020
609 Clear 30 1012 70 11265 2.1 80 02:39 28.06.2020
610 Clouds 31 1012 70 11265 3.6 80 01:53 28.06.2020
611 Clouds 31 1012 70 11265 3.6 80 01:26 28.06.2020
612 Clouds 31 1013 74 11265 4.1 70 00:46 28.06.2020
613 Clouds 31 1013 74 11265 4.1 70 00:46 28.06.2020
614 Clouds 31 1013 74 11265 4.1 70 00:24 28.06.2020
615 Clouds 31 1013 74 9656 2.6 100 23:41 27.06.2020
616 Clouds 31 1013 74 9656 2.6 100 23:23 27.06.2020
617 Clouds 32 1013 74 9656 4.1 50 22:58 27.06.2020
618 Clouds 31 1013 74 9656 4.1 50 22:40 27.06.2020
619 Clouds 32 1013 74 9656 4.1 50 22:19 27.06.2020
620 Haze 32 1014 74 8047 4.6 50 21:43 27.06.2020
621 Haze 32 1014 74 8047 4.6 50 21:21 27.06.2020
622 Haze 32 1014 70 8047 1 80 20:57 27.06.2020
623 Haze 32 1014 70 8047 1 80 20:57 27.06.2020
624 Haze 32 1014 70 8047 1 80 20:37 27.06.2020
625 Haze 32 1014 70 8047 1 80 20:18 27.06.2020
626 Haze 31 1015 70 8047 3.6 90 19:54 27.06.2020
627 Haze 31 1015 70 8047 3.6 90 19:36 27.06.2020
628 Haze 31 1015 70 8047 3.6 90 19:18 27.06.2020
629 Haze 31 1015 74 8047 1.5 100 18:43 27.06.2020
630 Haze 31 1015 74 8047 1.5 100 18:22 27.06.2020
631 Haze 31 1015 74 8047 0.85 326 17:54 27.06.2020
632 Haze 30 1015 74 8047 0.85 326 17:36 27.06.2020
633 Haze 30 1015 74 8047 2.04 313 17:18 27.06.2020
634 Mist 28 1015 88 8047 2.04 313 16:41 27.06.2020
635 Mist 27 1015 88 8047 2.62 303 16:23 27.06.2020
636 Haze 27 1014 88 8047 1.5 320 15:46 27.06.2020
637 Mist 26 1014 88 8047 1.5 320 15:25 27.06.2020
638 Mist 26 1014 94 8047 1.5 330 14:59 27.06.2020
639 Mist 26 1014 94 8047 1.5 330 14:40 27.06.2020
640 Mist 25 1014 94 8047 1.5 330 14:21 27.06.2020
641 Clouds 25 1014 100 9656 2.89 294 13:55 27.06.2020
642 Clouds 25 1014 100 9656 2.89 294 13:37 27.06.2020
643 Clouds 25 1014 100 9656 2.88 294 13:19 27.06.2020
644 Clouds 26 1012 77 0 0.89 306 12:41 27.06.2020
645 Rain 26 1012 76 0 0.45 28 12:22 27.06.2020
646 Rain 26 1012 76 0 1.34 277 11:59 27.06.2020
647 Rain 26 1013 77 0 3.13 278 11:40 27.06.2020
648 Rain 26 1013 77 0 3.13 278 11:40 27.06.2020
649 Rain 26 1013 77 0 3.13 278 11:22 27.06.2020
650 Rain 26 1013 77 0 3.13 278 11:22 27.06.2020
651 Rain 27 1013 76 0 0.45 262 10:42 27.06.2020
652 Rain 27 1013 76 0 0.45 262 10:19 27.06.2020
653 Rain 27 1013 76 0 1.34 233 09:59 27.06.2020
654 Rain 27 1013 76 0 0.89 271 09:39 27.06.2020
655 Rain 27 1013 76 0 0.89 271 09:20 27.06.2020
656 Rain 28 1014 73 0 0.89 304 08:44 27.06.2020
657 Rain 28 1014 73 0 0.89 304 08:23 27.06.2020
658 Rain 28 1014 74 0 0.89 306 07:48 27.06.2020
659 Rain 28 1014 71 0 0.45 92 07:26 27.06.2020
660 Clouds 28 1015 83 8047 1.44 354 06:52 27.06.2020
661 Clouds 28 1015 83 8047 1.44 354 06:33 27.06.2020
662 Clouds 29 1014 83 8047 3.1 80 04:52 27.06.2020
663 Clouds 29 1014 83 8047 3.1 80 04:18 27.06.2020
664 Dust 29 1013 79 6437 2.1 90 03:46 27.06.2020
665 Dust 30 1013 79 6437 5.1 90 02:42 27.06.2020
666 Dust 30 1013 79 6437 5.1 90 02:23 27.06.2020
667 Dust 30 1013 74 6437 4.1 100 01:28 27.06.2020
668 Dust 31 1013 70 6437 2.6 90 00:47 27.06.2020
669 Dust 31 1014 70 6437 5.7 70 23:47 26.06.2020
670 Dust 31 1014 70 6437 5.7 70 23:27 26.06.2020
671 Dust 32 1014 62 6437 4.6 60 22:58 26.06.2020
672 Dust 32 1014 62 6437 4.6 60 22:39 26.06.2020
673 Dust 32 1014 62 6437 4.6 60 22:21 26.06.2020
674 Haze 32 1015 62 4828 4.29 73 21:58 26.06.2020
675 Haze 32 1015 62 4828 4.29 73 21:39 26.06.2020
676 Haze 32 1015 62 4828 4.07 73 21:20 26.06.2020
677 Haze 32 1015 70 4828 3.6 100 20:47 26.06.2020
678 Haze 31 1015 70 4828 3.6 100 20:26 26.06.2020
679 Haze 31 1016 74 4828 2.6 100 19:47 26.06.2020
680 Haze 31 1016 74 4828 2.6 100 19:25 26.06.2020
681 -273 0 0 0 0 0 18:59 26.06.2020
682 Haze 31 1016 70 6437 1.5 80 18:40 26.06.2020
683 Haze 31 1016 70 6437 1.5 80 18:21 26.06.2020
684 Clouds 31 1015 74 8047 1.5 350 17:44 26.06.2020
685 Clouds 30 1015 74 8047 1.5 350 17:26 26.06.2020
686 Clouds 29 1015 78 8047 1.5 310 16:55 26.06.2020
687 Clouds 29 1015 78 8047 1.5 310 16:36 26.06.2020
688 Clouds 28 1015 78 8047 1.5 310 16:18 26.06.2020
689 Clouds 26 1014 88 8047 2.1 320 15:41 26.06.2020
690 Clouds 26 1014 88 8047 2.1 320 15:21 26.06.2020
691 Clouds 26 1014 88 8047 2.1 320 15:21 26.06.2020
692 Haze 25 1014 88 6437 2.09 322 14:57 26.06.2020
693 Haze 25 1014 88 6437 2.09 322 14:57 26.06.2020
694 Haze 25 1014 88 6437 2.09 322 14:38 26.06.2020
695 Haze 25 1014 88 6437 1.46 320 14:20 26.06.2020
696 Clouds 25 1014 88 8047 1.46 320 13:44 26.06.2020
697 Clouds 24 1014 88 8047 1.68 321 13:23 26.06.2020
698 Rain 25 1012 73 0 1.68 321 12:55 26.06.2020
699 Rain 25 1012 73 0 1.68 321 12:55 26.06.2020
700 Rain 25 1012 73 0 1.68 321 12:37 26.06.2020
701 Rain 25 1012 72 0 2.05 321 12:18 26.06.2020
702 Rain 25 1012 72 0 0.45 276 11:54 26.06.2020
703 Rain 25 1012 71 0 0.45 274 11:36 26.06.2020
704 Rain 25 1012 71 0 0.45 274 11:18 26.06.2020
705 Rain 25 1012 71 0 0.45 274 11:18 26.06.2020
706 Rain 25 1012 72 0 2.24 279 10:40 26.06.2020
707 Rain 25 1012 70 0 3.13 278 10:20 26.06.2020
708 Rain 25 1012 70 0 3.13 278 09:56 26.06.2020
709 Rain 26 1013 68 0 4.92 287 09:38 26.06.2020
710 Rain 26 1013 68 0 4.92 287 09:38 26.06.2020
711 Rain 26 1013 67 0 3.58 267 09:18 26.06.2020
712 Rain 28 1013 74 0 0.45 131 08:44 26.06.2020
713 Rain 28 1013 74 0 0.89 133 08:25 26.06.2020
714 Rain 28 1012 71 0 2.24 109 07:47 26.06.2020
715 Rain 28 1012 71 0 3.13 103 07:23 26.06.2020
716 Clouds 28 1014 83 9656 2.1 100 06:49 26.06.2020
717 Clouds 28 1014 83 9656 2.1 100 06:30 26.06.2020
718 Clouds 28 1013 88 9656 2.1 80 05:52 26.06.2020
719 Clouds 28 1013 88 9656 2.1 80 05:18 26.06.2020
720 Clouds 29 1011 79 9656 1 120 02:32 26.06.2020
721 Clouds 30 1011 70 9656 2.1 100 01:34 26.06.2020
722 Clouds 31 1011 74 11265 2.88 55 00:46 26.06.2020
723 Clouds 31 1011 74 11265 3.17 33 00:27 26.06.2020
724 Clouds 31 1011 70 11265 1.5 80 23:47 25.06.2020
725 Clouds 31 1011 70 11265 1.5 80 23:22 25.06.2020
726 Clouds 31 1012 66 9656 1.5 140 22:58 25.06.2020
727 Clouds 31 1012 66 9656 1.5 140 22:39 25.06.2020
728 Clouds 31 1012 66 9656 1.5 140 22:20 25.06.2020
729 Clouds 31 1012 66 9656 2.1 100 21:57 25.06.2020
730 Clouds 31 1012 66 9656 2.1 100 21:39 25.06.2020
731 Clouds 31 1012 66 9656 2.1 100 21:20 25.06.2020
732 Clouds 31 1013 62 11265 1.5 100 20:56 25.06.2020
733 Clouds 31 1013 62 11265 1.5 100 20:37 25.06.2020
734 Clouds 31 1013 62 11265 1.5 100 20:19 25.06.2020
735 Clouds 31 1013 70 11265 2.1 180 19:41 25.06.2020
736 Clouds 30 1012 70 11265 2.21 36 19:20 25.06.2020
737 Clouds 30 1012 70 11265 2.21 36 18:59 25.06.2020
738 Clouds 30 1012 70 11265 2.21 36 18:39 25.06.2020
739 Clouds 30 1012 70 11265 0.96 3 18:20 25.06.2020
740 Clouds 28 1012 74 11265 1.5 330 17:44 25.06.2020
741 Clouds 28 1012 74 11265 1.5 330 17:44 25.06.2020
742 Clouds 28 1012 83 11265 0.58 278 17:20 25.06.2020
743 Clouds 26 1012 94 9656 0.58 278 16:58 25.06.2020
744 Clouds 25 1012 94 9656 0.58 278 16:37 25.06.2020
745 Clouds 25 1012 94 9656 0.99 206 16:19 25.06.2020
746 Rain 25 1012 94 9656 0.99 206 15:42 25.06.2020
747 Rain 24 1012 94 9656 1.53 199 15:22 25.06.2020
748 Haze 23 1011 100 8047 1.53 199 14:46 25.06.2020
749 Mist 23 1011 100 8047 1.98 212 14:25 25.06.2020
750 Clouds 23 1011 100 9656 1.75 194 13:59 25.06.2020
751 Clouds 23 1011 100 9656 1.75 194 13:59 25.06.2020
752 Clouds 23 1011 100 9656 1.75 194 13:59 25.06.2020
753 Clouds 23 1011 100 9656 1.75 194 13:41 25.06.2020
754 Clouds 23 1011 100 9656 2.04 210 13:19 25.06.2020
755 Clouds 23 1011 100 9656 2.04 210 13:19 25.06.2020
756 Clouds 23 1009 82 0 0.89 253 12:55 25.06.2020
757 Rain 23 1009 82 0 2.24 257 12:37 25.06.2020
758 Rain 23 1009 82 0 1.34 255 12:18 25.06.2020
759 Rain 23 1009 82 0 2.68 286 11:42 25.06.2020
760 Rain 23 1009 82 0 3.13 281 11:21 25.06.2020
761 Rain 24 1010 82 0 1.34 222 10:43 25.06.2020
762 Rain 24 1010 82 0 2.24 315 10:25 25.06.2020
763 Rain 24 1011 81 0 0.89 257 09:42 25.06.2020
764 Rain 24 1011 80 0 6.26 304 09:23 25.06.2020
765 Rain 24 1011 80 0 6.26 304 09:23 25.06.2020
766 Rain 27 1010 71 0 4.02 249 08:59 25.06.2020
767 Rain 28 1010 76 0 2.24 279 08:41 25.06.2020
768 Rain 28 1010 75 0 0.45 155 08:18 25.06.2020
769 Rain 28 1010 74 0 0.89 107 07:42 25.06.2020
770 Rain 28 1010 74 0 0.89 95 07:24 25.06.2020
771 Clouds 28 1010 88 11265 2.6 110 06:44 25.06.2020
772 Clouds 28 1010 88 11265 2.6 110 06:24 25.06.2020
773 Clouds 29 1010 83 11265 2.6 100 05:38 25.06.2020
774 Clouds 29 1008 79 11265 2.6 70 03:49 25.06.2020
775 Clouds 29 1008 79 11265 1.5 70 02:58 25.06.2020
776 Clouds 30 1008 79 11265 1.5 70 02:40 25.06.2020
777 Clouds 30 1008 74 11265 2.1 50 01:43 25.06.2020
778 Clouds 30 1008 74 11265 3.1 100 00:51 25.06.2020
779 Clouds 30 1008 74 11265 3.1 100 00:25 25.06.2020
780 Clouds 31 1009 66 9656 2.6 110 23:59 24.06.2020
781 Clouds 31 1009 66 9656 2.6 110 23:38 24.06.2020
782 Clouds 31 1009 66 9656 2.6 110 23:20 24.06.2020
783 Clouds 31 1010 70 9656 1.5 160 22:43 24.06.2020
784 Clouds 31 1010 70 9656 1.5 160 22:22 24.06.2020
785 Clouds 31 1010 66 8047 1.5 150 21:57 24.06.2020
786 Clouds 31 1010 66 8047 1.5 150 21:38 24.06.2020
787 Clouds 31 1010 66 8047 1.5 150 21:20 24.06.2020
788 Clouds 30 1011 70 6437 2.1 80 20:59 24.06.2020
789 Clouds 30 1011 70 6437 2.1 80 20:41 24.06.2020
790 Clouds 30 1011 70 6437 2.1 80 20:22 24.06.2020
791 Clouds 29 1012 83 6437 1.06 189 19:59 24.06.2020
792 Clouds 29 1012 83 6437 1.06 189 19:59 24.06.2020
793 Clouds 28 1012 83 6437 1.06 189 19:39 24.06.2020
794 Clouds 28 1012 83 6437 1.74 221 19:21 24.06.2020
795 Haze 27 1012 88 4828 1.5 200 18:58 24.06.2020
796 Haze 27 1012 88 4828 1.5 200 18:58 24.06.2020
797 Haze 27 1012 88 4828 1.5 200 18:40 24.06.2020
798 Haze 27 1012 88 4828 1.5 200 18:21 24.06.2020
799 Clouds 26 1012 94 6437 2.3 211 17:56 24.06.2020
800 Clouds 26 1012 94 6437 2.3 211 17:38 24.06.2020
801 Clouds 26 1012 94 6437 2.03 211 17:19 24.06.2020
802 Clouds 25 1012 100 6437 2.03 211 16:56 24.06.2020
803 Clouds 25 1012 100 6437 2.03 211 16:37 24.06.2020
804 Clouds 25 1012 100 6437 1.42 200 16:19 24.06.2020
805 Clouds 25 1011 94 6437 1.42 200 15:55 24.06.2020
806 Clouds 25 1011 94 6437 1.42 200 15:37 24.06.2020
807 Clouds 24 1011 94 6437 1.86 163 15:18 24.06.2020
808 Clouds 24 1010 100 8047 1.86 163 14:42 24.06.2020
809 Clouds 24 1010 100 8047 3.09 227 14:22 24.06.2020
810 Clouds 24 1010 94 8047 3.09 227 13:43 24.06.2020
811 Clouds 24 1010 94 8047 3.99 196 13:22 24.06.2020
812 Rain 23 1008 82 0 0.45 150 12:54 24.06.2020
813 Rain 23 1007 82 0 3.99 196 12:36 24.06.2020
814 Rain 23 1007 82 0 0.45 180 12:18 24.06.2020
815 Rain 24 1008 82 0 0.89 246 11:42 24.06.2020
816 Rain 24 1008 82 0 0.89 246 11:42 24.06.2020
817 Rain 24 1009 82 0 1.34 251 11:24 24.06.2020
818 Rain 24 1009 82 0 1.34 242 10:55 24.06.2020
819 Rain 24 1009 82 0 1.34 234 10:36 24.06.2020
820 Rain 24 1009 82 0 1.34 204 10:18 24.06.2020
821 Rain 24 1010 81 0 0.45 211 09:42 24.06.2020
822 Rain 24 1010 81 0 0.89 193 09:21 24.06.2020
823 Rain 24 1010 80 0 4.61 180 08:41 24.06.2020
824 Rain 24 1010 80 0 0.89 232 08:20 24.06.2020
825 Rain 24 1010 80 0 1.34 233 07:50 24.06.2020
826 Rain 23 1010 80 0 1.79 257 07:29 24.06.2020
827 Rain 23 1013 100 9656 1.5 200 06:49 24.06.2020
828 Rain 23 1013 100 9656 1.5 200 06:25 24.06.2020
829 Rain 23 1012 100 9656 7.05 187 05:48 24.06.2020
830 Rain 23 1011 94 9656 3.1 260 04:42 24.06.2020
831 Rain 24 1012 94 8047 7.7 200 03:51 24.06.2020
832 Rain 26 1010 88 9656 1.5 100 03:33 24.06.2020
833 Clouds 29 1009 79 9656 3.1 80 02:41 24.06.2020
834 Clouds 30 1008 74 9656 3.6 100 01:19 24.06.2020
835 Clouds 30 1007 66 11265 2.6 90 00:41 24.06.2020
836 Clouds 31 1007 66 11265 2.6 90 00:21 24.06.2020
837 Clouds 31 1008 70 11265 3.6 90 23:41 23.06.2020
838 Clouds 31 1008 70 11265 3.6 90 23:19 23.06.2020
839 Clouds 32 1009 70 11265 3.1 100 22:42 23.06.2020
840 Clouds 32 1009 70 11265 3.1 100 22:19 23.06.2020
841 Clouds 32 1010 70 11265 2.1 100 21:59 23.06.2020
842 Clouds 32 1010 70 11265 2.1 100 21:38 23.06.2020
843 Clouds 32 1010 70 11265 2.1 100 21:19 23.06.2020
844 Clouds 32 1011 74 11265 2.6 110 20:55 23.06.2020
845 Clouds 31 1011 74 11265 2.6 110 20:37 23.06.2020
846 Clouds 32 1011 74 11265 2.6 110 20:18 23.06.2020
847 Clouds 32 1011 70 9656 1 100 19:44 23.06.2020
848 Clouds 32 1011 70 9656 1 100 19:44 23.06.2020
849 Clouds 32 1011 70 9656 1 100 19:24 23.06.2020
850 Clouds 32 1011 66 9656 2.47 105 18:40 23.06.2020
851 Clouds 32 1011 66 9656 1.59 128 18:19 23.06.2020
852 Clouds 30 1011 79 9656 1.59 128 17:44 23.06.2020
853 Clouds 30 1011 79 9656 0.8 190 17:25 23.06.2020
854 Clouds 29 1011 83 9656 0.8 190 16:57 23.06.2020
855 Clouds 29 1011 83 9656 0.8 190 16:39 23.06.2020
856 Clouds 29 1011 83 9656 1.41 225 16:21 23.06.2020
857 Clouds 27 1011 94 8047 1.41 225 15:59 23.06.2020
858 Clouds 27 1011 94 8047 1.41 225 15:41 23.06.2020
859 Clouds 27 1011 94 8047 1.47 234 15:23 23.06.2020
860 Clouds 27 1010 94 8047 1 290 14:54 23.06.2020
861 Clouds 26 1010 94 8047 1 290 14:36 23.06.2020
862 Clouds 26 1010 94 8047 1 290 14:18 23.06.2020
863 Clouds 26 1010 94 9656 1.85 230 13:42 23.06.2020
864 Clouds 26 1010 94 9656 1.73 230 13:23 23.06.2020
865 Clouds 26 1010 94 9656 1.73 230 13:23 23.06.2020
866 Clouds 27 1009 78 0 0.89 255 12:46 23.06.2020
867 Clouds 27 1009 78 0 1.34 271 12:23 23.06.2020
868 Clouds 27 1009 77 0 0.89 289 11:59 23.06.2020
869 Clouds 27 1009 77 0 0.89 304 11:40 23.06.2020
870 Clouds 27 1009 76 0 0.45 324 11:20 23.06.2020
871 Clouds 27 1009 78 0 0.89 297 10:58 23.06.2020
872 Clouds 27 1009 78 0 0.89 293 10:39 23.06.2020
873 Clouds 27 1010 76 0 0.45 298 10:21 23.06.2020
874 Clouds 27 1010 76 0 0.45 298 10:21 23.06.2020
875 Clouds 27 1010 76 0 0.45 290 09:43 23.06.2020
876 Clouds 27 1010 76 0 0.45 290 09:21 23.06.2020
877 Clouds 27 1011 75 0 0.45 290 08:59 23.06.2020
878 Clouds 27 1011 75 0 1.34 292 08:41 23.06.2020
879 Clouds 27 1011 74 0 1.34 278 08:22 23.06.2020
880 Clouds 28 1011 74 0 0.45 294 07:43 23.06.2020
881 Clouds 28 1013 83 9656 1.5 90 07:24 23.06.2020
882 Clouds 28 1013 83 9656 1.5 90 06:51 23.06.2020
883 Clouds 28 1013 83 9656 1.5 90 06:31 23.06.2020
884 Clouds 28 1012 83 9656 1 80 05:46 23.06.2020
885 Clouds 29 1012 83 9656 3.6 70 04:39 23.06.2020
886 Mist 29 1011 83 9656 2.6 60 03:18 23.06.2020
887 Haze 29 1010 79 9656 4.1 70 02:42 23.06.2020
888 Mist 29 1010 79 9656 4.1 70 02:24 23.06.2020
889 Mist 30 1010 83 9656 3.1 70 01:43 23.06.2020
890 Mist 30 1010 83 9656 3.1 70 01:20 23.06.2020
891 Clouds 31 1011 79 11265 3.1 60 00:24 23.06.2020
892 Clouds 31 1011 74 11265 2.6 100 23:58 22.06.2020
893 Clouds 31 1011 74 11265 2.6 100 23:39 22.06.2020
894 Clouds 32 1011 74 11265 2.6 100 23:19 22.06.2020
895 Clouds 32 1011 74 11265 3.6 90 22:57 22.06.2020
896 Clouds 32 1011 74 11265 3.6 90 22:39 22.06.2020
897 Clouds 32 1011 74 11265 3.6 90 22:20 22.06.2020
898 Clouds 32 1012 66 11265 2.6 80 21:57 22.06.2020
899 Clouds 32 1012 66 11265 2.6 80 21:38 22.06.2020
900 Clouds 32 1012 66 11265 2.6 80 21:20 22.06.2020
901 Clouds 33 1012 66 11265 3.6 90 20:44 22.06.2020
902 Clouds 32 1012 66 11265 3.6 90 20:25 22.06.2020
903 Clouds 32 1013 70 11265 4.6 70 19:58 22.06.2020
904 Clear 33 1011 58 0 3.13 111 19:38 22.06.2020
905 Clouds 31 1013 74 9656 2.6 50 19:18 22.06.2020
906 Clouds 31 1013 74 9656 2.6 50 18:41 22.06.2020
907 Clouds 31 1013 74 9656 2.6 50 18:23 22.06.2020
908 Clouds 31 1014 79 9656 0.93 68 17:57 22.06.2020
909 Clouds 30 1014 79 9656 0.93 68 17:38 22.06.2020
910 Clouds 30 1014 79 9656 0.81 319 17:20 22.06.2020
911 Clouds 29 1014 88 9656 2.6 310 16:56 22.06.2020
912 Clouds 28 1014 88 9656 2.6 310 16:38 22.06.2020
913 Clouds 28 1014 88 9656 2.6 310 16:18 22.06.2020
914 Clouds 27 1013 100 9656 1.39 276 15:44 22.06.2020
915 Clouds 27 1013 100 9656 1.09 257 15:25 22.06.2020
916 Clouds 26 1013 94 9656 1.09 257 14:57 22.06.2020
917 Clouds 26 1013 94 9656 1.09 257 14:37 22.06.2020
918 Clouds 26 1013 94 9656 0.77 235 14:18 22.06.2020
919 Clouds 26 1012 100 9656 1.07 207 13:40 22.06.2020
920 Clouds 26 1012 100 9656 0.58 210 13:22 22.06.2020
921 -273 0 0 0 0 0 12:59 22.06.2020
922 Rain 27 1011 79 0 0.89 207 12:59 22.06.2020
923 Rain 27 1010 79 0 0.58 210 12:40 22.06.2020
924 Rain 27 1010 79 0 0.89 232 12:22 22.06.2020
925 Clouds 27 1010 76 0 0.71 218 11:38 22.06.2020
926 Clouds 27 1010 76 0 0.71 218 11:38 22.06.2020
927 Clouds 27 1010 77 0 0.45 237 11:19 22.06.2020
928 Clouds 27 1011 77 0 2.24 266 10:57 22.06.2020
929 Clouds 28 1011 75 0 0.89 322 10:38 22.06.2020
930 Rain 28 1011 75 0 0.45 275 10:19 22.06.2020
931 Rain 28 1011 76 0 0.89 291 09:57 22.06.2020
932 Rain 28 1012 75 0 0.58 204 09:38 22.06.2020
933 Clouds 27 1012 77 0 0.45 269 09:19 22.06.2020
934 Clouds 28 1012 75 0 0.31 128 08:56 22.06.2020
935 Clouds 27 1012 76 0 0.31 128 08:37 22.06.2020
936 Clouds 27 1012 76 0 0.92 80 08:18 22.06.2020
937 Clouds 27 1012 76 0 0.92 80 08:18 22.06.2020
938 Clouds 28 1013 73 0 0.92 80 07:46 22.06.2020
939 Clouds 27 1013 74 0 2.13 89 07:25 22.06.2020
940 Clouds 27 1014 88 9656 2.13 89 06:39 22.06.2020
941 Clouds 27 1014 88 9656 2.85 85 06:20 22.06.2020
942 Clouds 28 1013 83 9656 1.5 90 05:42 22.06.2020
943 Clouds 29 1011 83 9656 3.1 60 03:41 22.06.2020
944 Clouds 31 1011 70 9656 3.1 70 01:48 22.06.2020
945 Clouds 32 1012 62 11265 3.1 70 00:54 22.06.2020
946 Clouds 32 1012 62 11265 3.1 70 00:29 22.06.2020
947 Clouds 32 1012 70 11265 2.6 30 23:56 21.06.2020
948 Clouds 32 1012 70 11265 2.6 30 23:37 21.06.2020
949 Clouds 32 1012 70 11265 2.6 30 23:19 21.06.2020
950 Clouds 32 1012 62 9656 1.5 110 22:55 21.06.2020
951 Clouds 32 1012 62 9656 1.5 110 22:36 21.06.2020
952 Clouds 32 1012 62 9656 1.5 110 22:18 21.06.2020
953 Clouds 32 1013 62 8047 6.2 60 21:55 21.06.2020
954 Clouds 32 1013 62 8047 6.2 60 21:37 21.06.2020
955 Clouds 32 1013 62 8047 6.2 60 21:18 21.06.2020
956 Clouds 32 1014 70 8047 2.1 30 20:40 21.06.2020
957 Clouds 32 1014 70 8047 2.1 30 20:40 21.06.2020
958 Clouds 31 1014 70 8047 2.1 30 20:21 21.06.2020
959 Clouds 31 1014 70 11265 2.1 60 19:59 21.06.2020
960 Clouds 31 1014 70 11265 2.1 60 19:40 21.06.2020
961 Clouds 31 1014 70 11265 2.1 60 19:20 21.06.2020
962 Clouds 31 1015 66 8047 1.68 65 18:56 21.06.2020
963 Clouds 30 1015 66 8047 1.68 65 18:38 21.06.2020
964 Clouds 31 1015 66 8047 0.6 44 18:19 21.06.2020
965 Clouds 29 1015 74 8047 0.6 44 17:41 21.06.2020
966 Clouds 29 1015 74 8047 0.57 310 17:21 21.06.2020
967 Clear 28 1014 88 8047 0.57 310 16:57 21.06.2020
968 Clear 28 1014 88 8047 0.57 310 16:39 21.06.2020
969 Clear 28 1014 88 8047 1.33 277 16:21 21.06.2020
970 Clear 25 1014 100 8047 1.33 277 15:40 21.06.2020
971 Clear 25 1014 100 8047 1.33 277 15:40 21.06.2020
972 Clear 25 1014 100 8047 1.33 277 15:40 21.06.2020
973 Clear 25 1014 100 8047 1.2 271 15:22 21.06.2020
974 Clear 24 1014 100 11265 1.2 271 14:58 21.06.2020
975 Clear 23 1014 100 11265 1.2 271 14:37 21.06.2020
976 Clear 23 1014 100 11265 0.63 293 14:19 21.06.2020
977 Clear 24 1013 94 11265 0.63 293 13:55 21.06.2020
978 Clear 24 1013 94 11265 0.63 293 13:36 21.06.2020
979 Clear 24 1013 94 11265 0.31 345 13:18 21.06.2020
980 Clouds 24 1012 81 0 0.31 345 12:42 21.06.2020
981 Clouds 24 1011 82 0 0.26 16 12:23 21.06.2020
982 Clouds 24 1012 81 0 0.26 16 11:43 21.06.2020
983 Clouds 24 1012 81 0 0.45 262 11:25 21.06.2020
984 Clouds 25 1012 78 0 0.45 290 10:59 21.06.2020
985 Clouds 26 1012 78 0 0.2 76 10:40 21.06.2020
986 Clouds 27 1012 75 0 0.55 100 10:22 21.06.2020
987 Clouds 26 1012 76 0 0.45 36 09:55 21.06.2020
988 Clouds 26 1012 77 0 0.55 100 09:36 21.06.2020
989 Clouds 26 1012 76 0 0.45 347 09:18 21.06.2020
990 Clouds 27 1013 75 0 0.45 324 08:41 21.06.2020
991 Clouds 26 1013 75 0 1.26 72 08:21 21.06.2020
992 Clouds 27 1014 74 0 1.26 72 07:59 21.06.2020
993 Clouds 27 1013 73 0 0.89 334 07:40 21.06.2020
994 Clouds 27 1015 88 11265 1.5 330 07:20 21.06.2020
995 Clouds 27 1015 88 11265 1.5 330 07:20 21.06.2020
996 Clouds 27 1015 88 11265 1.5 330 06:46 21.06.2020
997 Clouds 27 1014 83 11265 1.89 60 05:58 21.06.2020
998 Clouds 28 1013 78 11265 2.1 40 04:49 21.06.2020
999 Clouds 28 1013 78 11265 3.1 60 03:20 21.06.2020
1000 Clouds 29 1012 74 11265 3.1 30 02:49 21.06.2020
1001 Clouds 30 1012 74 11265 6.2 40 01:48 21.06.2020
1002 Clouds 30 1012 74 11265 6.2 40 01:21 21.06.2020
1003 Clouds 30 1013 79 11265 5.1 50 00:55 21.06.2020
1004 Clouds 30 1013 79 11265 5.1 50 00:36 21.06.2020
1005 Clouds 30 1013 74 11265 3.6 30 00:18 21.06.2020
1006 Clouds 30 1013 74 11265 3.6 30 23:41 20.06.2020
1007 Clouds 30 1013 74 11265 3.6 30 23:21 20.06.2020
1008 Clouds 30 1014 79 11265 4.6 50 22:55 20.06.2020
1009 Clouds 30 1014 79 11265 4.6 50 22:36 20.06.2020
1010 Clouds 29 1014 79 11265 4.6 50 22:18 20.06.2020
1011 Clouds 29 1014 78 11265 5.7 50 21:55 20.06.2020
1012 Clouds 29 1014 78 11265 5.7 50 21:37 20.06.2020
1013 Clouds 29 1014 78 11265 5.7 50 21:18 20.06.2020
1014 Clouds 29 1014 83 9656 2.6 350 20:54 20.06.2020
1015 Clouds 28 1014 83 9656 2.6 350 20:36 20.06.2020
1016 Clouds 28 1014 83 9656 2.6 350 20:18 20.06.2020
1017 Clouds 28 1014 83 9656 2.6 350 20:18 20.06.2020
1018 Clouds 28 1014 94 9656 3.1 10 19:42 20.06.2020
1019 Clouds 27 1014 94 9656 3.1 10 19:21 20.06.2020
1020 Clouds 28 1015 88 9656 2.1 10 18:43 20.06.2020
1021 Clouds 28 1015 88 9656 2.1 10 18:21 20.06.2020
1022 Clouds 28 1014 88 8047 2.66 24 17:58 20.06.2020
1023 Clouds 28 1014 88 8047 2.66 24 17:40 20.06.2020
1024 Clouds 27 1014 88 8047 2.4 357 17:21 20.06.2020
1025 Rain 26 1014 94 8047 2.4 357 16:56 20.06.2020
1026 Rain 26 1014 94 8047 2.4 357 16:38 20.06.2020
1027 Rain 26 1014 94 8047 2.16 336 16:18 20.06.2020
1028 Haze 25 1013 94 8047 2.6 320 15:42 20.06.2020
1029 Mist 25 1013 94 8047 2.6 320 15:18 20.06.2020
1030 Mist 25 1013 94 8047 1 340 14:43 20.06.2020
1031 Mist 25 1013 94 8047 1 340 14:22 20.06.2020
1032 Clouds 25 1012 94 9656 2.1 340 13:55 20.06.2020
1033 Clouds 25 1012 94 9656 2.1 340 13:37 20.06.2020
1034 Clouds 25 1012 94 9656 2.1 340 13:19 20.06.2020
1035 Clouds 25 1010 82 0 1.47 319 12:42 20.06.2020
1036 Clouds 25 1010 81 0 1.46 314 12:21 20.06.2020
1037 Clouds 26 1010 81 0 1.46 314 11:57 20.06.2020
1038 Clouds 26 1010 81 0 1.46 314 11:38 20.06.2020
1039 Clouds 26 1010 81 0 1.82 308 11:20 20.06.2020
1040 Clouds 25 1011 81 0 0.89 283 10:50 20.06.2020
1041 Rain 25 1011 81 0 0.89 304 10:23 20.06.2020
1042 Rain 25 1012 80 0 1.79 213 09:57 20.06.2020
1043 Rain 25 1012 80 0 1.79 213 09:39 20.06.2020
1044 Rain 26 1012 76 0 1.79 138 09:21 20.06.2020
1045 Rain 26 1012 74 0 2.24 230 08:48 20.06.2020
1046 Rain 26 1012 74 0 2.24 230 08:30 20.06.2020
1047 Rain 28 1013 67 0 0.45 335 07:53 20.06.2020
1048 Rain 28 1013 70 0 0.45 119 07:28 20.06.2020
1049 Clouds 27 1015 83 11265 1 70 06:58 20.06.2020
1050 Clouds 27 1015 83 11265 1 70 06:24 20.06.2020
1051 Clouds 28 1014 83 11265 1 70 05:54 20.06.2020
1052 Clouds 28 1014 83 11265 1 70 05:25 20.06.2020
1053 Clouds 29 1012 79 11265 5.7 90 02:53 20.06.2020
1054 Clouds 30 1012 74 11265 4.1 70 01:49 20.06.2020
1055 Clouds 30 1012 74 11265 4.1 70 01:22 20.06.2020
1056 Clouds 31 1012 70 11265 4.1 80 00:22 20.06.2020
1057 Clouds 32 1012 59 11265 5.7 60 23:58 19.06.2020
1058 Clouds 32 1012 59 11265 5.7 60 23:38 19.06.2020
1059 Clouds 32 1012 59 11265 5.7 60 23:18 19.06.2020
1060 Clouds 32 1013 66 11265 6.2 70 22:41 19.06.2020
1061 Clouds 32 1013 66 11265 6.2 70 22:23 19.06.2020
1062 Clouds 32 1013 66 8047 5.1 40 21:59 19.06.2020
1063 Clouds 32 1013 66 8047 5.1 40 21:38 19.06.2020
1064 Clouds 31 1013 66 8047 5.1 40 21:18 19.06.2020
1065 Clouds 31 1013 70 8047 3.6 80 20:58 19.06.2020
1066 Clouds 31 1013 70 8047 3.6 80 20:40 19.06.2020
1067 Clouds 31 1013 70 8047 3.6 80 20:21 19.06.2020
1068 Clouds 31 1013 66 8047 3.6 10 19:57 19.06.2020
1069 Clouds 31 1013 66 8047 3.6 10 19:39 19.06.2020
1070 Clouds 31 1013 66 8047 3.6 10 19:21 19.06.2020
1071 Rain 31 1013 70 8047 3.05 53 18:42 19.06.2020
1072 Clouds 30 1013 70 8047 2.16 32 18:22 19.06.2020
1073 Clouds 30 1013 79 8047 2.16 32 17:58 19.06.2020
1074 Clouds 29 1013 79 8047 2.16 32 17:39 19.06.2020
1075 Clouds 29 1013 79 8047 1.77 341 17:20 19.06.2020
1076 Clouds 28 1013 88 8047 1.77 341 16:55 19.06.2020
1077 Clouds 28 1013 88 8047 1.77 341 16:37 19.06.2020
1078 Clouds 28 1013 88 8047 2.32 307 16:18 19.06.2020
1079 Clouds 26 1013 94 8047 2.32 307 15:42 19.06.2020
1080 Clouds 26 1013 94 8047 1.97 290 15:21 19.06.2020
1081 Clouds 25 1013 94 9656 1.97 290 14:56 19.06.2020
1082 Clouds 25 1013 94 9656 1.97 290 14:38 19.06.2020
1083 Clouds 25 1013 94 9656 1.01 303 14:19 19.06.2020
1084 Clouds 25 1012 94 11265 1.01 303 13:44 19.06.2020
1085 Clouds 25 1012 94 11265 0.67 351 13:26 19.06.2020
1086 Clouds 26 1010 79 0 0.67 351 12:48 19.06.2020
1087 Rain 26 1010 79 0 0.45 298 12:23 19.06.2020
1088 Rain 26 1011 78 0 0.45 300 11:59 19.06.2020
1089 Clouds 25 1011 78 0 0.5 19 11:40 19.06.2020
1090 Clouds 25 1011 78 0 0.4 15 11:18 19.06.2020
1091 Rain 26 1011 78 0 0.45 272 10:46 19.06.2020
1092 Rain 26 1011 76 0 0.89 113 10:27 19.06.2020
1093 -273 0 0 0 0 0 09:59 19.06.2020
1094 Rain 26 1011 76 0 0.45 266 09:59 19.06.2020
1095 Rain 26 1011 76 0 0.45 266 09:41 19.06.2020
1096 Rain 27 1012 71 0 1.34 173 09:20 19.06.2020
1097 Rain 27 1012 73 0 0.45 313 08:44 19.06.2020
1098 Rain 27 1012 73 0 0.45 313 08:26 19.06.2020
1099 Rain 27 1012 73 0 1.38 2 07:56 19.06.2020
1100 Rain 27 1012 71 0 0.45 343 07:38 19.06.2020
1101 Clouds 28 1014 83 11265 1.52 3 07:20 19.06.2020
1102 Clouds 28 1014 83 11265 1.45 33 06:25 19.06.2020
1103 Clouds 28 1013 83 11265 1 80 05:46 19.06.2020
1104 Clouds 28 1012 83 11265 3.1 70 04:27 19.06.2020
1105 Clouds 29 1011 79 11265 4.1 50 02:51 19.06.2020
1106 Clouds 31 1011 66 9656 4.6 50 00:56 19.06.2020
1107 Clouds 31 1011 66 9656 4.6 50 00:37 19.06.2020
1108 Clouds 31 1011 66 9656 4.6 50 00:18 19.06.2020
1109 Clear 32 1012 62 9656 4.6 60 23:41 18.06.2020
1110 Clear 32 1012 62 9656 4.6 60 23:23 18.06.2020
1111 Clear 32 1012 70 9656 4.6 70 22:59 18.06.2020
1112 Clear 32 1012 70 9656 4.6 70 22:37 18.06.2020
1113 Clear 32 1012 70 9656 4.6 70 22:18 18.06.2020
1114 Clear 32 1012 70 9656 4.6 70 22:18 18.06.2020
1115 Clear 32 1013 62 9656 2.6 120 21:39 18.06.2020
1116 Clear 32 1013 62 9656 2.6 120 21:20 18.06.2020
1117 Rain 32 1013 66 9656 2.1 100 20:57 18.06.2020
1118 Rain 31 1013 66 9656 2.1 100 20:38 18.06.2020
1119 Rain 31 1013 66 9656 2.1 100 20:18 18.06.2020
1120 Clouds 30 1014 70 9656 3.6 70 19:42 18.06.2020
1121 Clouds 30 1014 70 9656 3.6 70 19:21 18.06.2020
1122 Clouds 30 1014 70 9656 2.76 36 18:57 18.06.2020
1123 Clouds 30 1014 70 9656 2.76 36 18:37 18.06.2020
1124 Clouds 30 1014 70 9656 2.02 12 18:19 18.06.2020
1125 Clouds 29 1014 79 9656 2.02 12 17:45 18.06.2020
1126 Clouds 29 1014 79 9656 1.73 330 17:25 18.06.2020
1127 Clouds 28 1014 88 9656 1.73 330 16:56 18.06.2020
1128 Clouds 28 1014 88 9656 1.73 330 16:37 18.06.2020
1129 Clouds 27 1014 88 9656 2.04 302 16:18 18.06.2020
1130 Clouds 25 1014 100 9656 2.04 302 15:55 18.06.2020
1131 Clouds 25 1014 100 9656 2.04 302 15:37 18.06.2020
1132 Clouds 25 1014 100 9656 2.1 302 15:18 18.06.2020
1133 Clouds 24 1013 94 8047 2.1 302 14:41 18.06.2020
1134 Clouds 24 1013 94 8047 2.15 285 14:23 18.06.2020
1135 Clouds 24 1013 94 8047 2.15 285 13:58 18.06.2020
1136 Clouds 24 1013 94 8047 2.15 285 13:40 18.06.2020
1137 Rain 24 1013 94 8047 2.11 295 13:19 18.06.2020
1138 Rain 24 1011 80 0 2.11 295 12:55 18.06.2020
1139 Rain 24 1011 79 0 2.11 295 12:36 18.06.2020
1140 Rain 24 1011 78 0 0.45 9 12:18 18.06.2020
1141 Rain 25 1011 78 0 4.02 330 11:44 18.06.2020
1142 Rain 26 1011 77 0 4.92 331 11:21 18.06.2020
1143 Rain 26 1012 77 0 1.34 241 10:41 18.06.2020
1144 Rain 26 1012 77 0 1.34 281 10:20 18.06.2020
1145 Rain 26 1012 78 0 1.9 293 09:58 18.06.2020
1146 Rain 27 1012 75 0 0.45 313 09:39 18.06.2020
1147 Rain 27 1012 75 0 0.45 313 09:39 18.06.2020
1148 Rain 27 1013 71 0 1.79 49 09:21 18.06.2020
1149 Rain 28 1013 68 0 0.89 58 08:40 18.06.2020
1150 Rain 28 1013 68 0 0.89 58 08:21 18.06.2020
1151 Rain 28 1013 68 0 0.89 51 07:47 18.06.2020
1152 Rain 29 1013 67 0 2.24 40 07:27 18.06.2020
1153 Clouds 28 1015 83 11265 1.5 10 06:59 18.06.2020
1154 Clouds 28 1015 83 11265 1.5 10 06:20 18.06.2020
1155 Clouds 28 1013 78 11265 2.6 40 04:25 18.06.2020
1156 Clouds 29 1012 74 11265 3.6 70 02:51 18.06.2020
1157 Clear 30 1012 70 11265 3.6 70 01:29 18.06.2020
1158 Clear 31 1013 70 11265 4.6 80 00:57 18.06.2020
1159 Clear 31 1013 70 11265 4.6 80 00:38 18.06.2020
1160 Clear 31 1013 70 11265 4.6 80 00:20 18.06.2020
1161 Clear 31 1013 66 11265 3.6 80 23:43 17.06.2020
1162 Clear 32 1013 66 11265 3.6 80 23:21 17.06.2020
1163 Clouds 32 1014 66 11265 2.6 100 22:57 17.06.2020
1164 Clouds 32 1014 66 11265 2.6 100 22:38 17.06.2020
1165 Clouds 32 1014 66 11265 2.6 100 22:20 17.06.2020
1166 Clouds 31 1015 62 11265 4.6 70 21:55 17.06.2020
1167 Clouds 31 1015 62 11265 4.6 70 21:37 17.06.2020
1168 Clouds 31 1015 62 11265 1 360 21:18 17.06.2020
1169 Clouds 31 1015 62 11265 1 360 21:18 17.06.2020
1170 Clouds 32 1015 62 11265 1 360 20:38 17.06.2020
1171 Clouds 32 1015 62 11265 1 360 20:38 17.06.2020
1172 Clouds 32 1015 62 11265 1 360 20:38 17.06.2020
1173 Clouds 31 1015 62 11265 1 360 20:20 17.06.2020
1174 Clouds 31 1015 66 11265 1.5 120 19:55 17.06.2020
1175 Clouds 31 1015 66 11265 1.5 120 19:36 17.06.2020
1176 Clouds 31 1015 66 11265 1.5 120 19:18 17.06.2020
1177 Clouds 31 1016 62 11265 3.14 28 18:41 17.06.2020
1178 Clouds 30 1016 62 11265 2.48 11 18:23 17.06.2020
1179 Clouds 30 1016 74 11265 2.48 11 17:44 17.06.2020
1180 Clouds 29 1016 74 11265 2.28 340 17:22 17.06.2020
1181 Mist 28 1016 88 11265 2.28 340 16:57 17.06.2020
1182 Mist 28 1016 88 11265 2.28 340 16:38 17.06.2020
1183 Mist 28 1016 88 11265 2.48 319 16:20 17.06.2020
1184 Clouds 26 1016 94 11265 2.48 319 15:56 17.06.2020
1185 Clouds 25 1016 94 11265 2.48 319 15:38 17.06.2020
1186 Clouds 25 1016 94 11265 2.5 309 15:18 17.06.2020
1187 Clouds 24 1015 100 11265 2.5 309 14:56 17.06.2020
1188 Clouds 23 1015 100 11265 2.5 309 14:38 17.06.2020
1189 Clouds 23 1015 100 11265 2.36 299 14:19 17.06.2020
1190 Clear 24 1013 80 0 2.36 299 13:42 17.06.2020
1191 Rain 24 1013 81 0 2.34 295 13:22 17.06.2020
1192 Rain 24 1013 78 0 2.34 295 12:58 17.06.2020
1193 Rain 24 1013 79 0 2.34 295 12:40 17.06.2020
1194 Rain 24 1013 79 0 0.89 323 12:20 17.06.2020
1195 Rain 24 1013 77 0 1.34 256 11:44 17.06.2020
1196 Rain 24 1013 77 0 1.34 268 11:26 17.06.2020
1197 Rain 24 1014 78 0 1.34 279 10:55 17.06.2020
1198 Rain 24 1014 79 0 1.79 274 10:37 17.06.2020
1199 Rain 24 1014 78 0 1.34 239 10:18 17.06.2020
1200 Rain 25 1014 75 0 2.68 253 09:54 17.06.2020
1201 Rain 25 1014 75 0 2.68 253 09:36 17.06.2020
1202 Rain 26 1015 71 0 0.89 160 09:18 17.06.2020
1203 Rain 26 1015 73 0 0.45 269 08:41 17.06.2020
1204 Rain 28 1015 66 0 1.55 330 08:19 17.06.2020
1205 Rain 28 1015 65 0 1.34 61 07:43 17.06.2020
1206 Rain 28 1015 64 0 1.79 42 07:23 17.06.2020
1207 Clouds 28 1017 83 11265 1.5 70 06:57 17.06.2020
1208 Clouds 28 1017 83 11265 1.5 70 06:38 17.06.2020
1209 Clouds 28 1017 83 11265 1.5 70 06:20 17.06.2020
1210 Clouds 28 1015 78 11265 4.1 30 05:45 17.06.2020
1211 Clouds 28 1015 78 11265 2.1 50 04:18 17.06.2020
1212 Clouds 30 1014 66 11265 6.7 60 01:55 17.06.2020
1213 Clouds 30 1014 70 11265 5.1 50 00:48 17.06.2020
1214 Clouds 31 1014 70 11265 5.1 50 00:25 17.06.2020
1215 Clouds 31 1014 66 11265 6.2 30 23:57 16.06.2020
1216 Clouds 31 1014 66 11265 6.2 30 23:38 16.06.2020
1217 Clouds 31 1014 66 11265 6.2 30 23:38 16.06.2020
1218 Clouds 31 1014 66 11265 6.2 30 23:20 16.06.2020
1219 Clear 32 1016 62 11265 7.2 60 22:56 16.06.2020
1220 Clear 31 1016 62 11265 7.2 60 22:37 16.06.2020
1221 Clear 32 1016 62 11265 7.2 60 22:19 16.06.2020
1222 Clouds 31 1016 58 11265 4.6 50 21:54 16.06.2020
1223 Clouds 31 1016 58 11265 4.6 50 21:36 16.06.2020
1224 Clouds 32 1016 58 11265 4.6 50 21:18 16.06.2020
1225 Clouds 32 1016 52 11265 4.1 10 20:42 16.06.2020
1226 Clouds 32 1016 52 11265 4.1 10 20:19 16.06.2020
1227 Clouds 31 1017 70 11265 4.74 21 19:58 16.06.2020
1228 Clouds 31 1017 70 11265 4.74 21 19:39 16.06.2020
1229 Clouds 31 1017 70 11265 3.28 21 19:21 16.06.2020
1230 Clouds 29 1018 83 11265 3.28 21 18:55 16.06.2020
1231 Clouds 28 1018 83 11265 3.28 21 18:37 16.06.2020
1232 Clouds 28 1018 83 11265 1.84 3 18:19 16.06.2020
1233 Clouds 28 1018 74 11265 2.6 320 17:55 16.06.2020
1234 Clouds 28 1018 74 11265 2.6 320 17:36 16.06.2020
1235 Clouds 28 1018 74 11265 2.6 320 17:18 16.06.2020
1236 Clouds 28 1017 78 11265 1.36 307 16:42 16.06.2020
1237 Clouds 27 1017 78 11265 2.17 290 16:21 16.06.2020
1238 Clouds 25 1016 88 11265 2.17 290 15:58 16.06.2020
1239 Clouds 25 1016 88 11265 2.17 290 15:40 16.06.2020
1240 Clouds 25 1016 88 11265 2.57 288 15:22 16.06.2020
1241 Clouds 24 1016 94 11265 2.57 288 14:59 16.06.2020
1242 Clouds 23 1016 94 11265 2.57 288 14:41 16.06.2020
1243 Clouds 23 1016 94 11265 2.84 279 14:22 16.06.2020
1244 Clear 23 1016 94 11265 2.98 277 13:48 16.06.2020
1245 Clear 23 1016 94 11265 3.15 279 13:26 16.06.2020
1246 Clear 24 1014 75 0 0.89 289 12:57 16.06.2020
1247 Clear 24 1014 75 0 0.45 309 12:38 16.06.2020
1248 Clear 24 1014 74 0 0.45 307 12:20 16.06.2020
1249 Clear 24 1014 73 0 0.45 317 11:54 16.06.2020
1250 Clear 24 1013 73 0 0.89 308 11:36 16.06.2020
1251 Clear 24 1013 73 0 0.89 308 11:36 16.06.2020
1252 Clear 24 1014 73 0 0.45 279 11:18 16.06.2020
1253 Clear 25 1014 73 0 0.89 300 10:42 16.06.2020
1254 Clear 25 1014 72 0 0.89 286 10:20 16.06.2020
1255 Clear 26 1014 68 0 0.89 300 09:57 16.06.2020
1256 Clear 26 1014 68 0 0.89 300 09:39 16.06.2020
1257 Rain 27 1015 64 0 1.34 300 09:20 16.06.2020
1258 Rain 27 1015 65 0 2.24 325 08:41 16.06.2020
1259 Rain 28 1016 67 0 1.34 340 08:22 16.06.2020
1260 Rain 28 1016 65 0 1.34 333 07:46 16.06.2020
1261 Rain 28 1016 65 0 1.34 333 07:26 16.06.2020
1262 Clouds 27 1017 78 11265 3.1 20 06:47 16.06.2020
1263 Clouds 27 1017 78 11265 3.1 20 06:19 16.06.2020
1264 Clouds 28 1017 78 11265 3.1 30 05:32 16.06.2020
1265 Clouds 28 1016 83 11265 3.6 360 04:27 16.06.2020
1266 Clouds 29 1015 70 11265 5.7 10 02:49 16.06.2020
1267 Clear 30 1015 62 11265 6.2 50 01:44 16.06.2020
1268 Clear 30 1015 62 11265 6.2 50 01:19 16.06.2020
1269 Clear 31 1015 58 11265 6.7 50 00:37 16.06.2020
1270 Clear 31 1016 45 11265 6.2 10 00:18 16.06.2020
1271 Clear 31 1016 45 11265 6.2 10 23:41 15.06.2020
1272 Clear 32 1016 45 11265 6.2 10 23:21 15.06.2020
1273 Clear 32 1016 45 11265 7.7 10 22:42 15.06.2020
1274 Clear 32 1016 45 11265 7.7 10 22:24 15.06.2020
1275 Clouds 32 1016 52 11265 6.2 40 21:59 15.06.2020
1276 Clouds 32 1016 52 11265 6.2 40 21:38 15.06.2020
1277 Clouds 31 1016 52 11265 6.2 40 21:20 15.06.2020
1278 Clouds 30 1017 58 11265 2.6 30 20:59 15.06.2020
1279 Clouds 30 1017 58 11265 2.6 30 20:39 15.06.2020
1280 Clouds 30 1017 58 11265 2.6 30 20:20 15.06.2020
1281 Clouds 31 1018 55 11265 3.1 10 20:00 15.06.2020
1282 Clouds 31 1018 55 11265 3.1 10 19:40 15.06.2020
1283 Clouds 31 1018 55 11265 3.1 10 19:22 15.06.2020
1284 Clouds 31 1018 55 11265 4.1 340 18:58 15.06.2020
1285 Clouds 31 1018 55 11265 4.1 340 18:58 15.06.2020
1286 Clouds 30 1018 55 11265 4.1 340 18:39 15.06.2020
1287 Clouds 30 1018 55 11265 4.1 340 18:20 15.06.2020
1288 Clouds 30 1018 62 11265 2.65 357 17:57 15.06.2020
1289 Clouds 30 1018 62 11265 2.65 357 17:39 15.06.2020
1290 Clouds 29 1018 62 11265 1.72 334 17:19 15.06.2020
1291 Clouds 29 1018 62 11265 1.72 334 17:19 15.06.2020
1292 Clouds 28 1018 74 11265 1.72 334 16:43 15.06.2020
1293 Clouds 28 1018 74 11265 2.1 305 16:20 15.06.2020
1294 Clouds 26 1017 83 9656 2.1 305 15:58 15.06.2020
1295 Clouds 26 1017 83 9656 2.1 305 15:40 15.06.2020
1296 Clouds 25 1017 83 9656 2.53 294 15:20 15.06.2020
1297 Clouds 24 1016 88 9656 2.53 294 14:56 15.06.2020
1298 Clouds 24 1016 88 9656 2.53 294 14:37 15.06.2020
1299 Clouds 24 1016 88 9656 2.27 293 14:18 15.06.2020
1300 Clouds 24 1016 88 9656 2.27 293 13:42 15.06.2020
1301 Clouds 24 1016 88 9656 2.74 292 13:24 15.06.2020
1302 Clouds 24 1016 88 9656 2.74 292 13:24 15.06.2020
1303 Clear 24 1014 71 0 0.45 296 12:59 15.06.2020
1304 Clear 24 1014 73 0 0.45 292 12:40 15.06.2020
1305 Clear 25 1014 72 0 0.45 308 12:21 15.06.2020
1306 Clear 24 1014 73 0 3.17 295 11:45 15.06.2020
1307 Clear 24 1014 73 0 0.45 238 11:26 15.06.2020
1308 Clear 25 1014 70 0 0.45 215 10:57 15.06.2020
1309 Clear 26 1014 65 0 0.89 262 10:38 15.06.2020
1310 Clear 27 1014 63 0 0.89 42 10:19 15.06.2020
1311 Clear 27 1014 63 0 0.89 42 10:19 15.06.2020
1312 Clear 25 1017 81 0 3.57 315 09:42 15.06.2020
1313 Clear 27 1014 62 0 0.45 37 09:22 15.06.2020
1314 Clear 27 1015 62 0 1.34 28 08:43 15.06.2020
1315 Rain 27 1015 62 0 1.34 15 08:25 15.06.2020
1316 Rain 27 1015 61 0 1.34 24 07:51 15.06.2020
1317 Rain 27 1015 61 0 2.24 5 07:33 15.06.2020
1318 Clouds 27 1017 74 11265 4.1 360 06:53 15.06.2020
1319 Clouds 27 1017 74 11265 4.1 360 06:26 15.06.2020
1320 Clouds 27 1016 74 11265 2.1 20 05:48 15.06.2020
1321 Clouds 27 1016 74 11265 2.1 20 05:27 15.06.2020
1322 Clouds 28 1016 78 11265 5.1 10 04:21 15.06.2020
1323 Clouds 27 1015 74 11265 6.2 20 03:48 15.06.2020
1324 Clouds 28 1014 69 11265 8.2 360 02:55 15.06.2020
1325 Clouds 29 1014 66 11265 9.3 40 01:59 15.06.2020
1326 Clouds 29 1014 66 11265 9.3 40 01:39 15.06.2020
1327 Clouds 29 1014 66 11265 9.3 40 01:21 15.06.2020
1328 Clear 30 1014 48 11265 7.2 60 00:40 15.06.2020
1329 Clear 30 1014 48 11265 7.2 60 00:20 15.06.2020
1330 Clouds 31 1014 45 11265 6.7 60 23:47 14.06.2020
1331 Clouds 31 1014 45 11265 6.7 60 23:26 14.06.2020
1332 Clouds 31 1015 48 11265 7.2 40 22:58 14.06.2020
1333 Clouds 31 1015 48 11265 7.2 40 22:40 14.06.2020
1334 Clouds 32 1015 48 11265 7.2 40 22:21 14.06.2020
1335 Clouds 31 1016 48 11265 7.2 10 21:58 14.06.2020
1336 Clouds 31 1016 48 11265 7.2 10 21:40 14.06.2020
1337 Clouds 32 1016 48 11265 7.2 10 21:19 14.06.2020
1338 Clouds 31 1016 45 11265 6.2 50 20:59 14.06.2020
1339 Clouds 31 1016 45 11265 6.2 50 20:40 14.06.2020
1340 Clouds 31 1016 45 11265 6.2 50 20:21 14.06.2020
1341 Clouds 31 1016 45 11265 6.02 11 19:59 14.06.2020
1342 Clouds 31 1016 45 11265 6.02 11 19:59 14.06.2020
1343 Clouds 31 1016 45 11265 6.02 11 19:59 14.06.2020
1344 Clouds 31 1016 45 11265 6.02 11 19:40 14.06.2020
1345 Clouds 31 1016 45 11265 4.32 8 19:20 14.06.2020
1346 Clouds 30 1016 58 11265 4.32 8 18:58 14.06.2020
1347 Clouds 30 1016 58 11265 4.32 8 18:40 14.06.2020
1348 Clouds 30 1016 58 11265 2.44 352 18:21 14.06.2020
1349 Clouds 29 1016 65 11265 2.44 352 17:58 14.06.2020
1350 Clouds 29 1016 65 11265 2.44 352 17:40 14.06.2020
1351 Clouds 28 1016 65 11265 2.08 310 17:20 14.06.2020
1352 Clouds 28 1016 69 9656 2.08 310 16:57 14.06.2020
1353 Clouds 27 1016 69 9656 2.08 310 16:38 14.06.2020
1354 Clouds 27 1016 69 9656 2.88 297 16:19 14.06.2020
1355 Clouds 26 1015 78 9656 2.88 297 15:41 14.06.2020
1356 Clouds 26 1015 78 9656 3.37 305 15:20 14.06.2020
1357 Clouds 25 1015 78 9656 3.37 305 15:00 14.06.2020
1358 Clouds 24 1015 78 9656 3.37 305 14:41 14.06.2020
1359 Clouds 24 1015 78 9656 3.76 314 14:22 14.06.2020
1360 Clouds 24 1015 78 9656 2.98 305 13:58 14.06.2020
1361 Clouds 24 1015 78 9656 2.98 305 13:40 14.06.2020
1362 Clouds 24 1015 78 9656 3.69 314 13:21 14.06.2020
1363 Clouds 24 1015 78 9656 3.69 314 13:21 14.06.2020
1364 Clouds 25 1013 61 0 0.45 338 12:57 14.06.2020
1365 Clouds 24 1013 62 0 3.69 314 12:38 14.06.2020
1366 Clouds 24 1012 62 0 0.45 355 12:20 14.06.2020
1367 Clouds 24 1012 62 0 0.45 355 12:20 14.06.2020
1368 Clouds 24 1012 63 0 0.45 355 11:56 14.06.2020
1369 Clouds 24 1012 62 0 0.45 355 11:38 14.06.2020
1370 Clouds 24 1012 62 0 0.89 351 11:19 14.06.2020
1371 Clouds 26 1012 62 0 0.89 360 10:42 14.06.2020
1372 Clouds 26 1013 62 0 0.89 334 10:20 14.06.2020
1373 Clouds 26 1013 63 0 1.34 360 09:51 14.06.2020
1374 Clouds 27 1013 62 0 1.34 5 09:26 14.06.2020
1375 Clouds 27 1013 60 0 3.13 45 08:58 14.06.2020
1376 Clouds 27 1014 60 0 3.58 5 08:40 14.06.2020
1377 Clouds 27 1014 61 0 1.79 15 08:18 14.06.2020
1378 Clouds 27 1014 59 0 3.13 30 07:50 14.06.2020
1379 Clouds 27 1014 58 0 4.47 28 07:32 14.06.2020
1380 Clouds 27 1016 69 11265 7.7 360 06:31 14.06.2020
1381 Clouds 27 1016 74 11265 7.7 20 05:43 14.06.2020
1382 Clouds 27 1015 69 11265 5.1 360 04:55 14.06.2020
1383 Clouds 27 1015 69 11265 5.1 360 04:30 14.06.2020
1384 Clouds 27 1014 74 11265 5.1 360 03:23 14.06.2020
1385 Clouds 28 1013 69 11265 5.1 10 02:27 14.06.2020
1386 Clouds 29 1013 58 11265 7.7 20 01:41 14.06.2020
1387 Clear 30 1013 48 11265 7.7 20 00:56 14.06.2020
1388 Clear 30 1013 48 11265 7.7 20 00:37 14.06.2020
1389 Clouds 31 1014 48 11265 7.7 20 00:18 14.06.2020
1390 Clouds 31 1014 48 11265 7.7 20 23:42 13.06.2020
1391 Clouds 31 1014 48 11265 7.7 20 23:23 13.06.2020
1392 Clouds 31 1014 45 11265 7.7 360 22:56 13.06.2020
1393 Clouds 31 1014 45 11265 7.7 360 22:37 13.06.2020
1394 Clouds 31 1014 45 11265 7.7 360 22:18 13.06.2020
1395 Clouds 31 1015 45 11265 5.1 360 21:43 13.06.2020
1396 Clouds 32 1015 45 11265 5.1 360 21:25 13.06.2020
1397 Clouds 31 1016 48 11265 7.2 20 21:00 13.06.2020
1398 Clouds 31 1016 48 11265 7.2 20 20:41 13.06.2020
1399 Clouds 31 1016 48 11265 7.2 20 20:19 13.06.2020
1400 Clouds 31 1016 45 11265 5.1 350 19:42 13.06.2020
1401 Clouds 31 1016 45 11265 5.1 350 19:21 13.06.2020
1402 Clouds 31 1016 45 11265 5.1 350 19:21 13.06.2020
1403 Clouds 30 1016 54 11265 3.1 340 18:59 13.06.2020
1404 Clear 31 1015 41 0 2.24 345 18:41 13.06.2020
1405 Clouds 29 1017 58 11265 6.47 342 18:21 13.06.2020
1406 Clouds 29 1017 58 11265 6.47 342 17:59 13.06.2020
1407 Clouds 28 1017 58 11265 6.47 342 17:40 13.06.2020
1408 Clouds 28 1017 58 11265 5.41 327 17:22 13.06.2020
1409 Clouds 28 1016 69 11265 5.41 327 16:56 13.06.2020
1410 Clouds 28 1016 69 11265 5.41 327 16:37 13.06.2020
1411 Clouds 27 1016 69 11265 5.67 324 16:18 13.06.2020
1412 Clouds 26 1016 78 11265 1 310 15:44 13.06.2020
1413 Clouds 25 1016 78 11265 1 310 15:26 13.06.2020
1414 Clear 24 1014 69 0 0.89 276 14:55 13.06.2020
1415 Clear 24 1014 69 0 0.89 276 14:36 13.06.2020
1416 Clear 24 1014 69 0 0.89 296 14:18 13.06.2020
1417 Clear 24 1013 66 0 1.79 285 13:41 13.06.2020
1418 Clear 24 1013 66 0 1.79 285 13:23 13.06.2020
1419 Clear 28 1013 51 0 4.92 26 12:44 13.06.2020
1420 Clear 28 1013 51 0 6.71 25 12:26 13.06.2020
1421 Clear 28 1013 52 0 7.6 32 11:59 13.06.2020
1422 Clear 28 1013 52 0 7.6 32 11:39 13.06.2020
1423 Clear 28 1013 52 0 7.15 29 11:19 13.06.2020
1424 Clear 28 1013 56 0 7.15 32 10:57 13.06.2020
1425 Clear 28 1013 56 0 7.15 32 10:38 13.06.2020
1426 Clear 28 1014 54 0 7.6 22 10:19 13.06.2020
1427 Clear 28 1014 55 0 8.05 15 09:44 13.06.2020
1428 Clear 27 1014 57 0 6.71 9 09:25 13.06.2020
1429 Clear 27 1015 58 0 7.15 13 08:49 13.06.2020
1430 Clear 27 1015 58 0 7.15 13 08:31 13.06.2020
1431 Clouds 27 1015 61 0 6.71 5 07:55 13.06.2020
1432 Clouds 27 1015 62 0 6.71 15 07:30 13.06.2020
1433 Clouds 28 1015 62 0 6.26 342 06:51 13.06.2020
1434 Clouds 28 1015 62 0 6.26 342 06:33 13.06.2020
1435 Clouds 27 1015 57 0 6.26 355 05:47 13.06.2020
1436 Rain 27 1015 63 0 6.71 18 05:25 13.06.2020
1437 Clouds 27 1016 83 11265 5.1 360 03:48 13.06.2020
1438 Clear 28 1014 67 0 8.05 355 02:54 13.06.2020
1439 Clouds 28 1014 65 0 8.49 9 02:34 13.06.2020
1440 Clouds 29 1013 61 0 9.39 16 01:45 13.06.2020
1441 Clouds 29 1015 74 11265 8.7 20 01:19 13.06.2020
1442 Clouds 29 1015 74 11265 8.7 20 00:42 13.06.2020
1443 Clouds 29 1015 74 11265 8.7 20 00:23 13.06.2020
1444 Clouds 30 1016 70 11265 8.7 10 23:41 12.06.2020
1445 Clouds 30 1016 70 11265 8.7 10 23:19 12.06.2020
1446 Clouds 30 1016 70 11265 10.3 20 22:58 12.06.2020
1447 Clouds 30 1016 70 11265 10.3 20 22:39 12.06.2020
1448 Clouds 30 1016 70 11265 10.3 20 22:19 12.06.2020
1449 Clouds 31 1017 70 11265 7.2 360 21:47 12.06.2020
1450 Clouds 30 1017 70 11265 7.2 360 21:24 12.06.2020
1451 Clouds 30 1018 70 11265 7.7 10 20:58 12.06.2020
1452 Clouds 30 1018 70 11265 7.7 10 20:39 12.06.2020
1453 Clouds 30 1018 70 11265 7.7 10 20:39 12.06.2020
1454 Clouds 30 1018 70 11265 7.7 10 20:21 12.06.2020
1455 Clouds 31 1018 58 11265 5.7 20 19:54 12.06.2020
1456 Clouds 30 1016 59 0 6.71 46 19:36 12.06.2020
1457 Rain 31 1016 56 0 5.81 38 19:18 12.06.2020
1458 Rain 31 1017 51 0 5.81 52 18:37 12.06.2020
1459 Clouds 29 1019 78 11265 2.1 360 18:18 12.06.2020
1460 Rain 29 1017 60 0 4.47 20 17:46 12.06.2020
1461 Clouds 28 1019 83 11265 3.6 340 17:27 12.06.2020
1462 Clouds 27 1019 83 11265 3.6 340 16:58 12.06.2020
1463 Clouds 27 1019 83 11265 3.6 340 16:40 12.06.2020
1464 Clouds 27 1019 83 11265 3.6 340 16:19 12.06.2020
1465 Clouds 26 1019 88 11265 2.6 350 15:45 12.06.2020
1466 Clouds 25 1019 88 11265 2.6 350 15:20 12.06.2020
1467 Clouds 24 1018 100 11265 1 320 14:44 12.06.2020
1468 Clouds 23 1018 100 11265 1 320 14:23 12.06.2020
1469 Rain 24 1018 94 11265 2.1 340 13:59 12.06.2020
1470 Rain 24 1018 94 11265 2.1 340 13:59 12.06.2020
1471 Rain 24 1016 80 0 1.79 340 13:40 12.06.2020
1472 Rain 24 1016 80 0 1.79 340 13:19 12.06.2020
1473 Rain 24 1016 78 0 2.24 327 12:40 12.06.2020
1474 Rain 24 1016 78 0 2.24 327 12:19 12.06.2020
1475 Rain 24 1016 79 0 3.58 329 11:56 12.06.2020
1476 Rain 24 1016 81 0 2.68 346 11:37 12.06.2020
1477 Rain 24 1016 81 0 2.68 346 11:19 12.06.2020
1478 Rain 27 1018 77 0 7.09 355 10:43 12.06.2020
1479 Rain 27 1019 78 0 7.75 353 10:23 12.06.2020
1480 Rain 27 1019 78 0 7.75 353 09:45 12.06.2020
1481 Rain 26 1018 66 0 9.39 54 09:21 12.06.2020
1482 Rain 27 1017 71 0 0.89 329 08:44 12.06.2020
1483 Rain 27 1017 71 0 0.89 329 08:24 12.06.2020
1484 Rain 27 1017 70 0 3.13 360 07:44 12.06.2020
1485 Rain 27 1018 69 0 4.47 5 07:25 12.06.2020
1486 Rain 27 1017 68 0 4.02 360 06:55 12.06.2020
1487 Rain 28 1017 70 0 5.36 14 06:26 12.06.2020
1488 Clouds 28 1018 83 9656 6.2 360 05:50 12.06.2020
1489 Rain 28 1017 69 0 5.81 5 05:29 12.06.2020
1490 Rain 28 1016 69 0 5.36 24 04:50 12.06.2020
1491 Rain 29 1016 74 11265 7.7 30 02:55 12.06.2020
1492 Rain 29 1016 74 11265 8.2 20 01:52 12.06.2020
1493 Rain 29 1016 74 11265 8.2 20 01:25 12.06.2020
1494 Clouds 29 1016 74 11265 7.2 30 00:42 12.06.2020
1495 Clouds 30 1016 74 11265 7.2 30 00:24 12.06.2020
1496 Rain 30 1017 70 11265 9.3 20 23:59 11.06.2020
1497 Rain 30 1017 70 11265 9.3 20 23:40 11.06.2020
1498 Clouds 30 1017 70 11265 9.3 20 23:21 11.06.2020
1499 Clouds 31 1017 66 11265 7.7 360 22:57 11.06.2020
1500 Clouds 31 1015 59 0 9.39 41 22:38 11.06.2020
1501 Clouds 31 1017 62 11265 7.2 360 22:19 11.06.2020
1502 Clouds 31 1017 62 11265 7.2 360 22:19 11.06.2020
1503 Clouds 31 1017 62 11265 7.2 360 21:55 11.06.2020
1504 Clouds 31 1017 62 11265 7.2 360 21:37 11.06.2020
1505 Clouds 31 1017 62 11265 7.2 360 21:19 11.06.2020
1506 Clouds 31 1017 62 11265 8.2 10 20:43 11.06.2020
1507 Clouds 31 1017 62 11265 8.2 10 20:21 11.06.2020
1508 Clouds 30 1018 79 11265 7.2 20 19:45 11.06.2020
1509 Clouds 30 1018 79 11265 7.2 20 19:23 11.06.2020
1510 Clouds 29 1017 74 11265 7.7 50 18:59 11.06.2020
1511 Clouds 29 1017 74 11265 7.7 50 18:41 11.06.2020
1512 Clouds 29 1017 74 11265 7.7 50 18:20 11.06.2020
1513 Clouds 27 1018 78 11265 2.6 10 17:56 11.06.2020
1514 Clouds 27 1018 78 11265 2.6 10 17:37 11.06.2020
1515 Clouds 27 1018 78 11265 2.6 10 17:19 11.06.2020
1516 Clouds 25 1018 94 9656 1.5 10 16:46 11.06.2020
1517 Clouds 25 1018 94 9656 1.5 10 16:28 11.06.2020
1518 Clouds 23 1017 100 8047 2.1 310 15:59 11.06.2020
1519 Rain 23 1017 100 8047 2.1 310 15:41 11.06.2020
1520 Clouds 23 1017 100 8047 2.1 310 15:23 11.06.2020
1521 Rain 23 1018 100 6437 4.26 351 14:55 11.06.2020
1522 Rain 22 1018 100 6437 4.26 351 14:36 11.06.2020
1523 Rain 22 1018 100 6437 5.52 1 14:18 11.06.2020
1524 Rain 22 1019 100 6437 3.44 6 13:54 11.06.2020
1525 Rain 22 1019 100 6437 3.44 6 13:36 11.06.2020
1526 Rain 22 1019 100 6437 3.5 353 13:18 11.06.2020
1527 Rain 23 1017 82 0 0.89 302 12:39 11.06.2020
1528 Rain 23 1017 83 0 2.24 243 12:20 11.06.2020
1529 Rain 24 1015 82 0 2.24 295 11:59 11.06.2020
1530 Rain 24 1015 82 0 0.89 214 11:40 11.06.2020
1531 Rain 28 1016 83 0 4.06 345 11:22 11.06.2020
1532 Rain 28 1016 83 0 4.06 345 10:57 11.06.2020
1533 Rain 28 1016 83 0 4.06 345 10:38 11.06.2020
1534 Rain 28 1016 80 0 4.78 351 10:18 11.06.2020
1535 Rain 28 1016 80 0 4.78 351 09:42 11.06.2020
1536 Rain 29 1016 79 0 5.52 356 09:23 11.06.2020
1537 Rain 29 1016 77 0 6.05 358 08:44 11.06.2020
1538 Rain 27 1014 74 0 7.15 40 08:20 11.06.2020
1539 Rain 28 1013 66 0 4.02 5 07:57 11.06.2020
1540 Rain 28 1013 66 0 4.02 5 07:57 11.06.2020
1541 Rain 29 1013 65 0 6.71 348 07:39 11.06.2020
1542 Clouds 29 1015 89 9656 6.7 10 07:20 11.06.2020
1543 Clouds 29 1015 89 9656 6.7 10 06:28 11.06.2020
1544 Clouds 29 1014 89 9656 4.6 10 05:36 11.06.2020
1545 Clouds 30 1012 84 6437 6.7 10 03:50 11.06.2020
1546 Clouds 30 1012 84 6437 6.7 10 03:23 11.06.2020
1547 Clouds 31 1012 74 9656 5.7 360 02:32 11.06.2020
1548 Clouds 31 1012 79 9656 7.7 10 01:50 11.06.2020
1549 Clouds 31 1012 79 9656 7.7 10 01:24 11.06.2020
1550 Clouds 33 1011 59 9656 8.7 360 00:50 11.06.2020
1551 Clouds 34 1011 59 9656 8.7 360 00:27 11.06.2020
1552 Clouds 35 1012 56 9656 9.8 10 23:47 10.06.2020
1553 Clouds 35 1012 56 9656 9.8 10 23:27 10.06.2020
1554 Clouds 35 1012 63 9656 7.7 30 22:57 10.06.2020
1555 Clouds 35 1012 63 9656 7.7 30 22:38 10.06.2020
1556 Clouds 34 1012 63 9656 7.7 30 22:19 10.06.2020
1557 Clouds 35 1012 56 8047 9.8 30 21:56 10.06.2020
1558 Clouds 35 1012 56 8047 9.8 30 21:38 10.06.2020
1559 Clouds 35 1012 56 8047 9.8 30 21:18 10.06.2020
1560 Clouds 36 1013 56 8047 8.2 30 20:56 10.06.2020
1561 Clouds 36 1013 56 8047 8.2 30 20:38 10.06.2020
1562 Clouds 36 1013 56 8047 8.2 30 20:20 10.06.2020
1563 Clouds 34 1013 63 9656 7.2 30 19:41 10.06.2020
1564 Clouds 33 1013 59 9656 5.7 30 19:20 10.06.2020
1565 Clouds 33 1013 59 9656 5.7 30 18:58 10.06.2020
1566 Clouds 33 1013 59 9656 5.7 30 18:40 10.06.2020
1567 Clouds 31 1013 62 9656 1.42 20 18:19 10.06.2020
1568 Clouds 31 1013 62 9656 1.42 20 17:56 10.06.2020
1569 Clouds 31 1013 62 9656 1.42 20 17:37 10.06.2020
1570 Clouds 31 1013 62 9656 1.42 20 17:37 10.06.2020
1571 Clouds 31 1013 62 9656 0.41 169 17:19 10.06.2020
1572 Clear 32 1011 53 0 1.79 54 16:57 10.06.2020
1573 Clear 30 1011 56 0 1.34 24 16:39 10.06.2020
1574 Clouds 29 1012 74 9656 0.88 201 16:19 10.06.2020
1575 Clouds 28 1012 74 9656 0.88 201 15:40 10.06.2020
1576 Clouds 28 1012 74 9656 1.06 203 15:22 10.06.2020
1577 Clouds 27 1010 78 9656 1 190 14:56 10.06.2020
1578 Clouds 27 1010 78 9656 1 190 14:38 10.06.2020
1579 Clouds 27 1010 78 9656 1 190 14:20 10.06.2020
1580 Clouds 26 1008 69 0 0.45 230 13:41 10.06.2020
1581 Clouds 26 1008 69 0 0.45 274 13:21 10.06.2020
1582 Clouds 26 1008 67 0 0.45 274 12:45 10.06.2020
1583 Clouds 26 1007 68 0 0.45 233 12:23 10.06.2020
1584 Clouds 27 1008 66 0 0.45 233 11:58 10.06.2020
1585 Clouds 27 1008 66 0 0.45 233 11:40 10.06.2020
1586 Clouds 27 1008 67 0 3.89 170 11:19 10.06.2020
1587 Clouds 27 1007 65 0 3.89 170 10:57 10.06.2020
1588 Clouds 27 1007 65 0 3.89 170 10:39 10.06.2020
1589 Clouds 27 1007 65 0 0.45 232 10:20 10.06.2020
1590 Clouds 28 1007 62 0 0.89 232 09:41 10.06.2020
1591 Clear 28 1007 60 0 0.89 197 09:23 10.06.2020
1592 Clear 28 1007 62 0 2.81 180 08:44 10.06.2020
1593 Clear 28 1007 62 0 0.45 198 08:24 10.06.2020
1594 Clear 28 1007 61 0 0.45 203 07:58 10.06.2020
1595 Clear 29 1007 61 0 1.34 210 07:38 10.06.2020
1596 Clear 29 1007 83 11265 2.56 201 07:20 10.06.2020
1597 Clear 30 1007 83 11265 2.56 201 06:44 10.06.2020
1598 Clear 30 1007 83 11265 2.42 185 06:22 10.06.2020
1599 Clear 29 1006 83 11265 2.42 185 05:55 10.06.2020
1600 Clear 29 1006 83 11265 1.68 168 05:25 10.06.2020
1601 Clear 30 1005 84 11265 1.68 168 04:35 10.06.2020
1602 Clouds 31 1004 70 9656 2.6 110 02:56 10.06.2020
1603 Clouds 32 1004 70 9656 2.6 110 02:20 10.06.2020
1604 Clouds 33 1004 66 9656 4.1 100 01:36 10.06.2020
1605 Clouds 35 1004 59 9656 3.1 100 00:39 10.06.2020
1606 Clouds 35 1004 59 9656 3.1 100 00:21 10.06.2020
1607 Clouds 36 1005 53 8047 5.1 110 23:56 09.06.2020
1608 Clouds 36 1005 53 8047 5.1 110 23:37 09.06.2020
1609 Clouds 36 1005 53 8047 5.1 110 23:19 09.06.2020
1610 Clouds 37 1005 45 9656 2.6 130 22:55 09.06.2020
1611 Clouds 37 1005 45 9656 2.6 130 22:37 09.06.2020
1612 Clouds 38 1005 45 9656 2.6 130 22:18 09.06.2020
1613 Clouds 33 1006 59 0 5.18 105 21:55 09.06.2020
1614 Clouds 33 1006 59 0 5.18 105 21:37 09.06.2020
1615 Clouds 37 1006 53 9656 2.6 170 21:19 09.06.2020
1616 Clouds 36 1006 53 9656 2.6 170 20:56 09.06.2020
1617 Clouds 37 1006 53 9656 2.6 170 20:38 09.06.2020
1618 Clouds 36 1006 53 9656 2.6 170 20:18 09.06.2020
1619 Clouds 35 1007 59 9656 2.1 160 19:55 09.06.2020
1620 Clouds 35 1007 59 9656 2.1 160 19:37 09.06.2020
1621 Clouds 35 1007 59 9656 2.1 160 19:18 09.06.2020
1622 Clouds 33 1007 62 6437 3.19 143 18:45 09.06.2020
1623 Clouds 32 1007 62 6437 3.43 157 18:26 09.06.2020
1624 Clouds 31 1008 74 8047 3.6 160 17:57 09.06.2020
1625 Clouds 31 1008 74 8047 3.6 160 17:39 09.06.2020
1626 Clouds 31 1008 74 8047 3.6 160 17:21 09.06.2020
1627 Clear 30 1007 74 8047 3.1 200 16:56 09.06.2020
1628 Clear 30 1007 74 8047 3.1 200 16:56 09.06.2020
1629 Clear 30 1007 74 8047 3.1 200 16:37 09.06.2020
1630 Clear 29 1007 74 8047 3.1 200 16:19 09.06.2020
1631 Clear 28 1007 83 8047 4.2 175 15:40 09.06.2020
1632 Clear 28 1007 83 8047 4.35 183 15:21 09.06.2020
1633 Clouds 26 1006 94 8047 4.35 183 14:57 09.06.2020
1634 Clouds 26 1006 94 8047 4.35 183 14:38 09.06.2020
1635 Clouds 26 1006 94 8047 4.05 183 14:18 09.06.2020
1636 Clear 26 1006 88 9656 4.05 183 13:46 09.06.2020
1637 Clear 26 1006 88 9656 4.29 180 13:22 09.06.2020
1638 Clouds 26 1004 74 0 0.45 221 12:59 09.06.2020
1639 Clouds 26 1004 74 0 0.45 216 12:41 09.06.2020
1640 Clouds 26 1004 74 0 0.89 225 12:19 09.06.2020
1641 Clouds 26 1004 72 0 0.89 208 11:56 09.06.2020
1642 Clouds 26 1004 72 0 0.89 208 11:56 09.06.2020
1643 Clouds 26 1004 72 0 0.45 225 11:37 09.06.2020
1644 Clouds 26 1004 72 0 0.45 225 11:19 09.06.2020
1645 Clouds 26 1004 71 0 0.89 223 10:45 09.06.2020
1646 Clear 27 1004 70 0 0.45 221 10:25 09.06.2020
1647 Clear 27 1004 68 0 0.89 219 09:55 09.06.2020
1648 Clear 27 1004 67 0 1.34 192 09:36 09.06.2020
1649 Clear 28 1004 66 0 1.34 202 09:18 09.06.2020
1650 Clear 28 1004 65 0 1.79 200 08:39 09.06.2020
1651 Clouds 28 1005 64 0 1.79 203 08:20 09.06.2020
1652 Clouds 28 1005 64 0 1.79 203 08:20 09.06.2020
1653 Clouds 29 1004 61 0 1.79 184 07:40 09.06.2020
1654 Clouds 29 1004 60 0 2.24 195 07:22 09.06.2020
1655 Clear 30 1005 70 11265 4.6 170 06:55 09.06.2020
1656 Clear 30 1005 70 11265 4.6 170 06:36 09.06.2020
1657 Clear 31 1005 70 11265 3.1 170 05:36 09.06.2020
1658 Clouds 30 1004 79 11265 1 130 03:52 09.06.2020
1659 Clouds 32 1003 66 11265 4.1 110 01:54 09.06.2020
1660 Clouds 32 1003 66 11265 4.1 110 01:36 09.06.2020
1661 Clouds 33 1003 63 11265 5.1 110 01:18 09.06.2020
1662 Clouds 34 1003 63 11265 5.1 110 00:39 09.06.2020
1663 Clouds 34 1004 53 11265 5.7 110 00:18 09.06.2020
1664 Clouds 35 1004 53 11265 5.7 110 23:41 08.06.2020
1665 Clouds 35 1004 53 11265 5.7 110 23:20 08.06.2020
1666 Clouds 36 1004 53 11265 2.6 100 22:56 08.06.2020
1667 Clouds 36 1004 53 11265 2.6 100 22:56 08.06.2020
1668 Clouds 36 1004 53 11265 2.6 100 22:38 08.06.2020
1669 Clouds 36 1004 53 11265 2.6 100 22:19 08.06.2020
1670 Clouds 36 1005 47 11265 1.5 160 21:55 08.06.2020
1671 Clouds 36 1005 47 11265 1.5 160 21:36 08.06.2020
1672 Clouds 36 1005 47 11265 1.5 160 21:18 08.06.2020
1673 Clouds 34 1006 56 11265 2.1 210 20:54 08.06.2020
1674 Clouds 35 1006 56 11265 2.1 210 20:36 08.06.2020
1675 Clouds 34 1006 56 11265 2.1 210 20:18 08.06.2020
1676 Clouds 34 1007 59 11265 4.6 180 19:43 08.06.2020
1677 Clouds 33 1007 62 11265 4.81 142 19:21 08.06.2020
1678 Clouds 32 1007 62 11265 4.81 142 18:43 08.06.2020
1679 Clouds 32 1007 62 11265 4.14 155 18:21 08.06.2020
1680 Clouds 31 1007 70 11265 2.6 160 17:57 08.06.2020
1681 Clouds 31 1007 70 11265 2.6 160 17:39 08.06.2020
1682 Clouds 31 1007 70 11265 2.6 160 17:39 08.06.2020
1683 Clouds 30 1007 70 11265 2.6 160 17:21 08.06.2020
1684 Clouds 29 1007 78 9656 3.6 180 16:58 08.06.2020
1685 Clouds 29 1007 78 9656 3.6 180 16:58 08.06.2020
1686 Clouds 28 1007 78 9656 3.6 180 16:39 08.06.2020
1687 Clouds 28 1007 78 9656 3.6 180 16:21 08.06.2020
1688 Clouds 27 1007 83 9656 1.5 190 15:42 08.06.2020
1689 Clouds 27 1007 83 9656 1.5 190 15:21 08.06.2020
1690 Clouds 25 1007 94 9656 4.74 174 14:57 08.06.2020
1691 Clouds 25 1007 94 9656 4.74 174 14:38 08.06.2020
1692 Clouds 25 1007 94 9656 4.31 179 14:18 08.06.2020
1693 Clouds 25 1007 94 9656 4.3 178 14:18 08.06.2020
1694 Clouds 25 1007 94 9656 4.3 178 13:42 08.06.2020
1695 Clouds 25 1007 94 9656 4.58 174 13:23 08.06.2020
1696 Clouds 25 1005 73 0 0.45 238 12:42 08.06.2020
1697 Clouds 25 1005 73 0 0.45 238 12:20 08.06.2020
1698 Clouds 25 1005 72 0 0.45 257 11:59 08.06.2020
1699 Clouds 25 1005 72 0 0.45 266 11:40 08.06.2020
1700 Clouds 25 1005 72 0 0.45 268 11:21 08.06.2020
1701 Clouds 26 1005 70 0 0.89 277 10:57 08.06.2020
1702 Clouds 26 1005 71 0 3.9 177 10:37 08.06.2020
1703 Clouds 26 1005 70 0 0.45 269 10:19 08.06.2020
1704 Clouds 26 1005 69 0 0.45 278 09:48 08.06.2020
1705 Clouds 26 1006 69 0 3.42 176 09:23 08.06.2020
1706 Clouds 27 1006 67 0 0.45 202 08:57 08.06.2020
1707 Clouds 27 1006 67 0 0.89 210 08:39 08.06.2020
1708 Clouds 27 1006 67 0 0.89 213 08:19 08.06.2020
1709 Clouds 28 1006 63 0 1.34 198 07:40 08.06.2020
1710 Clouds 28 1007 88 11265 2.37 172 07:21 08.06.2020
1711 Clouds 27 1007 88 11265 2.37 172 06:41 08.06.2020
1712 Clouds 27 1007 88 11265 1.33 162 06:21 08.06.2020
1713 Clouds 28 1006 83 11265 1.33 162 05:42 08.06.2020
1714 Clear 29 1005 79 11265 1 110 03:29 08.06.2020
1715 Clear 30 1005 74 11265 2.1 130 02:26 08.06.2020
1716 Clouds 32 1005 66 11265 2.1 110 01:44 08.06.2020
1717 Clouds 33 1004 59 11265 2.1 120 00:58 08.06.2020
1718 Clouds 34 1004 59 11265 2.1 120 00:25 08.06.2020
1719 Clouds 34 1005 56 11265 5.7 90 23:40 07.06.2020
1720 Clouds 34 1005 56 11265 5.7 90 23:19 07.06.2020
1721 Clouds 34 1006 59 11265 5.7 70 22:58 07.06.2020
1722 Clouds 34 1006 59 11265 5.7 70 22:38 07.06.2020
1723 Clouds 34 1006 59 11265 5.7 70 22:18 07.06.2020
1724 Clouds 34 1007 56 11265 4.2 94 21:58 07.06.2020
1725 Clouds 34 1007 56 11265 4.2 94 21:37 07.06.2020
1726 Clouds 34 1007 56 11265 4.36 101 21:19 07.06.2020
1727 Clouds 33 1008 59 11265 1 140 20:40 07.06.2020
1728 Clouds 33 1008 59 11265 1 140 20:21 07.06.2020
1729 Clouds 32 1009 59 11265 1 140 19:59 07.06.2020
1730 Clouds 33 1009 59 11265 1 140 19:41 07.06.2020
1731 Clouds 32 1009 59 11265 1 140 19:21 07.06.2020
1732 Smoke 31 1010 66 11265 2.98 118 19:00 07.06.2020
1733 Smoke 31 1010 66 11265 2.98 118 18:39 07.06.2020
1734 Smoke 30 1010 66 11265 2.02 148 18:21 07.06.2020
1735 Clouds 30 1010 70 11265 2.02 148 17:57 07.06.2020
1736 Clouds 30 1010 70 11265 2.02 148 17:38 07.06.2020
1737 Clouds 30 1010 70 11265 2.73 170 17:20 07.06.2020
1738 Clouds 28 1010 78 11265 2.73 170 16:43 07.06.2020
1739 Clouds 28 1010 78 11265 3.35 172 16:22 07.06.2020
1740 Clouds 26 1010 88 11265 3.35 172 15:44 07.06.2020
1741 Clouds 26 1010 88 11265 3.35 172 15:44 07.06.2020
1742 Clouds 26 1010 88 11265 3.33 172 15:22 07.06.2020
1743 Clouds 25 1009 94 11265 3.33 172 14:41 07.06.2020
1744 Clouds 25 1009 94 11265 2.84 176 14:23 07.06.2020
1745 Clouds 25 1009 94 11265 2.63 176 14:23 07.06.2020
1746 Clouds 25 1009 94 11265 2.63 176 14:23 07.06.2020
1747 Clouds 25 1009 94 11265 2.84 176 14:23 07.06.2020
1748 Clouds 25 1009 94 9656 2.84 176 13:57 07.06.2020
1749 Clouds 24 1007 77 0 1.34 257 13:37 07.06.2020
1750 Clouds 24 1007 77 0 1.34 257 13:37 07.06.2020
1751 Clouds 24 1007 77 0 1.34 257 13:37 07.06.2020
1752 Clouds 24 1007 78 0 2.38 178 13:18 07.06.2020
1753 Clouds 24 1006 78 0 0.89 248 12:43 07.06.2020
1754 Clouds 24 1006 78 0 0.45 248 12:24 07.06.2020
1755 Clouds 25 1006 76 0 1.75 192 11:55 07.06.2020
1756 Clouds 25 1006 76 0 1.75 192 11:37 07.06.2020
1757 Clouds 25 1006 75 0 0.45 266 11:19 07.06.2020
1758 Clouds 25 1006 75 0 0.45 266 11:19 07.06.2020
1759 Clouds 26 1007 74 0 0.45 188 10:45 07.06.2020
1760 Clouds 26 1007 74 0 0.45 188 10:45 07.06.2020
1761 Clouds 26 1007 74 0 1.38 216 10:22 07.06.2020
1762 Clouds 26 1008 75 0 1.38 216 09:59 07.06.2020
1763 Clouds 26 1008 75 0 0.45 246 09:41 07.06.2020
1764 Clouds 26 1008 76 0 0.45 246 09:21 07.06.2020
1765 Clouds 26 1009 74 0 0.89 227 08:59 07.06.2020
1766 Clouds 26 1009 73 0 0.45 227 08:40 07.06.2020
1767 Rain 26 1009 74 0 0.89 227 08:21 07.06.2020
1768 Rain 27 1010 72 0 0.89 244 07:41 07.06.2020
1769 Rain 27 1010 72 0 0.89 244 07:41 07.06.2020
1770 Clouds 27 1011 83 11265 0.45 204 06:55 07.06.2020
1771 Clear 27 1011 83 11265 1.5 90 05:54 07.06.2020
1772 Clear 28 1010 78 11265 1.5 40 04:22 07.06.2020
1773 Clouds 28 1009 74 9656 3.1 80 03:48 07.06.2020
1774 Clouds 28 1009 74 9656 3.1 80 03:48 07.06.2020
1775 Clouds 30 1009 66 11265 4.1 70 02:19 07.06.2020
1776 Clear 30 1008 66 9656 4.1 80 01:26 07.06.2020
1777 Clouds 31 1008 58 11265 3.6 80 00:48 07.06.2020
1778 Clouds 31 1008 58 11265 3.6 80 00:21 07.06.2020
1779 Clouds 31 1009 58 9656 5.1 60 23:59 06.06.2020
1780 Clouds 32 1009 58 9656 5.1 60 23:38 06.06.2020
1781 Clouds 32 1009 58 9656 5.1 60 23:20 06.06.2020
1782 Clouds 31 1010 62 9656 5.1 30 22:57 06.06.2020
1783 Clouds 32 1010 62 9656 5.1 30 22:39 06.06.2020
1784 Clouds 31 1010 62 9656 5.1 30 22:19 06.06.2020
1785 Clouds 31 1011 58 9656 4.6 50 21:56 06.06.2020
1786 Clouds 31 1011 58 9656 4.6 50 21:37 06.06.2020
1787 Clouds 31 1011 58 9656 4.6 50 21:19 06.06.2020
1788 Clouds 32 1011 59 9656 4.1 110 20:40 06.06.2020
1789 Clouds 32 1011 59 9656 4.1 110 20:20 06.06.2020
1790 Clouds 31 1011 58 9656 2.1 70 19:58 06.06.2020
1791 Clouds 32 1011 58 9656 2.1 70 19:40 06.06.2020
1792 Clouds 32 1011 58 9656 2.1 70 19:21 06.06.2020
1793 Clouds 31 1012 62 11265 3.6 20 18:55 06.06.2020
1794 Clouds 31 1012 62 11265 3.6 20 18:36 06.06.2020
1795 Clouds 31 1012 62 11265 3.6 20 18:18 06.06.2020
1796 Clouds 30 1012 66 11265 1.5 230 17:43 06.06.2020
1797 Clouds 30 1012 66 11265 1.5 230 17:20 06.06.2020
1798 Clouds 28 1011 78 9656 2.32 296 16:56 06.06.2020
1799 Clouds 28 1011 78 9656 2.32 296 16:38 06.06.2020
1800 Clouds 28 1011 78 9656 2.97 307 16:19 06.06.2020
1801 Clear 26 1011 94 11265 2.97 307 15:44 06.06.2020
1802 Clear 26 1011 94 11265 3.28 318 15:20 06.06.2020
1803 Clear 25 1010 94 11265 3.28 318 14:57 06.06.2020
1804 Clear 24 1010 94 11265 3.28 318 14:37 06.06.2020
1805 Clear 24 1010 94 11265 2.12 306 14:19 06.06.2020
1806 Clear 24 1009 94 11265 2.12 306 13:46 06.06.2020
1807 Clouds 24 1008 81 0 0.89 196 13:19 06.06.2020
1808 Clouds 25 1008 78 0 0.45 183 12:56 06.06.2020
1809 Clouds 25 1008 78 0 0.45 183 12:38 06.06.2020
1810 Clouds 25 1008 78 0 0.45 148 12:18 06.06.2020
1811 Clouds 26 1008 78 0 0.88 303 11:40 06.06.2020
1812 Clouds 25 1008 78 0 0.45 221 11:21 06.06.2020
1813 Clouds 25 1008 78 0 0.45 221 11:21 06.06.2020
1814 Clouds 25 1008 78 0 0.45 214 10:59 06.06.2020
1815 Clouds 25 1008 77 0 0.89 209 10:40 06.06.2020
1816 Clear 26 1009 74 0 0.89 221 10:22 06.06.2020
1817 Clear 27 1009 74 0 1.34 169 09:59 06.06.2020
1818 Clear 27 1009 74 0 1.34 169 09:41 06.06.2020
1819 Rain 27 1009 70 0 2.97 319 09:22 06.06.2020
1820 Rain 27 1009 70 0 0.45 57 08:47 06.06.2020
1821 Rain 27 1010 70 0 1.34 360 08:24 06.06.2020
1822 Rain 28 1010 69 0 1.34 360 07:56 06.06.2020
1823 Rain 28 1010 68 0 2.24 19 07:37 06.06.2020
1824 Clouds 28 1011 83 11265 3.6 10 07:19 06.06.2020
1825 Clouds 28 1011 83 11265 3.6 10 06:43 06.06.2020
1826 Clouds 28 1011 83 11265 3.6 10 06:24 06.06.2020
1827 Clouds 28 1010 78 11265 6.2 10 05:32 06.06.2020
1828 Clouds 28 1010 78 11265 4.6 20 04:49 06.06.2020
1829 Clouds 28 1009 83 11265 7.7 40 03:29 06.06.2020
1830 Clouds 30 1008 70 11265 7.7 40 01:59 06.06.2020
1831 Clouds 30 1008 70 11265 7.7 40 01:21 06.06.2020
1832 Clouds 31 1009 66 11265 6.7 20 00:56 06.06.2020
1833 Clouds 31 1009 66 11265 6.7 20 00:37 06.06.2020
1834 Clouds 31 1009 66 11265 6.7 20 00:19 06.06.2020
1835 Clouds 32 1009 62 11265 8.7 30 23:39 05.06.2020
1836 Clouds 32 1009 62 11265 8.7 30 23:19 05.06.2020
1837 Clouds 31 1009 66 11265 6.7 30 22:56 05.06.2020
1838 Clouds 32 1009 66 11265 6.7 30 22:37 05.06.2020
1839 Clouds 31 1009 66 11265 6.7 30 22:19 05.06.2020
1840 Clouds 31 1009 66 11265 6.7 30 22:19 05.06.2020
1841 Clouds 31 1010 66 11265 6.2 10 21:43 05.06.2020
1842 Clouds 31 1010 66 11265 6.2 10 21:23 05.06.2020
1843 Clouds 31 1010 62 11265 7.7 20 20:58 05.06.2020
1844 Clouds 31 1010 62 11265 7.7 20 20:39 05.06.2020
1845 Clouds 31 1010 62 11265 7.7 20 20:21 05.06.2020
1846 Clouds 31 1011 66 11265 6.2 30 19:44 05.06.2020
1847 Clouds 31 1011 66 11265 6.2 30 19:24 05.06.2020
1848 Clouds 31 1011 70 11265 6.7 10 18:58 05.06.2020
1849 Clouds 31 1011 70 11265 6.7 10 18:39 05.06.2020
1850 Clouds 31 1011 70 11265 6.7 10 18:20 05.06.2020
1851 Clouds 30 1011 74 11265 7.7 20 17:58 05.06.2020
1852 Clouds 30 1011 74 11265 7.7 20 17:39 05.06.2020
1853 Clouds 30 1011 74 11265 7.7 20 17:19 05.06.2020
1854 Clouds 29 1011 74 11265 6.2 360 16:39 05.06.2020
1855 Clouds 29 1011 74 11265 6.2 360 16:20 05.06.2020
1856 Clouds 28 1010 74 9656 5.1 10 15:55 05.06.2020
1857 Clouds 28 1010 74 9656 5.1 10 15:55 05.06.2020
1858 Clouds 28 1010 74 9656 5.1 10 15:36 05.06.2020
1859 Clouds 28 1010 74 9656 5.1 10 15:36 05.06.2020
1860 Clouds 28 1010 74 9656 5.1 10 15:18 05.06.2020
1861 Clouds 27 1009 83 9656 4.1 10 14:41 05.06.2020
1862 Clouds 27 1009 83 9656 4.1 10 14:22 05.06.2020
1863 Clouds 27 1009 88 9656 3.6 360 13:59 05.06.2020
1864 Clouds 26 1009 88 9656 3.6 360 13:40 05.06.2020
1865 Clouds 26 1009 88 9656 3.6 360 13:22 05.06.2020
1866 Rain 27 1007 72 0 2.68 17 12:42 05.06.2020
1867 Rain 27 1007 72 0 3.13 360 12:20 05.06.2020
1868 Rain 26 1007 75 0 1.79 350 11:56 05.06.2020
1869 Rain 26 1007 75 0 0.89 329 11:38 05.06.2020
1870 Rain 26 1007 74 0 1.34 344 11:19 05.06.2020
1871 Rain 27 1007 73 0 1.34 337 10:42 05.06.2020
1872 Rain 27 1008 72 0 1.79 326 10:22 05.06.2020
1873 Rain 27 1008 72 0 1.79 326 10:22 05.06.2020
1874 Rain 27 1008 73 0 2.24 327 09:59 05.06.2020
1875 Rain 27 1008 73 0 1.79 327 09:40 05.06.2020
1876 Rain 27 1008 73 0 1.79 339 09:21 05.06.2020
1877 Rain 27 1008 73 0 1.79 339 09:21 05.06.2020
1878 Rain 27 1009 72 0 2.24 338 08:59 05.06.2020
1879 Rain 27 1009 72 0 2.68 355 08:41 05.06.2020
1880 Rain 27 1009 71 0 1.79 346 08:19 05.06.2020
1881 Rain 27 1009 70 0 2.24 339 07:53 05.06.2020
1882 Rain 27 1009 70 0 1.79 338 07:35 05.06.2020
1883 Clouds 27 1011 88 11265 4.6 350 06:51 05.06.2020
1884 Clouds 27 1010 83 11265 6.2 360 05:24 05.06.2020
1885 Clouds 28 1009 78 11265 6.2 360 04:31 05.06.2020
1886 Clouds 28 1008 83 11265 7.7 20 03:49 05.06.2020
1887 Clouds 29 1007 74 11265 9.3 10 02:37 05.06.2020
1888 Clouds 29 1007 74 11265 9.3 10 02:18 05.06.2020
1889 Clouds 29 1007 74 11265 9.3 20 01:34 05.06.2020
1890 Clouds 30 1007 70 11265 8.2 10 00:55 05.06.2020
1891 Clouds 30 1007 70 11265 8.2 10 00:36 05.06.2020
1892 Clouds 30 1007 70 11265 8.2 10 00:18 05.06.2020
1893 Clouds 31 1007 62 11265 10.3 10 23:42 04.06.2020
1894 Clouds 32 1007 62 11265 10.3 10 23:24 04.06.2020
1895 Clouds 32 1007 66 11265 9.3 360 22:42 04.06.2020
1896 Clouds 32 1007 66 11265 9.3 360 22:22 04.06.2020
1897 Clouds 32 1008 62 11265 9.3 360 21:58 04.06.2020
1898 Clouds 32 1008 62 11265 9.3 360 21:39 04.06.2020
1899 Clouds 32 1008 62 11265 9.3 360 21:21 04.06.2020
1900 Clouds 32 1008 66 11265 8.7 10 20:57 04.06.2020
1901 Clouds 31 1008 66 11265 8.7 10 20:39 04.06.2020
1902 Clouds 31 1008 66 11265 8.7 10 20:20 04.06.2020
1903 Clouds 31 1009 70 11265 7.2 360 19:55 04.06.2020
1904 Clouds 31 1009 70 11265 7.2 360 19:37 04.06.2020
1905 Clouds 30 1009 70 11265 7.2 360 19:19 04.06.2020
1906 Clouds 30 1009 74 11265 6.2 360 18:39 04.06.2020
1907 Clouds 30 1009 74 11265 6.2 360 18:21 04.06.2020
1908 Clouds 28 1009 78 9656 7.7 350 17:58 04.06.2020
1909 Clouds 29 1009 78 9656 7.7 350 17:40 04.06.2020
1910 Clouds 29 1009 78 9656 7.7 350 17:19 04.06.2020
1911 Clouds 27 1009 88 9656 2.6 350 16:41 04.06.2020
1912 Clouds 26 1009 88 9656 2.6 350 16:20 04.06.2020
1913 Clouds 25 1009 94 9656 3.1 320 15:46 04.06.2020
1914 Clouds 25 1009 94 9656 3.1 320 15:27 04.06.2020
1915 Clouds 25 1008 94 11265 8.1 349 14:56 04.06.2020
1916 Clouds 24 1008 94 11265 8.1 349 14:37 04.06.2020
1917 Clouds 24 1008 94 11265 8.15 350 14:18 04.06.2020
1918 Clouds 24 1008 94 9656 4.1 330 13:41 04.06.2020
1919 Clouds 25 1008 94 9656 4.1 330 13:21 04.06.2020
1920 Rain 25 1007 77 0 5.36 309 12:59 04.06.2020
1921 Rain 25 1007 78 0 5.36 338 12:41 04.06.2020
1922 Rain 25 1007 78 0 4.92 339 12:22 04.06.2020
1923 Rain 25 1006 78 0 7.15 345 11:55 04.06.2020
1924 Rain 25 1006 79 0 5.36 355 11:37 04.06.2020
1925 Rain 25 1007 79 0 5.36 17 11:19 04.06.2020
1926 Rain 25 1007 79 0 6.71 10 10:41 04.06.2020
1927 Rain 25 1007 78 0 5.81 340 10:23 04.06.2020
1928 Rain 25 1007 79 0 6.26 22 09:57 04.06.2020
1929 Rain 25 1007 78 0 6.71 348 09:38 04.06.2020
1930 Rain 25 1007 78 0 7.15 22 09:20 04.06.2020
1931 Rain 26 1008 74 0 8.94 12 08:42 04.06.2020
1932 Clouds 27 1008 70 0 8.49 360 08:24 04.06.2020
1933 Clouds 27 1008 68 0 7.15 14 07:46 04.06.2020
1934 Rain 27 1008 67 0 8.49 355 07:22 04.06.2020
1935 Clouds 27 1009 78 9656 10.3 350 06:42 04.06.2020
1936 Clouds 27 1009 78 9656 10.3 350 06:23 04.06.2020
1937 Clouds 27 1009 78 9656 8.2 350 05:34 04.06.2020
1938 Clouds 28 1007 74 9656 10.3 360 03:54 04.06.2020
1939 Clouds 28 1007 78 9656 9.3 330 02:56 04.06.2020
1940 Clouds 28 1007 74 9656 8.7 20 01:42 04.06.2020
1941 Clouds 28 1007 74 9656 8.7 20 01:19 04.06.2020
1942 Clouds 30 1007 66 9656 7.7 360 00:28 04.06.2020
1943 Clouds 31 1008 66 9656 5.1 350 23:41 03.06.2020
1944 Clouds 31 1008 66 9656 5.1 350 23:20 03.06.2020
1945 Clouds 30 1008 74 8047 8.2 20 22:57 03.06.2020
1946 Clouds 30 1008 74 8047 8.2 20 22:38 03.06.2020
1947 Clouds 30 1008 74 8047 8.2 20 22:18 03.06.2020
1948 Rain 28 1010 78 8047 6.7 340 21:56 03.06.2020
1949 Rain 28 1010 78 8047 6.7 340 21:37 03.06.2020
1950 Rain 28 1010 78 8047 6.7 340 21:19 03.06.2020
1951 Drizzle 28 1010 88 8047 5.1 350 20:43 03.06.2020
1952 Drizzle 28 1010 88 8047 5.1 350 20:21 03.06.2020
1953 Rain 27 1011 88 8047 6.2 10 19:58 03.06.2020
1954 Drizzle 26 1011 88 8047 6.2 10 19:40 03.06.2020
1955 Drizzle 26 1011 88 8047 6.2 10 19:21 03.06.2020
1956 Drizzle 26 1011 88 8047 6.7 360 18:59 03.06.2020
1957 Clouds 28 1011 74 9656 6.7 360 18:41 03.06.2020
1958 Clouds 28 1011 74 9656 6.7 360 18:20 03.06.2020
1959 Rain 28 1011 83 8047 6.2 350 17:45 03.06.2020
1960 Rain 27 1010 78 9656 7.7 360 17:24 03.06.2020
1961 Rain 27 1010 78 9656 5.1 360 16:59 03.06.2020
1962 Rain 27 1010 78 9656 5.1 360 16:41 03.06.2020
1963 Clouds 27 1010 78 9656 5.1 360 16:20 03.06.2020
1964 Clouds 27 1009 78 9656 1 330 15:55 03.06.2020
1965 Clouds 27 1009 78 9656 1 330 15:37 03.06.2020
1966 Clouds 27 1009 78 9656 1 330 15:18 03.06.2020
1967 Clouds 27 1009 78 9656 2.1 340 14:44 03.06.2020
1968 Clouds 26 1009 78 9656 2.1 340 14:24 03.06.2020
1969 Clouds 27 1007 62 0 1.79 317 13:41 03.06.2020
1970 Clouds 27 1007 62 0 2.68 344 13:22 03.06.2020
1971 Clouds 27 1007 63 0 3.58 316 12:57 03.06.2020
1972 Clouds 27 1007 63 0 3.13 330 12:39 03.06.2020
1973 Rain 27 1007 63 0 4.47 340 12:19 03.06.2020
1974 Rain 27 1007 64 0 4.92 350 11:44 03.06.2020
1975 Rain 28 1007 63 0 3.58 5 11:25 03.06.2020
1976 Rain 28 1007 61 0 5.36 355 10:44 03.06.2020
1977 Rain 28 1007 61 0 8.05 12 10:25 03.06.2020
1978 Rain 28 1008 63 0 8.94 25 09:58 03.06.2020
1979 Rain 27 1008 65 0 7.6 14 09:37 03.06.2020
1980 Clouds 28 1008 64 0 6.71 15 09:18 03.06.2020
1981 Clouds 27 1009 63 0 8.49 37 08:47 03.06.2020
1982 Clouds 27 1009 66 0 8.49 11 08:22 03.06.2020
1983 Clouds 27 1010 67 0 6.71 5 07:50 03.06.2020
1984 Clouds 27 1012 83 9656 8.2 360 07:24 03.06.2020
1985 Clouds 27 1012 83 9656 8.2 360 06:59 03.06.2020
1986 Clouds 27 1012 83 9656 8.2 360 06:41 03.06.2020
1987 Clouds 27 1012 83 9656 8.2 360 06:21 03.06.2020
1988 Clouds 27 1011 83 9656 9.8 350 05:44 03.06.2020
1989 Clouds 27 1010 83 9656 10.3 10 04:19 03.06.2020
1990 Sand 27 1009 83 11265 11.3 10 03:41 03.06.2020
1991 Sand 28 1009 78 11265 8.7 10 02:33 03.06.2020
1992 Sand 28 1008 74 11265 10.3 20 01:34 03.06.2020
1993 Sand 28 1009 74 11265 7.7 40 00:38 03.06.2020
1994 Sand 28 1009 74 11265 7.7 40 00:19 03.06.2020
1995 Sand 29 1009 74 11265 10.3 350 23:43 02.06.2020
1996 Sand 29 1009 74 11265 10.3 350 23:24 02.06.2020
1997 Sand 30 1009 66 11265 8.7 30 22:40 02.06.2020
1998 Sand 30 1009 66 11265 8.7 30 22:19 02.06.2020
1999 Clouds 31 1010 62 11265 11.3 10 21:57 02.06.2020
2000 Clouds 31 1010 62 11265 11.3 10 21:39 02.06.2020
2001 Clouds 32 1010 62 11265 11.3 10 21:21 02.06.2020
2002 Clouds 32 1010 62 11265 11.3 10 21:21 02.06.2020
2003 Clouds 32 1010 62 11265 11.3 10 21:21 02.06.2020
2004 Clouds 32 1011 55 11265 6.7 350 20:59 02.06.2020
2005 Clouds 32 1011 55 11265 6.7 350 20:40 02.06.2020
2006 Clouds 32 1011 55 11265 6.7 350 20:22 02.06.2020
2007 Clouds 32 1011 58 11265 10.3 360 19:46 02.06.2020
2008 Clouds 32 1011 58 11265 10.3 360 19:26 02.06.2020
2009 Clouds 31 1012 62 11265 6.7 350 18:59 02.06.2020
2010 Clouds 31 1012 62 11265 6.7 350 18:40 02.06.2020
2011 Clouds 31 1012 62 11265 6.7 350 18:40 02.06.2020
2012 Clouds 31 1012 62 11265 6.7 350 18:21 02.06.2020
2013 Clouds 31 1012 58 11265 4.6 20 17:59 02.06.2020
2014 Clouds 31 1012 58 11265 4.6 20 17:40 02.06.2020
2015 Clouds 30 1012 58 11265 4.6 20 17:21 02.06.2020
2016 Clouds 30 1012 58 11265 1.5 330 16:56 02.06.2020
2017 Clouds 30 1012 58 11265 1.5 330 16:37 02.06.2020
2018 Clouds 30 1012 58 11265 1.5 330 16:19 02.06.2020
2019 Clouds 27 1012 83 11265 5.92 326 15:41 02.06.2020
2020 Clouds 27 1012 83 11265 5.49 331 15:22 02.06.2020
2021 Clouds 25 1011 88 11265 5.49 331 14:48 02.06.2020
2022 Clouds 24 1011 88 11265 4.98 329 14:28 02.06.2020
2023 Clouds 24 1011 88 9656 5.66 324 13:57 02.06.2020
2024 Clouds 24 1011 88 9656 5.66 324 13:37 02.06.2020
2025 Clouds 24 1011 88 9656 5.66 327 13:19 02.06.2020
2026 Clouds 26 1009 65 0 0.89 272 12:57 02.06.2020
2027 Clouds 26 1009 65 0 0.89 272 12:38 02.06.2020
2028 Clouds 27 1009 63 0 1.34 285 12:20 02.06.2020
2029 Clouds 27 1009 64 0 2.24 346 11:43 02.06.2020
2030 Clouds 27 1009 64 0 1.34 355 11:24 02.06.2020
2031 Clouds 27 1009 64 0 1.34 355 10:59 02.06.2020
2032 Clouds 27 1009 63 0 3.58 360 10:41 02.06.2020
2033 Clouds 27 1009 63 0 3.58 360 10:41 02.06.2020
2034 Rain 27 1010 63 0 4.02 355 10:22 02.06.2020
2035 Rain 27 1010 64 0 4.47 12 09:43 02.06.2020
2036 Clouds 27 1011 65 0 6.26 355 09:22 02.06.2020
2037 Clouds 27 1011 70 0 5.36 9 08:57 02.06.2020
2038 Clouds 27 1012 68 0 5.81 9 08:29 02.06.2020
2039 Clouds 27 1012 68 0 5.81 355 07:59 02.06.2020
2040 Clouds 27 1012 70 0 5.81 38 07:39 02.06.2020
2041 Clouds 27 1012 68 0 4.47 350 07:19 02.06.2020
2042 Clouds 27 1014 78 8047 6.2 10 06:43 02.06.2020
2043 Clouds 27 1013 83 8047 7.7 10 05:45 02.06.2020
2044 Clouds 27 1013 83 9656 4.1 350 04:52 02.06.2020
2045 Clouds 27 1012 78 9656 6.2 20 03:19 02.06.2020
2046 Clouds 28 1012 78 8047 7.7 40 02:18 02.06.2020
2047 Clouds 29 1011 74 9656 12.3 360 00:51 02.06.2020
2048 Clouds 29 1011 74 9656 12.3 360 00:22 02.06.2020
2049 Clouds 29 1012 70 8047 10.3 20 23:39 01.06.2020
2050 Clouds 29 1012 70 8047 10.3 20 23:20 01.06.2020
2051 Clouds 29 1012 70 9656 10.3 20 22:58 01.06.2020
2052 Clouds 30 1012 70 9656 10.3 20 22:39 01.06.2020
2053 Clouds 30 1012 70 9656 10.3 20 22:19 01.06.2020
2054 Clouds 30 1013 70 8047 7.7 10 21:42 01.06.2020
2055 Clouds 31 1013 70 8047 7.7 10 21:22 01.06.2020
2056 Clouds 31 1013 70 8047 11.3 40 20:59 01.06.2020
2057 Clouds 30 1013 70 8047 11.3 40 20:41 01.06.2020
2058 Clouds 30 1014 66 8047 8.2 20 20:21 01.06.2020
2059 Clouds 30 1014 66 8047 8.2 20 19:58 01.06.2020
2060 Clouds 30 1014 66 8047 8.2 20 19:58 01.06.2020
2061 Clouds 29 1014 66 8047 8.2 20 19:39 01.06.2020
2062 Clouds 29 1014 66 8047 8.2 20 19:20 01.06.2020
2063 Clouds 29 1014 69 8047 7.2 360 18:57 01.06.2020
2064 Clouds 28 1014 69 8047 7.2 360 18:38 01.06.2020
2065 Clouds 28 1014 69 8047 7.2 360 18:38 01.06.2020
2066 Clouds 28 1014 69 8047 7.2 360 18:19 01.06.2020
2067 Clouds 28 1014 74 8047 6.7 10 17:41 01.06.2020
2068 Clouds 28 1014 74 8047 6.7 10 17:21 01.06.2020
2069 Clouds 28 1014 78 8047 7.7 10 16:58 01.06.2020
2070 Clouds 28 1014 78 8047 7.7 10 16:39 01.06.2020
2071 Clouds 28 1014 78 8047 7.7 10 16:19 01.06.2020
2072 Clouds 26 1013 88 8047 6.2 360 15:54 01.06.2020
2073 Clouds 26 1013 88 8047 6.2 360 15:36 01.06.2020
2074 Clouds 26 1013 88 8047 6.2 360 15:18 01.06.2020
2075 Clouds 25 1013 88 8047 3.6 360 14:41 01.06.2020
2076 Clouds 25 1013 88 8047 3.6 360 14:23 01.06.2020
2077 Clouds 25 1012 94 8047 4.1 10 13:58 01.06.2020
2078 Clouds 25 1012 94 8047 4.1 10 13:39 01.06.2020
2079 Clouds 25 1012 94 8047 4.1 10 13:20 01.06.2020
2080 Rain 25 1012 94 8047 4.1 10 12:57 01.06.2020
2081 Rain 25 1010 76 0 4.02 32 12:39 01.06.2020
2082 Rain 25 1010 76 0 4.02 32 12:39 01.06.2020
2083 Rain 25 1011 76 0 4.02 23 12:20 01.06.2020
2084 Rain 26 1011 75 0 3.58 36 11:41 01.06.2020
2085 Rain 26 1011 71 0 3.58 32 11:23 01.06.2020
2086 Rain 26 1011 68 0 1.79 5 10:59 01.06.2020
2087 Rain 26 1011 70 0 2.24 351 10:39 01.06.2020
2088 Rain 26 1011 71 0 1.79 342 10:20 01.06.2020
2089 Rain 26 1011 70 0 2.68 342 09:56 01.06.2020
2090 Rain 26 1011 70 0 3.58 355 09:38 01.06.2020
2091 Rain 26 1012 70 0 4.92 355 09:19 01.06.2020
2092 Rain 27 1012 68 0 4.02 355 08:46 01.06.2020
2093 Rain 27 1012 67 0 3.58 9 08:25 01.06.2020
2094 Rain 27 1012 68 0 3.58 26 07:45 01.06.2020
2095 Rain 27 1013 68 0 3.13 10 07:27 01.06.2020
2096 Clouds 27 1014 88 11265 5.1 10 06:57 01.06.2020
2097 Clouds 27 1014 88 11265 5.1 10 06:20 01.06.2020
2098 Clouds 26 1014 88 11265 6.7 10 05:50 01.06.2020
2099 Clouds 27 1013 83 11265 6.2 10 04:23 01.06.2020
2100 Clouds 26 1012 83 11265 7.2 30 03:46 01.06.2020
2101 Clouds 26 1012 83 11265 7.2 30 03:18 01.06.2020
2102 Clouds 29 1012 66 11265 9.3 10 01:47 01.06.2020
2103 Clouds 29 1012 66 11265 9.3 10 01:29 01.06.2020
2104 Clouds 30 1012 66 11265 4.6 20 00:57 01.06.2020
2105 Clouds 30 1012 66 11265 4.6 20 00:39 01.06.2020
2106 Clouds 30 1012 66 11265 4.6 20 00:20 01.06.2020
2107 Clouds 30 1012 62 11265 10.3 20 23:55 31.05.2020
2108 Clouds 30 1012 62 11265 10.3 20 23:55 31.05.2020
2109 Clouds 30 1012 62 11265 10.3 20 23:36 31.05.2020
2110 Clouds 31 1012 62 11265 10.3 20 23:18 31.05.2020
2111 Clouds 29 1013 69 11265 10.3 20 22:42 31.05.2020
2112 Clouds 30 1013 69 11265 10.3 20 22:24 31.05.2020
2113 Clouds 30 1014 58 11265 11.3 40 21:58 31.05.2020
2114 Clouds 30 1014 58 11265 11.3 40 21:39 31.05.2020
2115 Clouds 30 1014 58 11265 11.3 40 21:21 31.05.2020
2116 Clouds 30 1014 58 11265 11.3 40 21:21 31.05.2020
2117 Clouds 30 1014 58 11265 11.3 40 21:21 31.05.2020
2118 Clouds 30 1014 62 11265 11.8 20 20:48 31.05.2020
2119 Clouds 29 1014 62 11265 11.8 20 20:25 31.05.2020
2120 Clouds 30 1014 58 11265 8.7 10 19:57 31.05.2020
2121 Clouds 30 1014 58 11265 8.7 10 19:38 31.05.2020
2122 Clouds 30 1014 58 11265 8.7 10 19:20 31.05.2020
2123 Clouds 29 1014 62 11265 3.1 350 18:58 31.05.2020
2124 Clouds 29 1014 62 11265 3.1 350 18:39 31.05.2020
2125 Clouds 30 1014 62 11265 3.1 350 18:21 31.05.2020
2126 Clouds 30 1014 62 11265 3.1 350 18:21 31.05.2020
2127 Clouds 28 1014 65 11265 2.6 360 17:42 31.05.2020
2128 Clouds 28 1014 65 11265 2.6 360 17:24 31.05.2020
2129 Clouds 28 1014 61 11265 4.1 340 16:42 31.05.2020
2130 Clouds 28 1014 61 11265 4.1 340 16:22 31.05.2020
2131 Clouds 26 1014 78 11265 1 300 15:57 31.05.2020
2132 Clouds 26 1014 78 11265 1 300 15:57 31.05.2020
2133 Clouds 26 1014 78 11265 1 300 15:37 31.05.2020
2134 Clouds 26 1014 78 11265 1 300 15:19 31.05.2020
2135 Clouds 24 1014 88 8047 4.33 334 14:44 31.05.2020
2136 Clouds 23 1014 88 8047 2.64 310 14:19 31.05.2020
2137 Clouds 24 1013 78 9656 2.64 310 13:56 31.05.2020
2138 Clouds 24 1013 78 9656 2.64 310 13:37 31.05.2020
2139 Clouds 24 1013 78 9656 2.91 310 13:19 31.05.2020
2140 Clouds 25 1011 63 0 1.34 300 12:55 31.05.2020
2141 Clouds 25 1011 62 0 1.34 338 12:36 31.05.2020
2142 Clouds 25 1011 61 0 1.79 310 12:18 31.05.2020
2143 Clouds 26 1011 65 0 3.58 355 11:42 31.05.2020
2144 Clouds 26 1011 65 0 4.02 360 11:21 31.05.2020
2145 Clouds 26 1011 66 0 2.24 344 10:46 31.05.2020
2146 Clouds 27 1011 66 0 3.13 5 10:28 31.05.2020
2147 Clouds 27 1012 67 0 3.13 350 09:59 31.05.2020
2148 Clouds 27 1012 67 0 3.13 17 09:41 31.05.2020
2149 Clouds 27 1012 66 0 3.58 13 09:21 31.05.2020
2150 Clouds 27 1013 65 0 4.92 20 08:43 31.05.2020
2151 Clouds 27 1013 64 0 3.58 5 08:24 31.05.2020
2152 Clouds 27 1013 65 0 4.92 19 07:52 31.05.2020
2153 Clouds 27 1014 63 0 4.92 15 07:22 31.05.2020
2154 Clouds 27 1014 63 0 4.92 15 07:22 31.05.2020
2155 Clouds 27 1015 74 11265 6.2 30 06:58 31.05.2020
2156 Clouds 27 1015 74 11265 6.2 30 06:36 31.05.2020
2157 Clouds 27 1015 74 11265 7.7 360 05:56 31.05.2020
2158 Clouds 27 1015 74 11265 7.7 360 05:37 31.05.2020
2159 Clouds 27 1014 78 11265 6.2 20 04:20 31.05.2020
2160 Clouds 27 1013 74 9656 6.2 20 03:45 31.05.2020
2161 Clouds 28 1012 69 11265 6.2 20 02:50 31.05.2020
2162 Clouds 29 1012 66 11265 6.2 20 01:46 31.05.2020
2163 Clouds 30 1012 58 11265 6.2 10 00:46 31.05.2020
2164 Clouds 30 1012 58 11265 6.2 10 00:28 31.05.2020
2165 Clouds 30 1012 62 9656 7.7 20 23:42 30.05.2020
2166 Clouds 30 1012 62 9656 7.7 20 23:24 30.05.2020
2167 Clouds 30 1013 58 9656 7.7 20 22:57 30.05.2020
2168 Clouds 30 1013 58 9656 7.7 20 22:39 30.05.2020
2169 Clouds 31 1013 58 9656 7.7 20 22:21 30.05.2020
2170 Clouds 30 1014 58 9656 8.2 10 21:43 30.05.2020
2171 Clouds 31 1014 58 9656 8.2 10 21:22 30.05.2020
2172 Clouds 31 1014 52 9656 7.2 360 20:58 30.05.2020
2173 Clouds 31 1014 52 9656 7.2 360 20:40 30.05.2020
2174 Clouds 31 1014 52 9656 7.2 360 20:21 30.05.2020
2175 Clouds 31 1014 55 9656 5.7 350 19:58 30.05.2020
2176 Clouds 31 1014 55 9656 5.7 350 19:40 30.05.2020
2177 Clouds 31 1014 55 9656 5.7 350 19:20 30.05.2020
2178 Clouds 29 1015 54 9656 4.1 340 18:43 30.05.2020
2179 Clouds 29 1015 54 9656 4.1 340 18:20 30.05.2020
2180 Clouds 29 1015 54 9656 3.1 340 17:43 30.05.2020
2181 Clouds 29 1015 54 9656 3.1 340 17:24 30.05.2020
2182 Clouds 27 1015 78 8047 3.1 330 16:58 30.05.2020
2183 Clouds 26 1015 78 8047 3.1 330 16:39 30.05.2020
2184 Clouds 26 1015 78 8047 3.1 330 16:39 30.05.2020
2185 Clouds 26 1015 78 8047 3.1 330 16:21 30.05.2020
2186 Clouds 24 1015 83 8047 3.1 360 15:42 30.05.2020
2187 Clouds 24 1015 83 8047 3.1 360 15:24 30.05.2020
2188 Clouds 25 1014 83 9656 6.96 341 14:44 30.05.2020
2189 Clouds 24 1014 83 9656 7.43 344 14:25 30.05.2020
2190 Clouds 24 1014 88 9656 7.28 347 13:44 30.05.2020
2191 Clouds 24 1014 88 9656 7.68 345 13:24 30.05.2020
2192 Clouds 24 1012 68 0 7.68 345 12:42 30.05.2020
2193 Rain 24 1012 67 0 0.45 95 12:21 30.05.2020
2194 Rain 24 1012 68 0 0.45 274 11:58 30.05.2020
2195 Rain 24 1012 68 0 0.45 274 11:40 30.05.2020
2196 Rain 24 1012 66 0 0.45 342 11:22 30.05.2020
2197 Rain 24 1012 66 0 0.45 342 11:22 30.05.2020
2198 Rain 24 1013 65 0 0.45 313 10:42 30.05.2020
2199 Clouds 24 1013 65 0 0.45 313 10:21 30.05.2020
2200 Clouds 26 1013 62 0 1.79 309 09:51 30.05.2020
2201 Clouds 26 1013 62 0 1.79 309 09:33 30.05.2020
2202 Rain 26 1014 57 0 2.68 340 08:52 30.05.2020
2203 Rain 26 1014 57 0 2.68 340 08:33 30.05.2020
2204 Rain 27 1014 58 0 6.26 10 07:50 30.05.2020
2205 Rain 27 1014 58 0 6.26 10 07:27 30.05.2020
2206 Clouds 27 1016 74 11265 7.7 10 06:59 30.05.2020
2207 Clouds 27 1016 74 11265 7.7 10 06:25 30.05.2020
2208 Clouds 27 1016 83 11265 6.2 30 05:49 30.05.2020
2209 Clouds 26 1014 78 9656 5.1 10 04:33 30.05.2020
2210 Clouds 27 1014 74 9656 7.7 10 02:34 30.05.2020
2211 Clouds 27 1013 74 9656 7.7 360 01:56 30.05.2020
2212 Clouds 28 1013 69 9656 10.3 10 00:44 30.05.2020
2213 Clouds 28 1013 69 9656 10.3 10 00:23 30.05.2020
2214 Sand 28 1012 69 8047 12.9 360 23:58 29.05.2020
2215 Sand 28 1012 69 8047 12.9 360 23:38 29.05.2020
2216 Sand 28 1012 69 8047 12.9 360 23:19 29.05.2020
2217 Clouds 30 1013 55 9656 10.3 360 22:42 29.05.2020
2218 Clouds 30 1013 55 9656 10.3 360 22:21 29.05.2020
2219 Clouds 30 1014 66 9656 10.3 10 21:59 29.05.2020
2220 Clouds 30 1014 66 9656 10.3 10 21:39 29.05.2020
2221 Clouds 30 1014 66 9656 10.3 10 21:20 29.05.2020
2222 Clouds 30 1014 66 9656 7.7 10 20:55 29.05.2020
2223 Clouds 30 1014 66 9656 7.7 10 20:37 29.05.2020
2224 Clouds 30 1014 66 9656 7.7 10 20:18 29.05.2020
2225 Clouds 31 1013 52 11265 5.7 30 19:42 29.05.2020
2226 Clouds 32 1013 52 11265 5.7 30 19:23 29.05.2020
2227 Clouds 32 1012 55 11265 2.73 50 18:47 29.05.2020
2228 Clouds 31 1012 55 11265 1.34 57 18:22 29.05.2020
2229 Clouds 30 1012 55 9656 3.1 30 17:57 29.05.2020
2230 Clouds 30 1012 55 9656 3.1 30 17:38 29.05.2020
2231 Clouds 30 1012 55 9656 3.1 30 17:38 29.05.2020
2232 Clouds 30 1012 55 9656 3.1 30 17:20 29.05.2020
2233 Clouds 28 1012 69 9656 4.6 20 16:45 29.05.2020
2234 Clouds 27 1012 69 9656 4.6 20 16:27 29.05.2020
2235 Clouds 26 1012 83 9656 2.6 20 15:57 29.05.2020
2236 Clouds 25 1012 83 9656 2.6 20 15:39 29.05.2020
2237 Clouds 25 1012 83 9656 2.6 20 15:20 29.05.2020
2238 Clouds 23 1013 94 9656 0.53 203 14:51 29.05.2020
2239 Clouds 22 1013 94 9656 0.68 173 14:24 29.05.2020
2240 Clouds 22 1013 94 9656 3.32 187 13:58 29.05.2020
2241 Clouds 23 1013 94 9656 3.32 187 13:40 29.05.2020
2242 Clouds 23 1013 94 9656 2.62 180 13:21 29.05.2020
2243 Rain 23 1011 71 0 3.13 172 12:44 29.05.2020
2244 Rain 27 1013 83 0 1.1 96 12:25 29.05.2020
2245 Rain 27 1013 83 0 1.1 96 11:46 29.05.2020
2246 Rain 28 1013 83 0 1.4 51 11:27 29.05.2020
2247 Rain 28 1013 83 0 1.4 51 10:58 29.05.2020
2248 Rain 28 1013 83 0 1.4 51 10:40 29.05.2020
2249 Rain 28 1013 85 0 1.8 18 10:21 29.05.2020
2250 Rain 28 1013 85 0 1.8 18 09:45 29.05.2020
2251 Rain 28 1014 86 0 2.7 36 09:21 29.05.2020
2252 Rain 29 1011 72 0 2.68 90 08:57 29.05.2020
2253 Rain 29 1011 72 0 2.68 90 08:39 29.05.2020
2254 Clouds 29 1011 72 0 2.68 90 08:20 29.05.2020
2255 Clouds 29 1011 71 0 3.13 107 07:44 29.05.2020
2256 Clouds 29 1011 70 0 4.47 118 07:26 29.05.2020
2257 Clear 30 1012 83 9656 4.1 70 06:49 29.05.2020
2258 Clear 30 1012 83 9656 4.1 70 06:28 29.05.2020
2259 Clear 30 1012 89 9656 2.6 80 05:56 29.05.2020
2260 Clouds 30 1008 79 8047 2.6 70 03:55 29.05.2020
2261 Clouds 32 1008 66 8047 4.1 70 01:47 29.05.2020
2262 Clouds 32 1008 66 8047 4.1 70 01:25 29.05.2020
2263 Clouds 32 1008 66 8047 4.1 70 01:25 29.05.2020
2264 Clouds 34 1008 59 8047 5.7 60 00:47 29.05.2020
2265 Clouds 34 1008 59 8047 5.7 60 00:22 29.05.2020
2266 Clouds 34 1009 59 8047 4.6 110 23:41 28.05.2020
2267 Clouds 34 1009 59 8047 4.6 110 23:19 28.05.2020
2268 Clouds 34 1010 56 6437 5.1 100 22:45 28.05.2020
2269 Clouds 34 1010 56 6437 5.1 100 22:27 28.05.2020
2270 Clouds 34 1011 63 6437 5.1 100 21:59 28.05.2020
2271 Clouds 34 1011 63 6437 5.1 100 21:40 28.05.2020
2272 Clouds 35 1011 63 6437 5.1 100 21:20 28.05.2020
2273 Clouds 35 1012 50 6437 4.61 84 20:58 28.05.2020
2274 Clouds 35 1012 50 6437 4.61 84 20:40 28.05.2020
2275 Clouds 35 1012 50 6437 3.33 84 20:19 28.05.2020
2276 Clouds 34 1012 59 8047 2.1 190 19:57 28.05.2020
2277 Clouds 34 1012 59 8047 2.1 190 19:57 28.05.2020
2278 Clouds 34 1012 59 8047 2.1 190 19:39 28.05.2020
2279 Clouds 34 1012 59 8047 2.1 190 19:39 28.05.2020
2280 Clouds 33 1012 59 8047 2.1 190 19:20 28.05.2020
2281 Clouds 33 1013 62 8047 2.19 94 18:43 28.05.2020
2282 Clouds 32 1013 62 8047 0.58 119 18:25 28.05.2020
2283 Clouds 32 1013 70 6437 2.1 170 17:57 28.05.2020
2284 Clouds 31 1013 70 6437 2.1 170 17:39 28.05.2020
2285 Clouds 31 1013 70 6437 2.1 170 17:19 28.05.2020
2286 Mist 30 1013 83 6437 1.07 237 16:45 28.05.2020
2287 Mist 30 1013 83 6437 1.55 254 16:21 28.05.2020
2288 Mist 29 1012 94 6437 1.55 254 15:47 28.05.2020
2289 Mist 28 1012 94 6437 1.72 270 15:25 28.05.2020
2290 Haze 28 1012 94 8047 1.72 270 14:59 28.05.2020
2291 Mist 27 1012 94 8047 1.72 270 14:40 28.05.2020
2292 Mist 27 1012 94 8047 1.18 307 14:22 28.05.2020
2293 Mist 27 1012 94 8047 1.58 290 14:22 28.05.2020
2294 Haze 27 1012 94 9656 1.18 307 13:45 28.05.2020
2295 Mist 27 1012 94 9656 1.12 341 13:27 28.05.2020
2296 Clouds 27 1010 78 0 1.12 341 12:43 28.05.2020
2297 Clouds 27 1010 78 0 1.57 332 12:20 28.05.2020
2298 Clouds 28 1010 77 0 1.57 332 11:54 28.05.2020
2299 Clouds 28 1010 76 0 0.45 213 11:36 28.05.2020
2300 Clouds 28 1010 76 0 0.45 213 11:36 28.05.2020
2301 Clouds 28 1010 76 0 0.45 213 11:36 28.05.2020
2302 Clouds 28 1010 76 0 0.45 212 11:18 28.05.2020
2303 Clouds 28 1010 75 0 0.89 113 10:42 28.05.2020
2304 Clouds 28 1010 75 0 0.45 126 10:24 28.05.2020
2305 Clouds 28 1010 75 0 0.89 115 09:41 28.05.2020
2306 Clouds 28 1010 74 0 0.89 123 09:22 28.05.2020
2307 Clouds 29 1011 73 0 0.89 108 08:57 28.05.2020
2308 Clouds 29 1011 73 0 0.89 112 08:39 28.05.2020
2309 Clouds 29 1011 72 0 0.89 91 08:20 28.05.2020
2310 Clouds 29 1011 71 0 1.79 78 07:41 28.05.2020
2311 Clouds 29 1012 89 8047 2.6 10 07:23 28.05.2020
2312 Clouds 29 1012 89 8047 2.6 10 06:44 28.05.2020
2313 Clouds 29 1012 89 8047 2.6 10 06:26 28.05.2020
2314 Clouds 29 1011 89 8047 2.6 10 05:38 28.05.2020
2315 Clouds 29 1010 83 8047 3.1 360 04:36 28.05.2020
2316 Clouds 29 1010 83 8047 3.1 360 04:18 28.05.2020
2317 Clouds 31 1009 66 8047 4.1 40 02:55 28.05.2020
2318 Clouds 31 1009 66 8047 4.1 40 02:28 28.05.2020
2319 Clouds 32 1010 62 8047 3.1 70 01:44 28.05.2020
2320 Clouds 32 1009 55 8047 5.7 40 00:47 28.05.2020
2321 Clouds 33 1009 55 8047 5.7 40 00:19 28.05.2020
2322 Clouds 33 1010 59 8047 6.2 30 23:56 27.05.2020
2323 Clouds 33 1010 59 8047 6.2 30 23:36 27.05.2020
2324 Clouds 34 1010 59 8047 6.2 30 23:18 27.05.2020
2325 Haze 35 1011 47 6437 5.7 20 22:41 27.05.2020
2326 Haze 35 1011 47 6437 5.7 20 22:23 27.05.2020
2327 Clouds 36 1011 50 8047 5.1 360 21:56 27.05.2020
2328 Clouds 36 1011 50 8047 5.1 360 21:37 27.05.2020
2329 Clouds 36 1011 50 8047 5.1 360 21:19 27.05.2020
2330 Clouds 35 1012 53 8047 3.6 330 20:57 27.05.2020
2331 Clouds 35 1012 53 8047 3.6 330 20:38 27.05.2020
2332 Clouds 35 1012 53 8047 3.6 330 20:18 27.05.2020
2333 Clouds 34 1012 63 8047 2.1 340 19:43 27.05.2020
2334 Clouds 34 1012 63 8047 2.1 340 19:20 27.05.2020
2335 Clouds 32 1012 70 8047 2.86 14 18:45 27.05.2020
2336 Clouds 31 1012 70 8047 2.56 342 18:20 27.05.2020
2337 Clouds 31 1012 70 8047 2.56 342 17:59 27.05.2020
2338 Clouds 31 1012 70 8047 2.56 342 17:40 27.05.2020
2339 Clouds 31 1012 70 8047 2.66 309 17:21 27.05.2020
2340 Clouds 31 1012 79 8047 1.5 200 16:56 27.05.2020
2341 Clouds 30 1012 79 8047 1.5 200 16:38 27.05.2020
2342 Clouds 30 1012 79 8047 1.5 200 16:19 27.05.2020
2343 Clouds 29 1012 88 8047 2.18 301 15:47 27.05.2020
2344 Clouds 28 1012 88 8047 1.09 309 15:22 27.05.2020
2345 Clouds 28 1011 94 8047 1.09 309 14:46 27.05.2020
2346 Clouds 28 1011 94 8047 1.09 309 14:46 27.05.2020
2347 Clouds 28 1011 94 8047 1.09 309 14:46 27.05.2020
2348 Clouds 28 1011 94 8047 1.59 359 14:22 27.05.2020
2349 Clouds 28 1011 94 8047 1.59 359 13:58 27.05.2020
2350 Clouds 28 1011 94 8047 1.59 359 13:39 27.05.2020
2351 Clouds 28 1011 94 8047 1.59 359 13:39 27.05.2020
2352 Clouds 28 1011 94 8047 2.41 25 13:21 27.05.2020
2353 Rain 29 1009 75 0 0.89 17 12:42 27.05.2020
2354 Rain 29 1009 75 0 0.89 17 12:23 27.05.2020
2355 Rain 29 1009 75 0 0.89 17 12:23 27.05.2020
2356 Rain 29 1009 74 0 1.34 50 11:56 27.05.2020
2357 Rain 28 1009 74 0 0.45 338 11:36 27.05.2020
2358 Rain 28 1009 74 0 0.45 338 11:18 27.05.2020
2359 Rain 29 1009 72 0 1.34 37 10:43 27.05.2020
2360 Clouds 29 1009 72 0 0.89 28 10:24 27.05.2020
2361 Clouds 29 1009 71 0 1.79 61 09:56 27.05.2020
2362 Clouds 29 1009 71 0 1.79 61 09:38 27.05.2020
2363 Rain 29 1010 71 0 1.34 51 09:20 27.05.2020
2364 Rain 29 1010 71 0 0.89 34 08:42 27.05.2020
2365 Rain 29 1010 71 0 0.89 34 08:24 27.05.2020
2366 Rain 29 1010 71 0 1.79 28 07:53 27.05.2020
2367 Rain 29 1010 72 0 1.34 52 07:34 27.05.2020
2368 Rain 29 1010 72 0 1.34 52 07:34 27.05.2020
2369 Clouds 29 1011 89 9656 4.6 30 06:55 27.05.2020
2370 Clouds 29 1011 89 9656 4.6 30 06:30 27.05.2020
2371 Clouds 29 1011 83 9656 3.1 10 05:50 27.05.2020
2372 Clouds 29 1011 83 9656 3.1 10 05:25 27.05.2020
2373 Clouds 30 1008 74 11265 4.6 30 03:21 27.05.2020
2374 Clouds 31 1007 58 11265 6.7 60 02:27 27.05.2020
2375 Clear 31 1007 66 11265 6.2 40 01:32 27.05.2020
2376 Clouds 32 1007 62 11265 6.7 30 00:50 27.05.2020
2377 Clouds 32 1007 62 11265 6.7 30 00:24 27.05.2020
2378 Clear 33 1007 59 11265 5.7 20 23:59 26.05.2020
2379 Clear 33 1007 59 11265 5.7 20 23:40 26.05.2020
2380 Clear 33 1007 59 11265 5.7 20 23:22 26.05.2020
2381 Clear 33 1007 49 11265 2.1 360 22:58 26.05.2020
2382 Clear 33 1007 49 11265 2.1 360 22:37 26.05.2020
2383 Clear 33 1007 49 11265 2.1 360 22:19 26.05.2020
2384 Clear 34 1007 41 11265 3.6 10 21:55 26.05.2020
2385 Clear 34 1007 41 11265 3.6 10 21:55 26.05.2020
2386 Clear 34 1007 41 11265 3.6 10 21:36 26.05.2020
2387 Clear 34 1007 41 11265 3.6 10 21:18 26.05.2020
2388 Clear 34 1007 49 11265 3.1 330 20:42 26.05.2020
2389 Clear 34 1007 49 11265 3.1 330 20:42 26.05.2020
2390 Clear 34 1007 49 11265 3.1 330 20:20 26.05.2020
2391 Clear 33 1008 55 11265 4.6 40 19:55 26.05.2020
2392 Clear 33 1008 55 11265 4.6 40 19:36 26.05.2020
2393 Clear 33 1008 55 11265 4.6 40 19:18 26.05.2020
2394 Clear 32 1007 58 11265 2.42 63 18:40 26.05.2020
2395 Clear 32 1007 58 11265 1.86 100 18:21 26.05.2020
2396 Clear 30 1008 66 11265 2.1 190 17:42 26.05.2020
2397 Clear 30 1008 66 11265 2.1 190 17:24 26.05.2020
2398 Clouds 28 1008 69 11265 1 140 16:55 26.05.2020
2399 Clouds 28 1008 69 11265 1 140 16:36 26.05.2020
2400 Clouds 28 1008 69 11265 1 140 16:18 26.05.2020
2401 Clouds 27 1008 83 9656 3.48 159 15:41 26.05.2020
2402 Clouds 27 1008 83 9656 3.26 169 15:20 26.05.2020
2403 Haze 27 1008 94 4828 2.1 190 14:56 26.05.2020
2404 Mist 26 1008 94 4828 2.1 190 14:37 26.05.2020
2405 Mist 26 1008 94 4828 2.1 190 14:18 26.05.2020
2406 Clear 26 1008 94 8047 3.28 171 13:41 26.05.2020
2407 Clear 26 1008 94 8047 2.93 160 13:23 26.05.2020
2408 Clear 27 1006 77 0 0.45 338 12:44 26.05.2020
2409 Clear 27 1006 77 0 0.89 344 12:23 26.05.2020
2410 Clear 27 1005 77 0 0.89 336 11:59 26.05.2020
2411 Clear 27 1005 77 0 0.89 336 11:41 26.05.2020
2412 Clear 27 1005 77 0 0.89 336 11:20 26.05.2020
2413 Clear 27 1005 76 0 0.45 346 10:47 26.05.2020
2414 Clear 27 1005 76 0 0.45 355 10:19 26.05.2020
2415 Clear 27 1004 75 0 0.45 314 09:57 26.05.2020
2416 Clear 27 1004 75 0 0.45 314 09:57 26.05.2020
2417 Clear 27 1004 75 0 0.45 250 09:37 26.05.2020
2418 Clear 27 1004 75 0 0.45 250 09:18 26.05.2020
2419 Clear 27 1004 75 0 0.45 250 09:18 26.05.2020
2420 Clear 27 1005 74 0 0.68 114 08:40 26.05.2020
2421 Clear 28 1005 73 0 0.29 141 08:22 26.05.2020
2422 Clear 27 1005 73 0 0.29 141 07:43 26.05.2020
2423 Clear 27 1005 73 0 0.32 302 07:23 26.05.2020
2424 Clouds 28 1006 88 9656 0.32 302 06:52 26.05.2020
2425 Clouds 28 1006 88 9656 0.72 294 06:28 26.05.2020
2426 Clouds 28 1006 88 9656 0.72 294 06:28 26.05.2020
2427 Clouds 29 1006 83 9656 0.72 294 05:42 26.05.2020
2428 Clouds 29 1006 83 9656 1.16 324 05:18 26.05.2020
2429 Clear 29 1005 79 9656 1.5 50 04:47 26.05.2020
2430 Clear 29 1005 79 9656 1.5 50 04:28 26.05.2020
2431 Clear 30 1005 83 8047 2.6 60 03:45 26.05.2020
2432 Clear 30 1005 83 8047 2.6 60 03:45 26.05.2020
2433 Clear 30 1004 70 9656 5.1 60 02:34 26.05.2020
2434 Clear 32 1004 55 9656 4.1 40 01:43 26.05.2020
2435 Clear 33 1004 55 8047 2.6 40 00:40 26.05.2020
2436 Clear 33 1004 55 8047 2.6 40 00:40 26.05.2020
2437 Clear 33 1004 55 8047 2.6 40 00:21 26.05.2020
2438 Clear 33 1005 55 8047 4.6 20 23:59 25.05.2020
2439 Clear 33 1005 55 8047 4.6 20 23:39 25.05.2020
2440 Clear 33 1005 55 8047 4.6 20 23:20 25.05.2020
2441 Clouds 33 1005 55 8047 5.1 50 22:56 25.05.2020
2442 Clouds 33 1005 55 8047 5.1 50 22:37 25.05.2020
2443 Clouds 33 1005 55 8047 5.1 50 22:37 25.05.2020
2444 Clouds 33 1005 55 8047 5.1 50 22:19 25.05.2020
2445 Clear 34 1006 52 8047 6.2 40 21:58 25.05.2020
2446 Clear 34 1006 52 8047 6.2 40 21:38 25.05.2020
2447 Clear 34 1006 52 8047 6.2 40 21:18 25.05.2020
2448 Clear 34 1006 49 8047 3.1 50 20:58 25.05.2020
2449 Clear 34 1006 49 8047 3.1 50 20:40 25.05.2020
2450 Clear 34 1006 49 8047 3.1 50 20:20 25.05.2020
2451 Clear 33 1007 52 8047 3.1 40 19:42 25.05.2020
2452 Clear 33 1007 52 8047 3.1 40 19:20 25.05.2020
2453 Clear 33 1007 52 8047 3.1 40 19:20 25.05.2020
2454 Clear 33 1007 55 6437 1.5 90 18:58 25.05.2020
2455 Clear 33 1007 55 6437 1.5 90 18:40 25.05.2020
2456 Clear 33 1007 55 6437 1.5 90 18:21 25.05.2020
2457 Clear 31 1007 66 8047 4.6 170 17:44 25.05.2020
2458 Clear 30 1007 66 8047 4.6 170 17:26 25.05.2020
2459 Clouds 29 1006 69 8047 3.1 170 16:59 25.05.2020
2460 Clouds 29 1006 69 8047 3.1 170 16:40 25.05.2020
2461 Clouds 29 1006 69 8047 3.1 170 16:40 25.05.2020
2462 Clouds 29 1006 69 8047 3.1 170 16:22 25.05.2020
2463 Clouds 29 1006 69 8047 3.1 170 16:22 25.05.2020
2464 Clouds 27 1006 69 8047 3.63 160 15:55 25.05.2020
2465 Clouds 27 1006 69 8047 3.63 160 15:36 25.05.2020
2466 Clouds 27 1006 69 8047 4.1 161 15:18 25.05.2020
2467 Clouds 26 1005 74 9656 1 180 14:42 25.05.2020
2468 Clouds 27 1005 74 9656 1 180 14:23 25.05.2020
2469 Clouds 27 1005 69 9656 3.35 155 13:56 25.05.2020
2470 Clouds 27 1005 69 9656 3.35 155 13:37 25.05.2020
2471 Clouds 27 1005 69 9656 3.35 155 13:37 25.05.2020
2472 Clouds 27 1005 69 9656 3.35 155 13:37 25.05.2020
2473 Clouds 27 1005 69 9656 3.77 159 13:19 25.05.2020
2474 Clear 27 1003 64 0 0.45 158 12:40 25.05.2020
2475 Clear 27 1003 69 0 4.08 156 12:21 25.05.2020
2476 Clear 27 1003 70 0 0.89 93 11:57 25.05.2020
2477 Clear 27 1003 70 0 4.08 156 11:37 25.05.2020
2478 Clear 27 1003 72 0 0.45 82 11:18 25.05.2020
2479 Clear 27 1003 77 0 4.17 156 10:41 25.05.2020
2480 Clear 27 1003 77 0 3.94 145 10:21 25.05.2020
2481 Clear 27 1003 75 0 0.45 313 09:57 25.05.2020
2482 Clear 27 1003 75 0 3.94 145 09:38 25.05.2020
2483 Clear 28 1003 74 0 0.89 316 09:19 25.05.2020
2484 Clear 27 1004 76 0 0.89 272 08:44 25.05.2020
2485 Clear 27 1003 76 0 1.21 118 08:25 25.05.2020
2486 Clear 27 1004 76 0 1.21 118 07:59 25.05.2020
2487 Clear 27 1004 76 0 0.45 226 07:39 25.05.2020
2488 Clouds 28 1006 88 9656 0.4 134 07:20 25.05.2020
2489 Clouds 28 1006 88 9656 0.4 134 06:45 25.05.2020
2490 Clouds 28 1006 88 9656 0.21 291 06:27 25.05.2020
2491 Clouds 29 1005 79 9656 1.48 46 03:40 25.05.2020
2492 Clouds 29 1005 79 9656 2.9 55 03:22 25.05.2020
2493 Smoke 30 1005 74 9656 2.6 80 02:44 25.05.2020
2494 Clouds 30 1005 70 9656 3.1 50 01:42 25.05.2020
2495 Clouds 30 1005 70 9656 24.2 60 00:58 25.05.2020
2496 Clouds 30 1005 70 9656 24.2 60 00:32 25.05.2020
2497 Clouds 31 1006 66 9656 5.1 60 23:59 24.05.2020
2498 Clouds 32 1006 66 9656 5.1 60 23:39 24.05.2020
2499 Clouds 32 1006 66 9656 5.1 60 23:21 24.05.2020
2500 Clouds 32 1007 62 9656 4.6 80 22:58 24.05.2020
2501 Clouds 33 1007 62 9656 4.6 80 22:39 24.05.2020
2502 Clouds 32 1007 62 9656 4.6 80 22:18 24.05.2020
2503 Clouds 32 1007 62 8047 4.6 60 21:55 24.05.2020
2504 Clouds 32 1007 62 8047 4.6 60 21:37 24.05.2020
2505 Clouds 32 1007 62 8047 4.6 60 21:18 24.05.2020
2506 Clouds 32 1008 62 9656 3.1 80 20:43 24.05.2020
2507 Clouds 33 1008 62 9656 3.1 80 20:21 24.05.2020
2508 Clouds 31 1008 66 9656 1.5 50 19:57 24.05.2020
2509 Clouds 31 1008 66 9656 1.5 50 19:38 24.05.2020
2510 Clouds 31 1008 66 9656 1.5 50 19:19 24.05.2020
2511 Clouds 30 1009 66 9656 1 130 18:43 24.05.2020
2512 Clouds 30 1009 66 9656 1 130 18:23 24.05.2020
2513 Clouds 30 1009 74 9656 2.41 146 17:59 24.05.2020
2514 Clouds 30 1009 74 9656 2.41 146 17:40 24.05.2020
2515 Clouds 29 1009 74 9656 2.28 173 17:21 24.05.2020
2516 Clouds 28 1009 78 9656 3.1 170 16:56 24.05.2020
2517 Clouds 28 1009 78 9656 3.1 170 16:38 24.05.2020
2518 Clouds 28 1009 78 9656 3.1 170 16:19 24.05.2020
2519 Clouds 28 1009 78 8047 1.5 160 15:55 24.05.2020
2520 Clouds 28 1009 78 8047 1.5 160 15:37 24.05.2020
2521 Clouds 28 1009 78 8047 1.5 160 15:18 24.05.2020
2522 Clouds 28 1008 78 8047 1 110 14:44 24.05.2020
2523 Clouds 28 1008 78 8047 1 110 14:24 24.05.2020
2524 Clouds 28 1008 78 8047 1 150 13:57 24.05.2020
2525 Clouds 28 1008 78 8047 1 150 13:38 24.05.2020
2526 Clouds 28 1008 78 8047 1 150 13:20 24.05.2020
2527 Clouds 28 1007 69 0 2.68 124 12:57 24.05.2020
2528 Clouds 28 1006 71 0 1.34 145 12:38 24.05.2020
2529 Clouds 28 1006 71 0 1.34 145 12:38 24.05.2020
2530 Clouds 28 1006 75 0 2.68 124 12:20 24.05.2020
2531 Clouds 28 1006 77 0 0.89 121 11:56 24.05.2020
2532 Clouds 28 1006 77 0 1.34 92 11:38 24.05.2020
2533 Clouds 28 1006 77 0 0.89 108 11:20 24.05.2020
2534 Clouds 28 1006 76 0 1.34 111 10:55 24.05.2020
2535 Clouds 28 1006 75 0 2.24 109 10:36 24.05.2020
2536 Clouds 29 1006 75 0 1.79 110 10:18 24.05.2020
2537 Clouds 29 1007 73 0 3.13 104 09:41 24.05.2020
2538 Clouds 29 1007 73 0 2.68 88 09:18 24.05.2020
2539 Clouds 29 1007 72 0 2.68 86 08:54 24.05.2020
2540 Clouds 29 1007 72 0 1.34 108 08:36 24.05.2020
2541 Clouds 29 1007 72 0 1.79 96 08:18 24.05.2020
2542 Clouds 29 1008 71 0 0.91 350 07:41 24.05.2020
2543 Clouds 28 1009 88 9656 1.5 70 07:22 24.05.2020
2544 Clouds 28 1009 88 9656 1.5 70 06:47 24.05.2020
2545 Clouds 29 1008 83 9656 1.5 70 05:50 24.05.2020
2546 Clouds 29 1008 83 9656 1 90 04:51 24.05.2020
2547 Clouds 29 1007 83 9656 2.6 50 03:41 24.05.2020
2548 Clouds 29 1007 79 11265 2.1 100 02:30 24.05.2020
2549 Clouds 30 1007 70 11265 2.6 80 01:39 24.05.2020
2550 Clouds 32 1007 66 9656 5.7 80 00:39 24.05.2020
2551 Clouds 32 1007 66 9656 5.7 80 00:20 24.05.2020
2552 Clouds 33 1008 63 9656 6.2 90 23:43 23.05.2020
2553 Clouds 33 1008 63 9656 6.2 90 23:21 23.05.2020
2554 Clouds 33 1008 63 9656 4.6 40 22:57 23.05.2020
2555 Clouds 33 1008 63 9656 4.6 40 22:38 23.05.2020
2556 Clouds 33 1008 63 9656 4.6 40 22:19 23.05.2020
2557 Clouds 33 1008 59 9656 5.1 60 21:57 23.05.2020
2558 Clouds 33 1008 59 9656 5.1 60 21:37 23.05.2020
2559 Clouds 33 1008 59 9656 5.1 60 21:19 23.05.2020
2560 Clouds 33 1009 59 9656 3.1 120 20:55 23.05.2020
2561 Clouds 33 1009 59 9656 3.1 120 20:36 23.05.2020
2562 Clouds 33 1009 59 9656 3.1 120 20:18 23.05.2020
2563 Clouds 33 1010 66 9656 4.1 60 19:41 23.05.2020
2564 Clouds 33 1010 66 9656 4.1 60 19:19 23.05.2020
2565 Clouds 32 1010 62 9656 2.1 110 18:57 23.05.2020
2566 Clouds 32 1010 62 9656 2.1 110 18:39 23.05.2020
2567 Clouds 32 1010 62 9656 2.1 110 18:20 23.05.2020
2568 Clouds 31 1010 70 9656 1.5 140 17:55 23.05.2020
2569 Clouds 31 1010 70 9656 1.5 140 17:37 23.05.2020
2570 Clouds 30 1010 70 9656 1.5 140 17:18 23.05.2020
2571 Mist 30 1010 79 9656 0.71 232 16:55 23.05.2020
2572 Mist 30 1010 79 9656 0.71 232 16:37 23.05.2020
2573 Mist 29 1010 79 9656 1.56 217 16:18 23.05.2020
2574 Mist 28 1010 88 8047 1.56 217 15:42 23.05.2020
2575 Mist 27 1010 88 8047 1.92 202 15:23 23.05.2020
2576 Mist 26 1009 94 8047 1.92 202 14:55 23.05.2020
2577 Mist 26 1009 94 8047 1.92 202 14:36 23.05.2020
2578 Mist 26 1009 94 8047 1.83 207 14:18 23.05.2020
2579 Clouds 27 1009 88 9656 1.83 207 13:39 23.05.2020
2580 Clouds 27 1009 88 9656 1.95 202 13:19 23.05.2020
2581 Clouds 28 1007 76 0 1.95 202 12:43 23.05.2020
2582 Clouds 28 1007 75 0 1.34 120 12:20 23.05.2020
2583 Clouds 28 1008 72 0 0.89 108 11:59 23.05.2020
2584 Clouds 28 1008 72 0 0.89 108 11:41 23.05.2020
2585 Clouds 28 1008 73 0 0.45 83 11:19 23.05.2020
2586 Clouds 28 1008 73 0 0.45 83 10:56 23.05.2020
2587 Clouds 28 1007 72 0 3.13 128 10:37 23.05.2020
2588 Clouds 28 1007 72 0 3.13 128 10:19 23.05.2020
2589 Clouds 28 1008 72 0 3.13 117 09:55 23.05.2020
2590 Clouds 28 1009 70 0 1.34 136 09:37 23.05.2020
2591 Clouds 28 1009 70 0 1.34 136 09:18 23.05.2020
2592 Clouds 28 1008 69 0 0.89 107 08:41 23.05.2020
2593 Clouds 28 1008 69 0 0.89 107 08:19 23.05.2020
2594 Clouds 28 1008 69 0 0.89 107 07:45 23.05.2020
2595 Clouds 28 1009 70 0 0.45 197 07:27 23.05.2020
2596 Clear 28 1009 83 8047 1.14 333 06:43 23.05.2020
2597 Clear 29 1007 66 8047 0.75 19 05:59 23.05.2020
2598 Clouds 30 1007 62 8047 3.13 16 04:25 23.05.2020
2599 Clouds 32 1007 55 8047 2.6 200 03:26 23.05.2020
2600 Clouds 32 1007 55 8047 2.6 200 03:26 23.05.2020
2601 Clouds 33 1006 49 8047 2.6 190 02:40 23.05.2020
2602 Clouds 34 1006 44 8047 4.31 30 01:50 23.05.2020
2603 Clouds 34 1006 44 8047 4.77 55 01:18 23.05.2020
2604 Haze 35 1007 41 6437 2.6 150 00:42 23.05.2020
2605 Haze 35 1007 41 6437 2.6 150 00:19 23.05.2020
2606 Haze 35 1007 39 6437 6.2 180 23:44 22.05.2020
2607 Haze 35 1007 39 6437 6.2 180 23:22 22.05.2020
2608 Clouds 34 1008 46 8047 3.1 200 22:58 22.05.2020
2609 Clouds 34 1008 46 8047 3.1 200 22:58 22.05.2020
2610 Clouds 34 1008 46 8047 3.1 200 22:40 22.05.2020
2611 Clouds 34 1008 46 8047 3.1 200 22:20 22.05.2020
2612 Clouds 33 1009 43 8047 5.1 200 21:47 22.05.2020
2613 Clouds 34 1009 43 8047 5.1 200 21:23 22.05.2020
2614 Clouds 34 1009 43 8047 5.1 200 21:23 22.05.2020
2615 Clouds 32 1011 55 8047 3.6 220 20:59 22.05.2020
2616 Clouds 32 1011 55 8047 3.6 220 20:40 22.05.2020
2617 Clouds 32 1011 55 8047 3.6 220 20:20 22.05.2020
2618 Clouds 30 1012 66 8047 1.5 240 19:44 22.05.2020
2619 Clouds 30 1012 66 8047 1.5 240 19:25 22.05.2020
2620 Clouds 27 1012 83 8047 1.5 210 18:54 22.05.2020
2621 Clouds 27 1012 83 8047 1.5 210 18:36 22.05.2020
2622 Clouds 26 1012 94 8047 2.41 117 18:18 22.05.2020
2623 Clouds 24 1012 94 8047 2.41 117 17:40 22.05.2020
2624 Clouds 24 1012 94 8047 2.34 151 17:19 22.05.2020
2625 Clouds 23 1012 94 8047 1.5 360 16:56 22.05.2020
2626 Clouds 23 1012 94 8047 1.5 360 16:37 22.05.2020
2627 Rain 24 1012 94 8047 1.5 360 16:19 22.05.2020
2628 Rain 23 1011 94 6437 8.2 10 15:42 22.05.2020
2629 Rain 23 1011 94 6437 8.2 10 15:22 22.05.2020
2630 Rain 24 1011 83 8047 7.7 350 14:46 22.05.2020
2631 Clouds 24 1011 83 8047 7.7 350 14:26 22.05.2020
2632 Clouds 24 1009 88 8047 6.2 360 13:56 22.05.2020
2633 Clouds 24 1009 88 8047 6.2 360 13:37 22.05.2020
2634 Clouds 24 1009 88 8047 6.2 360 13:19 22.05.2020
2635 Clouds 28 1007 59 0 1.79 42 12:40 22.05.2020
2636 Clouds 28 1005 62 0 5 162 12:21 22.05.2020
2637 Clouds 28 1005 60 0 1.34 211 11:45 22.05.2020
2638 Clouds 29 1005 58 0 3.71 159 11:22 22.05.2020
2639 Clouds 29 1006 59 0 0.45 213 10:58 22.05.2020
2640 Clouds 29 1006 62 0 3.71 159 10:38 22.05.2020
2641 Rain 29 1006 62 0 3.97 159 10:20 22.05.2020
2642 Rain 29 1006 72 0 1.34 132 09:48 22.05.2020
2643 Clouds 29 1007 74 0 0.89 115 09:21 22.05.2020
2644 Clouds 29 1007 72 0 2.24 74 08:58 22.05.2020
2645 Clouds 29 1007 72 0 1.34 78 08:39 22.05.2020
2646 Clouds 29 1007 71 0 1.79 63 08:19 22.05.2020
2647 Clouds 30 1007 71 0 1.34 37 07:52 22.05.2020
2648 Clouds 30 1007 68 0 0.89 69 07:23 22.05.2020
2649 Clouds 30 1008 74 9656 1.44 172 06:52 22.05.2020
2650 Clouds 30 1008 74 9656 1.44 172 06:29 22.05.2020
2651 Clouds 30 1008 79 9656 1 70 05:37 22.05.2020
2652 Clouds 29 1006 83 8047 1 60 04:49 22.05.2020
2653 Clouds 30 1006 79 6437 1.5 80 03:52 22.05.2020
2654 Clouds 30 1006 79 6437 1.5 80 03:33 22.05.2020
2655 Clouds 31 1005 66 8047 3.1 100 02:35 22.05.2020
2656 Clouds 31 1005 66 8047 3.1 80 01:43 22.05.2020
2657 Clouds 31 1005 66 8047 3.1 80 01:21 22.05.2020
2658 Clouds 32 1005 74 8047 4.1 80 00:34 22.05.2020
2659 Clouds 32 1005 66 8047 5.1 60 23:57 21.05.2020
2660 Clouds 32 1005 66 8047 5.1 60 23:39 21.05.2020
2661 Clouds 32 1005 66 8047 5.1 60 23:21 21.05.2020
2662 Clear 35 1005 56 8047 5.7 60 22:57 21.05.2020
2663 Clear 35 1005 56 8047 5.7 60 22:37 21.05.2020
2664 Clear 35 1005 56 8047 5.7 60 22:19 21.05.2020
2665 Clear 35 1007 56 8047 3.6 80 21:47 21.05.2020
2666 Clear 35 1007 56 8047 3.6 80 21:27 21.05.2020
2667 Clear 35 1007 56 8047 3.6 80 21:27 21.05.2020
2668 Clear 35 1007 59 8047 3.1 100 20:57 21.05.2020
2669 Clear 34 1007 59 8047 3.1 100 20:38 21.05.2020
2670 Clear 34 1007 59 8047 3.1 100 20:20 21.05.2020
2671 Clear 33 1007 59 8047 1 130 19:39 21.05.2020
2672 Clear 33 1007 59 8047 1 130 19:19 21.05.2020
2673 Clear 32 1008 62 8047 2.1 170 18:56 21.05.2020
2674 Clear 32 1008 62 8047 2.1 170 18:36 21.05.2020
2675 Clear 32 1008 62 8047 2.1 170 18:18 21.05.2020
2676 Clear 31 1008 70 8047 2.6 200 17:41 21.05.2020
2677 Clear 31 1008 70 8047 2.6 200 17:22 21.05.2020
2678 Clear 31 1008 70 8047 2.6 200 17:22 21.05.2020
2679 Clear 30 1008 74 8047 2.1 200 16:47 21.05.2020
2680 Clear 29 1008 74 8047 2.1 200 16:27 21.05.2020
2681 Clear 28 1008 78 6437 3.66 160 15:57 21.05.2020
2682 Clear 28 1008 78 6437 3.66 160 15:38 21.05.2020
2683 Clear 28 1008 78 6437 3.66 160 15:38 21.05.2020
2684 Clear 28 1008 78 6437 3.67 165 15:20 21.05.2020
2685 Clouds 26 1007 83 6437 3.67 165 14:41 21.05.2020
2686 Clouds 26 1007 83 6437 4.1 164 14:19 21.05.2020
2687 Clear 26 1007 83 9656 4.1 164 13:42 21.05.2020
2688 Clear 26 1007 83 9656 3.91 160 13:23 21.05.2020
2689 Clear 26 1005 71 0 3.91 160 12:59 21.05.2020
2690 Clear 27 1005 68 0 3.91 160 12:38 21.05.2020
2691 Clear 27 1005 68 0 4.18 154 12:19 21.05.2020
2692 Clear 27 1005 66 0 4.18 154 11:42 21.05.2020
2693 Clear 27 1005 66 0 4.2 147 11:24 21.05.2020
2694 Clear 28 1005 64 0 0.89 197 10:59 21.05.2020
2695 Clear 28 1005 64 0 0.89 182 10:39 21.05.2020
2696 Clear 28 1005 64 0 0.89 182 10:20 21.05.2020
2697 Clear 28 1005 72 0 3.12 147 09:55 21.05.2020
2698 Clear 28 1006 78 0 0.45 229 09:37 21.05.2020
2699 Clear 28 1006 78 0 0.45 229 09:19 21.05.2020
2700 Clear 28 1006 76 0 1.46 109 08:45 21.05.2020
2701 Clear 28 1006 76 0 0.7 78 08:26 21.05.2020
2702 Clear 28 1006 76 0 0.7 78 08:26 21.05.2020
2703 Clear 28 1006 74 0 0.7 78 07:48 21.05.2020
2704 Clear 28 1006 73 0 0.79 60 07:27 21.05.2020
2705 Clear 28 1007 94 9656 0.79 60 06:52 21.05.2020
2706 Clear 28 1007 94 9656 1.12 97 06:22 21.05.2020
2707 Clear 29 1007 89 9656 1.12 97 05:34 21.05.2020
2708 Clear 30 1005 79 8047 3.1 90 03:22 21.05.2020
2709 Clear 30 1005 79 8047 3.1 90 03:22 21.05.2020
2710 Clear 30 1005 79 8047 3.1 90 03:22 21.05.2020
2711 Clear 31 1005 70 8047 2.6 110 02:45 21.05.2020
2712 Clear 31 1005 70 8047 2.6 110 02:26 21.05.2020
2713 Clear 32 1005 66 9656 4.1 100 01:45 21.05.2020
2714 Clear 32 1005 66 9656 4.1 100 01:21 21.05.2020
2715 Clear 33 1005 63 6437 6.2 70 00:51 21.05.2020
2716 Clear 33 1005 63 6437 6.2 70 00:23 21.05.2020
2717 Clear 34 1006 59 6437 5.1 70 23:43 20.05.2020
2718 Clear 34 1006 59 6437 5.1 70 23:20 20.05.2020
2719 Clear 35 1007 56 6437 4.1 110 22:58 20.05.2020
2720 Clear 35 1007 56 6437 4.1 110 22:39 20.05.2020
2721 Clear 35 1007 56 6437 4.1 110 22:21 20.05.2020
2722 Clouds 35 1008 59 6437 4.1 100 21:40 20.05.2020
2723 Clouds 35 1008 59 6437 4.1 100 21:22 20.05.2020
2724 Haze 35 1009 47 4828 4.6 170 20:45 20.05.2020
2725 Haze 35 1009 47 4828 4.6 170 20:26 20.05.2020
2726 Haze 34 1009 55 4828 4.6 140 19:58 20.05.2020
2727 Haze 34 1009 55 4828 4.6 140 19:38 20.05.2020
2728 Haze 34 1009 55 4828 4.6 140 19:20 20.05.2020
2729 Haze 33 1010 62 4828 5.1 160 18:47 20.05.2020
2730 Haze 32 1010 62 4828 5.1 160 18:28 20.05.2020
2731 Haze 30 1010 79 4828 2.6 180 17:46 20.05.2020
2732 Haze 30 1010 79 4828 2.6 180 17:24 20.05.2020
2733 Mist 28 1011 88 4828 3.23 159 16:59 20.05.2020
2734 Mist 28 1011 88 4828 3.23 159 16:41 20.05.2020
2735 Mist 28 1011 88 4828 3.71 163 16:21 20.05.2020
2736 Mist 26 1010 94 4828 3.71 163 15:56 20.05.2020
2737 Mist 26 1010 94 4828 3.71 163 15:36 20.05.2020
2738 Mist 26 1010 94 4828 3.64 164 15:18 20.05.2020
2739 Mist 26 1009 94 4828 3.64 164 14:41 20.05.2020
2740 Mist 26 1009 94 4828 3.2 161 14:20 20.05.2020
2741 Clouds 26 1009 94 8047 3.2 161 13:40 20.05.2020
2742 Clouds 26 1009 94 8047 2.46 174 13:19 20.05.2020
2743 Clear 25 1007 79 0 2.46 174 12:43 20.05.2020
2744 Clear 26 1007 76 0 1.61 160 12:21 20.05.2020
2745 Clear 26 1007 75 0 1.61 160 11:58 20.05.2020
2746 Clear 26 1007 75 0 1.61 160 11:36 20.05.2020
2747 Clear 26 1007 75 0 1.54 129 11:18 20.05.2020
2748 Clear 26 1007 76 0 1.54 129 10:42 20.05.2020
2749 Clear 26 1007 77 0 0.45 263 10:20 20.05.2020
2750 Clear 26 1008 78 0 0.58 151 09:44 20.05.2020
2751 Clear 27 1008 75 0 0.52 242 09:21 20.05.2020
2752 Clear 26 1008 77 0 0.21 277 08:54 20.05.2020
2753 Clear 26 1008 77 0 0.21 277 08:36 20.05.2020
2754 Clear 27 1009 77 0 0.74 318 08:18 20.05.2020
2755 Clear 27 1009 75 0 0.74 318 07:41 20.05.2020
2756 Clouds 27 1010 83 11265 1 40 07:19 20.05.2020
2757 Clouds 28 1010 83 11265 1 40 06:34 20.05.2020
2758 Clear 28 1010 83 11265 2.04 64 05:22 20.05.2020
2759 Clear 29 1009 79 11265 3.1 100 04:26 20.05.2020
2760 Clear 29 1008 79 11265 3.6 100 03:38 20.05.2020
2761 Clear 32 1007 62 11265 3.1 90 01:58 20.05.2020
2762 Clear 32 1007 62 11265 3.1 90 01:26 20.05.2020
2763 Clear 33 1007 55 9656 6.2 90 00:42 20.05.2020
2764 Clear 33 1007 55 9656 6.2 90 00:23 20.05.2020
2765 Clear 34 1008 52 9656 3.6 130 23:40 19.05.2020
2766 Clear 34 1008 52 9656 3.6 130 23:19 19.05.2020
2767 Clouds 34 1009 56 9656 6.2 90 22:56 19.05.2020
2768 Clouds 34 1009 56 9656 6.2 90 22:38 19.05.2020
2769 Clouds 34 1009 56 9656 6.2 90 22:18 19.05.2020
2770 Clouds 32 1010 66 9656 4.1 110 21:55 19.05.2020
2771 Clouds 32 1010 66 9656 4.1 110 21:37 19.05.2020
2772 Clouds 32 1010 66 9656 4.1 110 21:37 19.05.2020
2773 Clouds 32 1010 66 9656 4.1 110 21:37 19.05.2020
2774 Clouds 33 1010 66 9656 4.1 110 21:18 19.05.2020
2775 Clouds 34 1011 59 9656 4.1 90 20:56 19.05.2020
2776 Clouds 34 1011 59 9656 4.1 90 20:38 19.05.2020
2777 Clouds 34 1011 59 9656 4.1 90 20:19 19.05.2020
2778 Clouds 34 1011 59 9656 4.1 90 20:19 19.05.2020
2779 Clouds 34 1012 49 9656 2.6 140 19:39 19.05.2020
2780 Clouds 34 1012 49 9656 2.6 140 19:21 19.05.2020
2781 Clouds 33 1013 55 9656 5.1 190 18:55 19.05.2020
2782 Clouds 33 1013 55 9656 5.1 190 18:36 19.05.2020
2783 Clouds 33 1013 55 9656 5.1 190 18:18 19.05.2020
2784 Rain 32 1013 62 9656 2.45 117 17:40 19.05.2020
2785 Clouds 31 1013 62 9656 2.06 121 17:20 19.05.2020
2786 Rain 30 1013 74 8047 2.06 121 16:56 19.05.2020
2787 Rain 30 1013 74 8047 2.06 121 16:37 19.05.2020
2788 Clouds 29 1013 74 8047 1.79 121 16:19 19.05.2020
2789 Clouds 28 1013 88 6437 1.79 121 15:44 19.05.2020
2790 Clouds 27 1013 88 6437 1.18 117 15:21 19.05.2020
2791 Mist 26 1012 94 4828 1.18 117 14:55 19.05.2020
2792 Mist 26 1012 94 4828 0.88 119 14:37 19.05.2020
2793 Mist 25 1012 94 4828 0.4 129 14:19 19.05.2020
2794 Clouds 26 1012 94 8047 1 340 13:56 19.05.2020
2795 Clouds 26 1012 94 8047 1 340 13:37 19.05.2020
2796 Clouds 26 1012 94 8047 1 340 13:37 19.05.2020
2797 Clouds 26 1012 94 8047 1 340 13:18 19.05.2020
2798 Clouds 26 1010 100 0 0.43 241 12:55 19.05.2020
2799 Clouds 26 1010 100 0 0.43 241 12:36 19.05.2020
2800 Clouds 26 1010 100 0 0.26 258 12:18 19.05.2020
2801 Clouds 26 1010 100 0 0.26 258 11:41 19.05.2020
2802 Clouds 26 1010 100 0 0.14 70 11:22 19.05.2020
2803 Clouds 26 1010 100 0 0.14 70 10:56 19.05.2020
2804 Clouds 26 1010 100 0 0.14 70 10:38 19.05.2020
2805 Clouds 27 1010 100 0 0.44 357 10:18 19.05.2020
2806 Clouds 27 1011 100 0 0.45 119 09:43 19.05.2020
2807 Clouds 27 1011 100 0 0.84 1 09:24 19.05.2020
2808 Clear 28 1012 100 0 0.85 333 08:47 19.05.2020
2809 Clouds 28 1012 100 0 0.45 106 08:25 19.05.2020
2810 Clouds 28 1012 100 0 0.89 95 07:48 19.05.2020
2811 Clouds 29 1012 100 0 0.89 95 07:27 19.05.2020
2812 Clouds 28 1014 83 11265 1.5 70 06:55 19.05.2020
2813 Clouds 28 1014 83 11265 1.5 70 06:31 19.05.2020
2814 Clouds 28 1013 83 11265 3.6 50 05:42 19.05.2020
2815 Clouds 28 1013 83 11265 3.6 50 05:19 19.05.2020
2816 Clouds 28 1012 83 11265 6.7 50 04:35 19.05.2020
2817 Clouds 30 1011 79 11265 6.2 30 02:24 19.05.2020
2818 Clear 32 1010 62 11265 9.8 40 00:48 19.05.2020
2819 Clear 32 1010 62 11265 9.8 40 00:29 19.05.2020
2820 Clear 33 1011 55 11265 8.7 20 23:59 18.05.2020
2821 Clear 33 1011 55 11265 8.7 20 23:59 18.05.2020
2822 Clear 33 1011 55 11265 8.7 20 23:40 18.05.2020
2823 Clear 33 1011 55 11265 8.7 20 23:20 18.05.2020
2824 Clouds 33 1011 56 11265 8.2 20 22:54 18.05.2020
2825 Clouds 33 1011 56 11265 8.2 20 22:36 18.05.2020
2826 Clouds 34 1011 56 11265 8.2 20 22:18 18.05.2020
2827 Clouds 35 1012 47 11265 3.1 330 21:41 18.05.2020
2828 Clouds 35 1012 47 11265 3.1 330 21:20 18.05.2020
2829 Clouds 33 1014 55 11265 2.6 350 20:57 18.05.2020
2830 Clouds 33 1014 55 11265 2.6 350 20:37 18.05.2020
2831 Clouds 33 1015 66 9656 3.6 80 20:18 18.05.2020
2832 Clouds 32 1015 66 9656 3.6 80 19:41 18.05.2020
2833 Clouds 32 1015 66 9656 3.6 80 19:19 18.05.2020
2834 Clouds 32 1015 66 9656 3.6 80 19:19 18.05.2020
2835 Clouds 31 1015 70 9656 1 320 18:55 18.05.2020
2836 Clouds 31 1015 70 9656 1 320 18:36 18.05.2020
2837 Clouds 31 1015 70 9656 1 320 18:18 18.05.2020
2838 Mist 30 1015 83 9656 1 350 17:37 18.05.2020
2839 Mist 30 1015 83 9656 1 350 17:18 18.05.2020
2840 Mist 30 1015 83 9656 1 350 17:18 18.05.2020
2841 Mist 30 1015 83 9656 1 350 17:18 18.05.2020
2842 Mist 28 1015 94 9656 4.9 353 16:55 18.05.2020
2843 Mist 28 1015 94 9656 4.9 353 16:36 18.05.2020
2844 Mist 28 1015 94 9656 4.49 357 16:18 18.05.2020
2845 Haze 27 1014 88 6437 1 310 15:42 18.05.2020
2846 Haze 27 1014 88 6437 1 310 15:23 18.05.2020
2847 -273 0 0 0 0 0 14:59 18.05.2020
2848 Mist 26 1014 100 8047 4.65 353 14:39 18.05.2020
2849 Mist 26 1014 100 8047 4.86 2 14:21 18.05.2020
2850 Clouds 26 1013 94 9656 4.86 2 13:42 18.05.2020
2851 Clouds 26 1013 94 9656 4.63 355 13:22 18.05.2020
2852 Clouds 26 1011 100 0 4.63 355 12:58 18.05.2020
2853 Clouds 26 1011 100 0 4.63 355 12:40 18.05.2020
2854 Clouds 26 1011 100 0 0.45 191 12:20 18.05.2020
2855 Clouds 27 1010 100 0 4.37 354 11:59 18.05.2020
2856 Clouds 26 1010 100 0 4.37 354 11:41 18.05.2020
2857 Clouds 26 1010 100 0 4.6 357 11:22 18.05.2020
2858 Clouds 26 1010 100 0 0.45 207 10:46 18.05.2020
2859 Clouds 26 1010 100 0 0.45 207 10:46 18.05.2020
2860 Clouds 27 1010 100 0 5.5 1 10:24 18.05.2020
2861 Clouds 27 1010 100 0 5.5 1 09:46 18.05.2020
2862 Clouds 28 1011 100 0 0.89 316 09:27 18.05.2020
2863 Clouds 28 1011 100 0 1.34 316 08:57 18.05.2020
2864 Clouds 28 1012 100 0 0.89 320 08:39 18.05.2020
2865 Clouds 28 1012 100 0 0.89 307 08:20 18.05.2020
2866 Clouds 28 1013 100 0 2.68 346 07:42 18.05.2020
2867 Clouds 28 1014 88 8047 2.1 350 07:21 18.05.2020
2868 Clouds 28 1014 88 8047 2.1 350 06:47 18.05.2020
2869 Clouds 28 1014 88 8047 2.1 350 06:22 18.05.2020
2870 Clouds 28 1013 88 8047 3.6 360 05:42 18.05.2020
2871 Clouds 28 1011 88 8047 2.6 350 03:38 18.05.2020
2872 Clouds 29 1009 88 8047 5.1 360 02:35 18.05.2020
2873 Clouds 29 1009 83 8047 7.2 20 01:45 18.05.2020
2874 Clouds 30 1009 79 8047 6.7 40 00:41 18.05.2020
2875 Clouds 30 1009 79 8047 6.7 40 00:18 18.05.2020
2876 Clouds 30 1009 79 8047 6.7 40 00:18 18.05.2020
2877 Clouds 31 1010 70 8047 6.2 40 23:42 17.05.2020
2878 Clouds 31 1010 70 8047 6.2 40 23:21 17.05.2020
2879 Haze 32 1010 59 6437 7.2 20 22:59 17.05.2020
2880 Haze 33 1010 59 6437 7.2 20 22:39 17.05.2020
2881 Haze 33 1010 59 6437 7.2 20 22:21 17.05.2020
2882 Haze 33 1010 62 6437 7.7 10 21:59 17.05.2020
2883 Haze 33 1010 62 6437 7.7 10 21:41 17.05.2020
2884 Haze 33 1010 62 6437 7.7 10 21:19 17.05.2020
2885 Clouds 33 1011 55 8047 7.2 30 20:55 17.05.2020
2886 Clouds 33 1011 55 8047 7.2 30 20:55 17.05.2020
2887 Clouds 33 1011 55 8047 7.2 30 20:36 17.05.2020
2888 Clouds 33 1011 55 8047 7.2 30 20:18 17.05.2020
2889 Clouds 33 1011 59 8047 3.1 350 19:42 17.05.2020
2890 Clouds 33 1011 59 8047 3.1 350 19:23 17.05.2020
2891 Clouds 32 1012 62 8047 3.1 360 18:55 17.05.2020
2892 Clouds 32 1012 62 8047 3.1 360 18:37 17.05.2020
2893 Clouds 32 1012 62 8047 3.1 360 18:19 17.05.2020
2894 Clouds 31 1011 66 8047 4.1 330 17:40 17.05.2020
2895 Clouds 31 1011 66 8047 4.1 330 17:40 17.05.2020
2896 Clouds 31 1011 66 8047 4.1 330 17:21 17.05.2020
2897 Clouds 31 1011 66 8047 4.1 330 17:21 17.05.2020
2898 Clouds 29 1011 83 8047 2.1 340 16:56 17.05.2020
2899 Clouds 28 1011 83 8047 2.1 340 16:37 17.05.2020
2900 Clouds 28 1011 83 8047 2.1 340 16:19 17.05.2020
2901 Clouds 28 1010 94 8047 1.41 309 15:45 17.05.2020
2902 Clouds 28 1010 94 8047 1.79 282 15:24 17.05.2020
2903 Clouds 28 1009 94 8047 2.1 40 14:57 17.05.2020
2904 Clouds 28 1009 94 8047 2.1 40 14:38 17.05.2020
2905 Clouds 28 1009 94 8047 2.1 40 14:19 17.05.2020
2906 Clouds 28 1009 94 8047 2.1 40 14:19 17.05.2020
2907 Clouds 28 1008 88 8047 2.6 20 13:41 17.05.2020
2908 Clouds 28 1008 88 8047 2.6 20 13:20 17.05.2020
2909 Clouds 29 1006 83 9656 2.1 350 05:22 17.05.2020
2910 Clouds 31 1004 66 9656 1.5 60 03:31 17.05.2020
2911 Clouds 32 1003 62 11265 3.1 60 02:26 17.05.2020
2912 Clouds 32 1003 62 9656 4.1 70 01:53 17.05.2020
2913 Clouds 33 1002 63 9656 4.1 90 00:46 17.05.2020
2914 Clouds 33 1002 63 9656 4.1 90 00:26 17.05.2020
2915 Clear 35 1003 50 9656 4.1 80 23:42 16.05.2020
2916 Clear 35 1003 50 9656 4.1 80 23:23 16.05.2020
2917 Clear 35 1003 53 9656 4.1 100 22:59 16.05.2020
2918 Clear 35 1003 53 9656 4.1 100 22:41 16.05.2020
2919 Clear 35 1003 53 9656 4.1 100 22:22 16.05.2020
2920 Clear 36 1004 53 9656 4.6 70 21:56 16.05.2020
2921 Clear 36 1004 53 9656 4.6 70 21:37 16.05.2020
2922 Clear 35 1004 53 9656 4.6 70 21:19 16.05.2020
2923 Clear 35 1005 53 8047 1 130 20:55 16.05.2020
2924 Clear 35 1005 53 8047 1 130 20:36 16.05.2020
2925 Clear 35 1005 53 8047 1 130 20:18 16.05.2020
2926 Clear 34 1006 56 8047 4.1 160 19:41 16.05.2020
2927 Clear 34 1006 56 8047 4.1 160 19:23 16.05.2020
2928 Clear 33 1006 66 9656 5.7 180 18:57 16.05.2020
2929 Clear 33 1006 66 9656 5.7 180 18:37 16.05.2020
2930 Clear 32 1006 66 9656 5.7 180 18:18 16.05.2020
2931 Clear 31 1006 70 9656 4.6 190 17:41 16.05.2020
2932 Clear 31 1006 70 9656 4.6 190 17:20 16.05.2020
2933 Clear 30 1006 74 8047 4.1 180 16:44 16.05.2020
2934 Clear 29 1006 74 8047 4.1 180 16:25 16.05.2020
2935 Mist 27 1005 88 8047 5.25 174 15:59 16.05.2020
2936 Haze 27 1005 88 8047 5.25 174 15:41 16.05.2020
2937 Haze 27 1005 88 8047 5.53 166 15:21 16.05.2020
2938 Mist 27 1005 88 8047 2.6 200 14:56 16.05.2020
2939 Mist 26 1005 88 8047 2.6 200 14:37 16.05.2020
2940 Mist 26 1005 88 8047 2.6 200 14:37 16.05.2020
2941 Mist 26 1005 88 8047 2.6 200 14:19 16.05.2020
2942 Clear 27 1005 88 9656 1 210 13:42 16.05.2020
2943 Clear 27 1005 88 9656 1 210 13:23 16.05.2020
2944 Clouds 28 1003 100 0 0.89 180 12:57 16.05.2020
2945 Clouds 28 1002 100 0 1.34 144 12:39 16.05.2020
2946 Clouds 28 1003 100 0 1.34 175 12:18 16.05.2020
2947 Clouds 28 1002 100 0 0.89 146 11:41 16.05.2020
2948 Clouds 28 1002 100 0 1.34 158 11:22 16.05.2020
2949 Clouds 28 1002 100 0 1.79 130 10:58 16.05.2020
2950 Clouds 28 1003 100 0 0.89 142 10:39 16.05.2020
2951 Clouds 28 1003 100 0 0.89 165 10:20 16.05.2020
2952 Clouds 28 1003 100 0 4.79 154 09:46 16.05.2020
2953 Clouds 28 1003 100 0 0.45 215 09:28 16.05.2020
2954 Clouds 28 1004 100 0 4.49 144 08:46 16.05.2020
2955 Clouds 28 1005 100 0 3.19 108 08:24 16.05.2020
2956 Clouds 29 1005 100 0 3.19 108 07:58 16.05.2020
2957 Clouds 29 1005 100 0 1.79 265 07:40 16.05.2020
2958 Clouds 29 1007 83 9656 1.82 56 07:21 16.05.2020
2959 Clouds 29 1007 83 9656 1.82 56 06:46 16.05.2020
2960 Clouds 29 1007 83 9656 1.68 348 06:19 16.05.2020
2961 Clouds 30 1006 83 8047 1.68 348 05:41 16.05.2020
2962 Clouds 30 1006 83 8047 1.43 321 05:20 16.05.2020
2963 Clouds 30 1005 83 6437 2.6 80 03:27 16.05.2020
2964 Clouds 30 1004 79 6437 3.6 110 02:42 16.05.2020
2965 Clouds 30 1004 79 6437 3.6 110 02:18 16.05.2020
2966 Clouds 32 1004 70 8047 4.6 100 01:39 16.05.2020
2967 Clouds 33 1005 59 8047 4.1 80 00:57 16.05.2020
2968 Clouds 33 1005 59 8047 4.1 80 00:57 16.05.2020
2969 Clouds 33 1005 59 8047 4.1 80 00:38 16.05.2020
2970 Clouds 33 1005 59 8047 4.1 80 00:19 16.05.2020
2971 Clear 34 1005 59 8047 4.1 90 23:39 15.05.2020
2972 Clear 34 1005 59 8047 4.1 90 23:19 15.05.2020
2973 Clouds 34 1006 59 8047 3.1 110 22:41 15.05.2020
2974 Clouds 35 1006 59 8047 3.1 110 22:20 15.05.2020
2975 Haze 35 1007 56 4828 5.7 100 21:57 15.05.2020
2976 Haze 35 1007 56 4828 5.7 100 21:38 15.05.2020
2977 Haze 35 1007 56 4828 5.7 100 21:20 15.05.2020
2978 Haze 34 1008 59 4828 3.6 90 20:55 15.05.2020
2979 Haze 34 1008 59 4828 3.6 90 20:37 15.05.2020
2980 Haze 34 1008 59 4828 3.6 90 20:18 15.05.2020
2981 Haze 33 1009 59 4828 1.5 120 19:43 15.05.2020
2982 Haze 34 1009 59 4828 1.5 120 19:23 15.05.2020
2983 Haze 32 1009 66 4828 1.5 90 18:54 15.05.2020
2984 Haze 32 1009 66 4828 1.5 90 18:54 15.05.2020
2985 Haze 33 1009 66 4828 1.5 90 18:36 15.05.2020
2986 Haze 32 1009 66 4828 1.5 90 18:18 15.05.2020
2987 Haze 31 1009 74 4828 3.6 180 17:37 15.05.2020
2988 Haze 30 1009 74 4828 3.6 180 17:19 15.05.2020
2989 Haze 30 1009 79 4828 1.5 160 16:56 15.05.2020
2990 Haze 30 1009 79 4828 1.5 160 16:37 15.05.2020
2991 Haze 29 1009 79 4828 1.5 160 16:18 15.05.2020
2992 Mist 28 1009 83 3219 3.11 171 15:41 15.05.2020
2993 Mist 28 1009 83 3219 3.11 171 15:41 15.05.2020
2994 Mist 28 1009 83 3219 3.45 160 15:21 15.05.2020
2995 Mist 27 1008 94 3219 4.05 156 14:58 15.05.2020
2996 Mist 27 1008 94 3219 3.45 160 14:40 15.05.2020
2997 Mist 27 1008 94 3219 3.5 152 14:22 15.05.2020
2998 Clouds 27 1008 94 9656 4.18 148 13:42 15.05.2020
2999 Clouds 27 1008 94 9656 2.99 147 13:22 15.05.2020
3000 Clear 28 1006 100 0 2.99 147 12:56 15.05.2020
3001 Clear 28 1006 100 0 2.99 147 12:37 15.05.2020
3002 Clear 28 1006 100 0 2 161 12:18 15.05.2020
3003 Clear 28 1006 100 0 2 161 11:56 15.05.2020
3004 Clear 28 1006 100 0 2 161 11:37 15.05.2020
3005 Clear 28 1006 100 0 1.68 162 11:19 15.05.2020
3006 Clear 28 1006 100 0 1.68 162 10:56 15.05.2020
3007 Clear 28 1007 100 0 0.45 296 10:37 15.05.2020
3008 Clear 28 1007 100 0 0.45 296 10:19 15.05.2020
3009 Clear 28 1007 100 0 0.89 296 09:40 15.05.2020
3010 Clear 28 1007 100 0 1.17 226 09:20 15.05.2020
3011 Clear 28 1008 100 0 1.17 226 08:58 15.05.2020
3012 Clear 28 1008 100 0 1.17 226 08:58 15.05.2020
3013 Clear 28 1008 100 0 1.17 226 08:38 15.05.2020
3014 Clouds 28 1008 100 0 0.45 304 08:19 15.05.2020
3015 Clouds 28 1009 100 0 0.7 228 07:44 15.05.2020
3016 Clouds 29 1009 100 0 0.42 310 07:25 15.05.2020
3017 Clouds 28 1010 94 9656 0.42 310 06:56 15.05.2020
3018 Clouds 28 1010 88 9656 2.1 90 05:53 15.05.2020
3019 Clouds 29 1009 88 9656 2.1 50 04:29 15.05.2020
3020 Clouds 29 1008 83 8047 3.6 60 03:48 15.05.2020
3021 Clouds 30 1008 70 8047 3.6 60 02:40 15.05.2020
3022 Clouds 31 1008 70 8047 2.6 100 01:31 15.05.2020
3023 Clouds 32 1008 66 8047 3.6 70 00:56 15.05.2020
3024 Clouds 32 1008 66 8047 3.6 70 00:37 15.05.2020
3025 Clouds 32 1008 66 8047 3.6 70 00:19 15.05.2020
3026 Clouds 32 1008 66 8047 2.1 100 23:40 14.05.2020
3027 Clouds 32 1008 66 8047 2.1 100 23:18 14.05.2020
3028 Clouds 32 1009 66 8047 3.1 90 22:41 14.05.2020
3029 Clouds 32 1009 66 8047 3.1 90 22:19 14.05.2020
3030 Clouds 32 1010 66 6437 3.6 100 21:58 14.05.2020
3031 Clouds 32 1010 66 6437 3.6 100 21:39 14.05.2020
3032 Clouds 32 1010 66 6437 3.6 100 21:19 14.05.2020
3033 Clouds 32 1011 66 6437 2.6 90 20:55 14.05.2020
3034 Clouds 32 1011 66 6437 2.6 90 20:37 14.05.2020
3035 Clouds 32 1011 66 6437 2.6 90 20:37 14.05.2020
3036 Clouds 32 1011 66 6437 2.6 90 20:18 14.05.2020
3037 Clouds 32 1011 62 6437 1 120 19:41 14.05.2020
3038 Clouds 32 1011 62 6437 1 120 19:21 14.05.2020
3039 Clouds 32 1012 66 6437 3.6 210 18:59 14.05.2020
3040 Clouds 32 1012 66 6437 3.6 210 18:38 14.05.2020
3041 Clouds 31 1012 66 6437 3.6 210 18:20 14.05.2020
3042 Clouds 31 1012 74 6437 3.6 180 17:59 14.05.2020
3043 Clouds 31 1012 74 6437 3.6 180 17:38 14.05.2020
3044 Clouds 30 1012 74 6437 3.6 180 17:19 14.05.2020
3045 Mist 30 1012 79 4828 1.7 176 16:59 14.05.2020
3046 Mist 30 1012 79 4828 1.7 176 16:39 14.05.2020
3047 Mist 29 1012 79 4828 2.84 187 16:20 14.05.2020
3048 Mist 28 1012 88 4828 2.84 187 15:56 14.05.2020
3049 Mist 28 1012 88 4828 2.84 187 15:38 14.05.2020
3050 Mist 28 1012 88 4828 2.82 167 15:19 14.05.2020
3051 Mist 28 1012 88 4828 2.82 167 15:19 14.05.2020
3052 Mist 27 1011 94 4828 2.82 167 14:55 14.05.2020
3053 Mist 27 1011 94 4828 2.82 167 14:36 14.05.2020
3054 Mist 27 1011 94 4828 2.81 192 14:18 14.05.2020
3055 Clouds 27 1010 94 6437 1.57 164 14:18 14.05.2020
3056 Clouds 27 1010 94 6437 2.81 192 13:42 14.05.2020
3057 Clouds 27 1010 94 6437 2.82 170 13:20 14.05.2020
3058 Clouds 27 1008 100 0 0.89 13 12:59 14.05.2020
3059 Clouds 27 1008 100 0 0.89 12 12:39 14.05.2020
3060 Clear 27 1008 100 0 0.45 11 12:20 14.05.2020
3061 -273 0 0 0 0 0 11:59 14.05.2020
3062 Clear 27 1008 100 0 0.89 11 11:39 14.05.2020
3063 Clear 27 1008 100 0 0.86 108 11:21 14.05.2020
3064 Clear 27 1008 100 0 0.45 11 10:56 14.05.2020
3065 Clear 27 1008 100 0 0.89 13 10:37 14.05.2020
3066 Clear 27 1008 100 0 0.89 13 10:37 14.05.2020
3067 Clear 27 1008 100 0 0.73 280 10:19 14.05.2020
3068 Clear 26 1009 100 0 0.73 280 09:42 14.05.2020
3069 Clear 26 1009 100 0 1.25 216 09:23 14.05.2020
3070 Clear 27 1009 100 0 1.14 223 08:42 14.05.2020
3071 Clear 27 1009 100 0 1.88 161 08:21 14.05.2020
3072 Clear 27 1009 100 0 1.88 161 07:46 14.05.2020
3073 Clouds 27 1011 94 9656 2.17 103 07:25 14.05.2020
3074 Clouds 27 1011 94 9656 2.17 103 06:55 14.05.2020
3075 Clouds 27 1011 94 9656 2.17 103 06:31 14.05.2020
3076 Clouds 28 1011 83 8047 2.78 64 05:56 14.05.2020
3077 Clouds 28 1011 83 8047 2.78 64 05:35 14.05.2020
3078 Clouds 28 1010 83 9656 1 100 04:26 14.05.2020
3079 Clouds 28 1010 83 8047 1.5 80 03:27 14.05.2020
3080 Clouds 29 1009 74 9656 2.1 100 02:42 14.05.2020
3081 Clouds 30 1009 70 9656 3.6 100 01:56 14.05.2020
3082 Clouds 31 1009 70 9656 3.6 100 01:24 14.05.2020
3083 Clouds 31 1009 66 9656 3.6 70 00:48 14.05.2020
3084 Clouds 31 1009 66 9656 3.6 70 00:24 14.05.2020
3085 Clouds 32 1010 62 8047 2.6 110 23:44 13.05.2020
3086 Clouds 32 1010 62 8047 2.6 110 23:21 13.05.2020
3087 Clouds 31 1011 70 9656 2.1 120 22:54 13.05.2020
3088 Clouds 31 1011 70 9656 2.1 120 22:54 13.05.2020
3089 Clouds 31 1011 70 9656 2.1 120 22:54 13.05.2020
3090 Clouds 31 1011 70 9656 2.1 120 22:36 13.05.2020
3091 Clouds 30 1011 70 9656 2.1 120 22:18 13.05.2020
3092 Clouds 32 1011 59 9656 2.1 100 21:55 13.05.2020
3093 Clouds 32 1011 59 9656 2.1 100 21:37 13.05.2020
3094 Clouds 32 1011 59 9656 2.1 100 21:18 13.05.2020
3095 Clouds 32 1011 59 9656 2.1 100 21:18 13.05.2020
3096 Clouds 31 1012 66 9656 1.5 170 20:40 13.05.2020
3097 Clouds 31 1012 66 9656 1.5 170 20:22 13.05.2020
3098 Clouds 30 1013 66 9656 2.89 95 19:43 13.05.2020
3099 Clouds 30 1013 66 9656 2.01 112 19:24 13.05.2020
3100 Clouds 30 1013 74 9656 2.01 112 18:56 13.05.2020
3101 Clouds 30 1013 74 9656 2.01 112 18:37 13.05.2020
3102 Clouds 30 1013 74 9656 1.27 162 18:18 13.05.2020
3103 Clouds 28 1013 78 9656 1.27 162 17:39 13.05.2020
3104 Clouds 28 1013 78 9656 1.49 198 17:19 13.05.2020
3105 Mist 27 1013 83 9656 1.5 310 16:55 13.05.2020
3106 Mist 27 1013 83 9656 1.5 310 16:55 13.05.2020
3107 Mist 27 1013 83 9656 1.5 310 16:37 13.05.2020
3108 Haze 27 1013 83 9656 1.5 310 16:37 13.05.2020
3109 Haze 27 1013 83 9656 1.5 310 16:18 13.05.2020
3110 Mist 26 1013 88 9656 1 300 15:42 13.05.2020
3111 Mist 26 1013 88 9656 1 300 15:19 13.05.2020
3112 Mist 26 1012 94 9656 1 320 14:57 13.05.2020
3113 Haze 26 1012 94 9656 1 320 14:39 13.05.2020
3114 Haze 26 1012 94 9656 1 320 14:21 13.05.2020
3115 Clouds 26 1012 88 9656 2.1 330 13:56 13.05.2020
3116 Clouds 26 1012 88 9656 2.1 330 13:38 13.05.2020
3117 Clouds 25 1012 88 9656 2.1 330 13:19 13.05.2020
3118 Clouds 26 1010 100 0 0.89 67 12:43 13.05.2020
3119 Clouds 26 1010 100 0 0.45 67 12:22 13.05.2020
3120 Clouds 26 1009 100 0 2.4 113 11:57 13.05.2020
3121 Clouds 26 1009 100 0 2.4 113 11:38 13.05.2020
3122 Clear 26 1009 100 0 2 107 11:20 13.05.2020
3123 Clear 25 1009 100 0 2 107 10:59 13.05.2020
3124 Clear 25 1010 100 0 2 107 10:39 13.05.2020
3125 Clouds 25 1010 100 0 2.46 105 10:20 13.05.2020
3126 Clouds 25 1010 100 0 2.46 105 09:57 13.05.2020
3127 Clouds 25 1010 100 0 2.46 105 09:38 13.05.2020
3128 Clear 25 1010 100 0 2.56 113 09:20 13.05.2020
3129 Clear 25 1011 100 0 0.45 99 08:40 13.05.2020
3130 Clouds 25 1011 100 0 0.89 99 08:21 13.05.2020
3131 Clouds 26 1011 100 0 2.41 110 07:58 13.05.2020
3132 Clouds 26 1011 100 0 0.45 99 07:36 13.05.2020
3133 Clear 26 1013 83 9656 2.01 91 06:55 13.05.2020
3134 Clear 26 1013 83 9656 2.01 91 06:36 13.05.2020
3135 Clear 27 1013 78 11265 2.14 80 05:48 13.05.2020
3136 Clouds 27 1012 78 9656 2.94 79 04:21 13.05.2020
3137 Clouds 29 1011 66 9656 3.1 110 02:58 13.05.2020
3138 Clear 30 1011 58 9656 5.1 80 01:47 13.05.2020
3139 Clear 30 1011 58 9656 5.1 80 01:20 13.05.2020
3140 Clouds 31 1011 52 11265 2.6 90 00:30 13.05.2020
3141 Clouds 31 1012 51 11265 4.1 110 23:59 12.05.2020
3142 Clouds 30 1012 51 11265 4.1 110 23:39 12.05.2020
3143 Clouds 31 1012 51 11265 4.1 110 23:20 12.05.2020
3144 Clouds 31 1012 51 11265 4.1 110 23:20 12.05.2020
3145 Clouds 31 1013 51 11265 2.6 100 22:55 12.05.2020
3146 Clouds 31 1013 51 11265 2.6 100 22:36 12.05.2020
3147 Clouds 31 1013 51 11265 2.6 100 22:18 12.05.2020
3148 Clouds 31 1014 58 11265 4.1 100 21:54 12.05.2020
3149 Clouds 31 1014 58 11265 4.1 100 21:36 12.05.2020
3150 Clouds 31 1014 58 11265 4.1 100 21:18 12.05.2020
3151 Clouds 32 1014 55 11265 6.2 70 20:41 12.05.2020
3152 Clouds 31 1014 55 11265 6.2 70 20:23 12.05.2020
3153 Clouds 31 1015 55 11265 1.5 100 19:59 12.05.2020
3154 Clouds 31 1015 55 11265 1.5 100 19:41 12.05.2020
3155 Clouds 31 1015 55 11265 1.5 100 19:22 12.05.2020
3156 Clouds 31 1015 58 11265 1.5 320 18:58 12.05.2020
3157 Clouds 30 1015 58 11265 1.5 320 18:40 12.05.2020
3158 Clouds 30 1015 58 11265 1.5 320 18:21 12.05.2020
3159 Clouds 29 1016 69 9656 1.5 210 17:44 12.05.2020
3160 Clouds 28 1016 69 9656 1.5 210 17:25 12.05.2020
3161 Clouds 28 1016 69 9656 2.51 165 16:58 12.05.2020
3162 Clouds 27 1016 69 9656 2.51 165 16:40 12.05.2020
3163 Clouds 28 1016 69 9656 2.26 183 16:19 12.05.2020
3164 Clouds 25 1016 88 8047 2.26 183 15:54 12.05.2020
3165 Clouds 25 1016 88 8047 2.26 183 15:36 12.05.2020
3166 Clouds 24 1016 88 8047 1.46 152 15:18 12.05.2020
3167 Clouds 23 1016 88 9656 1.46 152 14:54 12.05.2020
3168 Clouds 23 1016 88 9656 1.46 152 14:36 12.05.2020
3169 Clouds 23 1016 88 9656 1.37 133 14:18 12.05.2020
3170 Clouds 23 1015 83 8047 1.37 133 13:54 12.05.2020
3171 Clouds 23 1015 83 8047 1.37 133 13:36 12.05.2020
3172 Clouds 23 1015 83 8047 1.37 133 13:36 12.05.2020
3173 Clouds 23 1015 83 8047 1.26 112 13:18 12.05.2020
3174 Clouds 24 1013 100 0 0.89 261 12:54 12.05.2020
3175 Clouds 24 1013 100 0 1.79 266 12:36 12.05.2020
3176 Clouds 24 1014 100 0 1.34 281 12:18 12.05.2020
3177 Clouds 24 1013 100 0 0.89 292 11:55 12.05.2020
3178 Clouds 24 1013 100 0 1.34 255 11:36 12.05.2020
3179 Rain 24 1014 100 0 2.24 259 11:18 12.05.2020
3180 Rain 24 1014 100 0 0.45 271 10:42 12.05.2020
3181 Rain 24 1014 100 0 0.89 265 10:22 12.05.2020
3182 Rain 24 1014 100 0 1.79 255 09:59 12.05.2020
3183 Rain 24 1014 100 0 2.24 261 09:40 12.05.2020
3184 Rain 24 1015 100 0 1.79 263 09:21 12.05.2020
3185 Rain 24 1015 100 0 1.79 256 08:57 12.05.2020
3186 Rain 24 1015 100 0 2.24 269 08:38 12.05.2020
3187 Rain 24 1015 100 0 1.34 272 08:19 12.05.2020
3188 Rain 25 1016 100 0 0.89 273 07:42 12.05.2020
3189 Clouds 25 1018 94 11265 2.18 62 07:22 12.05.2020
3190 Clouds 25 1018 94 11265 2.18 62 06:49 12.05.2020
3191 Clouds 25 1018 94 11265 2.27 48 06:27 12.05.2020
3192 Clouds 25 1017 94 11265 2.27 48 05:50 12.05.2020
3193 Clouds 25 1017 94 11265 2.27 48 05:30 12.05.2020
3194 Clouds 27 1016 83 11265 1 60 03:27 12.05.2020
3195 Clouds 27 1016 78 11265 5.1 30 02:44 12.05.2020
3196 Clouds 28 1016 78 11265 5.1 30 02:24 12.05.2020
3197 Clouds 28 1016 69 11265 5.7 50 01:27 12.05.2020
3198 Clouds 29 1016 70 11265 5.1 70 00:27 12.05.2020
3199 Clouds 30 1017 66 11265 6.2 60 23:58 11.05.2020
3200 Clouds 30 1017 66 11265 6.2 60 23:40 11.05.2020
3201 Clouds 30 1017 66 11265 6.2 60 23:20 11.05.2020
3202 Clouds 30 1018 58 11265 9.8 50 22:59 11.05.2020
3203 Clouds 30 1018 58 11265 9.8 50 22:40 11.05.2020
3204 Clouds 30 1018 58 11265 9.8 50 22:20 11.05.2020
3205 Clouds 30 1019 66 11265 6.7 20 21:58 11.05.2020
3206 Clouds 30 1019 66 11265 6.7 20 21:39 11.05.2020
3207 Clouds 30 1019 66 11265 6.7 20 21:19 11.05.2020
3208 Clouds 30 1019 66 11265 8.2 40 20:57 11.05.2020
3209 Clouds 30 1019 66 11265 8.2 40 20:57 11.05.2020
3210 Clouds 30 1019 66 11265 8.2 40 20:57 11.05.2020
3211 Clouds 30 1019 66 11265 8.2 40 20:39 11.05.2020
3212 Clouds 29 1019 66 11265 8.2 40 20:20 11.05.2020
3213 Clouds 30 1020 58 11265 4.6 360 19:55 11.05.2020
3214 Clouds 30 1020 58 11265 4.6 360 19:36 11.05.2020
3215 Clouds 30 1020 58 11265 4.6 360 19:18 11.05.2020
3216 Clouds 30 1020 62 11265 5.1 360 18:55 11.05.2020
3217 Clouds 30 1020 62 11265 5.1 360 18:36 11.05.2020
3218 Clouds 30 1020 62 11265 5.1 360 18:18 11.05.2020
3219 Clouds 30 1020 62 11265 5.1 360 18:18 11.05.2020
3220 Clouds 29 1019 65 11265 4.6 360 17:41 11.05.2020
3221 Clouds 28 1019 65 11265 4.6 360 17:22 11.05.2020
3222 Clouds 28 1019 74 11265 1.5 360 16:59 11.05.2020
3223 Clouds 28 1019 74 11265 1.5 360 16:39 11.05.2020
3224 Clouds 27 1019 74 11265 1.5 360 16:21 11.05.2020
3225 Clouds 26 1018 94 11265 3.98 328 15:57 11.05.2020
3226 Clouds 26 1018 94 11265 3.98 328 15:39 11.05.2020
3227 Clouds 25 1018 94 11265 4.19 328 15:18 11.05.2020
3228 Clouds 24 1018 94 9656 4.19 328 14:42 11.05.2020
3229 Clouds 24 1018 94 9656 4.19 328 14:42 11.05.2020
3230 Clouds 23 1018 94 9656 5.09 339 14:23 11.05.2020
3231 Clouds 23 1018 94 9656 5.09 339 13:59 11.05.2020
3232 Clouds 23 1018 94 9656 5.09 339 13:41 11.05.2020
3233 Clouds 23 1018 94 9656 4.97 338 13:19 11.05.2020
3234 Clouds 24 1016 100 0 0.89 240 12:58 11.05.2020
3235 Clouds 24 1016 100 0 1.34 240 12:39 11.05.2020
3236 Clouds 24 1016 100 0 0.89 250 12:21 11.05.2020
3237 Clouds 26 1016 100 0 1.34 38 11:56 11.05.2020
3238 Clouds 24 1016 100 0 4.96 349 11:37 11.05.2020
3239 Clouds 24 1016 100 0 5.2 352 11:19 11.05.2020
3240 Clouds 24 1016 100 0 0.89 234 10:54 11.05.2020
3241 Clouds 25 1016 100 0 0.45 237 10:36 11.05.2020
3242 Clouds 26 1016 100 0 0.45 236 10:18 11.05.2020
3243 Clouds 27 1017 100 0 2.24 19 09:42 11.05.2020
3244 Clouds 27 1017 100 0 2.68 355 09:22 11.05.2020
3245 Clouds 27 1017 100 0 2.68 13 08:58 11.05.2020
3246 Clouds 27 1017 100 0 2.68 13 08:58 11.05.2020
3247 Clouds 27 1017 100 0 2.68 32 08:38 11.05.2020
3248 Clouds 27 1017 100 0 4.02 24 08:18 11.05.2020
3249 Clouds 27 1017 100 0 2.68 22 07:50 11.05.2020
3250 Clouds 27 1017 100 0 4.47 355 07:31 11.05.2020
3251 Clouds 27 1019 78 11265 4.1 360 06:53 11.05.2020
3252 Clouds 27 1019 78 11265 4.1 360 06:19 11.05.2020
3253 Clouds 27 1018 83 11265 6.2 20 05:30 11.05.2020
3254 Clouds 27 1017 83 11265 5.1 360 04:43 11.05.2020
3255 Sand 27 1016 83 9656 7.7 10 03:35 11.05.2020
3256 Sand 27 1016 74 11265 7.7 360 02:34 11.05.2020
3257 Clouds 28 1015 69 11265 7.7 20 01:46 11.05.2020
3258 Clouds 29 1016 66 11265 7.7 360 00:53 11.05.2020
3259 Clouds 29 1016 66 11265 7.7 360 00:21 11.05.2020
3260 Clouds 30 1016 70 11265 7.7 360 23:45 10.05.2020
3261 Clouds 30 1016 70 11265 7.7 360 23:26 10.05.2020
3262 Clouds 30 1016 62 11265 8.2 20 22:57 10.05.2020
3263 Clouds 30 1016 62 11265 8.2 20 22:39 10.05.2020
3264 Clouds 30 1016 62 11265 8.2 20 22:20 10.05.2020
3265 Clouds 31 1017 55 11265 7.7 350 21:44 10.05.2020
3266 Clouds 31 1017 55 11265 7.7 350 21:20 10.05.2020
3267 Rain 31 1017 52 11265 7.2 20 20:56 10.05.2020
3268 Rain 31 1017 52 11265 7.2 20 20:38 10.05.2020
3269 Rain 31 1017 52 11265 7.2 20 20:19 10.05.2020
3270 Clouds 31 1017 58 9656 6.9 5 19:41 10.05.2020
3271 Clouds 31 1017 58 9656 4.72 359 19:22 10.05.2020
3272 Clouds 30 1018 62 9656 4.72 359 18:57 10.05.2020
3273 Clouds 30 1018 62 9656 4.72 359 18:37 10.05.2020
3274 Clouds 30 1018 62 9656 3.2 330 18:19 10.05.2020
3275 Clouds 28 1018 74 9656 3.2 330 17:59 10.05.2020
3276 Clouds 28 1018 74 9656 3.2 330 17:40 10.05.2020
3277 Clouds 28 1018 74 9656 4.13 317 17:22 10.05.2020
3278 Clouds 26 1017 83 6437 1.5 230 16:58 10.05.2020
3279 Clouds 26 1017 83 6437 1.5 230 16:40 10.05.2020
3280 Clouds 26 1017 83 6437 1.5 230 16:19 10.05.2020
3281 Clouds 24 1017 94 6437 4.9 321 15:44 10.05.2020
3282 Clouds 23 1017 94 6437 4.64 329 15:25 10.05.2020
3283 Clouds 23 1016 100 8047 4.64 329 14:59 10.05.2020
3284 Clouds 23 1016 100 8047 4.64 329 14:38 10.05.2020
3285 Clouds 23 1016 100 8047 5.4 336 14:20 10.05.2020
3286 Clouds 23 1016 94 9656 5.4 336 13:59 10.05.2020
3287 Clouds 23 1016 94 9656 5.4 336 13:38 10.05.2020
3288 Clouds 23 1016 94 9656 5.1 350 13:20 10.05.2020
3289 Rain 24 1014 100 0 1.34 209 12:57 10.05.2020
3290 Rain 24 1014 100 0 1.34 210 12:38 10.05.2020
3291 Rain 24 1014 100 0 0.89 252 12:20 10.05.2020
3292 Rain 24 1014 100 0 5.12 356 11:56 10.05.2020
3293 Rain 25 1015 100 0 5.12 356 11:38 10.05.2020
3294 Rain 25 1014 100 0 0.45 331 11:19 10.05.2020
3295 Rain 25 1014 100 0 1.34 284 10:46 10.05.2020
3296 Rain 26 1014 100 0 2.24 296 10:27 10.05.2020
3297 Rain 26 1014 100 0 3.13 11 09:58 10.05.2020
3298 Rain 26 1014 100 0 3.58 28 09:39 10.05.2020
3299 Rain 26 1015 100 0 3.58 5 09:20 10.05.2020
3300 Rain 26 1015 100 0 3.58 5 08:48 10.05.2020
3301 Rain 26 1016 100 0 4.47 346 08:24 10.05.2020
3302 Rain 26 1016 100 0 4.92 333 07:45 10.05.2020
3303 Rain 26 1016 100 0 4.47 5 07:21 10.05.2020
3304 Rain 25 1017 100 9656 5.1 20 06:57 10.05.2020
3305 Rain 25 1017 100 9656 5.1 20 06:30 10.05.2020
3306 Rain 25 1016 88 9656 5.1 360 05:50 10.05.2020
3307 Rain 26 1015 83 9656 6.2 360 04:54 10.05.2020
3308 Rain 26 1015 83 9656 6.2 360 04:34 10.05.2020
3309 Clouds 26 1014 83 9656 7.2 360 03:54 10.05.2020
3310 Clouds 26 1014 83 9656 7.2 360 03:36 10.05.2020
3311 Drizzle 26 1013 83 9656 5.1 360 02:41 10.05.2020
3312 Drizzle 26 1013 83 9656 5.1 360 02:19 10.05.2020
3313 Clouds 26 1011 83 9656 10.3 360 01:41 10.05.2020
3314 Clouds 27 1011 83 9656 10.3 360 01:19 10.05.2020
3315 Clouds 27 1011 78 9656 7.7 10 00:54 10.05.2020
3316 Clouds 27 1011 78 9656 7.7 10 00:24 10.05.2020
3317 Clouds 27 1011 69 9656 7.7 360 23:58 09.05.2020
3318 Clouds 27 1011 69 9656 7.7 360 23:39 09.05.2020
3319 Clouds 27 1011 69 9656 7.7 360 23:20 09.05.2020
3320 Clouds 29 1012 66 9656 7.7 10 22:42 09.05.2020
3321 Clouds 29 1012 66 9656 7.7 10 22:23 09.05.2020
3322 Clouds 30 1012 58 9656 7.7 10 21:58 09.05.2020
3323 Clouds 31 1012 58 9656 7.7 10 21:40 09.05.2020
3324 Clouds 31 1012 58 9656 7.7 10 21:21 09.05.2020
3325 Clouds 32 1013 49 9656 8.2 360 20:58 09.05.2020
3326 Clouds 32 1013 49 9656 8.2 360 20:38 09.05.2020
3327 Clouds 32 1013 49 9656 8.2 360 20:20 09.05.2020
3328 Clear 32 1014 55 9656 7.2 10 19:56 09.05.2020
3329 Clear 31 1014 55 9656 7.2 10 19:37 09.05.2020
3330 Clear 31 1014 55 9656 7.2 10 19:18 09.05.2020
3331 Clear 31 1014 55 9656 7.2 10 19:18 09.05.2020
3332 Clouds 31 1014 58 9656 5.7 30 18:43 09.05.2020
3333 Clouds 30 1014 58 9656 5.7 30 18:24 09.05.2020
3334 Clouds 29 1013 79 8047 5.1 360 17:46 09.05.2020
3335 Clouds 29 1013 79 8047 5.1 360 17:23 09.05.2020
3336 Clear 29 1013 78 8047 2.1 330 16:57 09.05.2020
3337 Clear 28 1013 78 8047 2.1 330 16:38 09.05.2020
3338 Clear 28 1013 78 8047 2.1 330 16:38 09.05.2020
3339 Clear 28 1013 78 8047 2.1 330 16:18 09.05.2020
3340 Mist 26 1012 94 6437 4.27 338 15:43 09.05.2020
3341 Mist 26 1012 94 6437 3.25 317 15:22 09.05.2020
3342 Haze 26 1012 94 4828 1 340 14:56 09.05.2020
3343 Haze 25 1012 94 4828 1 340 14:37 09.05.2020
3344 Haze 25 1012 94 4828 1 340 14:18 09.05.2020
3345 Clouds 25 1011 94 9656 0.67 292 13:55 09.05.2020
3346 Clouds 25 1011 94 9656 0.67 292 13:37 09.05.2020
3347 Clouds 25 1011 94 9656 1.04 89 13:18 09.05.2020
3348 Clouds 26 1009 100 0 0.89 5 12:39 09.05.2020
3349 Clear 26 1009 100 0 0.89 22 12:21 09.05.2020
3350 Clear 26 1009 100 0 0.89 331 11:45 09.05.2020
3351 Clear 26 1009 100 0 0.45 286 11:20 09.05.2020
3352 Clear 26 1009 100 0 0.45 285 10:55 09.05.2020
3353 Clear 26 1009 100 0 0.45 285 10:37 09.05.2020
3354 Clear 26 1009 100 0 1.68 70 10:19 09.05.2020
3355 Clear 26 1010 100 0 0.45 282 09:44 09.05.2020
3356 Clear 26 1010 100 0 0.96 36 09:20 09.05.2020
3357 Clear 26 1010 100 0 0.96 36 08:57 09.05.2020
3358 Clear 26 1010 100 0 1.34 271 08:38 09.05.2020
3359 Clear 26 1010 100 0 1.34 271 08:20 09.05.2020
3360 Clear 27 1010 100 0 0.89 109 07:44 09.05.2020
3361 Clear 27 1010 100 0 0.89 109 07:25 09.05.2020
3362 Clouds 26 1012 94 11265 0.83 107 06:40 09.05.2020
3363 Clouds 27 1012 94 11265 2.1 99 06:18 09.05.2020
3364 Clouds 27 1011 83 11265 2.1 99 05:39 09.05.2020
3365 Clouds 28 1009 78 11265 2.1 120 03:40 09.05.2020
3366 Clear 28 1009 78 11265 3.1 100 02:54 09.05.2020
3367 Clear 28 1009 78 11265 3.1 100 02:30 09.05.2020
3368 Clouds 29 1008 70 11265 4.6 100 01:50 09.05.2020
3369 Clouds 30 1008 70 11265 4.6 100 01:22 09.05.2020
3370 Clouds 30 1009 58 11265 4.6 110 00:43 09.05.2020
3371 Clouds 30 1009 58 11265 4.6 110 00:19 09.05.2020
3372 Clouds 31 1010 58 11265 5.7 90 23:44 08.05.2020
3373 Clouds 31 1010 58 11265 5.7 90 23:25 08.05.2020
3374 Clouds 32 1011 59 11265 5.1 90 22:56 08.05.2020
3375 Clouds 32 1011 59 11265 5.1 90 22:38 08.05.2020
3376 Clouds 32 1011 59 11265 5.1 90 22:19 08.05.2020
3377 Clouds 32 1012 62 11265 4.1 70 21:54 08.05.2020
3378 Clouds 32 1012 62 11265 4.1 70 21:36 08.05.2020
3379 Clouds 32 1012 62 11265 4.1 70 21:18 08.05.2020
3380 Clouds 31 1013 58 11265 4.14 92 20:55 08.05.2020
3381 Clouds 32 1013 58 11265 4.14 92 20:37 08.05.2020
3382 Clouds 31 1013 58 11265 2.97 104 20:19 08.05.2020
3383 Clouds 31 1014 62 11265 3.6 180 19:42 08.05.2020
3384 Clouds 31 1014 62 11265 3.6 180 19:21 08.05.2020
3385 Clouds 29 1014 62 11265 3.1 160 18:45 08.05.2020
3386 Clouds 29 1014 62 11265 3.1 160 18:27 08.05.2020
3387 Clear 28 1015 74 11265 3.1 160 17:43 08.05.2020
3388 Clear 28 1015 74 11265 3.1 160 17:20 08.05.2020
3389 Mist 26 1015 83 9656 1 190 16:56 08.05.2020
3390 Haze 26 1015 83 9656 1 190 16:38 08.05.2020
3391 Mist 26 1015 83 9656 1 190 16:19 08.05.2020
3392 Mist 23 1014 94 9656 1.52 239 15:43 08.05.2020
3393 Haze 22 1014 94 9656 1.26 245 15:22 08.05.2020
3394 Mist 22 1014 94 9656 1.26 245 14:57 08.05.2020
3395 Mist 21 1014 94 9656 1.26 245 14:39 08.05.2020
3396 Mist 21 1014 94 9656 0.9 226 14:19 08.05.2020
3397 Clouds 22 1014 88 9656 0.9 226 13:56 08.05.2020
3398 Clouds 22 1014 88 9656 0.9 226 13:37 08.05.2020
3399 Clouds 22 1014 88 9656 1.08 185 13:18 08.05.2020
3400 Clouds 22 1013 100 0 0.45 226 12:42 08.05.2020
3401 Clouds 22 1013 100 0 0.45 226 12:23 08.05.2020
3402 Clouds 22 1013 100 0 0.45 226 11:45 08.05.2020
3403 Clouds 22 1013 100 0 0.89 240 11:24 08.05.2020
3404 Clouds 22 1013 100 0 2.33 252 10:59 08.05.2020
3405 Clouds 22 1013 100 0 2.33 252 10:59 08.05.2020
3406 Clouds 22 1013 100 0 2.33 252 10:41 08.05.2020
3407 Clear 22 1014 100 0 0.89 240 10:19 08.05.2020
3408 Clear 23 1014 100 0 2.04 255 09:57 08.05.2020
3409 Clear 23 1014 100 0 2.04 255 09:38 08.05.2020
3410 Clouds 23 1015 100 0 0.45 269 09:18 08.05.2020
3411 Clouds 23 1015 100 0 0.45 269 09:18 08.05.2020
3412 Clouds 23 1015 100 0 1.34 257 08:42 08.05.2020
3413 Rain 23 1015 100 0 2.24 256 08:22 08.05.2020
3414 Rain 23 1015 100 0 0.72 297 07:43 08.05.2020
3415 Rain 23 1015 100 0 0.45 216 07:24 08.05.2020
3416 Clear 24 1017 88 11265 0.72 40 06:51 08.05.2020
3417 Clear 24 1017 88 11265 1.82 52 06:24 08.05.2020
3418 Clear 24 1016 94 9656 1.82 52 05:51 08.05.2020
3419 Clear 25 1016 94 8047 2.33 56 04:38 08.05.2020
3420 Clouds 26 1016 83 9656 2.1 10 02:34 08.05.2020
3421 Clouds 26 1016 83 9656 2.1 10 01:53 08.05.2020
3422 Clouds 27 1016 78 9656 4.72 25 01:28 08.05.2020
3423 Clouds 27 1014 100 0 1.79 52 00:52 08.05.2020
3424 Clouds 26 1017 78 9656 3.6 350 00:30 08.05.2020
3425 Clouds 26 1017 78 9656 3.6 350 23:59 07.05.2020
3426 Clouds 26 1017 78 9656 3.6 350 23:40 07.05.2020
3427 Clouds 26 1017 78 9656 3.6 350 23:40 07.05.2020
3428 Clouds 26 1017 78 9656 3.6 350 23:40 07.05.2020
3429 Clouds 26 1017 78 9656 3.6 350 23:21 07.05.2020
3430 Clouds 26 1017 78 9656 6.2 40 22:56 07.05.2020
3431 Clouds 25 1017 78 9656 6.2 40 22:37 07.05.2020
3432 Clouds 25 1017 78 9656 6.2 40 22:19 07.05.2020
3433 Clouds 25 1018 88 9656 3.1 80 21:55 07.05.2020
3434 Clouds 25 1018 88 9656 3.1 80 21:36 07.05.2020
3435 Clouds 25 1018 88 9656 3.1 80 21:18 07.05.2020
3436 Clouds 26 1018 88 9656 5.39 359 20:42 07.05.2020
3437 Clouds 26 1018 88 9656 5.1 356 20:22 07.05.2020
3438 Clouds 25 1019 94 8047 1.5 350 19:54 07.05.2020
3439 Clouds 25 1019 94 8047 1.5 350 19:36 07.05.2020
3440 Clouds 25 1019 94 8047 1.5 350 19:18 07.05.2020
3441 Clouds 23 1019 94 9656 5.27 358 18:43 07.05.2020
3442 Clouds 23 1019 94 9656 5.02 349 18:24 07.05.2020
3443 Clouds 22 1019 94 8047 2.1 180 17:43 07.05.2020
3444 Rain 23 1019 94 8047 2.1 180 17:21 07.05.2020
3445 Clouds 26 1018 88 8047 3.1 10 16:59 07.05.2020
3446 Clouds 26 1018 88 8047 3.1 10 16:40 07.05.2020
3447 Clouds 26 1018 88 8047 3.1 10 16:18 07.05.2020
3448 Clouds 26 1018 88 8047 3.1 10 16:18 07.05.2020
3449 Clouds 24 1018 100 8047 4.63 338 15:55 07.05.2020
3450 Rain 24 1018 100 8047 4.63 338 15:37 07.05.2020
3451 Rain 24 1018 100 8047 4.34 338 15:18 07.05.2020
3452 Rain 25 1017 94 4828 5.1 350 14:43 07.05.2020
3453 Rain 25 1017 94 4828 5.1 350 14:20 07.05.2020
3454 Clouds 26 1017 78 9656 2.6 360 13:44 07.05.2020
3455 Clouds 26 1017 78 9656 2.6 360 13:25 07.05.2020
3456 Rain 27 1015 100 0 3.58 24 12:45 07.05.2020
3457 Rain 27 1015 100 0 3.58 24 12:45 07.05.2020
3458 Rain 26 1014 100 0 3.13 44 12:20 07.05.2020
3459 Rain 26 1014 100 0 1.79 41 11:59 07.05.2020
3460 Rain 26 1014 100 0 2.24 355 11:39 07.05.2020
3461 Rain 26 1014 100 0 2.24 19 11:21 07.05.2020
3462 Rain 26 1014 100 0 1.79 17 10:43 07.05.2020
3463 Rain 26 1014 100 0 2.24 9 10:24 07.05.2020
3464 Rain 26 1015 100 0 2.24 17 09:41 07.05.2020
3465 Rain 26 1015 100 0 2.24 17 09:21 07.05.2020
3466 Rain 27 1015 100 0 3.58 332 08:59 07.05.2020
3467 Rain 27 1016 100 0 4.47 360 08:41 07.05.2020
3468 Rain 27 1016 100 0 4.47 360 08:21 07.05.2020
3469 Rain 28 1016 100 0 4.02 355 07:46 07.05.2020
3470 Clouds 28 1016 100 0 4.92 360 07:28 07.05.2020
3471 Clear 27 1017 83 9656 5.7 20 06:56 07.05.2020
3472 Clear 27 1017 83 9656 5.7 20 06:35 07.05.2020
3473 Clear 27 1016 88 9656 4.1 40 05:38 07.05.2020
3474 Clouds 28 1015 78 9656 9.3 20 04:25 07.05.2020
3475 Clouds 28 1015 78 8047 8.2 30 03:26 07.05.2020
3476 Clouds 29 1013 70 11265 6.7 10 02:53 07.05.2020
3477 Clouds 30 1013 66 11265 8.7 30 01:46 07.05.2020
3478 Clouds 30 1013 66 11265 8.7 30 01:24 07.05.2020
3479 Clear 31 1014 62 11265 6.7 30 00:47 07.05.2020
3480 Clear 31 1014 62 11265 6.7 30 00:28 07.05.2020
3481 Clouds 32 1013 52 11265 9.8 30 23:48 06.05.2020
3482 Clouds 32 1013 52 11265 9.8 30 23:26 06.05.2020
3483 Clouds 32 1014 55 11265 6 8 22:58 06.05.2020
3484 Clouds 32 1014 55 11265 6 8 22:40 06.05.2020
3485 Clouds 32 1014 55 11265 5.36 13 22:20 06.05.2020
3486 Clouds 31 1015 66 9656 2.1 220 21:58 06.05.2020
3487 Clouds 31 1015 66 9656 2.1 220 21:40 06.05.2020
3488 Clouds 31 1015 66 9656 2.1 220 21:40 06.05.2020
3489 Clouds 31 1015 66 9656 2.1 220 21:21 06.05.2020
3490 Clouds 28 1015 78 8047 1 250 20:43 06.05.2020
3491 Clouds 28 1015 78 8047 1 250 20:25 06.05.2020
3492 Mist 24 1016 88 8047 4.49 10 19:59 06.05.2020
3493 Mist 24 1016 88 8047 4.49 10 19:39 06.05.2020
3494 Mist 24 1016 88 8047 3.68 11 19:21 06.05.2020
3495 Mist 24 1016 88 8047 3.68 11 19:21 06.05.2020
3496 Rain 23 1016 94 4828 3.1 360 18:59 06.05.2020
3497 Mist 23 1016 94 4828 3.1 360 18:41 06.05.2020
3498 Rain 23 1016 94 4828 3.1 360 18:22 06.05.2020
3499 Thunderstorm 22 1015 100 4023 1.5 320 17:59 06.05.2020
3500 Thunderstorm 22 1015 100 4023 1.5 320 17:40 06.05.2020
3501 Thunderstorm 22 1015 100 4023 1.5 320 17:22 06.05.2020
3502 Thunderstorm 22 1015 94 3219 3.6 30 16:59 06.05.2020
3503 Thunderstorm 22 1015 94 3219 3.6 30 16:41 06.05.2020
3504 Thunderstorm 22 1015 94 3219 3.6 30 16:21 06.05.2020
3505 Thunderstorm 24 1015 88 4828 1 100 15:59 06.05.2020
3506 Thunderstorm 24 1015 88 4828 1 100 15:59 06.05.2020
3507 Thunderstorm 24 1015 88 4828 1 100 15:40 06.05.2020
3508 Rain 25 1015 88 4828 1 100 15:21 06.05.2020
3509 Thunderstorm 25 1013 88 9656 2.6 320 14:56 06.05.2020
3510 Thunderstorm 25 1013 88 9656 2.6 320 14:56 06.05.2020
3511 Thunderstorm 25 1013 88 9656 2.6 320 14:37 06.05.2020
3512 Thunderstorm 25 1013 88 9656 2.6 320 14:18 06.05.2020
3513 Thunderstorm 25 1013 88 9656 2.6 320 14:18 06.05.2020
3514 Rain 25 1013 88 9656 4.1 200 13:43 06.05.2020
3515 Rain 25 1013 88 9656 4.1 200 13:24 06.05.2020
3516 Rain 27 1011 100 0 1.79 192 12:58 06.05.2020
3517 Rain 28 1011 100 0 0.89 166 12:39 06.05.2020
3518 Rain 29 1010 100 0 0.45 32 12:21 06.05.2020
3519 Rain 29 1010 100 0 1.79 21 11:41 06.05.2020
3520 Rain 29 1010 100 0 1.34 34 11:21 06.05.2020
3521 Rain 29 1010 100 0 3.13 22 10:58 06.05.2020
3522 Rain 29 1010 100 0 3.13 22 10:58 06.05.2020
3523 Rain 29 1010 100 0 2.24 24 10:38 06.05.2020
3524 Rain 29 1010 100 0 1.79 17 10:19 06.05.2020
3525 Rain 29 1010 100 0 1.79 12 09:45 06.05.2020
3526 Clouds 29 1010 100 0 2.24 355 09:24 06.05.2020
3527 Rain 29 1011 100 0 2.68 305 08:50 06.05.2020
3528 Rain 29 1011 100 0 1.34 355 08:24 06.05.2020
3529 Rain 29 1011 100 0 1.34 355 07:59 06.05.2020
3530 Rain 29 1011 100 0 1.34 326 07:40 06.05.2020
3531 Clouds 29 1012 83 8047 2.21 334 07:21 06.05.2020
3532 Clouds 29 1012 83 8047 2.21 334 06:53 06.05.2020
3533 Clouds 29 1012 83 8047 2.95 338 06:22 06.05.2020
3534 Clouds 29 1011 83 8047 2.1 40 05:55 06.05.2020
3535 Clouds 30 1011 83 8047 2.1 40 05:37 06.05.2020
3536 Clouds 30 1010 83 8047 2.6 60 04:38 06.05.2020
3537 Clouds 30 1009 79 8047 2.6 60 03:42 06.05.2020
3538 Clouds 30 1009 79 8047 2.6 60 03:20 06.05.2020
3539 Clouds 30 1008 74 8047 2.6 90 02:30 06.05.2020
3540 Clouds 30 1007 74 8047 2.6 100 01:54 06.05.2020
3541 Clouds 31 1007 74 8047 2.6 100 01:31 06.05.2020
3542 Clouds 32 1007 66 8047 6.2 90 00:53 06.05.2020
3543 Clouds 32 1007 66 8047 6.2 90 00:26 06.05.2020
3544 Clear 33 1008 59 9656 2.6 120 23:56 05.05.2020
3545 Clear 33 1008 59 9656 2.6 120 23:37 05.05.2020
3546 Clear 33 1008 59 9656 2.6 120 23:18 05.05.2020
3547 Clear 33 1008 59 8047 5.1 70 22:41 05.05.2020
3548 Clear 33 1008 59 8047 5.1 70 22:19 05.05.2020
3549 Clear 33 1008 59 8047 5.1 70 22:19 05.05.2020
3550 Clear 33 1010 55 6437 5.1 60 21:57 05.05.2020
3551 Clear 33 1010 55 6437 5.1 60 21:38 05.05.2020
3552 Clear 33 1010 55 6437 5.1 60 21:20 05.05.2020
3553 Clouds 33 1011 52 6437 4.6 100 20:56 05.05.2020
3554 Clouds 33 1011 52 6437 4.6 100 20:38 05.05.2020
3555 Clouds 33 1011 52 6437 4.6 100 20:18 05.05.2020
3556 Clouds 34 1011 46 6437 2.1 90 19:42 05.05.2020
3557 Clouds 34 1011 46 6437 2.1 90 19:24 05.05.2020
3558 Clouds 33 1012 55 6437 1.5 120 18:58 05.05.2020
3559 Clouds 32 1012 55 6437 1.5 120 18:40 05.05.2020
3560 Clouds 32 1012 55 6437 1.5 120 18:20 05.05.2020
3561 Clouds 31 1012 79 6437 2.21 40 17:58 05.05.2020
3562 Clouds 31 1012 79 6437 2.21 40 17:58 05.05.2020
3563 Clouds 31 1012 79 6437 2.21 40 17:39 05.05.2020
3564 Clouds 31 1012 79 6437 1.44 21 17:21 05.05.2020
3565 Mist 29 1011 88 4828 2.1 40 16:55 05.05.2020
3566 Mist 29 1011 88 4828 2.1 40 16:36 05.05.2020
3567 Mist 29 1011 88 4828 2.1 40 16:18 05.05.2020
3568 Mist 28 1011 94 4828 1.47 31 15:41 05.05.2020
3569 Mist 28 1011 94 4828 1.38 36 15:21 05.05.2020
3570 Mist 28 1011 94 4828 1.38 36 15:21 05.05.2020
3571 Clouds 27 1009 94 6437 2.6 70 14:56 05.05.2020
3572 Clouds 27 1009 94 6437 2.6 70 14:38 05.05.2020
3573 Clouds 27 1009 94 6437 2.6 70 14:19 05.05.2020
3574 Clouds 26 1009 94 9656 1.45 59 13:57 05.05.2020
3575 Clouds 26 1009 94 9656 1.45 59 13:38 05.05.2020
3576 Clouds 26 1009 94 9656 1.79 73 13:19 05.05.2020
3577 Clouds 26 1008 100 0 0.45 146 12:57 05.05.2020
3578 Clouds 25 1007 100 0 1.8 73 12:38 05.05.2020
3579 Clouds 26 1007 100 0 1.64 66 12:19 05.05.2020
3580 Clouds 26 1007 100 0 1.64 66 11:41 05.05.2020
3581 Clouds 26 1007 100 0 1.19 60 11:20 05.05.2020
3582 Clouds 26 1007 100 0 1.19 60 10:56 05.05.2020
3583 Clouds 26 1007 100 0 1.19 60 10:38 05.05.2020
3584 Clouds 26 1007 100 0 0.97 343 10:19 05.05.2020
3585 Clouds 26 1008 100 0 0.97 343 09:55 05.05.2020
3586 Clouds 27 1008 100 0 0.45 259 09:37 05.05.2020
3587 Clouds 27 1009 100 0 0.89 259 09:18 05.05.2020
3588 Clouds 27 1009 100 0 0.45 259 08:41 05.05.2020
3589 Clouds 27 1009 100 0 0.89 30 08:19 05.05.2020
3590 Clouds 28 1009 100 0 2.54 295 07:45 05.05.2020
3591 Clouds 28 1009 100 0 2.82 300 07:23 05.05.2020
3592 Clouds 27 1011 88 9656 2.82 300 06:59 05.05.2020
3593 Clouds 27 1011 88 9656 2.82 300 06:40 05.05.2020
3594 Clouds 28 1011 88 9656 1.65 309 06:20 05.05.2020
3595 Clouds 28 1011 88 9656 1.67 11 05:28 05.05.2020
3596 Clouds 30 1008 74 11265 4.1 90 02:57 05.05.2020
3597 Clear 31 1008 66 11265 4.1 80 01:20 05.05.2020
3598 Clear 32 1008 62 11265 4.6 80 00:49 05.05.2020
3599 Clouds 32 1009 55 9656 5.1 80 23:57 04.05.2020
3600 Clouds 32 1009 55 9656 5.1 80 23:38 04.05.2020
3601 Clouds 32 1009 55 9656 5.1 80 23:38 04.05.2020
3602 Clouds 32 1009 55 9656 5.1 80 23:19 04.05.2020
3603 Smoke 32 1010 59 9656 6.2 90 22:55 04.05.2020
3604 Smoke 32 1010 59 9656 6.2 90 22:36 04.05.2020
3605 Smoke 32 1010 59 9656 6.2 90 22:18 04.05.2020
3606 Clear 33 1011 55 9656 3.6 70 21:52 04.05.2020
3607 Clear 33 1011 55 9656 3.6 70 21:52 04.05.2020
3608 Clear 33 1011 55 9656 3.6 70 21:52 04.05.2020
3609 Clear 33 1011 55 9656 3.6 70 21:52 04.05.2020
3610 Clear 33 1011 55 9656 3.6 70 21:52 04.05.2020
3611 Clear 33 1011 55 9656 3.6 70 21:26 04.05.2020
3612 Clear 33 1011 55 9656 3.6 70 21:26 04.05.2020
3613 Clear 33 1011 55 9656 3.6 70 21:26 04.05.2020
3614 Clear 33 1011 55 9656 3.6 70 21:25 04.05.2020
3615 Clear 33 1011 55 9656 3.6 70 21:25 04.05.2020
3616 Clear 33 1012 52 9656 3.1 80 20:43 04.05.2020
3617 Clear 33 1012 52 9656 3.1 80 20:43 04.05.2020
3618 Clear 33 1012 52 9656 3.1 80 20:43 04.05.2020
3619 Clear 33 1012 52 9656 3.1 80 20:21 04.05.2020
3620 Clouds 32 1013 59 9656 2.6 100 19:58 04.05.2020
3621 Clouds 32 1013 59 9656 2.6 100 19:40 04.05.2020
3622 Clouds 32 1013 59 9656 2.6 100 19:40 04.05.2020
3623 Clouds 32 1013 59 9656 2.6 100 19:40 04.05.2020
3624 Clouds 32 1013 59 9656 2.6 100 19:19 04.05.2020
3625 Clouds 32 1013 52 9656 1 120 18:54 04.05.2020
3626 Clouds 32 1013 52 9656 1 120 18:36 04.05.2020
3627 Clouds 32 1013 52 9656 1 120 18:18 04.05.2020
3628 Clouds 30 1013 70 9656 1.5 90 17:41 04.05.2020
3629 Clouds 30 1013 70 9656 1.5 90 17:21 04.05.2020
3630 Clouds 30 1013 79 8047 3.1 70 16:59 04.05.2020
3631 Clouds 30 1013 79 8047 3.1 70 16:41 04.05.2020
3632 Clouds 29 1013 79 8047 3.1 70 16:19 04.05.2020
3633 Clouds 29 1013 79 8047 3.1 70 16:19 04.05.2020
3634 Clouds 28 1012 88 6437 1 70 15:43 04.05.2020
3635 Clouds 27 1012 88 6437 1 70 15:24 04.05.2020
3636 Mist 26 1012 94 4828 1.75 76 14:54 04.05.2020
3637 Mist 26 1012 94 4828 1.75 76 14:54 04.05.2020
3638 Mist 26 1012 94 4828 1.75 76 14:54 04.05.2020
3639 Haze 25 1012 94 4828 1.75 76 14:30 04.05.2020
3640 Haze 25 1012 94 4828 1.75 76 14:30 04.05.2020
3641 Mist 25 1012 94 4828 1.75 76 14:29 04.05.2020
3642 Mist 25 1012 94 4828 1.59 80 14:29 04.05.2020
3643 Mist 25 1012 94 4828 1.75 76 14:29 04.05.2020
3644 Mist 25 1012 100 4828 2.29 71 13:40 04.05.2020
3645 Mist 25 1012 100 4828 2.29 71 13:40 04.05.2020
3646 Mist 25 1012 100 4828 2.29 71 13:40 04.05.2020
3647 Mist 25 1012 100 4828 2.29 71 13:40 04.05.2020
3648 Mist 25 1012 100 4828 2.29 71 13:40 04.05.2020
3649 Clear 24 1009 100 0 2.43 61 12:44 04.05.2020
3650 Clear 24 1009 100 0 2.43 61 12:44 04.05.2020
3651 Clear 24 1009 100 0 2.43 61 12:44 04.05.2020
3652 Clear 24 1009 100 0 2.43 61 12:44 04.05.2020
3653 Clear 24 1009 100 0 2.43 61 12:44 04.05.2020
3654 Clear 25 1009 100 0 1.5 52 11:29 04.05.2020
3655 Clear 25 1009 100 0 1.5 52 11:29 04.05.2020
3656 Clear 25 1009 100 0 1.5 52 11:29 04.05.2020
3657 Clear 25 1009 100 0 1.5 52 11:29 04.05.2020
3658 Clear 25 1009 100 0 1.5 52 11:29 04.05.2020
3659 Clear 26 1010 100 0 1.27 293 09:31 04.05.2020
3660 Clear 28 1011 100 0 0.45 292 07:58 04.05.2020
3661 Clear 28 1012 100 0 0.89 287 07:38 04.05.2020
3662 Clouds 28 1014 83 9656 2.4 327 06:25 04.05.2020
3663 Clouds 28 1014 83 9656 2.4 327 06:25 04.05.2020
3664 Clouds 28 1014 83 9656 2.4 327 06:25 04.05.2020
3665 Clouds 29 1012 83 9656 1 70 04:53 04.05.2020
3666 Clouds 29 1012 83 9656 3.6 20 03:18 04.05.2020
3667 Clear 30 1012 74 11265 3.6 50 02:29 04.05.2020
3668 Clear 31 1011 62 11265 5.7 40 00:36 04.05.2020
3669 Clear 32 1012 55 11265 7.2 70 23:45 03.05.2020
3670 Clear 32 1012 55 11265 7.2 70 23:24 03.05.2020
3671 Clear 32 1013 55 11265 3.6 60 22:45 03.05.2020
3672 Clear 32 1013 55 11265 3.6 60 22:25 03.05.2020
3673 Clouds 32 1013 55 11265 3.6 90 21:57 03.05.2020
3674 Clouds 32 1013 55 11265 3.6 90 21:39 03.05.2020
3675 Clouds 32 1013 55 11265 3.6 90 21:20 03.05.2020
3676 Clouds 32 1013 55 11265 3.6 90 21:20 03.05.2020
3677 Clouds 32 1014 59 11265 4.1 70 20:46 03.05.2020
3678 Clouds 32 1014 59 11265 4.1 70 20:46 03.05.2020
3679 Clouds 32 1014 59 11265 4.1 70 20:21 03.05.2020
3680 Clouds 31 1015 55 11265 2.1 100 19:50 03.05.2020
3681 Clouds 31 1015 55 11265 2.1 100 19:50 03.05.2020
3682 Clouds 31 1015 55 11265 2.1 100 19:50 03.05.2020
3683 Clouds 31 1015 55 11265 2.1 100 19:50 03.05.2020
3684 Clouds 31 1015 55 11265 2.1 100 19:31 03.05.2020
3685 Clouds 31 1015 52 11265 2.1 49 19:00 03.05.2020
3686 Clouds 31 1015 52 11265 2.1 49 19:00 03.05.2020
3687 Clouds 31 1015 52 11265 2.1 49 19:00 03.05.2020
3688 Clouds 31 1015 52 11265 2.1 49 19:00 03.05.2020
3689 Clouds 31 1015 52 11265 2.1 49 18:38 03.05.2020
3690 Clouds 31 1015 52 11265 2.1 49 18:38 03.05.2020
3691 Clouds 31 1015 52 11265 2.1 49 18:38 03.05.2020
3692 Clouds 31 1015 52 11265 2.1 49 18:38 03.05.2020
3693 Clouds 31 1015 52 11265 2.1 49 18:38 03.05.2020
3694 Clouds 31 1015 52 11265 1.25 26 18:19 03.05.2020
3695 Clouds 31 1015 52 11265 1.25 26 18:19 03.05.2020
3696 Clouds 30 1016 66 11265 1.25 26 17:41 03.05.2020
3697 Clouds 30 1016 66 11265 1.22 350 17:22 03.05.2020
3698 Mist 28 1016 83 9656 1.22 350 16:46 03.05.2020
3699 Mist 28 1016 83 9656 1.28 356 16:21 03.05.2020
3700 Mist 28 1016 83 9656 1.28 356 16:21 03.05.2020
3701 Mist 25 1015 94 8047 1.28 356 15:59 03.05.2020
3702 Mist 25 1015 94 8047 1.28 356 15:41 03.05.2020
3703 Mist 25 1015 94 8047 0.84 357 15:21 03.05.2020
3704 Haze 23 1015 100 9656 0.84 357 14:59 03.05.2020
3705 Mist 23 1015 100 9656 0.84 357 14:40 03.05.2020
3706 Mist 23 1015 100 9656 0.84 357 14:40 03.05.2020
3707 Mist 23 1015 100 9656 0.49 35 14:21 03.05.2020
3708 Mist 23 1014 100 9656 0.49 35 13:55 03.05.2020
3709 Clear 23 1012 100 0 0.62 49 13:23 03.05.2020
3710 Clear 23 1012 100 0 0.62 49 13:22 03.05.2020
3711 Clear 23 1012 100 0 0.62 49 13:22 03.05.2020
3712 Clear 24 1012 100 0 0.62 49 12:45 03.05.2020
3713 Clear 24 1012 100 0 0.93 49 12:18 03.05.2020
3714 Clear 24 1012 100 0 0.93 49 11:56 03.05.2020
3715 Clear 24 1012 100 0 0.93 49 11:37 03.05.2020
3716 Clear 24 1012 100 0 0.84 59 11:19 03.05.2020
3717 Clear 24 1012 100 0 0.84 59 11:19 03.05.2020
3718 Clear 24 1012 100 0 0.84 59 10:46 03.05.2020
3719 Clear 24 1012 100 0 0.84 59 10:46 03.05.2020
3720 Clear 24 1013 100 0 0.45 234 09:58 03.05.2020
3721 Clear 24 1013 100 0 0.55 59 09:37 03.05.2020
3722 Clear 24 1013 100 0 0.55 59 09:36 03.05.2020
3723 Clear 25 1014 100 0 0.45 234 08:56 03.05.2020
3724 Clear 25 1014 100 0 0.45 234 08:56 03.05.2020
3725 Clear 25 1014 100 0 0.45 234 08:56 03.05.2020
3726 Clear 26 1014 100 0 1.11 318 08:26 03.05.2020
3727 Clear 26 1014 100 0 1.11 318 08:26 03.05.2020
3728 Clear 26 1014 100 0 1.11 318 08:26 03.05.2020
3729 Clear 26 1015 100 0 0.45 58 07:40 03.05.2020
3730 Clear 26 1015 100 0 0.45 58 07:40 03.05.2020
3731 Clear 26 1015 100 0 0.45 58 07:40 03.05.2020
3732 Clouds 27 1016 83 8047 1.97 19 06:20 03.05.2020
3733 Clear 27 1016 83 8047 1.5 40 05:47 03.05.2020
3734 Clouds 27 1015 83 8047 1.5 80 04:54 03.05.2020
3735 Clouds 28 1015 83 8047 1.5 80 04:26 03.05.2020
3736 Clouds 28 1013 74 8047 4.1 80 02:59 03.05.2020
3737 Clouds 28 1013 74 8047 4.1 80 02:59 03.05.2020
3738 Clouds 28 1013 74 8047 4.1 80 02:24 03.05.2020
3739 Clear 30 1013 62 9656 4.1 100 01:44 03.05.2020
3740 Clear 30 1013 62 9656 4.1 100 01:24 03.05.2020
3741 Clear 31 1014 52 9656 4.6 100 00:55 03.05.2020
3742 Clear 31 1014 52 9656 4.6 100 00:37 03.05.2020
3743 Clear 31 1014 52 9656 4.6 100 00:18 03.05.2020
3744 Clear 28 1014 70 0 5.11 64 23:42 02.05.2020
3745 Clear 29 1014 66 0 5.1 68 23:24 02.05.2020
3746 Clear 32 1014 59 9656 2.6 100 22:43 02.05.2020
3747 Clear 32 1014 59 9656 2.6 100 22:43 02.05.2020
3748 Clear 32 1014 59 9656 2.6 100 22:23 02.05.2020
3749 Clouds 32 1015 59 8047 3.1 90 21:56 02.05.2020
3750 Clouds 32 1015 59 8047 3.1 90 21:38 02.05.2020
3751 Clouds 32 1015 59 8047 3.1 90 21:18 02.05.2020
3752 Clouds 32 1015 59 8047 3.1 90 21:18 02.05.2020
3753 Clouds 32 1015 55 8047 2.6 90 20:57 02.05.2020
3754 Clouds 32 1015 55 8047 2.6 90 20:37 02.05.2020
3755 Clouds 32 1015 55 8047 2.6 90 20:19 02.05.2020
3756 Clouds 31 1016 58 8047 2.1 230 19:56 02.05.2020
3757 Clouds 31 1016 58 8047 2.1 230 19:38 02.05.2020
3758 Clouds 31 1016 58 8047 2.1 230 19:18 02.05.2020
3759 Clouds 30 1017 62 8047 3.18 100 18:41 02.05.2020
3760 Clouds 30 1017 62 8047 3.06 114 18:22 02.05.2020
3761 Clouds 29 1017 74 8047 3.06 114 17:57 02.05.2020
3762 Clouds 28 1017 74 8047 3.06 114 17:39 02.05.2020
3763 Clouds 28 1017 74 8047 2.42 116 17:20 02.05.2020
3764 Clear 27 1017 74 8047 2.42 116 16:57 02.05.2020
3765 Clear 28 1017 74 8047 2.42 116 16:39 02.05.2020
3766 Clear 27 1017 74 8047 1.31 107 16:21 02.05.2020
3767 Clear 25 1016 88 8047 1.31 107 15:42 02.05.2020
3768 Clear 25 1016 88 8047 0.89 107 15:20 02.05.2020
3769 Clouds 24 1016 88 8047 0.89 107 14:46 02.05.2020
3770 Clouds 23 1016 88 8047 0.98 100 14:28 02.05.2020
3771 Clear 23 1016 94 8047 1.12 115 13:59 02.05.2020
3772 Clear 23 1016 94 8047 1.12 115 13:40 02.05.2020
3773 Clear 23 1016 94 8047 1.22 104 13:20 02.05.2020
3774 Clear 24 1014 100 0 0.89 283 12:43 02.05.2020
3775 Clear 24 1014 100 0 0.89 270 12:24 02.05.2020
3776 Clear 24 1013 100 0 1.34 271 11:58 02.05.2020
3777 Clear 23 1013 100 0 0.89 209 11:39 02.05.2020
3778 Clear 24 1013 100 0 0.79 148 11:21 02.05.2020
3779 Clear 26 1014 100 0 0.79 148 10:56 02.05.2020
3780 Clear 26 1014 100 0 0.79 148 10:38 02.05.2020
3781 Clear 26 1014 100 0 1.28 138 10:20 02.05.2020
3782 Clear 26 1014 100 0 1.28 138 10:20 02.05.2020
3783 Clear 26 1015 100 0 1.28 138 09:54 02.05.2020
3784 Clear 26 1015 100 0 1.28 138 09:36 02.05.2020
3785 Clear 26 1015 100 0 0.89 285 09:18 02.05.2020
3786 Clear 26 1015 100 0 0.89 273 08:44 02.05.2020
3787 Clear 26 1015 100 0 0.89 111 08:25 02.05.2020
3788 Clear 26 1015 100 0 0.89 111 07:47 02.05.2020
3789 Clear 26 1015 100 0 1.34 103 07:27 02.05.2020
3790 Clouds 26 1018 78 11265 1.75 80 06:50 02.05.2020
3791 Clouds 27 1017 74 11265 1.5 80 05:28 02.05.2020
3792 Clouds 27 1016 74 11265 3.6 50 04:37 02.05.2020
3793 Clouds 27 1016 74 11265 3.6 50 04:18 02.05.2020
3794 Clouds 28 1014 69 11265 5.1 60 02:43 02.05.2020
3795 Clouds 28 1014 69 11265 5.1 60 02:19 02.05.2020
3796 Clouds 28 1014 69 11265 3.6 100 01:33 02.05.2020
3797 Clouds 30 1014 62 11265 6.2 90 00:45 02.05.2020
3798 Clouds 30 1014 62 11265 6.2 90 00:24 02.05.2020
3799 Clouds 30 1015 62 11265 3.6 80 23:57 01.05.2020
3800 Clouds 30 1015 62 11265 3.6 80 23:37 01.05.2020
3801 Clouds 30 1015 62 11265 3.6 80 23:19 01.05.2020
3802 Clouds 30 1016 62 11265 4.6 90 22:42 01.05.2020
3803 Clouds 30 1016 62 11265 4.6 90 22:21 01.05.2020
3804 Clouds 30 1016 62 11265 1.5 130 21:59 01.05.2020
3805 Clouds 31 1016 62 11265 1.5 130 21:41 01.05.2020
3806 Clouds 31 1016 62 11265 1.5 130 21:21 01.05.2020
3807 Clouds 31 1016 62 11265 1.5 130 21:21 01.05.2020
3808 Clouds 31 1017 62 11265 4.6 70 20:58 01.05.2020
3809 Clouds 30 1017 62 11265 4.6 70 20:40 01.05.2020
3810 Clouds 30 1017 62 11265 4.6 70 20:20 01.05.2020
3811 Clouds 30 1018 62 11265 2.6 90 19:59 01.05.2020
3812 Clouds 30 1018 62 11265 2.6 90 19:41 01.05.2020
3813 Clouds 30 1018 62 11265 2.6 90 19:21 01.05.2020
3814 Clouds 30 1018 62 11265 2.6 90 19:21 01.05.2020
3815 Clouds 29 1018 69 11265 2.1 80 18:56 01.05.2020
3816 Clouds 29 1018 69 11265 2.1 80 18:38 01.05.2020
3817 Clouds 29 1018 69 11265 2.1 80 18:19 01.05.2020
3818 Clouds 28 1018 69 11265 2.88 67 17:41 01.05.2020
3819 Clouds 28 1018 69 11265 2.26 58 17:22 01.05.2020
3820 Clouds 26 1018 88 9656 2.26 58 16:58 01.05.2020
3821 Clouds 26 1018 88 9656 2.26 58 16:40 01.05.2020
3822 Clouds 26 1018 88 9656 1.86 34 16:20 01.05.2020
3823 Clouds 26 1018 88 9656 1.86 34 16:20 01.05.2020
3824 Clouds 24 1018 94 9656 1.86 34 15:57 01.05.2020
3825 Clouds 24 1018 94 9656 1.86 34 15:39 01.05.2020
3826 Clouds 23 1018 94 9656 1.68 8 15:19 01.05.2020
3827 Clouds 23 1017 94 8047 1.68 8 14:44 01.05.2020
3828 Clouds 23 1017 94 8047 1.71 15 14:25 01.05.2020
3829 Clouds 23 1017 94 9656 1.71 15 13:56 01.05.2020
3830 Clouds 23 1017 94 9656 1.71 15 13:38 01.05.2020
3831 Clouds 23 1017 94 9656 1.96 17 13:19 01.05.2020
3832 Rain 24 1015 100 0 0.89 244 12:55 01.05.2020
3833 Rain 24 1015 100 0 0.89 244 12:37 01.05.2020
3834 Rain 24 1015 100 0 0.45 294 12:18 01.05.2020
3835 Rain 24 1015 100 0 0.45 298 11:41 01.05.2020
3836 Rain 24 1015 100 0 0.45 298 11:23 01.05.2020
3837 Rain 25 1015 100 0 1.83 0 10:57 01.05.2020
3838 Rain 25 1015 100 0 1.83 0 10:38 01.05.2020
3839 Rain 24 1015 100 0 1.84 0 10:19 01.05.2020
3840 Rain 24 1016 100 0 0.45 299 09:44 01.05.2020
3841 Rain 24 1016 100 0 0.89 288 09:19 01.05.2020
3842 Rain 24 1016 100 0 0.89 280 08:55 01.05.2020
3843 Rain 24 1016 100 0 0.89 279 08:37 01.05.2020
3844 Rain 25 1017 100 0 2.82 32 08:19 01.05.2020
3845 Rain 25 1017 100 0 1.34 263 07:42 01.05.2020
3846 Clouds 26 1018 78 11265 2.6 360 07:22 01.05.2020
3847 Clouds 26 1018 78 11265 2.6 360 06:39 01.05.2020
3848 Clouds 26 1018 78 11265 2.6 360 06:39 01.05.2020
3849 Clouds 26 1018 83 11265 2.6 350 05:32 01.05.2020
3850 Clouds 27 1017 74 11265 3.1 30 04:21 01.05.2020
3851 Clouds 27 1016 78 8047 5.1 20 03:23 01.05.2020
3852 Clouds 27 1016 78 11265 7.2 20 02:42 01.05.2020
3853 Clouds 28 1016 74 9656 6.2 350 01:59 01.05.2020
3854 Clouds 28 1016 74 9656 6.2 350 01:28 01.05.2020
3855 Clouds 29 1016 66 9656 6.2 20 00:56 01.05.2020
3856 Clouds 29 1016 66 9656 6.2 20 00:36 01.05.2020
3857 Clouds 29 1016 66 9656 6.2 20 00:18 01.05.2020
3858 Clouds 30 1017 58 9656 7.7 40 23:54 30.04.2020
3859 Clouds 30 1017 58 9656 7.7 40 23:36 30.04.2020
3860 Clouds 30 1017 58 9656 7.7 40 23:18 30.04.2020
3861 Clouds 30 1017 62 9656 7.2 20 22:40 30.04.2020
3862 Clouds 30 1017 62 9656 7.2 20 22:19 30.04.2020
3863 Clouds 31 1018 55 9656 7.2 30 21:55 30.04.2020
3864 Clouds 31 1018 55 9656 7.2 30 21:37 30.04.2020
3865 Clouds 31 1018 55 9656 7.2 30 21:18 30.04.2020
3866 Clouds 31 1018 55 9656 7.2 10 20:41 30.04.2020
3867 Clouds 31 1018 55 9656 7.2 10 20:19 30.04.2020
3868 Clouds 30 1019 58 9656 6.2 360 19:58 30.04.2020
3869 Clouds 30 1019 58 9656 6.2 360 19:38 30.04.2020
3870 Clouds 30 1019 58 9656 6.2 360 19:18 30.04.2020
3871 Clouds 30 1019 62 9656 5.1 360 18:40 30.04.2020
3872 Clouds 30 1019 62 9656 5.1 360 18:21 30.04.2020
3873 Clouds 29 1019 65 9656 3.6 350 17:59 30.04.2020
3874 Clouds 29 1019 65 9656 3.6 350 17:40 30.04.2020
3875 Clouds 28 1019 65 9656 3.6 350 17:22 30.04.2020
3876 Clouds 27 1019 74 8047 3.1 340 16:58 30.04.2020
3877 Clouds 27 1019 74 8047 3.1 340 16:40 30.04.2020
3878 Rain 27 1019 74 8047 3.1 340 16:19 30.04.2020
3879 Rain 26 1018 78 8047 4.1 360 15:48 30.04.2020
3880 Clouds 26 1018 78 8047 4.1 360 15:25 30.04.2020
3881 Clouds 25 1017 83 8047 2.6 20 14:59 30.04.2020
3882 Clouds 25 1017 83 8047 2.6 20 14:39 30.04.2020
3883 Clouds 25 1017 83 8047 2.6 20 14:19 30.04.2020
3884 Clouds 25 1016 88 9656 6.72 10 13:56 30.04.2020
3885 Clouds 25 1016 88 9656 6.72 10 13:56 30.04.2020
3886 Clouds 25 1016 88 9656 6.72 10 13:38 30.04.2020
3887 Clouds 25 1016 88 9656 6.92 12 13:19 30.04.2020
3888 Rain 26 1013 100 0 0.45 33 12:41 30.04.2020
3889 Rain 26 1013 100 0 0.45 48 12:21 30.04.2020
3890 Rain 26 1014 100 0 2.68 26 11:58 30.04.2020
3891 Rain 26 1014 100 0 2.68 40 11:37 30.04.2020
3892 Rain 26 1014 100 0 3.58 23 11:18 30.04.2020
3893 Rain 28 1015 100 0 6.26 330 10:41 30.04.2020
3894 Clouds 28 1014 100 0 4.92 15 10:22 30.04.2020
3895 Clouds 28 1014 100 0 4.92 15 10:22 30.04.2020
3896 Clouds 28 1014 100 0 4.47 22 09:58 30.04.2020
3897 Clouds 28 1014 100 0 5.36 38 09:39 30.04.2020
3898 Clouds 28 1014 100 0 5.36 38 09:21 30.04.2020
3899 Clouds 28 1014 100 0 2.68 28 08:48 30.04.2020
3900 Clouds 28 1014 100 0 4.47 23 08:27 30.04.2020
3901 Clouds 29 1014 100 0 4.92 17 07:57 30.04.2020
3902 Clouds 29 1014 100 0 4.47 31 07:39 30.04.2020
3903 Clouds 28 1014 88 9656 6.7 30 07:19 30.04.2020
3904 Clouds 28 1014 88 9656 6.7 30 06:32 30.04.2020
3905 Clouds 28 1012 88 9656 4.6 40 05:47 30.04.2020
3906 Clouds 28 1011 88 9656 4.1 50 04:46 30.04.2020
3907 Clouds 28 1011 88 9656 4.1 50 04:24 30.04.2020
3908 Clouds 29 1009 79 9656 5.1 80 02:50 30.04.2020
3909 Clouds 30 1009 79 9656 5.1 80 02:28 30.04.2020
3910 Clouds 31 1008 66 9656 4.6 60 01:37 30.04.2020
3911 Clouds 32 1008 62 8047 5.7 70 00:53 30.04.2020
3912 Clouds 32 1008 62 8047 5.7 70 00:53 30.04.2020
3913 Clouds 32 1008 62 8047 5.7 70 00:24 30.04.2020
3914 Clear 33 1008 59 8047 3.6 90 23:58 29.04.2020
3915 Clear 33 1008 59 8047 3.6 90 23:40 29.04.2020
3916 Clear 33 1008 59 8047 3.6 90 23:22 29.04.2020
3917 Clouds 34 1009 56 8047 6.2 70 22:58 29.04.2020
3918 Clouds 34 1009 56 8047 6.2 70 22:38 29.04.2020
3919 Clouds 34 1009 56 8047 6.2 70 22:18 29.04.2020
3920 Clouds 33 1010 66 6437 3.1 80 21:38 29.04.2020
3921 Clouds 33 1010 66 6437 3.1 80 21:20 29.04.2020
3922 Clouds 33 1011 56 6437 2.1 110 20:58 29.04.2020
3923 Clouds 33 1011 56 6437 2.1 110 20:58 29.04.2020
3924 Clouds 34 1011 56 6437 2.1 110 20:39 29.04.2020
3925 Clouds 34 1011 56 6437 2.1 110 20:19 29.04.2020
3926 Clouds 33 1011 55 6437 5.29 93 19:43 29.04.2020
3927 Clouds 33 1011 55 6437 5.29 93 19:43 29.04.2020
3928 Clouds 33 1011 55 6437 3.87 107 19:22 29.04.2020
3929 Haze 32 1012 62 4828 4.1 160 18:58 29.04.2020
3930 Haze 31 1012 62 4828 4.1 160 18:40 29.04.2020
3931 Haze 31 1012 62 4828 4.1 160 18:19 29.04.2020
3932 Mist 30 1012 70 4828 1.5 190 17:44 29.04.2020
3933 Haze 30 1012 70 4828 1.5 190 17:22 29.04.2020
3934 Mist 29 1012 83 4828 1.74 198 16:57 29.04.2020
3935 Mist 29 1012 83 4828 1.74 198 16:36 29.04.2020
3936 Mist 28 1012 83 4828 1.28 209 16:18 29.04.2020
3937 Mist 27 1012 88 3219 1.5 350 15:55 29.04.2020
3938 Mist 27 1012 88 3219 1.5 350 15:37 29.04.2020
3939 Mist 26 1012 88 3219 1.5 350 15:18 29.04.2020
3940 Haze 25 1012 94 3219 0.77 215 14:43 29.04.2020
3941 Haze 25 1012 94 3219 0.88 179 14:25 29.04.2020
3942 Haze 25 1011 94 4828 1 330 13:57 29.04.2020
3943 Haze 25 1011 94 4828 1 330 13:38 29.04.2020
3944 Haze 25 1011 94 4828 1 330 13:18 29.04.2020
3945 Clouds 26 1009 100 0 0.45 355 12:41 29.04.2020
3946 Clouds 25 1009 100 0 1.83 96 12:20 29.04.2020
3947 Clouds 26 1009 100 0 0.89 267 11:59 29.04.2020
3948 Clouds 26 1009 100 0 1.83 96 11:38 29.04.2020
3949 Clouds 26 1009 100 0 2.16 92 11:20 29.04.2020
3950 Clouds 26 1009 100 0 2.16 92 11:20 29.04.2020
3951 Clouds 25 1009 100 0 2.16 92 10:54 29.04.2020
3952 Clouds 25 1009 100 0 2.16 92 10:54 29.04.2020
3953 Clouds 25 1009 100 0 2.16 92 10:36 29.04.2020
3954 Clouds 26 1009 100 0 1.54 89 10:18 29.04.2020
3955 Clouds 26 1009 100 0 1.54 89 09:41 29.04.2020
3956 Clear 26 1009 100 0 0.36 307 09:21 29.04.2020
3957 Clouds 25 1009 100 0 0.45 137 08:44 29.04.2020
3958 Clouds 25 1009 100 0 0.45 137 08:25 29.04.2020
3959 Clouds 26 1010 100 0 0.89 137 07:54 29.04.2020
3960 Clouds 27 1010 100 0 0.45 134 07:29 29.04.2020
3961 Clear 26 1012 88 9656 1.36 263 06:53 29.04.2020
3962 Clear 26 1012 88 9656 1.36 263 06:32 29.04.2020
3963 Clouds 26 1012 88 9656 1.36 247 05:50 29.04.2020
3964 Clouds 26 1012 88 9656 0.61 10 05:19 29.04.2020
3965 Clouds 27 1011 83 9656 2.56 64 04:20 29.04.2020
3966 Clouds 28 1011 78 9656 1 110 03:28 29.04.2020
3967 Clear 30 1010 55 9656 5.7 80 01:56 29.04.2020
3968 Clear 31 1010 55 9656 5.7 80 01:28 29.04.2020
3969 Clear 32 1010 52 9656 3.6 110 00:56 29.04.2020
3970 Clear 32 1010 52 9656 3.6 110 00:37 29.04.2020
3971 Clear 32 1010 52 9656 3.6 110 00:18 29.04.2020
3972 Clear 33 1011 46 9656 3.6 110 23:43 28.04.2020
3973 Clear 33 1011 46 9656 3.6 110 23:20 28.04.2020
3974 Clear 33 1012 52 9656 3.6 110 22:39 28.04.2020
3975 Clear 32 1012 52 9656 3.6 110 22:20 28.04.2020
3976 Clouds 33 1013 52 9656 4.1 100 21:59 28.04.2020
3977 Clouds 33 1013 52 9656 4.1 100 21:59 28.04.2020
3978 Clouds 33 1013 52 9656 4.1 100 21:40 28.04.2020
3979 Clouds 33 1013 52 9656 4.1 100 21:22 28.04.2020
3980 Clouds 33 1014 49 9656 5.1 150 20:58 28.04.2020
3981 Clouds 33 1014 49 9656 5.1 150 20:40 28.04.2020
3982 Clouds 33 1014 49 9656 5.1 150 20:20 28.04.2020
3983 Clouds 32 1015 58 8047 2.1 190 19:56 28.04.2020
3984 Clouds 32 1015 58 8047 2.1 190 19:37 28.04.2020
3985 Clouds 31 1015 58 8047 2.1 190 19:19 28.04.2020
3986 Clouds 31 1015 58 8047 2.1 190 19:19 28.04.2020
3987 Clouds 31 1015 66 8047 2.35 108 18:42 28.04.2020
3988 Clouds 30 1015 66 8047 1.41 156 18:20 28.04.2020
3989 Mist 28 1016 78 6437 1.5 220 17:59 28.04.2020
3990 Mist 28 1016 78 6437 1.5 220 17:37 28.04.2020
3991 Mist 27 1016 78 6437 1.5 220 17:19 28.04.2020
3992 Mist 26 1016 94 4828 1.59 203 16:56 28.04.2020
3993 Mist 25 1016 94 4828 1.59 203 16:37 28.04.2020
3994 Mist 25 1016 94 4828 1.95 235 16:19 28.04.2020
3995 Mist 24 1015 100 4828 1.95 235 15:54 28.04.2020
3996 Mist 23 1015 100 4828 1.95 235 15:36 28.04.2020
3997 Mist 23 1015 100 4828 1.56 231 15:18 28.04.2020
3998 Mist 23 1015 100 4828 1.56 231 14:43 28.04.2020
3999 Mist 24 1015 100 4828 0.82 193 14:22 28.04.2020
4000 Clear 23 1015 94 9656 0.82 193 13:59 28.04.2020
4001 Clear 23 1015 94 9656 0.82 193 13:59 28.04.2020
4002 Clear 23 1015 94 9656 0.82 193 13:40 28.04.2020
4003 Clear 23 1015 94 9656 1.18 103 13:21 28.04.2020
4004 Clear 23 1013 100 0 1.18 103 12:57 28.04.2020
4005 Clear 23 1013 100 0 1.18 103 12:37 28.04.2020
4006 Clear 23 1013 100 0 2.33 91 12:19 28.04.2020
4007 Clear 23 1013 100 0 2.33 91 11:41 28.04.2020
4008 Clear 23 1013 100 0 0.45 182 11:21 28.04.2020
4009 Clear 24 1013 100 0 0.45 198 10:55 28.04.2020
4010 Clear 24 1013 100 0 0.45 269 10:37 28.04.2020
4011 Clear 24 1013 100 0 0.45 269 10:18 28.04.2020
4012 Clear 23 1013 100 0 0.89 101 09:42 28.04.2020
4013 Clear 24 1013 100 0 0.68 207 09:24 28.04.2020
4014 Clear 25 1014 100 0 0.54 247 08:49 28.04.2020
4015 Clear 25 1014 100 0 0.89 269 08:30 28.04.2020
4016 Clear 25 1014 100 0 0.45 251 07:58 28.04.2020
4017 Clear 25 1014 100 0 0.45 251 07:39 28.04.2020
4018 Clear 26 1017 88 8047 1.9 281 07:18 28.04.2020
4019 Clear 26 1017 88 8047 1.43 302 06:28 28.04.2020
4020 Clouds 27 1016 83 8047 1.43 302 05:45 28.04.2020
4021 Clouds 27 1016 83 8047 1.32 349 05:26 28.04.2020
4022 Clouds 27 1015 83 8047 2.6 90 04:33 28.04.2020
4023 Clear 29 1014 70 8047 4.1 70 02:37 28.04.2020
4024 Clear 30 1014 58 8047 5.1 60 01:25 28.04.2020
4025 Clear 30 1014 58 8047 5.1 60 01:25 28.04.2020
4026 Clear 31 1014 62 8047 5.7 20 00:59 28.04.2020
4027 Clear 31 1014 62 8047 5.7 20 00:27 28.04.2020
4028 Clear 32 1015 46 8047 2.6 70 23:48 27.04.2020
4029 Clear 33 1015 46 8047 2.6 70 23:25 27.04.2020
4030 Clouds 32 1016 49 8047 2.1 20 22:57 27.04.2020
4031 Clouds 32 1016 49 8047 2.1 20 22:38 27.04.2020
4032 Clouds 32 1016 49 8047 2.1 20 22:20 27.04.2020
4033 Clouds 32 1018 55 8047 2.6 90 21:56 27.04.2020
4034 Clouds 32 1018 55 8047 2.6 90 21:38 27.04.2020
4035 Clouds 32 1018 55 8047 2.6 90 21:18 27.04.2020
4036 Clouds 32 1018 55 8047 2.6 90 21:18 27.04.2020
4037 Clouds 32 1018 55 8047 2.6 90 21:18 27.04.2020
4038 Clouds 32 1019 52 8047 5.1 80 20:54 27.04.2020
4039 Clouds 32 1019 52 8047 5.1 80 20:36 27.04.2020
4040 Clouds 32 1019 52 8047 5.1 80 20:36 27.04.2020
4041 Clouds 31 1019 58 8047 5.15 30 20:18 27.04.2020
4042 Clouds 31 1019 58 8047 5.15 30 19:40 27.04.2020
4043 Clouds 31 1019 58 8047 3.99 9 19:21 27.04.2020
4044 Clouds 31 1019 58 8047 3.99 9 19:21 27.04.2020
4045 Clouds 30 1019 66 8047 3.6 10 18:59 27.04.2020
4046 Clouds 30 1019 66 8047 3.6 10 18:40 27.04.2020
4047 Clouds 30 1019 66 8047 3.6 10 18:40 27.04.2020
4048 Clouds 30 1019 66 8047 3.6 10 18:19 27.04.2020
4049 Clouds 29 1019 74 8047 6.2 350 17:54 27.04.2020
4050 Clouds 29 1019 74 8047 6.2 350 17:54 27.04.2020
4051 Clouds 29 1019 74 8047 6.2 350 17:36 27.04.2020
4052 Clouds 29 1019 74 8047 6.2 350 17:18 27.04.2020
4053 Clear 28 1019 83 8047 4.1 30 16:40 27.04.2020
4054 Clear 28 1019 83 8047 4.1 30 16:22 27.04.2020
4055 Clear 26 1018 88 8047 2.1 330 15:57 27.04.2020
4056 Clear 26 1018 88 8047 2.1 330 15:38 27.04.2020
4057 Clear 25 1018 88 8047 2.1 330 15:19 27.04.2020
4058 Clear 24 1017 88 8047 2.1 340 14:56 27.04.2020
4059 Clear 24 1017 88 8047 2.1 340 14:37 27.04.2020
4060 Clear 24 1017 88 8047 2.1 340 14:18 27.04.2020
4061 Clear 24 1017 88 8047 1.5 20 13:42 27.04.2020
4062 Clear 24 1017 88 8047 1.5 20 13:20 27.04.2020
4063 Clear 24 1017 88 8047 1.5 20 12:56 27.04.2020
4064 Clear 24 1017 88 8047 1.5 20 12:56 27.04.2020
4065 Clouds 24 1015 100 0 4.57 334 12:38 27.04.2020
4066 Clear 24 1015 100 0 5.36 337 12:19 27.04.2020
4067 Clear 24 1015 100 0 0.45 325 11:41 27.04.2020
4068 Clear 24 1015 100 0 1.34 320 11:19 27.04.2020
4069 Clear 24 1015 100 0 0.45 323 10:57 27.04.2020
4070 Clear 24 1015 100 0 0.89 323 10:38 27.04.2020
4071 Clear 24 1015 100 0 0.45 319 10:20 27.04.2020
4072 Clear 24 1016 100 0 5.36 337 09:44 27.04.2020
4073 Clouds 24 1016 100 0 6.19 342 09:19 27.04.2020
4074 Clouds 25 1016 100 0 6.19 342 08:57 27.04.2020
4075 Clouds 26 1017 100 0 0.45 325 08:38 27.04.2020
4076 Clouds 26 1017 100 0 0.45 325 08:19 27.04.2020
4077 Clouds 26 1017 100 0 0.45 325 07:44 27.04.2020
4078 Clear 26 1019 88 9656 6.19 342 07:20 27.04.2020
4079 Clear 26 1019 88 9656 6.19 342 06:47 27.04.2020
4080 Clear 26 1019 88 9656 5.15 351 06:25 27.04.2020
4081 Clear 26 1018 88 9656 5.15 351 05:49 27.04.2020
4082 Clear 27 1018 78 9656 2.1 360 04:41 27.04.2020
4083 Clear 27 1017 78 8047 3.1 360 03:49 27.04.2020
4084 Clouds 28 1016 74 11265 4.1 10 02:48 27.04.2020
4085 Clouds 29 1016 70 11265 7.7 20 01:34 27.04.2020
4086 Clouds 30 1016 62 11265 9.3 40 00:56 27.04.2020
4087 Clouds 30 1016 62 11265 9.3 40 00:19 27.04.2020
4088 Clouds 30 1016 62 11265 9.3 50 23:56 26.04.2020
4089 Clouds 30 1016 62 11265 9.3 50 23:37 26.04.2020
4090 Clouds 30 1016 62 11265 9.3 50 23:19 26.04.2020
4091 Clouds 30 1016 66 11265 9.8 20 22:56 26.04.2020
4092 Clouds 30 1016 66 11265 9.8 20 22:37 26.04.2020
4093 Clouds 29 1016 66 11265 9.8 20 22:19 26.04.2020
4094 Clouds 30 1016 66 11265 9.8 60 21:56 26.04.2020
4095 Clouds 30 1016 66 11265 9.8 60 21:37 26.04.2020
4096 Clouds 30 1016 66 11265 9.8 60 21:18 26.04.2020
4097 Clouds 31 1015 41 11265 6.73 8 20:39 26.04.2020
4098 Clouds 31 1015 41 11265 6.73 8 20:20 26.04.2020
4099 Clouds 27 1016 65 11265 1 230 19:59 26.04.2020
4100 Clouds 30 1016 65 11265 1 230 19:38 26.04.2020
4101 Clouds 29 1016 65 11265 1 230 19:20 26.04.2020
4102 Clouds 27 1017 74 11265 6.73 8 18:45 26.04.2020
4103 Clouds 26 1017 74 11265 4.01 339 18:25 26.04.2020
4104 Clouds 26 1017 83 8047 3.1 330 17:58 26.04.2020
4105 Clouds 25 1017 83 8047 3.1 330 17:39 26.04.2020
4106 Clouds 25 1017 83 8047 3.1 330 17:21 26.04.2020
4107 Haze 25 1017 83 8047 6.2 360 16:42 26.04.2020
4108 Mist 25 1017 83 8047 6.2 360 16:24 26.04.2020
4109 Rain 24 1017 94 6437 4.1 360 15:59 26.04.2020
4110 Rain 24 1017 94 6437 4.1 360 15:59 26.04.2020
4111 Rain 24 1017 94 6437 4.1 360 15:41 26.04.2020
4112 Rain 24 1017 94 6437 4.1 360 15:22 26.04.2020
4113 Rain 23 1015 94 9656 2.6 290 14:57 26.04.2020
4114 Rain 23 1015 94 9656 2.6 290 14:38 26.04.2020
4115 Rain 23 1015 94 9656 2.6 290 14:18 26.04.2020
4116 Rain 23 1016 88 9656 7.7 360 13:56 26.04.2020
4117 Rain 23 1016 88 9656 7.7 360 13:38 26.04.2020
4118 Rain 23 1016 88 9656 7.7 360 13:19 26.04.2020
4119 Rain 24 1014 100 0 12.07 5 12:41 26.04.2020
4120 Rain 24 1014 100 0 12.07 5 12:41 26.04.2020
4121 Clouds 26 1013 100 0 7.6 15 12:22 26.04.2020
4122 -273 0 0 0 0 0 11:59 26.04.2020
4123 Clouds 28 1012 100 0 4.02 355 11:40 26.04.2020
4124 Clouds 28 1012 100 0 4.47 5 11:22 26.04.2020
4125 Clouds 28 1012 100 0 3.58 349 10:57 26.04.2020
4126 Clouds 28 1012 100 0 3.58 349 10:57 26.04.2020
4127 Clouds 28 1012 100 0 2.68 355 10:39 26.04.2020
4128 Clouds 28 1013 100 0 1.79 355 10:21 26.04.2020
4129 Clouds 28 1012 100 0 1.34 11 09:41 26.04.2020
4130 Clouds 28 1012 100 0 1.34 355 09:22 26.04.2020
4131 Clouds 28 1011 100 0 0.45 355 08:59 26.04.2020
4132 Clouds 27 1011 100 0 0.45 5 08:40 26.04.2020
4133 Clouds 28 1011 100 0 0.45 5 08:20 26.04.2020
4134 Clouds 27 1012 100 0 0.45 5 07:47 26.04.2020
4135 Clouds 27 1012 94 6437 1.5 350 07:21 26.04.2020
4136 Clouds 27 1012 94 6437 1.5 350 06:45 26.04.2020
4137 Clouds 28 1012 88 6437 2.1 360 05:59 26.04.2020
4138 Clouds 28 1012 88 6437 2.1 360 05:41 26.04.2020
4139 Clouds 28 1012 88 6437 2.1 360 05:22 26.04.2020
4140 Clouds 28 1011 88 6437 5.1 40 04:23 26.04.2020
4141 Haze 29 1009 83 4828 5.1 50 02:53 26.04.2020
4142 Haze 29 1009 83 4828 5.1 50 02:32 26.04.2020
4143 Haze 29 1009 83 4828 6.2 10 01:51 26.04.2020
4144 Haze 29 1009 83 4828 6.2 10 01:27 26.04.2020
4145 Haze 30 1008 74 4828 6.2 60 00:40 26.04.2020
4146 Haze 30 1008 74 4828 6.2 60 00:19 26.04.2020
4147 Haze 31 1008 62 4828 6.2 60 23:39 25.04.2020
4148 Haze 32 1008 62 4828 6.2 60 23:21 25.04.2020
4149 Haze 33 1009 56 4828 5.1 70 22:58 25.04.2020
4150 Haze 33 1009 56 4828 5.1 70 22:40 25.04.2020
4151 Haze 33 1009 56 4828 5.1 70 22:19 25.04.2020
4152 Haze 34 1009 53 4828 3.1 100 21:54 25.04.2020
4153 Haze 34 1009 53 4828 3.1 100 21:36 25.04.2020
4154 Haze 35 1009 53 4828 3.1 100 21:18 25.04.2020
4155 Haze 35 1010 53 4828 1.5 100 20:42 25.04.2020
4156 Haze 35 1010 53 4828 1.5 100 20:22 25.04.2020
4157 Haze 34 1011 63 3219 1.5 100 19:55 25.04.2020
4158 Haze 34 1011 63 3219 1.5 100 19:37 25.04.2020
4159 Haze 34 1011 63 3219 1.5 100 19:19 25.04.2020
4160 Haze 32 1011 70 3219 3.15 84 18:41 25.04.2020
4161 Haze 32 1011 70 3219 3.38 139 18:21 25.04.2020
4162 Mist 30 1011 79 3219 3.1 200 17:58 25.04.2020
4163 Mist 30 1011 79 3219 3.1 200 17:38 25.04.2020
4164 Mist 30 1011 79 3219 3.1 200 17:19 25.04.2020
4165 Mist 28 1010 88 3219 2.1 170 16:57 25.04.2020
4166 Mist 28 1010 88 3219 2.1 170 16:38 25.04.2020
4167 Mist 27 1010 88 3219 2.1 170 16:19 25.04.2020
4168 Mist 27 1009 94 3219 3.38 139 15:41 25.04.2020
4169 Mist 26 1009 94 3219 4.35 174 15:21 25.04.2020
4170 Clouds 26 1008 94 6437 1.5 170 14:58 25.04.2020
4171 Clouds 26 1008 94 6437 1.5 170 14:58 25.04.2020
4172 Clouds 26 1008 94 6437 1.5 170 14:39 25.04.2020
4173 Clouds 26 1008 94 6437 1.5 170 14:20 25.04.2020
4174 Clouds 26 1008 94 6437 1.5 170 14:20 25.04.2020
4175 Mist 26 1008 94 4828 3.77 176 13:54 25.04.2020
4176 Mist 26 1008 94 4828 3.77 176 13:36 25.04.2020
4177 Mist 26 1008 94 4828 3.77 176 13:18 25.04.2020
4178 Clouds 26 1006 100 0 1.34 182 12:42 25.04.2020
4179 Clouds 26 1006 100 0 0.89 183 12:21 25.04.2020
4180 Clouds 26 1006 100 0 0.89 187 11:59 25.04.2020
4181 Clouds 26 1006 100 0 0.89 197 11:41 25.04.2020
4182 Clouds 27 1006 100 0 0.89 190 11:22 25.04.2020
4183 Clouds 27 1007 100 0 0.45 190 10:45 25.04.2020
4184 Clouds 27 1007 100 0 0.45 190 10:26 25.04.2020
4185 Clouds 27 1007 100 0 0.45 194 09:57 25.04.2020
4186 Clouds 27 1008 100 0 0.45 206 09:39 25.04.2020
4187 Clouds 27 1008 100 0 0.89 202 09:21 25.04.2020
4188 Clouds 27 1008 100 0 0.89 233 08:41 25.04.2020
4189 Clouds 27 1008 100 0 0.45 236 08:22 25.04.2020
4190 Clouds 27 1008 100 0 1.34 229 07:59 25.04.2020
4191 Clouds 27 1008 100 0 1.13 231 07:40 25.04.2020
4192 Clouds 28 1009 88 9656 2.1 80 06:56 25.04.2020
4193 Clouds 28 1009 88 9656 2.1 80 06:36 25.04.2020
4194 Clouds 27 1009 94 8047 1.51 15 05:42 25.04.2020
4195 Clouds 28 1009 94 8047 1.51 15 05:23 25.04.2020
4196 Clouds 28 1008 88 8047 2.1 20 03:19 25.04.2020
4197 Clouds 28 1008 83 6437 2.6 10 02:25 25.04.2020
4198 Clouds 28 1007 83 6437 4.6 360 01:54 25.04.2020
4199 Clouds 28 1007 83 6437 4.6 360 01:35 25.04.2020
4200 Clouds 30 1007 74 8047 6.2 30 00:58 25.04.2020
4201 Clouds 30 1007 74 8047 6.2 30 00:34 25.04.2020
4202 Clouds 31 1007 66 8047 4.6 50 23:55 24.04.2020
4203 Clouds 31 1007 66 8047 4.6 50 23:37 24.04.2020
4204 Clouds 31 1007 66 8047 4.6 50 23:19 24.04.2020
4205 Clear 33 1008 55 8047 5.1 80 22:40 24.04.2020
4206 Clear 33 1008 55 8047 5.1 80 22:20 24.04.2020
4207 Clouds 34 1009 52 8047 4.6 60 21:57 24.04.2020
4208 Clouds 34 1009 52 8047 4.6 60 21:39 24.04.2020
4209 Clouds 34 1009 52 8047 4.6 60 21:20 24.04.2020
4210 Clouds 34 1009 49 8047 4.1 80 20:56 24.04.2020
4211 Clouds 34 1009 49 8047 4.1 80 20:38 24.04.2020
4212 Clouds 34 1009 49 8047 4.1 80 20:18 24.04.2020
4213 Clear 34 1011 49 8047 1 70 19:43 24.04.2020
4214 Clear 34 1011 49 8047 1 70 19:24 24.04.2020
4215 Clear 32 1011 55 8047 1 120 18:46 24.04.2020
4216 Clear 32 1011 55 8047 1 120 18:28 24.04.2020
4217 Clear 31 1011 66 8047 1.32 146 17:59 24.04.2020
4218 Clear 31 1011 66 8047 1.32 146 17:39 24.04.2020
4219 Clear 31 1011 66 8047 1.32 146 17:20 24.04.2020
4220 Clouds 30 1011 70 8047 1.32 146 16:58 24.04.2020
4221 Clouds 30 1011 70 8047 1.32 146 16:40 24.04.2020
4222 Clouds 30 1011 70 8047 1.32 146 16:21 24.04.2020
4223 Clouds 27 1010 83 6437 1 70 15:42 24.04.2020
4224 Clouds 27 1010 83 6437 1 70 15:22 24.04.2020
4225 Clouds 27 1009 88 6437 1.12 202 14:59 24.04.2020
4226 Clouds 27 1009 88 6437 1.84 195 14:39 24.04.2020
4227 Clouds 26 1009 88 6437 1.84 195 14:20 24.04.2020
4228 Clouds 26 1008 88 8047 1.84 195 13:42 24.04.2020
4229 Clouds 26 1008 88 8047 1.84 195 13:22 24.04.2020
4230 Clouds 27 1006 100 0 1.84 195 12:59 24.04.2020
4231 Clouds 27 1006 100 0 1.84 195 12:41 24.04.2020
4232 Clouds 27 1006 100 0 1.34 344 12:20 24.04.2020
4233 Clouds 27 1006 100 0 0.89 175 11:56 24.04.2020
4234 Clouds 27 1006 100 0 0.45 176 11:37 24.04.2020
4235 Clouds 28 1005 100 0 2.24 194 11:18 24.04.2020
4236 Clouds 28 1005 100 0 2.24 194 11:18 24.04.2020
4237 Clouds 28 1005 100 0 2.24 150 10:38 24.04.2020
4238 Clouds 28 1006 100 0 2.24 174 10:20 24.04.2020
4239 Clouds 28 1006 100 0 2.68 193 09:58 24.04.2020
4240 Clouds 28 1006 100 0 0.89 194 09:39 24.04.2020
4241 Clouds 28 1006 100 0 0.89 194 09:20 24.04.2020
4242 Clouds 28 1006 100 0 0.97 342 08:43 24.04.2020
4243 Clouds 29 1006 100 0 0.89 174 08:23 24.04.2020
4244 Clouds 29 1006 100 0 1.79 211 07:59 24.04.2020
4245 Clouds 29 1007 100 0 1.79 250 07:41 24.04.2020
4246 Clouds 29 1007 79 8047 4.1 20 07:22 24.04.2020
4247 Clouds 30 1007 79 8047 4.1 20 06:45 24.04.2020
4248 Clouds 30 1007 79 8047 4.1 20 06:23 24.04.2020
4249 Clouds 30 1007 79 8047 6.2 20 05:39 24.04.2020
4250 Haze 29 1004 79 6437 7.7 10 03:41 24.04.2020
4251 Haze 29 1003 79 6437 11.8 10 02:55 24.04.2020
4252 Haze 29 1003 79 6437 11.8 10 02:37 24.04.2020
4253 Haze 30 1003 70 4828 10.3 30 01:47 24.04.2020
4254 Haze 31 1003 66 4828 7.7 10 00:55 24.04.2020
4255 Haze 31 1003 66 4828 7.7 10 00:20 24.04.2020
4256 Clouds 34 1003 44 6437 10.8 360 23:48 23.04.2020
4257 Clouds 35 1003 44 6437 10.8 360 23:28 23.04.2020
4258 Clear 43 1001 32 9656 2.6 100 22:58 23.04.2020
4259 Clear 43 1001 32 9656 2.6 100 22:39 23.04.2020
4260 Clear 43 1001 32 9656 2.6 100 22:20 23.04.2020
4261 Clear 41 1002 38 11265 1.5 140 21:57 23.04.2020
4262 Clear 41 1002 38 11265 1.5 140 21:39 23.04.2020
4263 Clear 41 1002 38 11265 1.5 140 21:20 23.04.2020
4264 Clear 41 1003 38 11265 4.1 170 20:57 23.04.2020
4265 Clear 41 1003 38 11265 4.1 170 20:39 23.04.2020
4266 Clear 41 1003 38 11265 4.1 170 20:19 23.04.2020
4267 Clear 38 1004 39 11265 3.1 220 19:56 23.04.2020
4268 Clear 37 1004 39 11265 3.1 220 19:38 23.04.2020
4269 Clear 37 1004 39 11265 3.1 220 19:19 23.04.2020
4270 Clear 33 1004 52 11265 4.1 210 18:41 23.04.2020
4271 Clear 33 1004 52 11265 4.1 210 18:22 23.04.2020
4272 Clear 32 1004 62 11265 2.6 200 17:58 23.04.2020
4273 Clear 32 1004 62 11265 2.6 200 17:39 23.04.2020
4274 Clear 31 1004 62 11265 2.6 200 17:21 23.04.2020
4275 Clear 29 1004 69 11265 3.37 169 16:55 23.04.2020
4276 Clear 29 1004 69 11265 3.37 169 16:37 23.04.2020
4277 Clear 28 1004 69 11265 3.37 169 16:18 23.04.2020
4278 Mist 28 1004 74 9656 3.37 169 15:41 23.04.2020
4279 Mist 28 1004 74 9656 3.37 169 15:41 23.04.2020
4280 Mist 27 1004 74 9656 4.74 171 15:22 23.04.2020
4281 Mist 26 1003 78 9656 4.74 171 14:56 23.04.2020
4282 Mist 26 1003 78 9656 4.4 170 14:37 23.04.2020
4283 Mist 26 1003 78 9656 4.4 170 14:18 23.04.2020
4284 Clear 26 1003 78 9656 4.4 170 13:40 23.04.2020
4285 Clear 26 1003 78 9656 4.4 170 13:22 23.04.2020
4286 Clear 26 1001 100 0 2.24 169 12:58 23.04.2020
4287 Clear 26 1001 100 0 2.24 169 12:40 23.04.2020
4288 Clear 26 1001 100 0 1.34 201 12:21 23.04.2020
4289 Clear 26 1001 100 0 0.89 209 11:47 23.04.2020
4290 Clear 26 1001 100 0 1.34 194 11:28 23.04.2020
4291 Clear 26 1002 100 0 0.89 186 10:59 23.04.2020
4292 Clear 27 1002 100 0 0.89 195 10:40 23.04.2020
4293 Clear 27 1002 100 0 0.89 195 10:20 23.04.2020
4294 Clear 28 1003 64 0 2.24 182 09:40 23.04.2020
4295 Clouds 28 1003 61 0 2.24 182 09:19 23.04.2020
4296 Clouds 28 1004 6 0 0.89 179 08:51 23.04.2020
4297 Clouds 28 1004 6 0 0.89 179 08:32 23.04.2020
4298 Clouds 28 1004 100 0 1.34 205 07:58 23.04.2020
4299 Clouds 28 1004 100 0 2.93 173 07:39 23.04.2020
4300 Clouds 28 1004 100 0 2.93 173 07:21 23.04.2020
4301 Clear 28 1006 88 8047 2.93 173 06:45 23.04.2020
4302 Clear 28 1005 88 8047 2.86 153 05:50 23.04.2020
4303 Clouds 28 1004 100 0 2.86 153 05:21 23.04.2020
4304 Clouds 29 1004 79 8047 3.1 80 03:48 23.04.2020
4305 Clouds 31 1002 100 0 3.13 115 02:23 23.04.2020
4306 Clouds 31 1003 59 8047 3.6 110 01:38 23.04.2020
4307 Clouds 34 1004 56 8047 4.6 70 00:55 23.04.2020
4308 Clouds 34 1004 56 8047 4.6 70 00:27 23.04.2020
4309 Clouds 37 1004 35 8047 2.6 140 23:58 22.04.2020
4310 Clouds 37 1004 35 8047 2.6 140 23:40 22.04.2020
4311 Clouds 39 1004 35 8047 2.6 140 23:19 22.04.2020
4312 Clouds 39 1005 37 8047 5.1 170 22:40 22.04.2020
4313 Clouds 39 1005 37 8047 5.1 170 22:20 22.04.2020
4314 Clouds 38 1007 37 8047 3.1 160 21:58 22.04.2020
4315 Clouds 38 1007 37 8047 3.1 160 21:40 22.04.2020
4316 Clouds 38 1007 37 8047 3.1 160 21:21 22.04.2020
4317 Clouds 38 1007 37 8047 3.1 160 21:21 22.04.2020
4318 Haze 37 1008 42 6437 2.6 180 20:56 22.04.2020
4319 Haze 37 1008 42 6437 2.6 180 20:37 22.04.2020
4320 Haze 37 1008 42 6437 2.6 180 20:18 22.04.2020
4321 Haze 35 1009 49 6437 3.6 190 19:56 22.04.2020
4322 Haze 35 1009 49 6437 3.6 190 19:37 22.04.2020
4323 Haze 35 1009 49 6437 3.6 190 19:18 22.04.2020
4324 Haze 32 1010 59 6437 5.1 160 18:56 22.04.2020
4325 Haze 32 1010 59 6437 5.1 160 18:37 22.04.2020
4326 Haze 32 1010 59 6437 5.1 160 18:19 22.04.2020
4327 Haze 30 1011 70 6437 4.1 170 17:42 22.04.2020
4328 Haze 30 1011 70 6437 4.1 170 17:24 22.04.2020
4329 Haze 27 1011 88 6437 1.5 220 16:56 22.04.2020
4330 Haze 27 1011 88 6437 1.5 220 16:36 22.04.2020
4331 Haze 27 1011 88 6437 1.5 220 16:18 22.04.2020
4332 Mist 24 1010 94 4828 3.59 172 15:38 22.04.2020
4333 Mist 24 1010 94 4828 4.45 162 15:20 22.04.2020
4334 Clear 24 1010 94 8047 4.45 162 14:56 22.04.2020
4335 Clear 24 1010 94 8047 4.45 162 14:37 22.04.2020
4336 Clear 24 1010 94 8047 4.35 162 14:18 22.04.2020
4337 Clear 24 1010 94 8047 4.35 162 13:43 22.04.2020
4338 Clouds 24 1008 100 0 0.89 235 13:20 22.04.2020
4339 Clouds 24 1008 100 0 4.35 162 12:43 22.04.2020
4340 Clouds 25 1008 100 0 2.78 158 12:24 22.04.2020
4341 Clouds 25 1008 100 0 2.78 158 11:58 22.04.2020
4342 Clouds 25 1008 100 0 2.78 158 11:58 22.04.2020
4343 Clouds 25 1008 100 0 2.78 158 11:39 22.04.2020
4344 Clouds 25 1008 100 0 2.78 158 11:19 22.04.2020
4345 Clouds 24 1008 100 0 2.78 158 10:44 22.04.2020
4346 Clouds 25 1008 100 0 2.78 158 10:24 22.04.2020
4347 Clouds 26 1009 100 0 2.78 158 09:55 22.04.2020
4348 Clouds 26 1009 100 0 0.45 265 09:36 22.04.2020
4349 Clear 26 1009 100 0 1.81 269 09:18 22.04.2020
4350 Clear 26 1010 100 0 1.81 269 08:41 22.04.2020
4351 Clear 26 1010 100 0 1.81 269 08:41 22.04.2020
4352 Clear 26 1010 100 0 1.81 269 08:23 22.04.2020
4353 Clear 27 1010 100 0 1.81 269 07:55 22.04.2020
4354 Clear 27 1010 100 0 1.81 269 07:36 22.04.2020
4355 Clouds 27 1012 83 9656 1 330 07:18 22.04.2020
4356 Clouds 27 1012 83 9656 1 330 06:41 22.04.2020
4357 Clouds 27 1011 83 9656 1.63 18 05:40 22.04.2020
4358 Clouds 27 1011 83 9656 1.63 18 05:40 22.04.2020
4359 Clear 27 1010 83 9656 2.1 10 04:46 22.04.2020
4360 Clouds 29 1008 74 8047 5.7 20 02:59 22.04.2020
4361 Clear 31 1008 55 9656 4.6 70 02:18 22.04.2020
4362 Clear 32 1008 55 9656 4.6 70 01:38 22.04.2020
4363 Clear 32 1008 55 9656 4.6 70 01:19 22.04.2020
4364 Clear 32 1008 62 9656 6.2 50 00:41 22.04.2020
4365 Clear 32 1008 62 9656 6.2 50 00:20 22.04.2020
4366 Clear 33 1008 55 8047 6.2 60 23:44 21.04.2020
4367 Clear 33 1008 55 8047 6.2 60 23:22 21.04.2020
4368 Clear 34 1009 49 8047 6.7 80 22:55 21.04.2020
4369 Clear 34 1009 49 8047 6.7 80 22:37 21.04.2020
4370 Clear 34 1009 49 8047 6.7 80 22:19 21.04.2020
4371 Clear 33 1010 55 8047 6.2 90 21:43 21.04.2020
4372 Clear 33 1010 55 8047 6.2 90 21:24 21.04.2020
4373 Clear 34 1011 56 8047 1.5 120 20:59 21.04.2020
4374 Clear 34 1011 56 8047 1.5 120 20:59 21.04.2020
4375 Clear 34 1011 56 8047 1.5 120 20:40 21.04.2020
4376 Clear 34 1011 56 8047 1.5 120 20:22 21.04.2020
4377 Clear 34 1011 49 8047 3.26 117 19:56 21.04.2020
4378 Clear 34 1011 49 8047 3.26 117 19:36 21.04.2020
4379 Clear 34 1011 49 8047 3.26 117 19:18 21.04.2020
4380 Clear 32 1012 62 8047 1 120 18:54 21.04.2020
4381 Clear 32 1012 62 8047 1 120 18:36 21.04.2020
4382 Clear 32 1012 62 8047 1 120 18:18 21.04.2020
4383 Clear 29 1012 69 8047 2.6 150 17:39 21.04.2020
4384 Clear 29 1012 69 8047 2.6 150 17:19 21.04.2020
4385 Clouds 28 1011 74 8047 3.04 169 16:54 21.04.2020
4386 Clouds 28 1011 74 8047 3.16 175 16:36 21.04.2020
4387 Clouds 28 1011 74 8047 3.16 175 16:18 21.04.2020
4388 Clouds 26 1011 78 8047 3.16 175 15:54 21.04.2020
4389 Clouds 26 1011 78 8047 3.16 175 15:36 21.04.2020
4390 Clouds 26 1011 78 8047 3.64 160 15:18 21.04.2020
4391 Clouds 25 1010 83 8047 3.63 158 14:43 21.04.2020
4392 Clouds 25 1010 83 8047 3.63 158 14:23 21.04.2020
4393 Clear 25 1009 83 9656 1 190 13:54 21.04.2020
4394 Clear 25 1009 83 9656 1 190 13:36 21.04.2020
4395 Clear 25 1009 83 9656 1 190 13:18 21.04.2020
4396 Clouds 26 1007 100 0 0.89 185 12:38 21.04.2020
4397 Clouds 26 1007 100 0 0.89 185 12:38 21.04.2020
4398 Clouds 26 1007 100 0 0.89 185 12:19 21.04.2020
4399 Clouds 27 1007 100 0 0.89 178 11:57 21.04.2020
4400 Clouds 27 1007 100 0 0.89 178 11:38 21.04.2020
4401 Clouds 27 1007 100 0 0.89 178 11:18 21.04.2020
4402 Clouds 26 1007 100 0 1.34 183 10:58 21.04.2020
4403 Clouds 26 1007 100 0 0.89 202 10:39 21.04.2020
4404 Clouds 26 1007 100 0 0.89 202 10:20 21.04.2020
4405 Clouds 26 1008 100 0 2.91 164 09:38 21.04.2020
4406 Clouds 26 1008 100 0 0.45 220 09:20 21.04.2020
4407 Clouds 26 1008 100 0 0.45 220 09:20 21.04.2020
4408 Clouds 26 1008 100 0 0.45 245 08:58 21.04.2020
4409 Clouds 26 1008 100 0 0.89 265 08:40 21.04.2020
4410 Clouds 26 1008 100 0 0.89 265 08:19 21.04.2020
4411 Clouds 27 1009 100 0 2.05 181 07:49 21.04.2020
4412 Clouds 27 1009 100 0 2.05 181 07:49 21.04.2020
4413 Clouds 27 1009 100 0 0.45 344 07:24 21.04.2020
4414 Clouds 27 1010 88 8047 2.05 181 06:50 21.04.2020
4415 Clouds 27 1010 88 8047 1.22 76 06:24 21.04.2020
4416 Clouds 27 1010 88 8047 1.22 76 05:49 21.04.2020
4417 Clouds 27 1008 88 6437 3.1 350 04:24 21.04.2020
4418 Haze 28 1007 83 4828 2.6 350 03:45 21.04.2020
4419 Clouds 30 1006 70 6437 6.2 20 01:53 21.04.2020
4420 Clouds 30 1006 70 6437 6.2 20 01:29 21.04.2020
4421 Clear 32 1006 62 6437 6.2 20 00:38 21.04.2020
4422 Clear 33 1007 49 6437 3.6 80 23:48 20.04.2020
4423 Clear 33 1007 49 6437 3.6 80 23:26 20.04.2020
4424 Clear 34 1007 52 8047 6.2 90 22:59 20.04.2020
4425 Clear 34 1007 52 8047 6.2 90 22:41 20.04.2020
4426 Clear 34 1007 52 8047 6.2 90 22:21 20.04.2020
4427 Clear 34 1007 52 8047 6.2 90 22:21 20.04.2020
4428 Clear 35 1008 47 6437 3.6 80 21:58 20.04.2020
4429 Clear 35 1008 47 6437 3.6 80 21:39 20.04.2020
4430 Clear 35 1008 47 6437 3.6 80 21:20 20.04.2020
4431 Clear 34 1009 52 6437 5.7 80 20:59 20.04.2020
4432 Clear 34 1009 52 6437 5.7 80 20:40 20.04.2020
4433 Clear 35 1009 52 6437 5.7 80 20:19 20.04.2020
4434 Clear 34 1009 46 6437 2.1 60 19:59 20.04.2020
4435 Clear 34 1009 46 6437 2.1 60 19:59 20.04.2020
4436 Clear 34 1009 46 6437 2.1 60 19:39 20.04.2020
4437 Clear 34 1009 46 6437 2.1 60 19:39 20.04.2020
4438 Clear 34 1009 46 6437 2.1 60 19:19 20.04.2020
4439 Clear 33 1009 55 6437 2.1 160 18:54 20.04.2020
4440 Clear 33 1009 55 6437 2.1 160 18:54 20.04.2020
4441 Clear 33 1009 55 6437 2.1 160 18:36 20.04.2020
4442 Clear 33 1009 55 6437 2.1 160 18:36 20.04.2020
4443 Clear 32 1009 55 6437 2.1 160 18:18 20.04.2020
4444 Clear 31 1009 62 6437 4.1 170 17:40 20.04.2020
4445 Clear 31 1009 62 6437 4.1 170 17:22 20.04.2020
4446 Clear 29 1008 69 6437 1.5 250 16:59 20.04.2020
4447 Clear 29 1008 69 6437 1.5 250 16:40 20.04.2020
4448 Clear 29 1008 69 6437 1.5 250 16:19 20.04.2020
4449 Clear 28 1007 78 6437 1.47 154 15:45 20.04.2020
4450 Clear 27 1007 78 6437 1.74 170 15:25 20.04.2020
4451 Clear 26 1006 83 9656 1.74 170 14:59 20.04.2020
4452 Clear 25 1006 83 9656 1.48 170 14:40 20.04.2020
4453 Clear 25 1006 83 9656 1.48 170 14:19 20.04.2020
4454 Clear 26 1005 78 9656 1.48 170 13:56 20.04.2020
4455 Clear 26 1005 78 9656 1.48 170 13:56 20.04.2020
4456 Clear 26 1005 78 9656 1.48 170 13:56 20.04.2020
4457 Clear 26 1005 78 9656 1.48 170 13:37 20.04.2020
4458 Clear 26 1005 78 9656 1.48 170 13:19 20.04.2020
4459 Clouds 27 1004 100 0 1.34 205 12:43 20.04.2020
4460 Clouds 27 1003 100 0 1.34 197 12:22 20.04.2020
4461 Clouds 27 1003 100 0 1.34 202 11:43 20.04.2020
4462 Clouds 27 1003 100 0 1.34 202 11:23 20.04.2020
4463 Clouds 28 1003 100 0 1.79 200 10:57 20.04.2020
4464 Clouds 28 1003 100 0 1.79 201 10:39 20.04.2020
4465 Clouds 28 1004 100 0 2.24 201 10:20 20.04.2020
4466 Clouds 28 1004 100 0 2.24 200 09:59 20.04.2020
4467 Clouds 28 1004 100 0 2.24 207 09:40 20.04.2020
4468 Clouds 28 1004 100 0 1.79 200 09:21 20.04.2020
4469 Clouds 28 1004 100 0 1.79 203 08:42 20.04.2020
4470 Clouds 29 1004 100 0 1.79 197 08:23 20.04.2020
4471 Clouds 29 1005 100 0 2.24 168 07:56 20.04.2020
4472 Clouds 29 1005 100 0 1.79 186 07:37 20.04.2020
4473 Clouds 29 1006 70 9656 1 180 07:19 20.04.2020
4474 Clouds 29 1006 70 9656 1 180 07:19 20.04.2020
4475 Clouds 29 1006 70 9656 1 180 06:37 20.04.2020
4476 Clouds 30 1005 74 9656 2.1 180 05:48 20.04.2020
4477 Clouds 29 1004 79 9656 3.43 169 04:33 20.04.2020
4478 Clouds 31 1003 62 9656 2.1 100 02:47 20.04.2020
4479 Clouds 31 1003 62 9656 2.1 100 02:19 20.04.2020
4480 Clouds 32 1003 59 9656 4.1 70 01:29 20.04.2020
4481 Clouds 33 1004 49 9656 4.1 90 00:42 20.04.2020
4482 Clouds 34 1004 49 9656 4.1 90 00:20 20.04.2020
4483 Clear 35 1004 47 8047 6.7 80 23:39 19.04.2020
4484 Clear 35 1004 47 8047 6.7 80 23:39 19.04.2020
4485 Clear 36 1004 47 8047 6.7 80 23:21 19.04.2020
4486 Clear 38 1005 42 8047 2.1 140 22:55 19.04.2020
4487 Clear 38 1005 42 8047 2.1 140 22:36 19.04.2020
4488 Clear 38 1005 42 8047 2.1 140 22:18 19.04.2020
4489 Clear 38 1006 42 8047 5.1 190 21:42 19.04.2020
4490 Clear 38 1006 42 8047 5.1 190 21:23 19.04.2020
4491 Clear 36 1007 47 8047 3.1 160 20:56 19.04.2020
4492 Clear 36 1007 47 8047 3.1 160 20:38 19.04.2020
4493 Clear 36 1007 47 8047 3.1 160 20:20 19.04.2020
4494 Clear 35 1009 52 6437 3.1 170 19:56 19.04.2020
4495 Clear 34 1009 52 6437 3.1 170 19:37 19.04.2020
4496 Clear 34 1009 52 6437 3.1 170 19:19 19.04.2020
4497 Clouds 32 1009 66 6437 2.1 160 18:54 19.04.2020
4498 Clouds 32 1009 66 6437 2.1 160 18:36 19.04.2020
4499 Clouds 32 1009 66 6437 2.1 160 18:18 19.04.2020
4500 Clouds 30 1009 74 6437 5.1 200 17:42 19.04.2020
4501 Clouds 30 1009 74 6437 5.1 200 17:23 19.04.2020
4502 Mist 28 1009 83 4828 4.1 200 17:00 19.04.2020
4503 Mist 28 1009 83 4828 4.1 200 16:39 19.04.2020
4504 Mist 27 1009 83 4828 4.1 200 16:21 19.04.2020
4505 Mist 25 1009 100 1609 2.1 190 15:55 19.04.2020
4506 Mist 25 1009 100 1609 2.1 190 15:36 19.04.2020
4507 Mist 25 1009 100 1609 2.1 190 15:18 19.04.2020
4508 Mist 25 1008 100 4828 2.1 170 14:38 19.04.2020
4509 Mist 25 1008 100 4828 2.1 170 14:20 19.04.2020
4510 Mist 25 1008 100 4828 3.22 170 13:56 19.04.2020
4511 Mist 25 1008 100 4828 3.22 170 13:56 19.04.2020
4512 Mist 25 1008 100 4828 3.22 170 13:36 19.04.2020
4513 Mist 25 1008 100 4828 3.22 170 13:18 19.04.2020
4514 Clouds 25 1006 100 0 3.22 170 12:43 19.04.2020
4515 Clouds 24 1006 100 0 0.45 190 12:24 19.04.2020
4516 Clouds 25 1006 100 0 0.45 190 11:39 19.04.2020
4517 Clouds 25 1006 100 0 0.45 190 11:20 19.04.2020
4518 Clouds 25 1006 100 0 0.45 190 10:59 19.04.2020
4519 Clouds 26 1006 100 0 1.44 184 10:41 19.04.2020
4520 Clouds 25 1006 100 0 0.45 190 10:20 19.04.2020
4521 Clouds 25 1007 100 0 0.45 201 09:55 19.04.2020
4522 Clouds 25 1007 100 0 0.89 202 09:36 19.04.2020
4523 Clouds 26 1007 100 0 0.45 202 09:18 19.04.2020
4524 Clear 26 1008 100 0 0.45 203 08:39 19.04.2020
4525 Clear 26 1008 100 0 0.45 205 08:20 19.04.2020
4526 Clear 26 1009 100 0 0.45 215 07:45 19.04.2020
4527 Clouds 27 1010 100 0 1.67 225 07:25 19.04.2020
4528 Clouds 26 1011 94 8047 1.67 225 06:55 19.04.2020
4529 Clouds 27 1011 94 8047 1.02 7 06:19 19.04.2020
4530 Clouds 28 1010 83 6437 1 60 04:56 19.04.2020
4531 Clouds 28 1009 83 6437 3.1 50 03:24 19.04.2020
4532 Clouds 29 1009 79 6437 3.6 20 02:22 19.04.2020
4533 Clear 30 1009 79 8047 6.7 50 01:39 19.04.2020
4534 Clear 30 1009 79 8047 6.7 50 01:19 19.04.2020
4535 Clear 31 1009 66 8047 6.2 70 00:40 19.04.2020
4536 Clear 32 1009 66 8047 6.2 70 00:19 19.04.2020
4537 Clear 32 1009 62 6437 6.2 20 23:41 18.04.2020
4538 Clear 32 1009 62 6437 6.2 20 23:19 18.04.2020
4539 Clear 32 1011 62 6437 6.7 40 22:43 18.04.2020
4540 Clear 32 1011 62 6437 6.7 40 22:23 18.04.2020
4541 Clear 32 1011 62 6437 5.1 30 21:58 18.04.2020
4542 Clear 32 1011 62 6437 5.1 30 21:39 18.04.2020
4543 Clear 32 1011 62 6437 5.1 30 21:21 18.04.2020
4544 Clear 33 1013 59 6437 4.1 60 20:56 18.04.2020
4545 Clear 33 1013 59 6437 4.1 60 20:37 18.04.2020
4546 Clear 33 1013 59 6437 4.1 60 20:18 18.04.2020
4547 Clouds 33 1013 59 8047 4.6 90 19:40 18.04.2020
4548 Clouds 33 1013 59 8047 4.6 90 19:22 18.04.2020
4549 Clouds 32 1014 66 8047 1.5 30 18:39 18.04.2020
4550 Clouds 32 1014 66 8047 1.5 30 18:20 18.04.2020
4551 Clouds 31 1014 70 8047 1.5 100 17:57 18.04.2020
4552 Clouds 31 1014 70 8047 1.5 100 17:39 18.04.2020
4553 Clouds 31 1014 70 8047 1.5 100 17:18 18.04.2020
4554 Mist 30 1013 79 6437 2.03 130 16:43 18.04.2020
4555 Mist 29 1013 79 6437 2.03 130 16:22 18.04.2020
4556 Mist 26 1013 94 8047 1.5 40 15:55 18.04.2020
4557 Mist 26 1013 94 8047 1.5 40 15:37 18.04.2020
4558 Mist 26 1013 94 8047 1.5 40 15:19 18.04.2020
4559 Mist 25 1012 94 9656 1 340 14:44 18.04.2020
4560 Mist 25 1012 94 9656 1 340 14:20 18.04.2020
4561 Clear 25 1012 94 9656 1.5 340 13:43 18.04.2020
4562 Clear 25 1012 94 9656 1.5 340 13:21 18.04.2020
4563 Clouds 25 1010 100 0 2.65 139 12:44 18.04.2020
4564 Clouds 25 1010 100 0 0.45 259 12:26 18.04.2020
4565 Clouds 25 1009 100 0 0.45 257 11:59 18.04.2020
4566 Clouds 25 1009 100 0 2.5 209 11:40 18.04.2020
4567 Clouds 25 1009 100 0 0.45 257 11:21 18.04.2020
4568 Clouds 26 1010 100 0 0.89 259 10:56 18.04.2020
4569 Clouds 26 1010 100 0 0.45 242 10:36 18.04.2020
4570 Clouds 26 1010 100 0 0.45 242 10:18 18.04.2020
4571 Clouds 26 1010 100 0 0.89 252 09:41 18.04.2020
4572 Clouds 25 1010 100 0 0.89 264 09:21 18.04.2020
4573 Clouds 26 1010 100 0 0.89 176 08:43 18.04.2020
4574 Clouds 26 1011 100 0 0.45 175 08:23 18.04.2020
4575 Clouds 26 1011 100 0 1.89 205 07:49 18.04.2020
4576 Clouds 26 1011 100 0 1.89 205 07:30 18.04.2020
4577 Clouds 27 1013 88 8047 1.89 205 06:50 18.04.2020
4578 Clouds 27 1012 88 8047 2.03 72 05:50 18.04.2020
4579 Clouds 27 1012 88 8047 1.5 110 04:57 18.04.2020
4580 Clouds 27 1012 88 8047 1.5 110 04:32 18.04.2020
4581 Clouds 27 1012 88 8047 1.5 110 04:32 18.04.2020
4582 Clouds 28 1011 78 8047 2.1 90 03:43 18.04.2020
4583 Clouds 29 1010 74 8047 2.6 90 02:42 18.04.2020
4584 Clouds 29 1010 74 8047 2.6 90 02:21 18.04.2020
4585 Clouds 29 1010 74 8047 2.6 90 02:21 18.04.2020
4586 Clouds 29 1010 74 8047 2.6 90 02:21 18.04.2020
4587 Haze 30 1011 62 6437 2.6 90 01:48 18.04.2020
4588 Haze 31 1011 62 6437 2.6 90 01:27 18.04.2020
4589 Clouds 31 1011 62 8047 3.1 70 00:38 18.04.2020
4590 Clouds 32 1011 62 8047 3.1 70 00:18 18.04.2020
4591 Clouds 32 1012 66 8047 3.6 100 23:41 17.04.2020
4592 Clouds 31 1012 66 8047 3.6 100 23:20 17.04.2020
4593 Clouds 32 1012 59 8047 2.6 110 22:59 17.04.2020
4594 Clouds 33 1012 59 8047 2.6 110 22:40 17.04.2020
4595 Clouds 32 1012 59 8047 2.6 110 22:20 17.04.2020
4596 Clouds 32 1013 59 8047 1.5 120 21:58 17.04.2020
4597 Clouds 32 1013 59 8047 1.5 120 21:39 17.04.2020
4598 Clouds 32 1013 59 8047 1.5 120 21:19 17.04.2020
4599 Clouds 33 1014 55 8047 1.5 170 20:55 17.04.2020
4600 Clouds 33 1014 55 8047 1.5 170 20:36 17.04.2020
4601 Clouds 33 1014 55 8047 1.5 170 20:18 17.04.2020
4602 Clouds 32 1015 55 8047 2.35 101 19:46 17.04.2020
4603 Clouds 32 1015 55 8047 2.35 101 19:24 17.04.2020
4604 Clear 31 1016 62 8047 2.6 190 18:55 17.04.2020
4605 Clear 31 1016 62 8047 2.6 190 18:36 17.04.2020
4606 Clear 31 1016 62 8047 2.6 190 18:18 17.04.2020
4607 Clouds 28 1016 78 8047 2.6 170 17:38 17.04.2020
4608 Clouds 28 1016 78 8047 2.6 170 17:19 17.04.2020
4609 Clouds 26 1016 88 8047 1.27 205 16:44 17.04.2020
4610 Clouds 25 1016 88 8047 1.27 205 16:24 17.04.2020
4611 Clouds 24 1015 88 8047 1.27 205 15:59 17.04.2020
4612 Clouds 24 1015 88 8047 1.27 205 15:39 17.04.2020
4613 Clouds 24 1015 88 8047 0.98 239 15:20 17.04.2020
4614 Clouds 23 1015 94 8047 0.98 239 14:42 17.04.2020
4615 Clouds 23 1015 94 8047 1.01 249 14:23 17.04.2020
4616 Clouds 23 1014 94 8047 1.01 249 13:58 17.04.2020
4617 Clouds 23 1014 94 8047 1.01 249 13:38 17.04.2020
4618 Clouds 23 1014 94 8047 1.01 249 13:19 17.04.2020
4619 Rain 23 1013 100 0 1.01 249 12:48 17.04.2020
4620 Clouds 23 1012 100 0 0.98 271 12:26 17.04.2020
4621 Clouds 24 1012 100 0 0.98 271 11:58 17.04.2020
4622 Clouds 24 1012 100 0 0.45 247 11:37 17.04.2020
4623 Clouds 24 1012 100 0 0.89 252 11:18 17.04.2020
4624 Clouds 24 1013 100 0 1.34 211 10:40 17.04.2020
4625 Clouds 24 1013 100 0 0.89 219 10:19 17.04.2020
4626 Clouds 24 1013 100 0 0.89 104 09:55 17.04.2020
4627 Clouds 25 1014 100 0 0.45 71 09:36 17.04.2020
4628 Clouds 25 1014 100 0 1.62 319 09:18 17.04.2020
4629 Clouds 26 1014 100 0 0.89 15 08:45 17.04.2020
4630 Clouds 26 1014 100 0 0.89 15 08:25 17.04.2020
4631 Clouds 26 1015 100 0 2.24 14 07:44 17.04.2020
4632 Clouds 26 1015 100 0 1.79 5 07:25 17.04.2020
4633 Clouds 25 1016 83 11265 3.1 30 06:57 17.04.2020
4634 Clouds 25 1016 83 11265 3.1 30 06:27 17.04.2020
4635 Clouds 25 1016 83 11265 4.6 10 05:38 17.04.2020
4636 Clouds 25 1015 83 11265 2.6 10 03:22 17.04.2020
4637 Clouds 25 1015 83 11265 2.6 10 03:22 17.04.2020
4638 Clear 26 1014 78 11265 3.6 360 02:37 17.04.2020
4639 Clouds 27 1014 74 11265 4.6 360 01:30 17.04.2020
4640 Clouds 27 1014 74 11265 5.7 360 00:58 17.04.2020
4641 Clouds 27 1014 74 11265 5.7 360 00:20 17.04.2020
4642 Clouds 28 1014 74 11265 4.6 20 23:45 16.04.2020
4643 Rain 27 1014 74 11265 4.6 20 23:23 16.04.2020
4644 Rain 27 1015 74 11265 4.6 40 22:58 16.04.2020
4645 Rain 27 1015 74 11265 4.6 40 22:39 16.04.2020
4646 Clouds 27 1015 74 11265 4.6 40 22:20 16.04.2020
4647 Clouds 27 1015 78 11265 3.1 20 21:56 16.04.2020
4648 Clouds 27 1015 78 11265 3.1 20 21:37 16.04.2020
4649 Clouds 27 1015 78 11265 3.1 20 21:18 16.04.2020
4650 Drizzle 26 1016 88 11265 3.6 360 20:40 16.04.2020
4651 Drizzle 25 1016 88 11265 3.6 360 20:22 16.04.2020
4652 Drizzle 25 1017 88 11265 3.6 10 19:56 16.04.2020
4653 Drizzle 25 1017 88 11265 3.6 10 19:37 16.04.2020
4654 Drizzle 25 1017 88 11265 3.6 10 19:19 16.04.2020
4655 Drizzle 25 1017 94 8047 2.1 50 18:45 16.04.2020
4656 Drizzle 25 1017 94 8047 2.1 50 18:26 16.04.2020
4657 Drizzle 24 1017 100 4023 2.6 10 17:58 16.04.2020
4658 Drizzle 24 1017 100 4023 2.6 10 17:39 16.04.2020
4659 Drizzle 23 1017 100 4023 2.6 10 17:20 16.04.2020
4660 Drizzle 23 1016 100 2414 2.1 350 16:44 16.04.2020
4661 Drizzle 23 1016 100 2414 2.1 350 16:26 16.04.2020
4662 Drizzle 24 1016 94 6437 4.49 348 15:55 16.04.2020
4663 Drizzle 24 1016 94 6437 4.49 348 15:36 16.04.2020
4664 Drizzle 24 1016 94 6437 4.16 347 15:18 16.04.2020
4665 Drizzle 24 1016 94 8047 4.16 347 14:45 16.04.2020
4666 Drizzle 24 1015 94 9656 1 310 14:25 16.04.2020
4667 Clouds 24 1015 94 8047 1.5 360 13:59 16.04.2020
4668 Clouds 24 1015 94 8047 1.5 360 13:40 16.04.2020
4669 Clouds 24 1015 94 8047 1.5 360 13:40 16.04.2020
4670 Clouds 24 1015 94 8047 1.5 360 13:21 16.04.2020
4671 Clouds 24 1013 100 0 2.24 350 12:58 16.04.2020
4672 Clouds 24 1013 100 0 2.24 14 12:39 16.04.2020
4673 Clouds 24 1013 100 0 1.79 19 12:19 16.04.2020
4674 Clouds 24 1012 100 0 2.24 340 11:57 16.04.2020
4675 Clouds 24 1012 100 0 2.24 355 11:38 16.04.2020
4676 Clouds 24 1012 100 0 2.24 342 11:20 16.04.2020
4677 Clouds 24 1012 100 0 2.24 331 10:55 16.04.2020
4678 Clouds 24 1012 100 0 2.68 344 10:36 16.04.2020
4679 Clouds 24 1013 100 0 2.68 355 10:18 16.04.2020
4680 Clouds 24 1013 100 0 3.58 355 09:39 16.04.2020
4681 Rain 24 1013 100 0 4.47 347 09:20 16.04.2020
4682 Rain 24 1013 100 0 4.47 347 09:20 16.04.2020
4683 Rain 25 1013 100 0 4.02 332 08:45 16.04.2020
4684 Clouds 26 1014 100 0 4.02 355 08:26 16.04.2020
4685 Rain 26 1014 100 0 6.26 360 07:59 16.04.2020
4686 Rain 26 1014 100 0 4.92 355 07:41 16.04.2020
4687 Clouds 26 1015 74 11265 6.2 360 07:20 16.04.2020
4688 Clouds 26 1015 74 11265 6.2 360 07:20 16.04.2020
4689 Clouds 27 1015 74 11265 6.2 360 06:41 16.04.2020
4690 Clouds 27 1015 74 11265 6.2 360 06:41 16.04.2020
4691 Clouds 27 1015 74 11265 6.2 360 06:22 16.04.2020
4692 Sand 26 1014 74 11265 7.7 360 04:53 16.04.2020
4693 Sand 26 1013 74 9656 5.1 360 03:28 16.04.2020
4694 Clouds 27 1013 69 11265 9.8 360 02:59 16.04.2020
4695 Clouds 27 1013 69 11265 9.8 360 02:36 16.04.2020
4696 Clouds 29 1012 66 9656 5.1 360 01:28 16.04.2020
4697 Sand 29 1012 62 9656 7.7 360 00:53 16.04.2020
4698 Sand 29 1012 62 9656 7.7 360 00:21 16.04.2020
4699 Clouds 30 1013 62 9656 7.7 360 23:54 15.04.2020
4700 Clouds 30 1013 62 9656 7.7 360 23:36 15.04.2020
4701 Clouds 30 1013 62 9656 7.7 360 23:18 15.04.2020
4702 Clouds 29 1013 66 8047 10.3 20 22:38 15.04.2020
4703 Clouds 29 1013 66 8047 10.3 20 22:20 15.04.2020
4704 Clouds 30 1014 66 6437 9.3 360 21:55 15.04.2020
4705 Clouds 30 1014 66 6437 9.3 360 21:37 15.04.2020
4706 Clouds 30 1014 66 6437 9.3 360 21:18 15.04.2020
4707 Haze 30 1015 70 4828 4.1 360 20:54 15.04.2020
4708 Haze 30 1015 70 4828 4.1 360 20:36 15.04.2020
4709 Haze 30 1015 70 4828 4.1 360 20:18 15.04.2020
4710 Haze 29 1015 78 4828 6.2 10 19:40 15.04.2020
4711 Haze 29 1015 78 4828 6.2 10 19:20 15.04.2020
4712 Haze 29 1015 70 4828 4.6 10 18:41 15.04.2020
4713 Haze 29 1015 70 4828 4.6 10 18:23 15.04.2020
4714 Haze 28 1015 78 4828 4.1 360 17:58 15.04.2020
4715 Haze 28 1015 78 4828 4.1 360 17:39 15.04.2020
4716 Haze 28 1015 78 4828 4.1 360 17:20 15.04.2020
4717 Mist 27 1015 83 4828 5.7 10 16:56 15.04.2020
4718 Mist 27 1015 83 4828 5.7 10 16:37 15.04.2020
4719 Mist 27 1015 83 4828 5.7 10 16:19 15.04.2020
4720 Mist 27 1014 83 4828 3.6 10 15:56 15.04.2020
4721 Mist 27 1014 83 4828 3.6 10 15:38 15.04.2020
4722 Mist 27 1014 83 4828 3.6 10 15:19 15.04.2020
4723 Clouds 27 1014 88 6437 3.1 20 14:55 15.04.2020
4724 Clouds 27 1014 88 6437 3.1 20 14:37 15.04.2020
4725 Clouds 27 1014 88 6437 3.1 20 14:19 15.04.2020
4726 Clouds 27 1013 88 6437 2.1 10 13:56 15.04.2020
4727 Clouds 27 1013 88 6437 2.1 10 13:36 15.04.2020
4728 Clouds 27 1013 88 6437 2.1 10 13:18 15.04.2020
4729 Rain 27 1011 100 0 4.47 22 12:42 15.04.2020
4730 Clouds 27 1011 100 0 4.02 30 12:23 15.04.2020
4731 Clouds 27 1011 100 0 4.02 5 11:58 15.04.2020
4732 Clouds 27 1011 100 0 4.02 5 11:58 15.04.2020
4733 Clouds 27 1011 100 0 4.02 17 11:39 15.04.2020
4734 Clouds 27 1011 100 0 4.02 19 11:20 15.04.2020
4735 Clouds 27 1011 100 0 3.58 17 10:39 15.04.2020
4736 Clouds 27 1012 100 0 4.02 11 10:20 15.04.2020
4737 Clouds 27 1012 100 0 4.02 15 09:57 15.04.2020
4738 Clouds 27 1012 100 0 4.47 21 09:39 15.04.2020
4739 Clouds 27 1012 100 0 4.02 22 09:20 15.04.2020
4740 Clouds 27 1012 100 0 4.02 35 08:55 15.04.2020
4741 Clouds 27 1012 100 0 3.13 5 08:37 15.04.2020
4742 Clouds 27 1012 100 0 3.13 5 08:37 15.04.2020
4743 Clouds 28 1012 100 0 3.58 355 08:18 15.04.2020
4744 Clouds 28 1012 100 0 4.02 24 07:46 15.04.2020
4745 Clouds 28 1012 100 0 4.02 9 07:28 15.04.2020
4746 Clouds 27 1013 88 9656 4.6 40 06:32 15.04.2020
4747 Clouds 27 1012 88 9656 4.1 350 05:50 15.04.2020
4748 Clouds 27 1012 88 9656 4.6 10 04:48 15.04.2020
4749 Clouds 27 1012 88 9656 4.6 10 04:23 15.04.2020
4750 Clouds 28 1010 83 8047 5.1 20 03:23 15.04.2020
4751 Clouds 28 1009 78 8047 7.7 360 02:50 15.04.2020
4752 Clouds 29 1009 79 8047 6.7 360 01:53 15.04.2020
4753 Clouds 29 1009 79 8047 6.7 360 01:25 15.04.2020
4754 Clouds 30 1008 70 8047 5.7 30 00:51 15.04.2020
4755 Clouds 30 1008 70 8047 5.7 30 00:29 15.04.2020
4756 Clouds 32 1009 62 6437 5.7 80 23:56 14.04.2020
4757 Clouds 32 1009 62 6437 5.7 80 23:56 14.04.2020
4758 Clouds 32 1009 62 6437 5.7 80 23:38 14.04.2020
4759 Clouds 32 1009 62 6437 5.7 80 23:20 14.04.2020
4760 Clouds 31 1010 62 6437 4.1 80 22:57 14.04.2020
4761 Clouds 31 1010 62 6437 4.1 80 22:39 14.04.2020
4762 Clouds 31 1010 62 6437 4.1 80 22:20 14.04.2020
4763 Clouds 32 1011 62 6437 6.7 70 21:56 14.04.2020
4764 Clouds 32 1011 62 6437 6.7 70 21:56 14.04.2020
4765 Clouds 32 1011 62 6437 6.7 70 21:38 14.04.2020
4766 Clouds 32 1011 62 6437 6.7 70 21:19 14.04.2020
4767 Haze 32 1012 62 4828 2.6 60 20:57 14.04.2020
4768 Haze 32 1012 62 4828 2.6 60 20:38 14.04.2020
4769 Haze 32 1012 62 4828 2.6 60 20:38 14.04.2020
4770 Haze 32 1012 62 4828 2.6 60 20:38 14.04.2020
4771 Haze 32 1012 62 4828 2.6 60 20:38 14.04.2020
4772 Haze 32 1012 62 4828 2.6 60 20:19 14.04.2020
4773 Haze 31 1013 62 4828 5.1 60 19:41 14.04.2020
4774 Haze 31 1013 62 4828 5.1 60 19:22 14.04.2020
4775 Mist 30 1013 74 4828 3.6 40 18:58 14.04.2020
4776 Mist 30 1013 74 4828 3.6 40 18:39 14.04.2020
4777 Mist 30 1013 74 4828 3.6 40 18:21 14.04.2020
4778 Mist 30 1013 74 4828 3.1 10 17:58 14.04.2020
4779 Mist 30 1013 74 4828 3.1 10 17:38 14.04.2020
4780 Mist 30 1013 74 4828 3.1 10 17:19 14.04.2020
4781 Mist 28 1013 88 4828 1.5 360 16:56 14.04.2020
4782 Mist 28 1013 88 4828 1.5 360 16:37 14.04.2020
4783 Mist 28 1013 88 4828 1.5 360 16:19 14.04.2020
4784 Mist 27 1013 94 3219 2.12 328 15:42 14.04.2020
4785 Mist 26 1013 94 3219 3.35 348 15:23 14.04.2020
4786 Mist 26 1012 100 4828 1 340 14:59 14.04.2020
4787 Mist 25 1012 100 4828 1 340 14:41 14.04.2020
4788 Mist 25 1012 100 4828 1 340 14:22 14.04.2020
4789 Mist 26 1011 94 4828 2.6 350 13:58 14.04.2020
4790 Mist 26 1011 94 4828 2.6 350 13:40 14.04.2020
4791 Mist 26 1011 94 4828 2.6 350 13:21 14.04.2020
4792 Clouds 26 1009 100 0 2.68 5 12:42 14.04.2020
4793 Clouds 26 1009 100 0 2.68 5 12:22 14.04.2020
4794 Clouds 27 1009 100 0 1.79 28 11:57 14.04.2020
4795 Clouds 27 1009 100 0 1.79 9 11:38 14.04.2020
4796 Clouds 27 1009 100 0 1.79 9 11:19 14.04.2020
4797 Clouds 27 1009 100 0 1.79 360 10:46 14.04.2020
4798 Clouds 27 1010 100 0 2.68 21 10:27 14.04.2020
4799 Clouds 27 1010 100 0 2.24 68 09:58 14.04.2020
4800 Clouds 27 1010 100 0 1.79 64 09:40 14.04.2020
4801 Clear 27 1010 100 0 1.79 64 09:21 14.04.2020
4802 Clear 27 1010 100 0 1.34 105 08:42 14.04.2020
4803 Clear 27 1011 100 0 1.79 130 08:24 14.04.2020
4804 Clear 27 1011 100 0 0.89 142 07:55 14.04.2020
4805 Clear 26 1013 89 0 1.29 287 07:31 14.04.2020
4806 Clear 26 1013 89 0 1.29 287 06:53 14.04.2020
4807 Clouds 27 1013 88 9656 2.36 350 06:27 14.04.2020
4808 Clouds 26 1013 88 0 2.36 350 04:43 14.04.2020
4809 Clouds 28 1009 78 8047 4.6 10 02:56 14.04.2020
4810 Clear 30 1009 74 9656 8.7 20 01:49 14.04.2020
4811 Clear 30 1009 74 9656 8.7 20 01:24 14.04.2020
4812 Clear 31 1009 66 9656 9.3 30 00:39 14.04.2020
4813 Clear 31 1009 66 9656 9.3 30 00:19 14.04.2020
4814 Clear 32 1009 52 11265 7.7 30 23:44 13.04.2020
4815 Clear 33 1009 52 11265 7.7 30 23:26 13.04.2020
4816 Clouds 34 1010 49 11265 5.1 10 22:59 13.04.2020
4817 Clouds 34 1010 49 11265 5.1 10 22:41 13.04.2020
4818 Clouds 35 1010 49 11265 5.1 10 22:22 13.04.2020
4819 Clouds 35 1011 47 11265 7.2 30 21:56 13.04.2020
4820 Clouds 35 1011 47 11265 7.2 30 21:37 13.04.2020
4821 Clouds 35 1011 47 11265 7.2 30 21:37 13.04.2020
4822 Clouds 35 1011 47 11265 7.2 30 21:37 13.04.2020
4823 Clouds 35 1011 47 11265 7.2 30 21:19 13.04.2020
4824 Clear 36 1011 39 11265 3.1 290 20:54 13.04.2020
4825 Clear 36 1011 39 11265 3.1 290 20:54 13.04.2020
4826 Clear 36 1011 39 11265 3.1 290 20:36 13.04.2020
4827 Clear 36 1011 39 11265 3.1 290 20:18 13.04.2020
4828 Clear 36 1011 39 11265 3.1 290 20:18 13.04.2020
4829 Clear 35 1012 44 11265 5.1 190 19:38 13.04.2020
4830 Clear 35 1012 44 11265 5.1 190 19:20 13.04.2020
4831 Clear 33 1012 52 11265 3.6 210 18:59 13.04.2020
4832 Clear 33 1012 52 11265 3.6 210 18:39 13.04.2020
4833 Clear 33 1012 52 11265 3.6 210 18:20 13.04.2020
4834 Clear 32 1012 55 11265 1 220 17:58 13.04.2020
4835 Clear 32 1012 55 11265 1 220 17:58 13.04.2020
4836 Clear 32 1012 55 11265 1 220 17:58 13.04.2020
4837 Clear 32 1012 55 11265 1 220 17:58 13.04.2020
4838 Clear 31 1012 55 11265 1 220 17:38 13.04.2020
4839 Clear 31 1012 55 11265 1 220 17:19 13.04.2020
4840 Clear 29 1011 65 11265 2.1 220 16:58 13.04.2020
4841 Clear 29 1011 65 11265 2.1 220 16:40 13.04.2020
4842 Clear 29 1011 65 11265 2.1 220 16:20 13.04.2020
4843 Mist 26 1010 73 11265 1.4 213 15:57 13.04.2020
4844 Mist 26 1010 73 11265 1.4 213 15:39 13.04.2020
4845 Mist 26 1010 73 11265 1.72 37 15:20 13.04.2020
4846 Mist 25 1009 73 9656 1 90 14:54 13.04.2020
4847 Mist 25 1009 73 9656 1 90 14:36 13.04.2020
4848 Mist 26 1009 73 9656 1 90 14:18 13.04.2020
4849 Mist 26 1009 73 9656 1 90 14:18 13.04.2020
4850 Clouds 25 1008 73 9656 2.6 20 13:54 13.04.2020
4851 Clouds 25 1008 73 9656 2.6 20 13:36 13.04.2020
4852 Clouds 25 1008 73 9656 2.6 20 13:18 13.04.2020
4853 Clouds 26 1006 100 0 2.18 23 12:40 13.04.2020
4854 Clear 26 1006 100 0 0.91 77 12:21 13.04.2020
4855 Clear 26 1006 100 0 0.91 77 12:21 13.04.2020
4856 Clear 25 1004 100 0 0.89 202 11:59 13.04.2020
4857 Clear 26 1004 100 0 0.89 202 11:41 13.04.2020
4858 Clear 25 1004 100 0 0.45 202 11:18 13.04.2020
4859 Clear 26 1004 100 0 0.45 202 10:55 13.04.2020
4860 Clear 26 1004 100 0 0.45 202 10:37 13.04.2020
4861 Clear 26 1004 100 0 0.89 202 10:18 13.04.2020
4862 Clear 27 1004 100 0 0.89 196 09:44 13.04.2020
4863 Clouds 27 1004 2 0 1.34 184 09:26 13.04.2020
4864 Clouds 27 1004 2 0 1.34 184 09:26 13.04.2020
4865 Clear 27 1005 7 0 1.34 200 08:48 13.04.2020
4866 Clear 28 1005 10 0 1.34 196 08:29 13.04.2020
4867 Clear 28 1005 14 0 1.34 201 07:58 13.04.2020
4868 Clear 28 1005 20 0 2.24 212 07:38 13.04.2020
4869 Clouds 29 1006 55 8047 5.1 180 07:19 13.04.2020
4870 Clouds 30 1006 55 8047 5.1 180 06:46 13.04.2020
4871 Clouds 31 1005 52 8047 5.1 200 05:53 13.04.2020
4872 Clouds 31 1005 52 8047 5.1 200 05:27 13.04.2020
4873 Clouds 32 1004 49 8047 5.1 180 04:50 13.04.2020
4874 Clouds 32 1004 49 8047 5.1 180 04:20 13.04.2020
4875 Clouds 35 1003 41 8047 4.1 180 03:44 13.04.2020
4876 Clouds 36 1002 37 8047 1.5 150 02:48 13.04.2020
4877 Clouds 36 1001 44 8047 2.6 140 01:49 13.04.2020
4878 Clouds 36 1001 44 8047 2.6 140 01:30 13.04.2020
4879 Clouds 38 1001 42 8047 3.6 100 00:53 13.04.2020
4880 Clouds 38 1001 42 8047 3.6 100 00:31 13.04.2020
4881 Clouds 38 1001 42 8047 2.6 140 23:58 12.04.2020
4882 Clouds 38 1001 42 8047 2.6 140 23:40 12.04.2020
4883 Clouds 38 1001 42 8047 2.6 140 23:21 12.04.2020
4884 Clouds 38 1002 42 8047 3.1 120 22:55 12.04.2020
4885 Clouds 38 1002 42 8047 3.1 120 22:36 12.04.2020
4886 Clouds 38 1002 42 8047 3.1 120 22:18 12.04.2020
4887 Clouds 38 1003 42 8047 7.7 180 21:38 12.04.2020
4888 Clouds 38 1003 42 8047 7.7 180 21:20 12.04.2020
4889 Clouds 37 1004 42 8047 6.2 160 20:54 12.04.2020
4890 Clouds 38 1004 42 8047 6.2 160 20:36 12.04.2020
4891 Clouds 37 1004 42 8047 6.2 160 20:18 12.04.2020
4892 Clouds 35 1005 52 8047 5.7 170 19:41 12.04.2020
4893 Clouds 33 1006 62 8047 4.1 210 19:20 12.04.2020
4894 Clouds 32 1006 62 8047 4.1 210 18:58 12.04.2020
4895 Clouds 32 1006 62 8047 4.1 210 18:39 12.04.2020
4896 Clouds 30 1006 70 8047 4.6 190 18:19 12.04.2020
4897 Clouds 30 1006 70 8047 4.6 190 17:55 12.04.2020
4898 Clouds 30 1006 70 8047 4.6 190 17:37 12.04.2020
4899 Clouds 30 1006 70 8047 4.6 190 17:37 12.04.2020
4900 Clouds 30 1006 70 8047 4.6 190 17:18 12.04.2020
4901 Clouds 27 1006 83 8047 3.6 200 16:41 12.04.2020
4902 Clouds 27 1006 83 8047 3.6 200 16:22 12.04.2020
4903 Clear 25 1005 88 8047 5.02 177 15:53 12.04.2020
4904 Clear 25 1005 88 8047 5.02 177 15:35 12.04.2020
4905 Clear 24 1005 94 8047 5.25 182 14:58 12.04.2020
4906 Clear 23 1005 94 8047 5.12 181 14:39 12.04.2020
4907 Clear 23 1005 94 8047 5.12 181 14:20 12.04.2020
4908 Clear 24 1005 88 8047 5.12 181 13:56 12.04.2020
4909 Clear 24 1005 88 8047 5.12 181 13:36 12.04.2020
4910 Clear 24 1005 88 8047 5.12 181 13:18 12.04.2020
4911 Clear 24 1003 100 0 0.45 192 12:45 12.04.2020
4912 Clear 24 1003 100 0 0.45 192 12:21 12.04.2020
4913 Clear 25 1003 100 0 5.97 167 11:58 12.04.2020
4914 Clear 25 1003 100 0 5.97 167 11:37 12.04.2020
4915 Clear 25 1003 100 0 5.97 167 11:18 12.04.2020
4916 Clear 26 1004 100 0 0.89 194 10:55 12.04.2020
4917 Clear 26 1004 100 0 1.34 191 10:37 12.04.2020
4918 Clear 26 1004 100 0 1.34 197 10:19 12.04.2020
4919 Clear 26 1004 100 0 1.34 200 09:55 12.04.2020
4920 Clear 26 1004 100 0 1.79 183 09:37 12.04.2020
4921 Clouds 26 1005 100 0 1.34 186 09:19 12.04.2020
4922 Clouds 26 1005 100 0 1.68 153 08:47 12.04.2020
4923 Clouds 27 1005 100 0 0.89 192 08:28 12.04.2020
4924 Clouds 28 1006 100 0 0.89 155 07:46 12.04.2020
4925 Clear 27 1008 88 8047 1.68 153 07:19 12.04.2020
4926 Clear 27 1008 88 8047 1.68 153 06:37 12.04.2020
4927 Clear 28 1007 83 8047 0.88 60 06:00 12.04.2020
4928 Clear 28 1007 83 8047 0.88 60 05:41 12.04.2020
4929 Clear 28 1007 83 8047 1 110 04:25 12.04.2020
4930 Clear 29 1006 79 6437 1.5 90 03:25 12.04.2020
4931 Clear 30 1006 70 8047 2.6 110 02:47 12.04.2020
4932 Clear 30 1006 70 8047 2.6 110 02:27 12.04.2020
4933 Clear 31 1006 70 8047 2.1 100 01:21 12.04.2020
4934 Clear 32 1006 62 8047 2.6 60 00:42 12.04.2020
4935 Clear 32 1006 62 8047 2.6 60 00:20 12.04.2020
4936 Clear 32 1007 70 8047 2.6 110 23:47 11.04.2020
4937 Clear 31 1007 70 8047 2.6 110 23:26 11.04.2020
4938 Clear 32 1008 66 8047 3.1 90 22:57 11.04.2020
4939 Clear 32 1008 66 8047 3.1 90 22:36 11.04.2020
4940 Clear 32 1008 66 8047 3.1 90 22:18 11.04.2020
4941 Clouds 32 1009 66 6437 5.1 90 21:54 11.04.2020
4942 Clouds 32 1009 66 6437 5.1 90 21:36 11.04.2020
4943 Clouds 32 1009 66 6437 5.1 90 21:18 11.04.2020
4944 Clouds 32 1011 66 6437 2.6 100 20:54 11.04.2020
4945 Clouds 32 1011 66 6437 2.6 100 20:36 11.04.2020
4946 Clouds 33 1011 66 6437 2.6 100 20:18 11.04.2020
4947 Clouds 32 1012 70 6437 3.59 93 19:54 11.04.2020
4948 Clouds 32 1012 70 6437 3.59 93 19:36 11.04.2020
4949 Clouds 31 1012 70 6437 3.59 93 19:18 11.04.2020
4950 Clouds 30 1012 79 6437 2.1 30 18:54 11.04.2020
4951 Clouds 30 1012 79 6437 2.1 30 18:54 11.04.2020
4952 Clouds 30 1012 79 6437 2.1 30 18:36 11.04.2020
4953 Clouds 30 1012 79 6437 2.1 30 18:18 11.04.2020
4954 Clouds 29 1012 79 6437 2.1 30 18:18 11.04.2020
4955 Haze 29 1012 83 4828 3.1 340 17:55 11.04.2020
4956 Haze 28 1012 83 4828 3.1 340 17:36 11.04.2020
4957 Haze 28 1012 83 4828 3.1 340 17:18 11.04.2020
4958 Mist 28 1012 88 4828 1.5 340 16:41 11.04.2020
4959 Mist 28 1012 88 4828 1.5 340 16:21 11.04.2020
4960 Mist 27 1011 94 4828 2.6 20 15:40 11.04.2020
4961 Mist 27 1011 94 4828 2.6 20 15:40 11.04.2020
4962 Mist 27 1011 94 4828 2.6 20 15:20 11.04.2020
4963 Mist 27 1011 94 6437 2.1 20 14:44 11.04.2020
4964 Mist 27 1011 94 6437 2.1 20 14:26 11.04.2020
4965 Mist 26 1010 94 4828 0.77 59 14:00 11.04.2020
4966 Mist 26 1010 94 4828 0.77 59 13:41 11.04.2020
4967 Mist 26 1010 94 4828 0.77 59 13:22 11.04.2020
4968 Clear 26 1008 100 0 0.45 263 12:43 11.04.2020
4969 Clear 26 1008 100 0 0.45 263 12:22 11.04.2020
4970 Clear 26 1008 100 0 0.98 274 11:59 11.04.2020
4971 Clear 27 1008 100 0 0.45 168 11:40 11.04.2020
4972 Clear 26 1008 100 0 0.45 167 11:20 11.04.2020
4973 Clear 26 1008 100 0 0.98 274 10:56 11.04.2020
4974 Clear 26 1008 100 0 0.98 274 10:36 11.04.2020
4975 Clear 27 1008 100 0 0.98 274 10:18 11.04.2020
4976 Clear 27 1008 100 0 0.98 274 09:41 11.04.2020
4977 Clouds 27 1009 100 0 1.05 200 09:22 11.04.2020
4978 Clouds 27 1009 100 0 1.05 200 08:59 11.04.2020
4979 Clouds 27 1009 100 0 1.05 200 08:41 11.04.2020
4980 Clouds 27 1009 100 0 0.45 129 08:23 11.04.2020
4981 Clouds 27 1009 100 0 0.45 129 07:42 11.04.2020
4982 Clouds 28 1011 83 6437 1.05 200 07:23 11.04.2020
4983 Clouds 28 1011 83 6437 1.05 200 06:37 11.04.2020
4984 Clouds 28 1010 83 6437 1.72 15 05:57 11.04.2020
4985 Mist 28 1009 83 3219 2.6 60 03:57 11.04.2020
4986 Smoke 28 1009 83 1609 5.1 60 02:53 11.04.2020
4987 Haze 30 1008 74 4828 7.2 30 01:27 11.04.2020
4988 Haze 30 1008 74 4828 7.7 30 00:57 11.04.2020
4989 Haze 30 1008 74 4828 7.7 30 00:38 11.04.2020
4990 Haze 30 1008 74 4828 7.7 30 00:18 11.04.2020
4991 Haze 31 1008 70 4828 9.3 20 23:42 10.04.2020
4992 Haze 31 1008 70 4828 9.3 20 23:19 10.04.2020
4993 Haze 32 1009 63 4828 10.8 10 22:58 10.04.2020
4994 Haze 32 1009 63 4828 10.8 10 22:38 10.04.2020
4995 Haze 33 1009 63 4828 10.8 10 22:20 10.04.2020
4996 Haze 32 1010 66 4828 9.3 10 21:42 10.04.2020
4997 Haze 32 1010 66 4828 9.3 10 21:21 10.04.2020
4998 Mist 32 1011 66 4828 8.2 360 20:59 10.04.2020
4999 Mist 32 1011 66 4828 8.2 360 20:40 10.04.2020
5000 Mist 32 1011 66 4828 8.2 360 20:20 10.04.2020
5001 Mist 32 1011 62 4828 9.3 50 19:56 10.04.2020
5002 Mist 32 1011 62 4828 9.3 50 19:38 10.04.2020
5003 Mist 32 1011 62 4828 9.3 50 19:19 10.04.2020
5004 Mist 32 1012 55 4828 6.2 60 18:56 10.04.2020
5005 Mist 32 1012 55 4828 6.2 60 18:38 10.04.2020
5006 Mist 32 1012 55 4828 6.2 60 18:19 10.04.2020
5007 Mist 31 1010 62 4828 2.6 10 17:57 10.04.2020
5008 Mist 31 1010 62 4828 2.6 10 17:39 10.04.2020
5009 Mist 31 1010 62 4828 2.6 10 17:19 10.04.2020
5010 Clear 29 1009 69 6437 1.43 9 16:44 10.04.2020
5011 Clear 28 1009 69 6437 1.43 9 16:23 10.04.2020
5012 Mist 27 1008 88 4828 1.43 9 15:59 10.04.2020
5013 Mist 26 1008 88 4828 1.43 9 15:39 10.04.2020
5014 Mist 26 1008 88 4828 2.47 182 15:21 10.04.2020
5015 Mist 25 1007 94 4828 2.47 182 14:59 10.04.2020
5016 Mist 25 1007 94 4828 2.34 164 14:40 10.04.2020
5017 Mist 25 1007 94 4828 2.34 164 14:21 10.04.2020
5018 Clouds 25 1007 94 8047 2.34 164 13:49 10.04.2020
5019 Clouds 25 1007 94 8047 2.34 164 13:23 10.04.2020
5020 Clear 26 1005 100 0 0.45 180 12:59 10.04.2020
5021 Clear 26 1005 100 0 0.45 180 12:59 10.04.2020
5022 Clear 26 1005 100 0 2.34 164 12:41 10.04.2020
5023 Clouds 26 1005 100 0 2.79 170 12:21 10.04.2020
5024 Clouds 26 1005 100 0 0.45 232 11:43 10.04.2020
5025 Clouds 26 1005 100 0 2.79 170 11:24 10.04.2020
5026 Clouds 26 1005 100 0 0.89 232 10:58 10.04.2020
5027 Clouds 26 1005 100 0 0.45 232 10:39 10.04.2020
5028 Clouds 26 1005 100 0 0.45 231 10:21 10.04.2020
5029 Clouds 27 1006 100 0 0.89 211 09:43 10.04.2020
5030 Clouds 27 1006 100 0 0.89 207 09:23 10.04.2020
5031 Clouds 27 1006 100 0 0.89 178 08:50 10.04.2020
5032 Clouds 27 1007 100 0 0.89 188 08:27 10.04.2020
5033 Clouds 27 1007 100 0 0.89 188 08:27 10.04.2020
5034 Clouds 27 1007 100 0 1.34 192 07:57 10.04.2020
5035 Clouds 28 1007 100 0 1.79 206 07:39 10.04.2020
5036 Clouds 27 1010 88 8047 1.5 150 07:20 10.04.2020
5037 Clouds 27 1010 88 8047 1.5 150 06:38 10.04.2020
5038 Clouds 27 1010 88 8047 1.5 150 06:19 10.04.2020
5039 Clouds 27 1009 88 8047 1.04 19 05:29 10.04.2020
5040 Clouds 28 1008 83 8047 1.5 50 04:55 10.04.2020
5041 Clouds 28 1008 83 6437 2.1 10 03:35 10.04.2020
5042 Clouds 29 1008 79 6437 4.6 10 02:51 10.04.2020
5043 Clouds 29 1008 79 6437 4.6 10 02:33 10.04.2020
5044 Clear 30 1007 70 8047 3.1 80 01:47 10.04.2020
5045 Clear 31 1007 70 8047 3.1 80 01:27 10.04.2020
5046 Clouds 31 1007 66 8047 5.1 70 00:46 10.04.2020
5047 Clouds 32 1006 100 0 4.02 55 00:20 10.04.2020
5048 Clouds 32 1008 59 8047 3.6 80 23:42 09.04.2020
5049 Clouds 32 1008 59 8047 3.6 80 23:24 09.04.2020
5050 Clouds 32 1009 62 6437 5.7 80 22:57 09.04.2020
5051 Clouds 32 1009 62 6437 5.7 80 22:39 09.04.2020
5052 Clouds 32 1009 62 6437 5.7 80 22:21 09.04.2020
5053 Clouds 32 1010 66 6437 5.1 60 21:38 09.04.2020
5054 Clouds 32 1010 66 6437 5.1 60 21:20 09.04.2020
5055 Haze 32 1011 70 4828 4.1 70 20:47 09.04.2020
5056 Haze 32 1011 70 4828 4.1 70 20:23 09.04.2020
5057 Haze 31 1012 70 4828 4.1 90 19:59 09.04.2020
5058 Haze 32 1012 70 4828 4.1 90 19:39 09.04.2020
5059 Haze 31 1012 70 4828 4.1 90 19:20 09.04.2020
5060 Haze 31 1012 74 4828 1.5 90 18:42 09.04.2020
5061 Haze 30 1012 74 4828 1.5 90 18:21 09.04.2020
5062 Mist 30 1013 79 4828 2.1 70 17:58 09.04.2020
5063 Mist 30 1013 79 4828 2.1 70 17:39 09.04.2020
5064 Mist 29 1013 79 4828 2.1 70 17:19 09.04.2020
5065 Mist 29 1013 79 4828 2.1 70 17:19 09.04.2020
5066 Mist 27 1012 94 3219 0.71 34 16:40 09.04.2020
5067 Mist 27 1012 94 3219 0.71 34 16:20 09.04.2020
5068 Mist 25 1011 100 3219 1.5 40 15:56 09.04.2020
5069 Mist 25 1011 100 3219 1.5 40 15:37 09.04.2020
5070 Mist 25 1011 100 3219 1.5 40 15:19 09.04.2020
5071 Mist 24 1011 100 3219 1.31 81 14:42 09.04.2020
5072 Mist 24 1011 100 3219 1.36 86 14:21 09.04.2020
5073 Mist 24 1010 100 4828 1.36 86 13:58 09.04.2020
5074 Mist 24 1010 100 4828 1.36 86 13:40 09.04.2020
5075 Mist 24 1010 100 4828 1.36 86 13:22 09.04.2020
5076 Clouds 24 1009 100 0 1.36 86 12:54 09.04.2020
5077 Clouds 24 1009 100 0 0.45 240 12:36 09.04.2020
5078 Clouds 24 1009 100 0 0.45 240 12:18 09.04.2020
5079 Clouds 24 1009 100 0 0.81 265 11:42 09.04.2020
5080 Clouds 25 1009 100 0 0.45 240 11:20 09.04.2020
5081 Clouds 25 1009 100 0 0.45 240 11:20 09.04.2020
5082 Clouds 25 1009 100 0 0.45 240 10:58 09.04.2020
5083 Clouds 25 1009 100 0 0.45 240 10:40 09.04.2020
5084 Clouds 25 1009 100 0 0.81 265 10:21 09.04.2020
5085 Clouds 25 1010 100 0 0.81 265 09:56 09.04.2020
5086 Clouds 25 1010 100 0 0.51 212 09:38 09.04.2020
5087 Clouds 26 1010 100 0 0.89 350 09:20 09.04.2020
5088 Clouds 26 1011 100 0 0.77 323 08:44 09.04.2020
5089 Clouds 26 1011 100 0 0.77 323 08:23 09.04.2020
5090 Clouds 27 1011 100 0 0.77 323 07:55 09.04.2020
5091 Clouds 27 1011 100 0 0.89 355 07:27 09.04.2020
5092 Clouds 27 1013 88 9656 0.77 323 06:55 09.04.2020
5093 Clouds 27 1013 88 9656 2.62 350 06:18 09.04.2020
5094 Clouds 27 1012 88 9656 2.1 70 05:39 09.04.2020
5095 Clouds 28 1010 83 9656 2.6 70 03:50 09.04.2020
5096 Mist 29 1009 83 9656 2.6 90 02:27 09.04.2020
5097 Clouds 30 1009 79 9656 4.1 80 01:41 09.04.2020
5098 Clouds 30 1009 79 9656 4.1 80 01:20 09.04.2020
5099 Clouds 31 1009 66 9656 4.6 90 00:41 09.04.2020
5100 Clouds 31 1009 66 9656 4.6 90 00:20 09.04.2020
5101 Clouds 32 1010 62 8047 4.1 70 23:58 08.04.2020
5102 Clouds 32 1010 62 8047 4.1 70 23:40 08.04.2020
5103 Clouds 32 1010 62 8047 4.1 70 23:20 08.04.2020
5104 Haze 33 1010 63 8047 5.7 70 22:43 08.04.2020
5105 Haze 33 1010 63 8047 5.7 70 22:24 08.04.2020
5106 Haze 32 1012 66 8047 3.1 90 21:56 08.04.2020
5107 Haze 33 1012 66 8047 3.1 90 21:37 08.04.2020
5108 Haze 33 1012 66 8047 3.1 90 21:19 08.04.2020
5109 Haze 32 1013 66 8047 3.6 110 20:57 08.04.2020
5110 Haze 32 1013 66 8047 3.6 110 20:38 08.04.2020
5111 Haze 32 1013 70 6437 1 130 20:19 08.04.2020
5112 Haze 32 1013 70 6437 1 130 19:42 08.04.2020
5113 Haze 31 1013 70 6437 1 130 19:22 08.04.2020
5114 Haze 31 1013 79 6437 2.6 100 18:56 08.04.2020
5115 Haze 31 1013 79 6437 2.6 100 18:38 08.04.2020
5116 Haze 30 1013 79 6437 2.6 100 18:19 08.04.2020
5117 Haze 30 1014 70 4828 2.6 70 17:43 08.04.2020
5118 Haze 30 1014 70 4828 2.6 70 17:22 08.04.2020
5119 Haze 30 1014 70 4828 2.6 70 17:22 08.04.2020
5120 Mist 29 1013 83 4828 2.6 20 16:59 08.04.2020
5121 Mist 29 1013 83 4828 2.6 20 16:40 08.04.2020
5122 Mist 28 1013 83 4828 2.6 20 16:22 08.04.2020
5123 Clear 27 1011 100 0 1.79 20 15:39 08.04.2020
5124 Clear 27 1011 100 0 1.79 20 15:39 08.04.2020
5125 Mist 25 1012 94 3219 2.1 30 15:21 08.04.2020
5126 Mist 25 1012 94 3219 2.1 30 14:59 08.04.2020
5127 Mist 25 1012 94 3219 2.1 30 14:41 08.04.2020
5128 Mist 25 1012 94 3219 2.1 30 14:22 08.04.2020
5129 Mist 24 1011 100 4828 1 330 13:44 08.04.2020
5130 Mist 24 1011 100 4828 1 330 13:44 08.04.2020
5131 Mist 24 1011 100 4828 1 330 13:21 08.04.2020
5132 Mist 24 1011 100 4828 1 330 13:21 08.04.2020
5133 Clouds 24 1009 100 0 1.83 98 12:58 08.04.2020
5134 Clouds 24 1009 100 0 1.83 98 12:39 08.04.2020
5135 Clear 24 1009 100 0 0.87 207 12:18 08.04.2020
5136 Clear 24 1009 100 0 0.87 207 12:18 08.04.2020
5137 Clear 25 1009 100 0 0.87 207 11:42 08.04.2020
5138 Clear 25 1009 100 0 0.87 207 11:42 08.04.2020
5139 Clear 24 1009 100 0 0.45 158 11:23 08.04.2020
5140 Clear 25 1009 100 0 0.45 148 10:59 08.04.2020
5141 Clear 25 1009 100 0 0.45 104 10:41 08.04.2020
5142 Clear 25 1009 100 0 0.89 104 10:21 08.04.2020
5143 Clear 25 1009 100 0 0.87 207 09:59 08.04.2020
5144 Clear 25 1009 100 0 0.87 207 09:59 08.04.2020
5145 Clear 25 1010 100 0 0.87 207 09:41 08.04.2020
5146 Clouds 26 1010 100 0 0.94 204 09:19 08.04.2020
5147 Clouds 25 1010 100 0 0.94 204 08:57 08.04.2020
5148 Clouds 25 1010 100 0 0.94 204 08:38 08.04.2020
5149 Clouds 26 1010 100 0 0.94 204 08:20 08.04.2020
5150 Clouds 26 1011 100 0 0.94 204 07:43 08.04.2020
5151 Clouds 26 1011 100 0 0.94 204 07:21 08.04.2020
5152 Clear 27 1013 88 8047 0.45 65 06:29 08.04.2020
5153 Clear 27 1012 88 8047 1.5 260 04:58 08.04.2020
5154 Clouds 29 1011 79 8047 2.1 110 02:50 08.04.2020
5155 Clouds 29 1011 79 8047 2.1 110 02:22 08.04.2020
5156 Clouds 30 1011 70 8047 4.1 80 01:56 08.04.2020
5157 Clouds 30 1011 70 8047 4.1 80 01:28 08.04.2020
5158 Clouds 30 1011 70 8047 4.1 80 01:28 08.04.2020
5159 Clouds 30 1011 70 8047 4.6 80 00:47 08.04.2020
5160 Clouds 31 1011 70 8047 4.6 80 00:25 08.04.2020
5161 Clouds 32 1012 62 8047 2.6 70 23:56 07.04.2020
5162 Clouds 32 1012 62 8047 2.6 70 23:37 07.04.2020
5163 Clouds 32 1012 62 8047 2.6 70 23:18 07.04.2020
5164 Clouds 31 1013 70 8047 4.1 80 22:54 07.04.2020
5165 Clouds 31 1013 70 8047 4.1 80 22:54 07.04.2020
5166 Clouds 32 1013 70 8047 4.1 80 22:36 07.04.2020
5167 Clouds 32 1013 70 8047 4.1 80 22:18 07.04.2020
5168 Clouds 32 1014 70 8047 3.1 100 21:42 07.04.2020
5169 Clouds 31 1014 70 8047 3.1 100 21:21 07.04.2020
5170 Clouds 30 1015 79 8047 4.1 60 20:58 07.04.2020
5171 Clouds 30 1015 79 8047 4.1 60 20:39 07.04.2020
5172 Clouds 30 1015 79 8047 4.1 60 20:21 07.04.2020
5173 Clouds 30 1016 70 9656 3.6 40 19:57 07.04.2020
5174 Clouds 30 1016 70 9656 3.6 40 19:38 07.04.2020
5175 Clouds 30 1016 70 8047 2.6 20 19:19 07.04.2020
5176 Clouds 30 1016 70 8047 2.6 20 18:58 07.04.2020
5177 Clouds 30 1016 70 8047 2.6 20 18:58 07.04.2020
5178 Clouds 30 1016 70 8047 2.6 20 18:39 07.04.2020
5179 Clouds 30 1016 70 8047 2.6 20 18:20 07.04.2020
5180 Clouds 30 1016 74 8047 3.1 50 17:46 07.04.2020
5181 Clouds 30 1016 74 8047 3.1 50 17:24 07.04.2020
5182 Clouds 28 1015 83 8047 2.6 50 16:54 07.04.2020
5183 Clouds 28 1014 100 0 1.79 63 16:36 07.04.2020
5184 Clouds 27 1014 94 8047 1.5 360 16:18 07.04.2020
5185 Clouds 27 1014 94 8047 1.5 360 15:42 07.04.2020
5186 Clouds 27 1014 94 8047 1.49 72 15:23 07.04.2020
5187 Clouds 27 1014 94 8047 1.49 72 15:23 07.04.2020
5188 Clouds 26 1014 94 8047 1.38 81 14:42 07.04.2020
5189 Clouds 26 1014 94 8047 1.49 72 14:23 07.04.2020
5190 Clouds 26 1013 94 8047 1.38 81 13:57 07.04.2020
5191 Clouds 26 1013 94 8047 1.38 81 13:39 07.04.2020
5192 Clouds 26 1013 94 8047 1.38 81 13:18 07.04.2020
5193 Clear 26 1011 100 0 0.89 169 12:55 07.04.2020
5194 Clear 26 1011 100 0 0.45 156 12:36 07.04.2020
5195 Clear 26 1011 100 0 1.63 21 12:18 07.04.2020
5196 Clear 26 1011 100 0 0.45 156 11:44 07.04.2020
5197 Clear 26 1011 100 0 1.63 21 11:26 07.04.2020
5198 Clear 26 1011 100 0 1.63 21 11:26 07.04.2020
5199 Clear 26 1011 100 0 1.63 21 10:59 07.04.2020
5200 Clear 26 1011 100 0 0.45 173 10:38 07.04.2020
5201 Clear 26 1011 100 0 0.89 173 10:19 07.04.2020
5202 Clear 26 1012 100 0 1.63 21 09:45 07.04.2020
5203 Clear 26 1012 100 0 1.11 315 09:19 07.04.2020
5204 Clear 26 1012 100 0 0.45 130 08:56 07.04.2020
5205 Clear 26 1012 100 0 1.11 315 08:38 07.04.2020
5206 Clear 26 1012 100 0 1.34 130 08:18 07.04.2020
5207 Clear 27 1013 100 0 1.11 315 07:41 07.04.2020
5208 Clouds 27 1014 94 9656 1.5 60 07:21 07.04.2020
5209 Clouds 27 1014 94 9656 1.5 60 06:51 07.04.2020
5210 Clouds 27 1014 94 9656 1.5 60 06:23 07.04.2020
5211 Clear 27 1013 83 9656 1 60 05:43 07.04.2020
5212 Clear 27 1013 83 9656 1 60 05:22 07.04.2020
5213 Clear 28 1010 78 8047 4.1 80 03:32 07.04.2020
5214 Clear 29 1010 66 9656 4.1 110 02:59 07.04.2020
5215 Clear 30 1010 62 9656 4.6 80 01:58 07.04.2020
5216 Clear 31 1010 62 9656 4.6 80 01:32 07.04.2020
5217 Clear 31 1010 62 9656 2.6 110 00:29 07.04.2020
5218 Clear 32 1011 55 8047 1 110 23:57 06.04.2020
5219 Clear 32 1011 55 8047 1 110 23:38 06.04.2020
5220 Clear 32 1011 55 8047 1 110 23:20 06.04.2020
5221 Clear 32 1012 59 8047 2.1 60 22:41 06.04.2020
5222 Clear 32 1012 59 8047 2.1 60 22:22 06.04.2020
5223 Clouds 32 1013 62 8047 4.1 100 21:58 06.04.2020
5224 Clouds 32 1013 62 8047 4.1 100 21:40 06.04.2020
5225 Clouds 31 1013 62 8047 4.1 100 21:19 06.04.2020
5226 Clouds 31 1014 66 6437 2.1 70 20:56 06.04.2020
5227 Clouds 31 1014 66 6437 2.1 70 20:37 06.04.2020
5228 Clouds 31 1014 66 6437 2.1 70 20:19 06.04.2020
5229 Clouds 30 1014 74 6437 2.1 90 19:42 06.04.2020
5230 Clouds 30 1014 74 6437 2.1 90 19:23 06.04.2020
5231 Clouds 30 1015 70 6437 2.6 100 18:59 06.04.2020
5232 Clouds 30 1015 70 6437 2.6 100 18:40 06.04.2020
5233 Clouds 30 1015 70 6437 2.6 100 18:22 06.04.2020
5234 Clouds 30 1015 70 6437 3.1 10 17:55 06.04.2020
5235 Clouds 30 1015 70 6437 3.1 10 17:36 06.04.2020
5236 Clouds 30 1015 70 6437 3.1 10 17:36 06.04.2020
5237 Clouds 29 1015 70 6437 3.1 10 17:18 06.04.2020
5238 Mist 27 1015 88 6437 1 80 16:44 06.04.2020
5239 Mist 27 1015 88 6437 1 80 16:26 06.04.2020
5240 Mist 23 1013 100 6437 1.34 16 14:45 06.04.2020
5241 Mist 23 1013 100 6437 1.34 16 14:45 06.04.2020
5242 Mist 23 1013 100 6437 1.34 16 14:45 06.04.2020
5243 Mist 23 1013 100 6437 1.34 16 14:45 06.04.2020
5244 Mist 23 1013 100 6437 1.34 16 14:45 06.04.2020
5245 Clear 23 1012 100 8047 1.02 31 13:44 06.04.2020
5246 Clear 23 1012 100 8047 1.02 31 13:44 06.04.2020
5247 Clear 23 1012 100 8047 1.02 31 13:44 06.04.2020
5248 Clear 23 1012 100 8047 1.02 31 13:44 06.04.2020
5249 Clear 23 1012 100 8047 1.02 31 13:44 06.04.2020
5250 Clear 23 1012 100 8047 1.02 31 13:20 06.04.2020
5251 Clear 23 1012 100 8047 1.02 31 13:20 06.04.2020
5252 Clear 23 1012 100 8047 1.02 31 13:20 06.04.2020
5253 Clear 23 1012 100 8047 1.02 31 13:20 06.04.2020
5254 Clouds 23 1010 100 0 0.45 250 12:26 06.04.2020
5255 Clouds 23 1010 100 0 0.45 250 12:26 06.04.2020
5256 Clouds 23 1010 100 0 0.45 250 12:26 06.04.2020
5257 Clear 24 1010 100 0 0.45 250 11:59 06.04.2020
5258 Clear 24 1010 100 0 0.45 248 11:38 06.04.2020
5259 Clear 24 1010 100 0 0.45 248 11:36 06.04.2020
5260 Clear 24 1010 100 0 0.45 248 11:36 06.04.2020
5261 Clear 24 1010 100 0 0.45 248 11:36 06.04.2020
5262 Clear 24 1010 100 0 0.45 248 11:36 06.04.2020
5263 Clear 25 1010 100 0 1.61 346 10:52 06.04.2020
5264 Clear 25 1010 100 0 1.61 346 10:52 06.04.2020
5265 Clear 25 1010 100 0 1.61 346 10:52 06.04.2020
5266 Clear 25 1010 100 0 1.61 346 10:52 06.04.2020
5267 Clear 25 1010 100 0 1.61 346 10:52 06.04.2020
5268 Clear 26 1011 100 0 1.61 346 10:23 06.04.2020
5269 Clear 26 1011 100 0 1.61 346 10:22 06.04.2020
5270 Clear 26 1011 100 0 0.45 343 09:52 06.04.2020
5271 Clear 26 1011 100 0 0.45 343 09:52 06.04.2020
5272 Clear 26 1011 100 0 0.45 343 09:52 06.04.2020
5273 Clear 26 1011 100 0 0.45 343 09:51 06.04.2020
5274 Clear 26 1011 100 0 0.89 343 09:24 06.04.2020
5275 Clouds 26 1012 100 0 1.34 360 08:55 06.04.2020
5276 Clouds 26 1012 100 0 1.34 360 08:33 06.04.2020
5277 Clouds 26 1012 100 0 1.34 360 08:33 06.04.2020
5278 Clouds 27 1012 100 0 1.79 22 07:54 06.04.2020
5279 Clouds 26 1013 88 9656 4.1 10 06:57 06.04.2020
5280 Clouds 26 1013 88 9656 4.1 10 06:25 06.04.2020
5281 Clouds 26 1012 94 9656 5.7 10 04:50 06.04.2020
5282 Clouds 26 1012 94 9656 5.7 10 04:50 06.04.2020
5283 Clouds 27 1011 83 6437 5.1 360 03:27 06.04.2020
5284 Clouds 27 1010 88 6437 7.2 20 02:48 06.04.2020
5285 Clouds 28 1010 83 6437 9.3 10 01:52 06.04.2020
5286 Clouds 28 1010 83 6437 9.3 10 01:52 06.04.2020
5287 Clouds 30 1010 74 6437 6.2 360 00:49 06.04.2020
5288 Clouds 30 1010 74 6437 6.2 360 00:26 06.04.2020
5289 Clouds 30 1010 70 6437 6.2 360 23:47 05.04.2020
5290 Clouds 31 1010 70 6437 6.2 360 23:29 05.04.2020
5291 Clouds 31 1010 70 6437 6.2 360 23:29 05.04.2020
5292 Clouds 31 1010 70 6437 6.2 360 23:29 05.04.2020
5293 Clouds 31 1011 70 8047 7.7 40 22:56 05.04.2020
5294 Clouds 30 1011 70 8047 7.7 40 22:38 05.04.2020
5295 Clouds 31 1011 70 8047 7.7 40 22:19 05.04.2020
5296 Clouds 31 1012 66 6437 7.7 10 21:57 05.04.2020
5297 Clouds 31 1012 66 6437 7.7 10 21:39 05.04.2020
5298 Clouds 31 1012 66 6437 7.7 10 21:20 05.04.2020
5299 Clouds 31 1012 66 6437 7.7 10 21:20 05.04.2020
5300 Clouds 31 1012 66 6437 7.7 10 21:20 05.04.2020
5301 Mist 31 1012 74 4828 8.2 30 20:20 05.04.2020
5302 -273 0 0 0 0 0 20:20 05.04.2020
5303 Mist 31 1012 74 4828 8.2 30 20:20 05.04.2020
5304 Mist 31 1012 74 4828 8.2 30 20:20 05.04.2020
5305 Mist 31 1012 74 4828 8.2 30 20:20 05.04.2020
5306 Mist 31 1013 70 4828 6.2 20 19:38 05.04.2020
5307 Mist 31 1013 70 4828 6.2 20 19:20 05.04.2020
5308 Mist 30 1013 79 4828 6.2 20 18:44 05.04.2020
5309 Mist 30 1013 79 4828 6.2 20 18:44 05.04.2020
5310 Mist 30 1013 79 4828 6.2 20 18:44 05.04.2020
5311 Mist 30 1013 79 4828 6.2 20 18:44 05.04.2020
5312 Mist 30 1013 79 4828 6.2 20 18:44 05.04.2020
5313 Mist 29 1012 79 4828 5.7 30 17:56 05.04.2020
5314 Mist 29 1012 79 4828 5.7 30 17:56 05.04.2020
5315 Mist 29 1012 79 4828 5.7 30 17:56 05.04.2020
5316 Mist 30 1012 79 4828 5.7 30 17:36 05.04.2020
5317 Mist 29 1012 79 4828 5.7 30 17:17 05.04.2020
5318 Mist 29 1012 79 4828 5.7 30 17:17 05.04.2020
5319 Mist 29 1012 79 4828 5.7 30 17:17 05.04.2020
5320 Mist 29 1012 79 4828 5.7 30 17:07 05.04.2020
5321 Mist 29 1012 79 4828 5.7 30 17:07 05.04.2020
5322 Mist 27 1011 88 4828 2.1 360 16:20 05.04.2020
5323 Mist 27 1010 94 4828 1.5 360 15:52 05.04.2020
5324 Mist 26 1010 94 4828 1.5 360 15:33 05.04.2020
5325 Mist 26 1009 94 4828 2.1 350 14:50 05.04.2020
5326 Mist 26 1009 94 4828 2.1 350 14:26 05.04.2020
5327 Clear 26 1009 94 6437 4.64 349 13:43 05.04.2020
5328 Clear 26 1007 100 0 0.89 355 12:51 05.04.2020
5329 Clear 26 1007 100 0 0.89 355 12:49 05.04.2020
5330 Clear 27 1007 100 0 1.79 20 11:41 05.04.2020
5331 Clear 26 1007 100 0 1.34 5 11:21 05.04.2020
5332 Clear 26 1007 100 0 1.34 5 11:21 05.04.2020
5333 Clear 26 1007 100 0 1.79 5 10:59 05.04.2020
5334 Clear 26 1007 100 0 1.79 347 10:40 05.04.2020
5335 Clear 26 1007 100 0 1.79 347 10:40 05.04.2020
5336 Clear 26 1007 100 0 1.79 347 10:40 05.04.2020
5337 Clear 26 1007 100 0 1.79 347 10:40 05.04.2020
5338 Clear 26 1007 100 0 1.79 347 10:39 05.04.2020
5339 Clear 26 1007 100 0 0.89 76 10:18 05.04.2020
5340 Clear 26 1007 100 0 0.45 110 09:42 05.04.2020
5341 Clouds 26 1007 100 0 1.59 5 09:23 05.04.2020
5342 Clouds 26 1007 100 0 1.59 5 09:23 05.04.2020
5343 Clouds 26 1007 100 0 1.59 5 09:23 05.04.2020
5344 Clouds 26 1007 100 0 1.59 5 09:23 05.04.2020
5345 Clouds 26 1007 100 0 1.59 5 09:23 05.04.2020
5346 Clouds 26 1009 94 8047 0.32 212 07:41 05.04.2020
5347 Clouds 27 1006 88 8047 1.5 80 04:36 05.04.2020
5348 Clouds 28 1005 100 0 0.45 96 03:32 05.04.2020
5349 Clouds 29 1006 70 6437 2.1 70 02:51 05.04.2020
5350 Clouds 30 1005 66 8047 3.1 80 01:48 05.04.2020
5351 Clouds 30 1005 66 8047 3.1 80 01:28 05.04.2020
5352 Clouds 30 1005 66 8047 3.1 80 01:28 05.04.2020
5353 Clouds 31 1006 59 8047 4.1 90 00:44 05.04.2020
5354 Clouds 32 1006 59 8047 4.1 90 00:21 05.04.2020
5355 Clouds 31 1006 66 8047 2.6 110 23:55 04.04.2020
5356 Clouds 31 1006 66 8047 2.6 110 23:37 04.04.2020
5357 Clouds 31 1006 66 8047 2.6 110 23:19 04.04.2020
5358 Clouds 32 1008 62 6437 5.1 20 22:40 04.04.2020
5359 Clouds 32 1008 62 6437 5.1 20 22:21 04.04.2020
5360 Clouds 32 1009 59 6437 4.6 20 21:58 04.04.2020
5361 Clouds 32 1009 59 6437 4.6 20 21:39 04.04.2020
5362 Clouds 32 1009 59 6437 4.6 20 21:19 04.04.2020
5363 Clouds 32 1010 55 8047 5.7 30 20:58 04.04.2020
5364 Clouds 32 1010 55 8047 5.7 30 20:39 04.04.2020
5365 Clouds 32 1010 55 8047 5.7 30 20:21 04.04.2020
5366 Clouds 31 1010 62 6437 2.6 70 19:57 04.04.2020
5367 Clouds 31 1010 62 6437 2.6 70 19:37 04.04.2020
5368 Clouds 31 1010 62 6437 2.6 70 19:19 04.04.2020
5369 Clouds 31 1010 62 6437 2.6 70 19:19 04.04.2020
5370 Clouds 30 1011 62 6437 4.1 30 18:55 04.04.2020
5371 Clouds 31 1011 62 6437 4.1 30 18:37 04.04.2020
5372 Clouds 30 1011 62 6437 4.1 30 18:18 04.04.2020
5373 Mist 29 1010 74 6437 1.5 90 17:41 04.04.2020
5374 Mist 29 1010 74 6437 1.5 90 17:41 04.04.2020
5375 Mist 28 1010 74 6437 1.5 90 17:20 04.04.2020
5376 Mist 27 1009 88 4828 1.5 10 16:56 04.04.2020
5377 Mist 27 1009 88 4828 1.5 10 16:38 04.04.2020
5378 Mist 26 1009 88 4828 1.5 10 16:19 04.04.2020
5379 Mist 25 1008 94 4828 0.25 66 15:41 04.04.2020
5380 Mist 25 1008 94 4828 0.53 150 15:23 04.04.2020
5381 Mist 25 1007 100 6437 1.9 177 14:59 04.04.2020
5382 Mist 25 1007 100 6437 2.05 171 14:40 04.04.2020
5383 Clouds 25 1006 100 0 1.9 177 14:22 04.04.2020
5384 Clouds 25 1005 100 0 1.9 177 13:55 04.04.2020
5385 Clouds 25 1005 100 0 1.9 177 13:37 04.04.2020
5386 Clouds 25 1005 100 0 1.9 177 13:18 04.04.2020
5387 Clouds 25 1005 100 0 0.45 240 12:44 04.04.2020
5388 Clouds 25 1005 100 0 0.45 240 12:23 04.04.2020
5389 Clouds 25 1005 100 0 0.45 240 12:23 04.04.2020
5390 Clouds 25 1004 100 0 2.72 175 11:55 04.04.2020
5391 Clouds 25 1004 100 0 2.72 175 11:37 04.04.2020
5392 Clouds 24 1004 100 0 2.72 175 11:18 04.04.2020
5393 Clouds 24 1004 100 0 2.72 175 10:55 04.04.2020
5394 Clouds 24 1005 100 0 2.72 175 10:37 04.04.2020
5395 Clouds 25 1005 100 0 0.45 240 10:18 04.04.2020
5396 Clouds 25 1005 100 0 0.45 240 09:54 04.04.2020
5397 Clouds 25 1006 100 0 0.89 240 09:36 04.04.2020
5398 Clouds 25 1006 100 0 0.45 240 09:18 04.04.2020
5399 Clouds 26 1007 100 0 0.45 240 08:38 04.04.2020
5400 Clouds 26 1007 100 0 0.89 89 08:19 04.04.2020
5401 Clouds 26 1009 94 8047 0.21 95 07:41 04.04.2020
5402 Clouds 26 1009 94 8047 0.21 95 07:23 04.04.2020
5403 Clouds 27 1009 88 8047 0.21 95 06:46 04.04.2020
5404 Clouds 27 1009 88 8047 1.74 357 06:18 04.04.2020
5405 Mist 27 1008 88 8047 1 70 05:41 04.04.2020
5406 Mist 27 1008 88 8047 1 70 05:22 04.04.2020
5407 Mist 27 1008 88 8047 1 60 04:25 04.04.2020
5408 Mist 27 1007 88 4828 1 60 03:47 04.04.2020
5409 Mist 28 1006 83 4828 2.6 80 02:49 04.04.2020
5410 Mist 28 1006 83 4828 2.6 80 02:30 04.04.2020
5411 Clouds 29 1006 74 8047 2.6 80 01:51 04.04.2020
5412 Clouds 29 1006 74 8047 2.6 80 01:22 04.04.2020
5413 Clouds 30 1006 70 8047 4.1 60 00:47 04.04.2020
5414 Clouds 30 1006 70 8047 4.1 60 00:27 04.04.2020
5415 Clear 31 1007 66 8047 2.6 100 23:39 03.04.2020
5416 Clear 31 1007 66 8047 2.6 100 23:21 03.04.2020
5417 Clear 31 1007 66 8047 5.1 50 22:56 03.04.2020
5418 Clear 31 1007 66 8047 5.1 50 22:38 03.04.2020
5419 Clear 31 1007 66 8047 5.1 50 22:18 03.04.2020
5420 Clouds 31 1008 66 8047 4.6 40 21:43 03.04.2020
5421 Clouds 31 1008 66 8047 4.6 40 21:23 03.04.2020
5422 Clouds 31 1009 66 8047 1.5 90 20:56 03.04.2020
5423 Clouds 31 1009 66 8047 1.5 90 20:37 03.04.2020
5424 Clouds 31 1009 66 8047 1.5 90 20:19 03.04.2020
5425 Clouds 31 1009 70 8047 3.01 109 19:56 03.04.2020
5426 Clouds 31 1009 70 8047 3.01 109 19:38 03.04.2020
5427 Clouds 30 1009 70 8047 3.01 109 19:19 03.04.2020
5428 Clouds 30 1009 66 8047 3.6 180 18:58 03.04.2020
5429 Clouds 30 1009 66 8047 3.6 180 18:40 03.04.2020
5430 Clouds 30 1009 66 8047 3.6 180 18:22 03.04.2020
5431 Clouds 29 1009 78 8047 3.7 166 17:43 03.04.2020
5432 Clouds 29 1009 78 8047 3.7 166 17:21 03.04.2020
5433 Clouds 29 1009 78 8047 3.7 166 17:21 03.04.2020
5434 Mist 27 1009 88 8047 3.7 166 16:58 03.04.2020
5435 Mist 27 1009 88 8047 3.7 166 16:40 03.04.2020
5436 Mist 26 1009 88 8047 3.7 166 16:21 03.04.2020
5437 Mist 26 1008 94 6437 3.7 166 15:57 03.04.2020
5438 Mist 26 1008 94 6437 3.7 166 15:38 03.04.2020
5439 Mist 25 1008 94 6437 3.2 166 15:19 03.04.2020
5440 Mist 25 1008 94 6437 3.2 166 15:19 03.04.2020
5441 Clouds 24 1007 100 0 3.2 166 14:41 03.04.2020
5442 Clouds 24 1007 100 0 3.2 166 14:41 03.04.2020
5443 Clouds 24 1007 100 0 3.44 167 14:22 03.04.2020
5444 Clouds 24 1007 100 0 3.44 167 13:57 03.04.2020
5445 Clouds 24 1007 100 0 3.44 167 13:38 03.04.2020
5446 Clouds 24 1006 100 0 3.44 167 13:20 03.04.2020
5447 Clouds 24 1006 100 0 3.44 167 12:43 03.04.2020
5448 Clouds 25 1006 100 0 0.45 172 12:20 03.04.2020
5449 Clouds 25 1006 100 0 0.45 172 11:57 03.04.2020
5450 Clouds 26 1006 100 0 1.92 145 11:38 03.04.2020
5451 Clouds 26 1006 100 0 1.92 145 11:38 03.04.2020
5452 Clouds 26 1006 100 0 1.34 172 11:20 03.04.2020
5453 Clouds 26 1006 100 0 1.34 172 10:58 03.04.2020
5454 Clouds 26 1006 100 0 1.92 145 10:38 03.04.2020
5455 Clouds 26 1006 100 0 0.89 113 10:20 03.04.2020
5456 Clouds 26 1006 100 0 0.89 113 09:57 03.04.2020
5457 Clouds 26 1006 100 0 0.45 111 09:39 03.04.2020
5458 Clouds 27 1007 100 0 0.89 110 09:21 03.04.2020
5459 Clouds 27 1007 100 0 0.58 85 08:55 03.04.2020
5460 Clouds 27 1007 100 0 0.58 85 08:36 03.04.2020
5461 Clouds 27 1008 100 0 0.45 107 08:18 03.04.2020
5462 Clouds 26 1010 88 9656 0.58 85 07:42 03.04.2020
5463 Clouds 26 1010 88 9656 0.58 85 07:23 03.04.2020
5464 Clear 26 1010 83 9656 1.5 30 06:38 03.04.2020
5465 Clear 27 1010 83 9656 1.5 30 06:20 03.04.2020
5466 Clear 26 1009 83 8047 2.94 80 05:34 03.04.2020
5467 Clouds 27 1007 78 8047 1.5 100 03:40 03.04.2020
5468 Clouds 28 1007 74 8047 2.6 90 02:54 03.04.2020
5469 Clear 29 1007 62 8047 6.2 80 01:53 03.04.2020
5470 Clear 30 1007 62 8047 6.2 80 01:18 03.04.2020
5471 Clear 31 1006 59 8047 5.1 70 00:34 03.04.2020
5472 Clouds 31 1007 62 8047 5.1 90 23:57 02.04.2020
5473 Clouds 31 1007 62 8047 5.1 90 23:39 02.04.2020
5474 Clouds 31 1007 62 8047 5.1 90 23:21 02.04.2020
5475 Clouds 31 1008 58 8047 4.1 100 22:43 02.04.2020
5476 Clouds 31 1008 58 8047 4.1 100 22:25 02.04.2020
5477 Clouds 33 1010 49 8047 3.1 160 21:59 02.04.2020
5478 Clouds 33 1010 49 8047 3.1 160 21:38 02.04.2020
5479 Clouds 33 1010 49 8047 3.1 160 21:38 02.04.2020
5480 Clouds 32 1010 49 8047 3.1 160 21:19 02.04.2020
5481 Clouds 32 1011 52 8047 5.1 200 20:55 02.04.2020
5482 Clouds 32 1011 52 8047 5.1 200 20:37 02.04.2020
5483 Clouds 32 1011 52 8047 5.1 200 20:19 02.04.2020
5484 Clouds 31 1012 55 8047 4.6 160 19:42 02.04.2020
5485 Clouds 31 1012 55 8047 4.6 160 19:20 02.04.2020
5486 Clouds 29 1013 69 8047 3.1 180 18:57 02.04.2020
5487 Clouds 29 1013 69 8047 3.1 180 18:39 02.04.2020
5488 Clouds 28 1013 69 8047 3.1 180 18:19 02.04.2020
5489 Clouds 28 1013 78 8047 2.6 90 17:44 02.04.2020
5490 Clouds 28 1013 78 8047 2.6 90 17:26 02.04.2020
5491 Clouds 26 1013 94 8047 2.55 167 16:59 02.04.2020
5492 Clouds 26 1013 94 8047 2.55 167 16:41 02.04.2020
5493 Clouds 25 1013 94 8047 2.55 167 16:22 02.04.2020
5494 Mist 24 1012 100 8047 2.55 167 15:59 02.04.2020
5495 Mist 23 1012 100 8047 2.55 167 15:40 02.04.2020
5496 Mist 23 1012 100 8047 0.83 217 15:20 02.04.2020
5497 Mist 23 1012 100 8047 0.83 217 14:58 02.04.2020
5498 Mist 22 1012 100 8047 0.83 217 14:38 02.04.2020
5499 Mist 22 1012 100 8047 0.83 217 14:19 02.04.2020
5500 Clear 23 1010 100 0 0.94 231 13:55 02.04.2020
5501 Clear 23 1010 100 0 0.94 231 13:37 02.04.2020
5502 Clear 23 1010 100 0 0.94 231 13:19 02.04.2020
5503 Clear 23 1010 100 0 0.94 231 12:46 02.04.2020
5504 Clear 24 1009 100 0 0.95 236 12:20 02.04.2020
5505 Clear 24 1009 100 0 0.95 236 11:58 02.04.2020
5506 Clear 24 1009 100 0 0.95 236 11:39 02.04.2020
5507 Clear 24 1009 100 0 0.89 69 11:20 02.04.2020
5508 Clear 24 1009 100 0 0.95 236 10:57 02.04.2020
5509 Clear 23 1009 100 0 0.95 236 10:38 02.04.2020
5510 Clear 23 1010 100 0 0.95 236 10:20 02.04.2020
5511 Clear 23 1010 100 0 0.95 236 10:20 02.04.2020
5512 Clear 24 1010 100 0 0.95 236 09:59 02.04.2020
5513 Clear 24 1010 100 0 0.95 236 09:41 02.04.2020
5514 Clear 23 1011 100 0 0.78 268 09:21 02.04.2020
5515 Clear 24 1011 100 0 0.45 69 08:47 02.04.2020
5516 Clear 24 1011 100 0 0.89 69 08:28 02.04.2020
5517 Clouds 25 1013 88 9656 0.4 201 07:57 02.04.2020
5518 Clouds 25 1013 88 9656 0.4 201 07:38 02.04.2020
5519 Clouds 25 1013 88 9656 0.4 201 07:19 02.04.2020
5520 Clouds 26 1013 88 9656 1 70 06:24 02.04.2020
5521 Clouds 26 1012 83 9656 1 60 05:46 02.04.2020
5522 Clouds 26 1012 83 9656 2.6 70 04:55 02.04.2020
5523 Clouds 27 1010 78 11265 6.2 60 02:19 02.04.2020
5524 Clear 29 1010 62 9656 4.6 80 00:59 02.04.2020
5525 Clear 30 1010 62 9656 4.6 80 00:38 02.04.2020
5526 Clear 30 1010 62 9656 4.6 80 00:19 02.04.2020
5527 Clear 29 1011 66 9656 4.1 80 23:39 01.04.2020
5528 Clear 30 1011 66 9656 4.1 80 23:19 01.04.2020
5529 Clear 30 1011 62 9656 5.1 80 22:56 01.04.2020
5530 Clear 30 1011 62 9656 5.1 80 22:37 01.04.2020
5531 Clear 30 1011 62 9656 5.1 80 22:19 01.04.2020
5532 Clouds 30 1012 62 9656 4.1 50 21:39 01.04.2020
5533 Clouds 30 1012 62 9656 4.1 50 21:19 01.04.2020
5534 Clouds 30 1013 58 9656 1 140 20:56 01.04.2020
5535 Clouds 30 1013 58 9656 1 140 20:38 01.04.2020
5536 Clouds 30 1013 58 9656 1 140 20:19 01.04.2020
5537 Clouds 30 1014 62 8047 3.6 80 19:57 01.04.2020
5538 Clouds 30 1014 62 8047 3.6 80 19:37 01.04.2020
5539 Clouds 30 1014 62 8047 3.6 80 19:19 01.04.2020
5540 Clouds 29 1015 70 8047 2.6 100 18:41 01.04.2020
5541 Clouds 29 1015 70 8047 2.6 100 18:21 01.04.2020
5542 Clouds 28 1015 74 8047 1 70 17:56 01.04.2020
5543 Clouds 28 1015 74 8047 1 70 17:37 01.04.2020
5544 Clouds 28 1015 74 8047 1 70 17:37 01.04.2020
5545 Clouds 28 1015 74 8047 1 70 17:18 01.04.2020
5546 Mist 27 1014 94 6437 1.8 27 16:56 01.04.2020
5547 Mist 26 1014 94 6437 1.8 27 16:38 01.04.2020
5548 Mist 26 1014 94 6437 1.8 27 16:20 01.04.2020
5549 Mist 24 1014 100 6437 1.8 27 15:42 01.04.2020
5550 Mist 24 1014 100 6437 1.8 27 15:22 01.04.2020
5551 Mist 23 1013 100 4828 2.13 355 14:59 01.04.2020
5552 Mist 23 1013 100 4828 2.13 355 14:39 01.04.2020
5553 Mist 23 1013 100 4828 2.13 355 14:21 01.04.2020
5554 Rain 23 1011 100 0 0.45 34 13:59 01.04.2020
5555 Rain 23 1011 100 0 0.89 34 13:38 01.04.2020
5556 Rain 24 1011 100 0 1.69 356 13:20 01.04.2020
5557 Rain 24 1011 100 0 1.69 356 12:57 01.04.2020
5558 Rain 23 1010 100 0 0.45 34 12:37 01.04.2020
5559 Rain 24 1010 100 0 2.74 9 12:18 01.04.2020
5560 Rain 24 1010 100 0 2.74 9 12:18 01.04.2020
5561 Rain 24 1010 100 0 2.74 9 11:56 01.04.2020
5562 Rain 24 1010 100 0 2.74 9 11:37 01.04.2020
5563 Rain 24 1010 100 0 2.74 9 11:37 01.04.2020
5564 Rain 24 1010 100 0 2.74 9 11:37 01.04.2020
5565 Rain 24 1010 100 0 2.74 9 11:18 01.04.2020
5566 Rain 24 1011 100 0 2.74 9 10:38 01.04.2020
5567 Rain 24 1011 100 0 2.74 9 10:20 01.04.2020
5568 Rain 24 1011 100 0 2.74 9 09:58 01.04.2020
5569 Rain 24 1011 100 0 2.74 9 09:39 01.04.2020
5570 Clouds 25 1011 100 0 3.45 12 09:19 01.04.2020
5571 Clouds 26 1012 100 0 3.24 12 08:44 01.04.2020
5572 Clouds 26 1012 100 0 0.89 32 08:18 01.04.2020
5573 Clouds 26 1015 83 9656 5.1 10 07:48 01.04.2020
5574 Clouds 26 1015 83 9656 5.1 10 07:23 01.04.2020
5575 Clouds 27 1015 83 9656 6.7 30 06:59 01.04.2020
5576 Clouds 27 1015 83 9656 6.7 30 06:38 01.04.2020
5577 Clouds 27 1015 83 9656 6.7 30 06:20 01.04.2020
5578 Clouds 27 1012 88 9656 4.1 360 04:38 01.04.2020
5579 Clouds 28 1012 69 8047 4.6 10 03:36 01.04.2020
5580 Clouds 29 1011 66 8047 5.7 20 02:59 01.04.2020
5581 Clouds 29 1011 66 8047 5.7 20 02:23 01.04.2020
5582 Clouds 29 1011 58 8047 5.7 30 01:43 01.04.2020
5583 Clouds 30 1011 58 8047 5.7 30 01:23 01.04.2020
5584 Clear 30 1010 55 8047 6.7 70 00:47 01.04.2020
5585 Clear 31 1010 55 8047 6.7 70 00:21 01.04.2020
5586 Clear 31 1011 55 8047 5.7 60 23:49 31.03.2020
5587 Clear 31 1011 55 8047 5.7 60 23:29 31.03.2020
5588 Clear 32 1011 59 8047 5.7 60 22:59 31.03.2020
5589 Clear 32 1011 59 8047 5.7 60 22:38 31.03.2020
5590 Clear 32 1011 59 8047 5.7 60 22:20 31.03.2020
5591 Clouds 32 1011 59 8047 5.1 90 21:57 31.03.2020
5592 Clouds 32 1011 59 8047 5.1 90 21:39 31.03.2020
5593 Clouds 32 1011 59 8047 5.1 90 21:20 31.03.2020
5594 Clouds 31 1012 62 8047 4.1 50 20:56 31.03.2020
5595 Clouds 31 1012 62 8047 4.1 50 20:37 31.03.2020
5596 Clouds 31 1012 62 8047 4.1 50 20:18 31.03.2020
5597 Clouds 31 1012 62 8047 4.1 50 20:18 31.03.2020
5598 Clouds 31 1012 66 8047 2.45 91 19:54 31.03.2020
5599 Clouds 31 1012 66 8047 2.45 91 19:36 31.03.2020
5600 Clouds 31 1012 66 8047 2.45 91 19:18 31.03.2020
5601 Clouds 30 1013 66 8047 3.6 90 18:41 31.03.2020
5602 Clouds 30 1013 66 8047 3.6 90 18:19 31.03.2020
5603 Clouds 28 1013 78 8047 0.9 174 17:56 31.03.2020
5604 Clouds 28 1013 78 8047 0.9 174 17:37 31.03.2020
5605 Clouds 28 1013 78 8047 0.9 174 17:19 31.03.2020
5606 Mist 26 1012 94 6437 1.5 350 16:41 31.03.2020
5607 Mist 25 1012 94 6437 1.5 350 16:20 31.03.2020
5608 Mist 24 1012 100 4828 0.9 174 15:59 31.03.2020
5609 Mist 24 1012 100 4828 0.9 174 15:41 31.03.2020
5610 Mist 23 1012 100 4828 0.9 174 15:23 31.03.2020
5611 Mist 22 1012 100 4828 1.44 171 14:59 31.03.2020
5612 Mist 22 1012 100 4828 1.44 171 14:40 31.03.2020
5613 Clouds 23 1010 100 0 1.34 24 14:21 31.03.2020
5614 Clear 22 1009 100 0 0.89 291 13:54 31.03.2020
5615 Clear 22 1009 100 0 0.89 261 13:36 31.03.2020
5616 Clear 22 1009 100 0 1.79 254 13:18 31.03.2020
5617 Clear 22 1009 100 0 0.45 148 12:42 31.03.2020
5618 Clear 21 1009 100 0 0.75 212 12:20 31.03.2020
5619 Clear 22 1009 100 0 0.75 212 11:55 31.03.2020
5620 Clear 23 1008 100 0 0.75 212 11:36 31.03.2020
5621 Clear 23 1009 100 0 0.89 148 11:18 31.03.2020
5622 Clear 22 1009 100 0 0.75 212 10:54 31.03.2020
5623 Clear 22 1009 100 0 0.75 212 10:36 31.03.2020
5624 Clear 23 1009 100 0 0.75 212 10:18 31.03.2020
5625 Clear 23 1010 100 0 0.45 148 09:42 31.03.2020
5626 Clear 23 1010 100 0 0.45 148 09:24 31.03.2020
5627 Clear 23 1010 100 0 0.89 110 08:57 31.03.2020
5628 Clear 24 1010 100 0 1.15 262 08:39 31.03.2020
5629 Clear 23 1010 100 0 1.15 262 08:19 31.03.2020
5630 Clear 23 1010 100 0 1.15 262 08:19 31.03.2020
5631 Clear 23 1010 100 0 1.15 262 08:19 31.03.2020
5632 Clear 24 1012 88 9656 1.15 262 07:56 31.03.2020
5633 Clear 24 1012 88 9656 1.15 262 07:37 31.03.2020
5634 Clear 25 1012 88 9656 1.15 262 07:18 31.03.2020
5635 Clouds 26 1012 83 8047 1 80 06:45 31.03.2020
5636 Clouds 26 1012 83 8047 1 80 06:18 31.03.2020
5637 Clouds 26 1012 88 8047 1 70 05:39 31.03.2020
5638 Clear 26 1010 83 8047 2.6 80 03:34 31.03.2020
5639 Clear 29 1009 58 11265 5.1 80 01:59 31.03.2020
5640 Clear 29 1009 58 11265 5.1 80 01:40 31.03.2020
5641 Clear 31 1010 43 11265 4.6 90 00:47 31.03.2020
5642 Clear 32 1010 43 11265 4.6 90 00:25 31.03.2020
5643 Clear 32 1011 46 11265 4.1 80 23:42 30.03.2020
5644 Clear 32 1011 46 11265 4.1 80 23:20 30.03.2020
5645 Clear 32 1012 49 9656 3.6 70 22:59 30.03.2020
5646 Clear 32 1012 49 9656 3.6 70 22:41 30.03.2020
5647 Clear 32 1012 49 9656 3.6 70 22:22 30.03.2020
5648 Clear 31 1013 52 8047 2.6 90 21:58 30.03.2020
5649 Clear 31 1013 52 8047 2.6 90 21:39 30.03.2020
5650 Clear 31 1013 52 8047 2.6 90 21:39 30.03.2020
5651 Clear 31 1013 52 8047 2.6 90 21:21 30.03.2020
5652 Clouds 32 1014 49 9656 4.1 80 20:59 30.03.2020
5653 Clouds 32 1014 49 9656 4.1 80 20:39 30.03.2020
5654 Clouds 32 1014 49 9656 4.1 80 20:21 30.03.2020
5655 Clouds 31 1015 58 8047 2.3 80 19:58 30.03.2020
5656 Clouds 31 1015 58 8047 2.3 80 19:39 30.03.2020
5657 Clouds 30 1015 58 8047 2.3 80 19:21 30.03.2020
5658 Clouds 30 1016 66 8047 2.3 80 18:56 30.03.2020
5659 Clouds 30 1016 66 8047 2.3 80 18:36 30.03.2020
5660 Clouds 29 1016 66 8047 1.82 105 18:18 30.03.2020
5661 Clouds 29 1016 74 8047 1.5 130 17:55 30.03.2020
5662 Clouds 28 1016 74 8047 1.5 130 17:36 30.03.2020
5663 Clouds 28 1016 74 8047 1.5 130 17:18 30.03.2020
5664 Clouds 27 1015 83 8047 1.5 110 16:41 30.03.2020
5665 Clouds 27 1015 83 8047 1.5 110 16:21 30.03.2020
5666 Haze 25 1015 94 6437 1.82 105 15:56 30.03.2020
5667 Haze 25 1015 94 6437 1.82 105 15:56 30.03.2020
5668 Haze 25 1015 94 6437 1.82 105 15:38 30.03.2020
5669 Haze 25 1015 94 6437 2.98 81 15:20 30.03.2020
5670 Clouds 24 1015 94 8047 2.98 81 14:58 30.03.2020
5671 Clouds 24 1015 94 8047 2.98 81 14:37 30.03.2020
5672 Clouds 25 1015 94 8047 2.98 81 14:18 30.03.2020
5673 Clouds 25 1015 94 8047 2.85 76 14:18 30.03.2020
5674 Clouds 25 1013 100 0 0.45 102 13:56 30.03.2020
5675 Clouds 26 1013 100 0 0.89 103 13:37 30.03.2020
5676 Clouds 25 1012 100 0 1.34 81 13:19 30.03.2020
5677 Clouds 24 1012 100 0 2.85 76 12:44 30.03.2020
5678 Clouds 24 1012 100 0 2.85 76 12:21 30.03.2020
5679 -273 0 0 0 0 0 12:21 30.03.2020
5680 Clear 26 1012 100 0 1.94 55 11:57 30.03.2020
5681 Clear 26 1012 100 0 1.94 55 11:57 30.03.2020
5682 Clear 27 1012 100 0 0.45 65 11:39 30.03.2020
5683 Clear 27 1012 100 0 0.45 65 11:39 30.03.2020
5684 Clear 27 1012 100 0 0.45 55 11:21 30.03.2020
5685 Clear 27 1012 100 0 1.79 76 10:41 30.03.2020
5686 Clear 27 1012 100 0 0.89 77 10:23 30.03.2020
5687 Clear 27 1012 100 0 0.89 79 09:59 30.03.2020
5688 Clear 27 1012 100 0 1.34 78 09:40 30.03.2020
5689 Clear 27 1013 100 0 1.79 61 09:19 30.03.2020
5690 Clear 27 1013 100 0 1.79 55 08:44 30.03.2020
5691 Clear 27 1013 100 0 1.79 56 08:23 30.03.2020
5692 Clouds 27 1015 94 8047 2.6 360 07:55 30.03.2020
5693 Clouds 27 1015 94 8047 2.6 360 07:37 30.03.2020
5694 Clouds 27 1015 88 8047 2.45 18 06:59 30.03.2020
5695 Clouds 26 1015 88 8047 2.45 18 06:34 30.03.2020
5696 Clear 26 1014 88 8047 2.6 350 05:59 30.03.2020
5697 Clear 26 1014 88 8047 2.6 350 05:38 30.03.2020
5698 Clear 27 1013 83 8047 3.1 40 04:27 30.03.2020
5699 Clear 27 1012 83 8047 3.6 60 03:50 30.03.2020
5700 Clear 28 1012 78 8047 5.1 60 02:43 30.03.2020
5701 Clear 29 1012 74 8047 5.7 50 01:52 30.03.2020
5702 Clear 30 1012 70 8047 5.7 60 00:56 30.03.2020
5703 Clear 30 1012 70 8047 5.7 60 00:25 30.03.2020
5704 Clear 31 1012 66 8047 5.1 60 23:43 29.03.2020
5705 Clear 31 1012 66 8047 5.1 60 23:24 29.03.2020
5706 Clear 31 1013 62 8047 5.7 50 22:59 29.03.2020
5707 Clear 31 1013 62 8047 5.7 50 22:39 29.03.2020
5708 Clear 31 1013 62 8047 5.7 50 22:19 29.03.2020
5709 Clear 31 1013 70 8047 6.2 60 21:58 29.03.2020
5710 Clear 31 1013 70 8047 6.2 60 21:37 29.03.2020
5711 Clear 31 1013 70 8047 6.2 60 21:18 29.03.2020
5712 Clouds 31 1014 66 8047 6.7 50 20:55 29.03.2020
5713 Clouds 31 1014 66 8047 6.7 50 20:37 29.03.2020
5714 Clouds 31 1014 66 8047 6.7 50 20:37 29.03.2020
5715 Clouds 31 1014 66 8047 6.7 50 20:18 29.03.2020
5716 Clear 31 1014 66 8047 6.2 40 19:54 29.03.2020
5717 Clear 31 1014 66 8047 6.2 40 19:36 29.03.2020
5718 Clear 31 1014 66 8047 6.2 40 19:18 29.03.2020
5719 Clouds 31 1014 66 8047 6.7 50 18:54 29.03.2020
5720 Clouds 31 1014 66 8047 6.7 50 18:36 29.03.2020
5721 Clouds 31 1014 66 8047 6.7 50 18:18 29.03.2020
5722 Clear 30 1014 79 8047 6.2 40 17:42 29.03.2020
5723 Clear 30 1014 79 8047 6.2 40 17:22 29.03.2020
5724 Clear 29 1013 88 8047 3.6 350 16:58 29.03.2020
5725 Clear 28 1013 88 8047 3.6 350 16:40 29.03.2020
5726 Clear 28 1013 88 8047 3.6 350 16:21 29.03.2020
5727 Clear 26 1012 94 8047 2.1 350 15:58 29.03.2020
5728 Clear 25 1012 94 8047 2.1 350 15:39 29.03.2020
5729 Clear 25 1012 94 8047 2.1 350 15:19 29.03.2020
5730 Clear 24 1010 94 8047 1.05 344 14:56 29.03.2020
5731 Clear 23 1010 94 8047 1.05 344 14:37 29.03.2020
5732 Clear 23 1010 94 8047 1.9 357 14:18 29.03.2020
5733 Clear 23 1008 100 0 0.89 281 13:55 29.03.2020
5734 Clear 24 1008 100 0 1.34 282 13:36 29.03.2020
5735 Clear 24 1008 100 0 0.45 331 13:18 29.03.2020
5736 Clear 24 1008 100 0 0.89 331 12:54 29.03.2020
5737 Clear 24 1008 100 0 1.9 357 12:36 29.03.2020
5738 Clear 24 1007 100 0 2.1 328 12:18 29.03.2020
5739 Clear 24 1007 100 0 2.1 328 11:38 29.03.2020
5740 Clear 24 1007 100 0 2.1 328 11:19 29.03.2020
5741 Clear 24 1007 100 0 2.1 328 10:40 29.03.2020
5742 Clear 25 1007 100 0 2.1 328 10:21 29.03.2020
5743 Clear 25 1007 100 0 2.1 328 09:57 29.03.2020
5744 Clear 26 1007 100 0 0.45 333 09:38 29.03.2020
5745 Clear 25 1007 100 0 1.44 3 09:18 29.03.2020
5746 Clear 26 1008 100 0 1.44 3 08:45 29.03.2020
5747 Clear 26 1008 100 0 1.44 3 08:27 29.03.2020
5748 Clear 26 1009 83 9656 1.44 3 07:48 29.03.2020
5749 Clear 26 1009 83 9656 1.44 3 07:24 29.03.2020
5750 Clear 27 1008 83 9656 1 320 06:55 29.03.2020
5751 Clear 27 1006 83 8047 1 50 04:57 29.03.2020
5752 Clear 28 1005 78 8047 2.6 110 03:41 29.03.2020
5753 Clear 28 1005 78 8047 2.6 110 03:22 29.03.2020
5754 Clear 29 1004 70 9656 2.6 100 01:44 29.03.2020
5755 Clear 29 1004 70 9656 2.6 100 01:23 29.03.2020
5756 Clear 30 1004 66 9656 5.1 80 00:46 29.03.2020
5757 Clear 31 1004 66 9656 5.1 80 00:28 29.03.2020
5758 Clear 31 1004 62 8047 4.1 100 23:41 28.03.2020
5759 Clear 31 1004 62 8047 4.1 100 23:23 28.03.2020
5760 Clear 32 1004 62 8047 4.6 90 22:54 28.03.2020
5761 Clear 32 1004 62 8047 4.6 90 22:36 28.03.2020
5762 Clear 32 1004 62 8047 4.6 90 22:18 28.03.2020
5763 Clear 32 1005 59 8047 6.2 80 21:40 28.03.2020
5764 Clear 32 1005 59 8047 6.2 80 21:40 28.03.2020
5765 Clear 32 1005 59 8047 6.2 80 21:21 28.03.2020
5766 Clear 34 1006 47 8047 6.2 160 20:57 28.03.2020
5767 Clear 34 1006 47 8047 6.2 160 20:38 28.03.2020
5768 Clear 36 1006 47 8047 6.2 160 20:20 28.03.2020
5769 Clear 34 1007 52 8047 2.6 170 19:55 28.03.2020
5770 Clear 34 1007 52 8047 2.6 170 19:36 28.03.2020
5771 Clear 34 1007 52 8047 2.6 170 19:36 28.03.2020
5772 Clear 34 1007 52 8047 2.6 170 19:18 28.03.2020
5773 Clear 32 1008 59 8047 3.6 180 18:42 28.03.2020
5774 Clear 32 1008 59 8047 3.6 180 18:21 28.03.2020
5775 Clear 31 1008 62 8047 2.1 140 17:43 28.03.2020
5776 Clear 31 1008 62 8047 2.1 140 17:24 28.03.2020
5777 Clear 29 1009 74 8047 3.6 170 17:00 28.03.2020
5778 Clear 29 1009 74 8047 3.6 170 16:59 28.03.2020
5779 Clear 29 1009 74 8047 3.6 170 16:40 28.03.2020
5780 Clear 28 1009 74 8047 3.6 170 16:20 28.03.2020
5781 Clear 27 1008 74 8047 2.1 170 15:55 28.03.2020
5782 Clear 27 1008 74 8047 2.1 170 15:37 28.03.2020
5783 Clear 27 1008 74 8047 2.1 170 15:18 28.03.2020
5784 Clear 25 1008 78 8047 4.51 159 14:41 28.03.2020
5785 Clear 24 1008 78 8047 4.51 159 14:21 28.03.2020
5786 Clear 24 1008 78 8047 2.1 190 13:44 28.03.2020
5787 Clear 24 1008 78 8047 2.1 190 13:25 28.03.2020
5788 Clear 24 1006 100 0 0.45 244 12:57 28.03.2020
5789 Clear 24 1005 100 0 0.89 244 12:37 28.03.2020
5790 Clear 24 1005 100 0 0.89 244 12:18 28.03.2020
5791 Clear 24 1005 100 0 0.89 244 11:41 28.03.2020
5792 Clear 24 1005 100 0 0.45 244 11:21 28.03.2020
5793 Clear 24 1005 100 0 0.89 244 10:40 28.03.2020
5794 Clear 24 1005 100 0 0.89 244 10:22 28.03.2020
5795 Clear 24 1005 100 0 2.99 203 09:56 28.03.2020
5796 Clear 24 1005 100 0 0.45 244 09:37 28.03.2020
5797 Clear 26 1005 100 0 1.34 237 09:19 28.03.2020
5798 Clear 26 1005 100 0 0.89 182 08:42 28.03.2020
5799 Clear 26 1006 100 0 0.45 277 08:22 28.03.2020
5800 Clear 25 1006 100 0 0.89 296 07:46 28.03.2020
5801 Clear 26 1006 100 0 2.25 189 07:28 28.03.2020
5802 Clear 27 1008 88 9656 2.25 189 06:37 28.03.2020
5803 Clear 27 1008 88 9656 2.25 189 06:18 28.03.2020
5804 Clear 27 1007 94 9656 2.25 189 05:21 28.03.2020
5805 Clear 28 1006 83 9656 1.5 90 04:42 28.03.2020
5806 Clear 27 1005 88 8047 2.44 118 03:55 28.03.2020
5807 Clear 28 1004 83 8047 1.5 120 02:26 28.03.2020
5808 Clear 29 1003 74 9656 3.1 110 01:43 28.03.2020
5809 Clear 29 1003 74 9656 3.1 110 01:18 28.03.2020
5810 Clear 30 1003 70 9656 1.5 110 00:45 28.03.2020
5811 Clear 30 1003 70 9656 1.5 110 00:20 28.03.2020
5812 Clear 31 1004 62 9656 5.1 100 23:42 27.03.2020
5813 Clear 31 1004 62 9656 5.1 100 23:22 27.03.2020
5814 Clear 32 1005 59 9656 4.6 100 22:56 27.03.2020
5815 Clear 32 1005 59 9656 4.6 100 22:38 27.03.2020
5816 Clear 32 1005 59 9656 4.6 100 22:20 27.03.2020
5817 Clear 32 1006 55 9656 3.6 70 21:45 27.03.2020
5818 Clear 32 1006 55 9656 3.6 70 21:25 27.03.2020
5819 Clear 33 1006 52 8047 2.6 110 20:59 27.03.2020
5820 Clear 33 1006 52 8047 2.6 110 20:41 27.03.2020
5821 Clear 32 1007 59 8047 4.1 80 20:21 27.03.2020
5822 Clear 34 1008 39 8047 1.5 140 19:58 27.03.2020
5823 Clear 34 1008 39 8047 1.5 140 19:40 27.03.2020
5824 Clear 34 1008 39 8047 1.5 140 19:21 27.03.2020
5825 Clear 34 1009 43 8047 3.6 140 18:45 27.03.2020
5826 Clear 33 1009 43 8047 3.6 140 18:25 27.03.2020
5827 Clear 32 1009 52 8047 4.1 180 17:59 27.03.2020
5828 Clear 32 1009 52 8047 4.1 180 17:40 27.03.2020
5829 Clear 31 1009 52 8047 4.1 180 17:20 27.03.2020
5830 Clear 29 1009 62 8047 3.6 210 16:44 27.03.2020
5831 Clear 30 1009 62 8047 3.6 210 16:26 27.03.2020
5832 Clear 27 1009 83 8047 3.78 167 15:56 27.03.2020
5833 Clear 26 1009 83 8047 3.78 167 15:38 27.03.2020
5834 Clear 25 1009 83 8047 3.78 167 15:20 27.03.2020
5835 Mist 22 1008 94 8047 3.78 167 14:45 27.03.2020
5836 Mist 23 1008 94 8047 3.78 167 14:24 27.03.2020
5837 Mist 21 1008 100 8047 3.81 157 13:55 27.03.2020
5838 Rain 21 1008 100 8047 3.81 157 13:37 27.03.2020
5839 Rain 21 1008 100 8047 3.99 159 13:18 27.03.2020
5840 Clear 22 1006 100 0 3.99 159 12:43 27.03.2020
5841 Clear 22 1006 100 0 0.45 184 12:19 27.03.2020
5842 Clear 22 1006 100 0 0.45 184 11:57 27.03.2020
5843 Clear 22 1006 100 0 0.45 184 11:39 27.03.2020
5844 Clear 22 1006 100 0 0.89 184 11:21 27.03.2020
5845 Clear 22 1006 100 0 0.89 145 10:42 27.03.2020
5846 Clear 22 1006 100 0 0.45 145 10:22 27.03.2020
5847 Clear 22 1006 100 0 0.45 145 10:22 27.03.2020
5848 Clear 23 1007 100 0 3.37 210 09:59 27.03.2020
5849 Clear 23 1007 100 0 3.37 210 09:41 27.03.2020
5850 Clear 23 1007 100 0 3.37 210 09:22 27.03.2020
5851 Clear 23 1007 100 0 3.37 210 08:59 27.03.2020
5852 Clear 22 1007 100 0 3.37 210 08:40 27.03.2020
5853 Clear 22 1007 100 0 3.37 210 08:22 27.03.2020
5854 Clear 23 1008 100 0 1.61 215 07:59 27.03.2020
5855 Clear 24 1008 100 0 1.61 215 07:41 27.03.2020
5856 Clear 24 1008 100 0 0.45 115 07:21 27.03.2020
5857 Clear 25 1010 94 9656 1.61 215 06:40 27.03.2020
5858 Clear 26 1010 88 9656 1.61 215 05:51 27.03.2020
5859 Clear 27 1008 83 9656 2.1 110 03:34 27.03.2020
5860 Clear 29 1008 58 11265 1.5 110 01:55 27.03.2020
5861 Clear 30 1008 58 11265 1.5 110 01:18 27.03.2020
5862 Clear 31 1008 58 11265 3.6 100 00:41 27.03.2020
5863 Clear 31 1008 58 11265 3.6 100 00:41 27.03.2020
5864 Clear 31 1008 58 11265 3.6 100 00:19 27.03.2020
5865 Clear 32 1009 55 11265 3.1 110 23:37 26.03.2020
5866 Clear 32 1009 55 11265 3.1 110 23:18 26.03.2020
5867 Clear 33 1009 52 9656 3.6 100 22:56 26.03.2020
5868 Clear 33 1009 52 9656 3.6 100 22:36 26.03.2020
5869 Clear 33 1009 52 9656 3.6 100 22:18 26.03.2020
5870 Clear 32 1011 55 9656 3.1 110 21:40 26.03.2020
5871 Clear 32 1011 55 9656 3.1 110 21:21 26.03.2020
5872 Clouds 33 1012 52 8047 4.6 80 20:59 26.03.2020
5873 Clouds 33 1012 52 8047 4.6 80 20:39 26.03.2020
5874 Clouds 33 1012 52 8047 4.6 80 20:21 26.03.2020
5875 Clouds 33 1012 52 8047 4.6 80 20:21 26.03.2020
5876 Clouds 32 1012 55 8047 1.5 130 19:58 26.03.2020
5877 Clouds 32 1012 55 8047 1.5 130 19:58 26.03.2020
5878 Clouds 32 1012 55 8047 1.5 130 19:39 26.03.2020
5879 Clouds 32 1012 55 8047 1.5 130 19:20 26.03.2020
5880 Clear 31 1013 62 6437 1 140 18:58 26.03.2020
5881 Clear 31 1013 62 6437 1 140 18:39 26.03.2020
5882 Clear 31 1013 62 6437 1 140 18:21 26.03.2020
5883 Clouds 29 1013 78 6437 1 130 17:44 26.03.2020
5884 Clouds 29 1013 78 6437 1 130 17:19 26.03.2020
5885 Haze 28 1013 69 4828 2.58 165 16:55 26.03.2020
5886 Haze 28 1013 69 4828 2.58 165 16:55 26.03.2020
5887 Haze 28 1013 69 4828 2.58 165 16:37 26.03.2020
5888 Haze 28 1013 69 4828 2.58 165 16:18 26.03.2020
5889 Rain 25 1012 100 3219 2.58 165 15:41 26.03.2020
5890 Rain 24 1012 100 3219 2.58 165 15:22 26.03.2020
5891 Rain 23 1012 94 3219 2.58 165 14:59 26.03.2020
5892 Mist 22 1012 94 3219 2.58 165 14:41 26.03.2020
5893 Mist 22 1012 94 3219 2.58 165 14:23 26.03.2020
5894 Mist 21 1011 100 3219 0.57 191 13:45 26.03.2020
5895 Mist 21 1011 100 3219 0.57 191 13:24 26.03.2020
5896 Mist 21 1011 100 3219 0.57 191 13:24 26.03.2020
5897 Clear 22 1010 100 0 0.89 132 12:59 26.03.2020
5898 Clear 22 1009 100 0 0.89 129 12:38 26.03.2020
5899 Clear 22 1009 100 0 1.09 177 12:20 26.03.2020
5900 Clear 23 1009 100 0 1.09 177 11:46 26.03.2020
5901 Clear 23 1009 100 0 1.09 177 11:22 26.03.2020
5902 Clear 24 1009 100 0 0.78 299 10:56 26.03.2020
5903 Clear 24 1009 100 0 0.78 299 10:56 26.03.2020
5904 Clear 24 1009 100 0 0.78 299 10:56 26.03.2020
5905 Clear 24 1009 100 0 0.78 299 10:38 26.03.2020
5906 Clear 23 1009 100 0 0.78 299 10:19 26.03.2020
5907 Clear 23 1009 100 0 0.78 299 09:44 26.03.2020
5908 Clear 23 1009 100 0 0.78 299 09:20 26.03.2020
5909 Clear 24 1010 100 0 0.78 299 08:55 26.03.2020
5910 Clear 24 1010 100 0 0.45 67 08:37 26.03.2020
5911 Clear 24 1010 100 0 1.38 294 08:18 26.03.2020
5912 Clear 24 1010 100 0 0.45 44 07:44 26.03.2020
5913 Clear 25 1010 100 0 1.53 300 07:21 26.03.2020
5914 Clear 25 1012 94 9656 1.53 300 06:48 26.03.2020
5915 Clear 25 1012 88 9656 2.1 10 05:57 26.03.2020
5916 Clear 26 1012 88 9656 1.45 67 04:33 26.03.2020
5917 Clear 27 1010 88 9656 2.1 40 03:44 26.03.2020
5918 Clear 27 1010 83 8047 1.45 67 02:55 26.03.2020
5919 Clear 29 1009 70 9656 2.1 90 01:50 26.03.2020
5920 Clear 30 1009 58 9656 4.1 60 00:52 26.03.2020
5921 Clear 32 1009 59 9656 4.6 80 23:59 25.03.2020
5922 Clear 32 1009 59 9656 4.6 80 23:40 25.03.2020
5923 Clear 32 1009 59 9656 4.6 80 23:20 25.03.2020
5924 Clear 33 1010 55 8047 2.1 120 22:40 25.03.2020
5925 Clear 33 1010 55 8047 2.1 120 22:21 25.03.2020
5926 Clear 32 1011 59 8047 4.1 90 21:56 25.03.2020
5927 Clear 32 1011 59 8047 4.1 90 21:37 25.03.2020
5928 Clear 32 1011 59 8047 4.1 90 21:19 25.03.2020
5929 Clear 32 1012 59 8047 3.6 110 20:55 25.03.2020
5930 Clear 32 1012 59 8047 3.6 110 20:37 25.03.2020
5931 Clear 32 1012 59 8047 3.6 110 20:18 25.03.2020
5932 Clear 32 1013 66 8047 5.1 80 19:42 25.03.2020
5933 Clear 31 1013 66 8047 5.1 80 19:22 25.03.2020
5934 Clear 31 1013 66 8047 3.6 60 18:57 25.03.2020
5935 Clear 31 1013 66 8047 3.6 60 18:38 25.03.2020
5936 Clear 31 1013 66 8047 3.6 60 18:20 25.03.2020
5937 Clear 31 1013 66 8047 2.95 89 17:55 25.03.2020
5938 Clear 30 1013 66 8047 2.7 84 17:36 25.03.2020
5939 Clear 30 1013 66 8047 1.87 127 17:18 25.03.2020
5940 Clear 29 1013 74 8047 1.87 127 16:43 25.03.2020
5941 Clear 29 1013 74 8047 1.72 113 16:22 25.03.2020
5942 Haze 27 1013 88 6437 1.5 40 15:57 25.03.2020
5943 Haze 26 1013 88 6437 1.5 40 15:38 25.03.2020
5944 Haze 26 1013 88 6437 1.5 40 15:19 25.03.2020
5945 Mist 24 1012 94 6437 1.72 113 14:42 25.03.2020
5946 Mist 23 1012 94 6437 1.72 113 14:21 25.03.2020
5947 Mist 23 1012 94 6437 2.1 330 13:46 25.03.2020
5948 Mist 23 1012 94 6437 2.1 330 13:26 25.03.2020
5949 Clear 23 1010 100 0 1.35 221 12:57 25.03.2020
5950 Clear 23 1010 100 0 1.35 221 12:37 25.03.2020
5951 Clear 23 1010 100 0 1.35 221 12:18 25.03.2020
5952 Clear 23 1009 100 0 1.35 221 11:43 25.03.2020
5953 Clear 23 1009 100 0 1.35 221 11:21 25.03.2020
5954 Clear 23 1010 100 0 0.45 302 10:59 25.03.2020
5955 Clear 23 1010 100 0 0.45 302 10:40 25.03.2020
5956 Clear 23 1010 100 0 0.45 302 10:19 25.03.2020
5957 Clear 23 1010 100 0 0.45 302 09:59 25.03.2020
5958 Clear 23 1010 100 0 1.34 287 09:40 25.03.2020
5959 Clear 23 1010 100 0 0.94 241 09:22 25.03.2020
5960 Clear 24 1010 100 0 0.94 241 08:43 25.03.2020
5961 Clear 24 1011 100 0 0.94 241 08:25 25.03.2020
5962 Clear 25 1011 100 0 0.45 121 07:59 25.03.2020
5963 Clear 24 1011 100 0 0.76 314 07:39 25.03.2020
5964 Clear 24 1011 100 0 0.76 314 07:39 25.03.2020
5965 Clear 23 1011 100 0 0.76 314 07:19 25.03.2020
5966 Clear 24 1013 100 9656 0.76 314 06:45 25.03.2020
5967 Clear 24 1013 100 9656 0.76 314 06:25 25.03.2020
5968 Clear 25 1012 94 9656 0.76 314 05:48 25.03.2020
5969 Clear 26 1012 94 9656 1.44 97 04:46 25.03.2020
5970 Clear 26 1011 88 9656 1.44 97 03:58 25.03.2020
5971 Clear 26 1011 88 9656 1.44 97 03:34 25.03.2020
5972 Clear 27 1009 78 11265 4.1 100 01:41 25.03.2020
5973 Clear 29 1009 58 11265 3.1 110 00:58 25.03.2020
5974 Clear 29 1009 58 11265 3.1 110 00:40 25.03.2020
5975 Clear 30 1009 58 11265 3.1 110 00:18 25.03.2020
5976 Clear 31 1010 52 11265 5.7 90 23:40 24.03.2020
5977 Clear 31 1010 52 11265 5.7 90 23:21 24.03.2020
5978 Clear 32 1010 43 11265 6.2 80 22:55 24.03.2020
5979 Clear 32 1010 43 11265 6.2 80 22:36 24.03.2020
5980 Clear 33 1010 43 11265 6.2 80 22:18 24.03.2020
5981 Clear 33 1011 46 9656 5.1 100 21:43 24.03.2020
5982 Clear 33 1011 46 9656 5.1 100 21:19 24.03.2020
5983 Clear 33 1012 52 9656 2.6 110 20:59 24.03.2020
5984 Clear 33 1012 52 9656 2.6 110 20:41 24.03.2020
5985 Clear 33 1012 52 9656 2.6 110 20:23 24.03.2020
5986 Clear 32 1014 52 9656 2.1 170 19:48 24.03.2020
5987 Clear 32 1014 52 9656 2.1 170 19:48 24.03.2020
5988 Clear 32 1014 52 9656 2.1 170 19:24 24.03.2020
5989 Clear 32 1014 58 9656 3.76 119 18:59 24.03.2020
5990 Clear 32 1014 58 9656 3.76 119 18:40 24.03.2020
5991 -273 0 0 0 0 0 18:20 24.03.2020
5992 Clear 31 1014 58 9656 3.76 119 18:20 24.03.2020
5993 Clear 30 1015 70 9656 3.76 119 17:59 24.03.2020
5994 Clear 30 1015 70 9656 3.76 119 17:40 24.03.2020
5995 Clear 29 1015 70 9656 3.76 119 17:22 24.03.2020
5996 Clouds 28 1015 78 8047 1.5 150 16:57 24.03.2020
5997 Clouds 28 1015 78 8047 1.5 150 16:38 24.03.2020
5998 Clouds 28 1015 78 8047 1.5 150 16:20 24.03.2020
5999 Clear 26 1015 88 9656 3.39 144 15:44 24.03.2020
6000 Clear 26 1015 88 9656 3.39 144 15:44 24.03.2020
6001 Clear 26 1015 88 9656 3.39 144 15:25 24.03.2020
6002 Clear 24 1014 100 8047 3.39 144 14:57 24.03.2020
6003 Clear 23 1014 100 8047 3.39 144 14:37 24.03.2020
6004 Clear 22 1014 100 8047 1.56 150 14:18 24.03.2020
6005 Clear 22 1014 100 8047 1.56 150 13:41 24.03.2020
6006 Clear 22 1014 100 8047 1.7 154 13:22 24.03.2020
6007 Clear 22 1012 100 0 0.89 96 12:45 24.03.2020
6008 Clear 22 1012 100 0 1.7 154 12:27 24.03.2020
6009 Clear 22 1012 100 0 1.7 154 11:58 24.03.2020
6010 Clear 23 1012 100 0 0.45 119 11:38 24.03.2020
6011 Clear 23 1012 100 0 0.45 111 11:18 24.03.2020
6012 Clear 23 1012 100 0 0.45 111 10:42 24.03.2020
6013 Clear 23 1012 100 0 0.64 267 10:19 24.03.2020
6014 Clear 23 1012 100 0 0.64 267 10:19 24.03.2020
6015 Clear 23 1012 100 0 0.64 267 09:49 24.03.2020
6016 Clear 24 1013 100 0 0.45 111 09:27 24.03.2020
6017 Clear 24 1013 100 0 0.45 111 08:58 24.03.2020
6018 Clear 23 1014 100 0 0.45 111 08:38 24.03.2020
6019 Clear 24 1014 100 0 0.45 111 08:20 24.03.2020
6020 Clear 24 1014 100 0 0.45 111 07:45 24.03.2020
6021 Clear 24 1014 100 0 0.45 111 07:23 24.03.2020
6022 Clouds 25 1016 94 9656 0.83 248 06:42 24.03.2020
6023 Clouds 25 1016 94 9656 0.83 248 06:23 24.03.2020
6024 Clear 26 1015 88 9656 3.17 79 04:53 24.03.2020
6025 Clear 26 1015 88 9656 3.17 79 03:43 24.03.2020
6026 Clear 26 1014 83 9656 4.1 80 02:45 24.03.2020
6027 Clear 28 1014 74 11265 3.1 90 01:22 24.03.2020
6028 Clear 30 1014 52 11265 4.1 90 00:41 24.03.2020
6029 Clear 30 1014 52 11265 4.1 90 00:22 24.03.2020
6030 Clear 30 1014 62 11265 3.6 100 23:39 23.03.2020
6031 Clear 31 1014 62 11265 3.6 100 23:20 23.03.2020
6032 Clear 31 1014 58 11265 2.6 110 22:45 23.03.2020
6033 Clear 31 1014 58 11265 2.6 110 22:24 23.03.2020
6034 Clouds 32 1015 55 11265 3.1 110 21:57 23.03.2020
6035 Clouds 32 1015 55 11265 3.1 110 21:38 23.03.2020
6036 Clouds 32 1015 55 11265 3.1 110 21:20 23.03.2020
6037 Clouds 32 1016 59 11265 2.6 100 20:56 23.03.2020
6038 Clouds 32 1016 59 11265 2.6 100 20:56 23.03.2020
6039 Clouds 32 1016 59 11265 2.6 100 20:38 23.03.2020
6040 Clouds 32 1016 59 11265 2.6 100 20:19 23.03.2020
6041 Clouds 31 1017 55 11265 2.1 160 19:44 23.03.2020
6042 Clouds 31 1017 55 11265 2.1 160 19:24 23.03.2020
6043 Clouds 29 1018 62 9656 1.5 80 18:56 23.03.2020
6044 Clouds 30 1018 62 9656 1.5 80 18:38 23.03.2020
6045 Clouds 29 1018 62 9656 1.5 80 18:20 23.03.2020
6046 Clouds 29 1019 69 9656 3 87 17:42 23.03.2020
6047 Clouds 29 1019 69 9656 3 87 17:21 23.03.2020
6048 Clouds 27 1019 78 8047 2.48 111 16:56 23.03.2020
6049 Clouds 27 1019 78 8047 2.48 111 16:38 23.03.2020
6050 Clouds 27 1019 78 8047 2.48 111 16:19 23.03.2020
6051 Clouds 25 1019 94 8047 2.48 111 15:41 23.03.2020
6052 Clouds 24 1019 94 8047 2.48 111 15:19 23.03.2020
6053 Clouds 23 1018 100 8047 2.48 111 14:38 23.03.2020
6054 Clouds 22 1018 100 8047 3.11 86 14:20 23.03.2020
6055 Clouds 23 1018 94 8047 3.11 86 13:57 23.03.2020
6056 Clouds 23 1018 94 8047 3.11 86 13:39 23.03.2020
6057 Clouds 23 1018 94 8047 3.11 86 13:20 23.03.2020
6058 Clear 22 1017 94 9656 2.76 84 12:44 23.03.2020
6059 Clear 22 1016 100 0 2.76 84 12:25 23.03.2020
6060 Clear 22 1015 100 0 2.76 84 11:58 23.03.2020
6061 Clear 22 1015 100 0 2.76 84 11:38 23.03.2020
6062 Clear 22 1015 100 0 1.82 352 11:19 23.03.2020
6063 Clear 23 1015 100 0 1.82 352 10:56 23.03.2020
6064 Clear 23 1015 100 0 1.82 352 10:37 23.03.2020
6065 Clear 23 1015 100 0 1.82 352 10:19 23.03.2020
6066 Clear 23 1015 100 0 1.82 352 09:44 23.03.2020
6067 Clear 23 1016 100 0 1.82 352 09:21 23.03.2020
6068 Clear 23 1016 100 0 1.82 352 08:40 23.03.2020
6069 Clear 24 1016 100 0 2.43 4 08:21 23.03.2020
6070 Clear 24 1016 100 0 1.88 287 07:59 23.03.2020
6071 Clear 24 1016 100 0 1.88 287 07:59 23.03.2020
6072 Clear 24 1017 100 0 1.88 287 07:40 23.03.2020
6073 Clear 24 1017 100 0 1.88 287 07:19 23.03.2020
6074 Clouds 25 1018 88 9656 1.88 287 06:48 23.03.2020
6075 Clouds 25 1018 88 9656 1.88 287 05:51 23.03.2020
6076 Clouds 25 1018 88 9656 2.24 46 04:58 23.03.2020
6077 Clear 26 1017 83 9656 3.1 80 03:26 23.03.2020
6078 Clear 27 1015 69 11265 3.6 80 01:50 23.03.2020
6079 Clear 28 1015 69 11265 4.1 100 00:58 23.03.2020
6080 Clear 28 1015 69 11265 4.1 100 00:36 23.03.2020
6081 Clear 29 1015 62 11265 6.7 70 23:47 22.03.2020
6082 Clear 29 1015 62 11265 6.7 70 23:25 22.03.2020
6083 Clear 30 1015 58 11265 4.1 90 22:45 22.03.2020
6084 Clear 30 1015 58 11265 4.1 90 22:24 22.03.2020
6085 Clear 31 1016 46 11265 1.5 110 21:56 22.03.2020
6086 Clear 31 1016 46 11265 1.5 110 21:37 22.03.2020
6087 Clear 31 1016 46 11265 1.5 110 21:19 22.03.2020
6088 Clouds 32 1016 43 11265 4.1 60 20:46 22.03.2020
6089 Clouds 32 1016 43 11265 4.1 60 20:25 22.03.2020
6090 Clouds 31 1018 45 11265 1.5 100 19:58 22.03.2020
6091 Clouds 31 1018 45 11265 1.5 100 19:40 22.03.2020
6092 Clouds 31 1018 45 11265 1.5 100 19:20 22.03.2020
6093 Clouds 31 1019 51 9656 2.47 69 18:59 22.03.2020
6094 Clouds 31 1019 51 9656 2.47 69 18:41 22.03.2020
6095 Clouds 30 1019 51 9656 2.47 69 18:22 22.03.2020
6096 Clouds 30 1019 58 9656 2.47 69 17:59 22.03.2020
6097 Clouds 30 1019 58 9656 2.47 69 17:39 22.03.2020
6098 Clouds 29 1019 58 9656 1.17 80 17:20 22.03.2020
6099 Clouds 28 1019 69 8047 1.17 80 16:58 22.03.2020
6100 Clouds 28 1019 69 8047 1.17 80 16:58 22.03.2020
6101 Clouds 28 1019 69 8047 1.17 80 16:39 22.03.2020
6102 Clouds 27 1019 69 8047 1.17 80 16:21 22.03.2020
6103 Clouds 25 1019 94 8047 1.17 80 15:56 22.03.2020
6104 Clouds 25 1019 94 8047 1.17 80 15:38 22.03.2020
6105 Mist 23 1018 100 8047 1.17 80 14:46 22.03.2020
6106 Mist 22 1018 100 8047 1.26 40 14:19 22.03.2020
6107 Clear 22 1018 94 8047 1.26 40 13:55 22.03.2020
6108 Clear 21 1018 94 8047 1.26 40 13:37 22.03.2020
6109 Clear 22 1018 94 8047 1.57 32 13:18 22.03.2020
6110 Rain 22 1016 100 0 0.45 147 12:43 22.03.2020
6111 Rain 22 1016 100 0 0.45 147 12:20 22.03.2020
6112 Rain 22 1016 100 0 0.89 147 11:55 22.03.2020
6113 Rain 23 1016 100 0 0.45 147 11:36 22.03.2020
6114 Clouds 23 1016 100 0 0.89 70 11:18 22.03.2020
6115 Clouds 22 1015 100 0 0.89 342 10:42 22.03.2020
6116 Clouds 23 1016 100 0 0.45 342 10:23 22.03.2020
6117 Clouds 23 1016 100 0 2.42 0 09:47 22.03.2020
6118 Clouds 23 1016 100 0 2.42 0 09:28 22.03.2020
6119 Clouds 24 1016 100 0 0.45 342 08:53 22.03.2020
6120 Clouds 24 1016 100 0 0.45 342 08:53 22.03.2020
6121 Clouds 24 1016 100 0 0.89 342 08:33 22.03.2020
6122 Clouds 24 1017 100 0 1.34 342 07:59 22.03.2020
6123 Clouds 24 1017 100 0 1.79 348 07:41 22.03.2020
6124 Clouds 25 1020 94 9656 2.1 360 06:48 22.03.2020
6125 Clouds 25 1019 88 9656 2.6 10 05:52 22.03.2020
6126 Clouds 25 1019 88 9656 4.1 30 04:39 22.03.2020
6127 Clouds 26 1018 83 8047 5.1 30 02:34 22.03.2020
6128 Clouds 28 1017 74 11265 5.1 50 00:51 22.03.2020
6129 Clouds 28 1017 74 11265 5.1 50 00:32 22.03.2020
6130 Clouds 28 1017 74 11265 6.2 20 23:46 21.03.2020
6131 Clouds 28 1017 74 11265 6.2 20 23:23 21.03.2020
6132 Clouds 29 1018 66 11265 5.7 40 22:59 21.03.2020
6133 Clouds 29 1018 66 11265 5.7 40 22:38 21.03.2020
6134 Clouds 29 1018 66 11265 5.7 40 22:38 21.03.2020
6135 Clouds 29 1018 66 11265 5.7 40 22:20 21.03.2020
6136 Clouds 30 1018 62 9656 5.1 40 21:58 21.03.2020
6137 Clouds 30 1018 62 9656 5.1 40 21:38 21.03.2020
6138 Clouds 30 1018 62 9656 5.1 40 21:19 21.03.2020
6139 Clouds 30 1019 62 9656 5.1 50 20:42 21.03.2020
6140 Clouds 30 1019 62 9656 5.1 50 20:22 21.03.2020
6141 Clouds 30 1020 62 9656 3.6 20 19:55 21.03.2020
6142 Clouds 30 1020 62 9656 3.6 20 19:36 21.03.2020
6143 Clouds 30 1020 62 9656 3.6 20 19:18 21.03.2020
6144 Clouds 29 1021 66 9656 4.6 360 18:41 21.03.2020
6145 Clouds 29 1021 66 9656 4.6 360 18:21 21.03.2020
6146 Clouds 30 1021 62 9656 6.2 40 17:59 21.03.2020
6147 Clouds 30 1021 62 9656 6.2 40 17:41 21.03.2020
6148 Clouds 30 1021 62 9656 6.2 40 17:22 21.03.2020
6149 Clouds 28 1020 69 9656 3.1 360 16:42 21.03.2020
6150 Clouds 28 1020 69 9656 3.1 360 16:23 21.03.2020
6151 Clouds 27 1020 83 8047 4.1 50 15:59 21.03.2020
6152 Clouds 27 1020 83 8047 4.1 50 15:40 21.03.2020
6153 Clouds 27 1020 83 8047 4.1 50 15:21 21.03.2020
6154 Clouds 26 1019 88 8047 4.1 360 14:56 21.03.2020
6155 Clouds 26 1019 88 8047 4.1 360 14:38 21.03.2020
6156 Clouds 25 1019 88 8047 4.1 360 14:19 21.03.2020
6157 Clouds 25 1019 88 9656 3.6 20 13:57 21.03.2020
6158 Clouds 25 1019 88 9656 3.6 20 13:38 21.03.2020
6159 Clouds 25 1019 88 9656 3.6 20 13:38 21.03.2020
6160 Clouds 25 1019 88 9656 3.6 20 13:20 21.03.2020
6161 Clouds 25 1019 88 9656 3.6 20 12:41 21.03.2020
6162 Rain 26 1017 100 0 3.58 36 12:21 21.03.2020
6163 Rain 26 1016 100 0 3.13 40 11:59 21.03.2020
6164 Rain 26 1016 100 0 3.58 37 11:39 21.03.2020
6165 Clouds 26 1016 100 0 3.58 16 11:20 21.03.2020
6166 Clouds 26 1016 100 0 3.58 16 11:20 21.03.2020
6167 Clouds 26 1016 100 0 2.68 22 10:58 21.03.2020
6168 Clouds 26 1016 100 0 2.68 28 10:40 21.03.2020
6169 Clouds 26 1016 100 0 2.24 21 10:22 21.03.2020
6170 Clouds 26 1016 100 0 1.79 360 09:59 21.03.2020
6171 Clouds 26 1016 100 0 1.79 360 09:39 21.03.2020
6172 Clouds 26 1016 100 0 3.13 27 09:20 21.03.2020
6173 Clouds 26 1016 100 0 2.24 5 08:55 21.03.2020
6174 Clouds 26 1016 100 0 2.24 360 08:37 21.03.2020
6175 Clouds 26 1016 100 0 2.24 360 08:19 21.03.2020
6176 Clouds 26 1016 100 0 1.79 5 07:37 21.03.2020
6177 Clouds 26 1018 94 9656 2.1 10 07:19 21.03.2020
6178 Clouds 26 1018 94 9656 2.1 10 06:44 21.03.2020
6179 Clouds 25 1018 94 9656 2.1 10 06:24 21.03.2020
6180 Clouds 26 1017 94 9656 2.6 350 05:40 21.03.2020
6181 Clouds 26 1016 88 9656 3.6 20 03:49 21.03.2020
6182 Clouds 26 1015 88 9656 2.1 50 02:37 21.03.2020
6183 Clouds 27 1014 78 9656 4.6 50 01:44 21.03.2020
6184 Clouds 27 1014 78 9656 4.6 50 01:23 21.03.2020
6185 Clouds 28 1014 78 9656 5.7 50 00:39 21.03.2020
6186 Clouds 28 1014 78 9656 5.7 50 00:21 21.03.2020
6187 Clouds 29 1013 74 9656 5.1 50 23:42 20.03.2020
6188 Clouds 29 1013 74 9656 5.1 50 23:22 20.03.2020
6189 Clouds 30 1014 74 8047 6.2 30 22:44 20.03.2020
6190 Clouds 29 1014 74 8047 6.2 30 22:25 20.03.2020
6191 Clouds 30 1014 70 8047 5.1 60 21:58 20.03.2020
6192 Clouds 30 1014 70 8047 5.1 60 21:40 20.03.2020
6193 Clouds 30 1014 70 8047 5.1 60 21:20 20.03.2020
6194 Clouds 30 1015 62 8047 4.1 70 20:58 20.03.2020
6195 Clouds 31 1015 62 8047 4.1 70 20:40 20.03.2020
6196 Clouds 31 1015 62 8047 4.1 70 20:19 20.03.2020
6197 Clouds 31 1016 66 8047 3.1 70 19:47 20.03.2020
6198 Clouds 30 1016 66 8047 3.1 70 19:20 20.03.2020
6199 Clouds 30 1016 66 8047 2.6 90 18:57 20.03.2020
6200 Clouds 30 1016 66 8047 2.6 90 18:38 20.03.2020
6201 Clouds 30 1016 66 8047 2.6 90 18:19 20.03.2020
6202 Clouds 30 1016 70 8047 1 100 17:56 20.03.2020
6203 Clouds 30 1016 70 8047 1 100 17:37 20.03.2020
6204 Clouds 29 1016 70 8047 1 100 17:18 20.03.2020
6205 Clear 28 1016 74 6437 1.05 25 16:41 20.03.2020
6206 Clear 28 1016 74 6437 1.05 25 16:41 20.03.2020
6207 -273 0 0 0 0 0 16:21 20.03.2020
6208 Mist 27 1015 88 4828 1 50 15:44 20.03.2020
6209 Mist 27 1015 88 4828 1 50 15:23 20.03.2020
6210 Mist 25 1015 94 4828 1 50 14:58 20.03.2020
6211 Mist 25 1015 94 4828 1 50 14:40 20.03.2020
6212 Mist 24 1015 94 4828 1 50 14:20 20.03.2020
6213 Mist 24 1014 88 8047 0.58 160 13:48 20.03.2020
6214 Mist 23 1014 88 8047 0.33 133 13:22 20.03.2020
6215 Mist 23 1014 88 8047 0.33 133 12:58 20.03.2020
6216 Mist 23 1014 88 8047 0.33 133 12:38 20.03.2020
6217 Clear 24 1012 100 0 0.33 133 12:19 20.03.2020
6218 Clear 23 1011 100 0 0.45 180 11:39 20.03.2020
6219 Clear 24 1011 100 0 1.11 268 11:20 20.03.2020
6220 Clear 24 1011 100 0 1.11 268 10:54 20.03.2020
6221 Clear 24 1011 100 0 1.11 268 10:36 20.03.2020
6222 Clear 24 1012 100 0 1.34 147 10:18 20.03.2020
6223 Clear 24 1012 100 0 0.89 274 09:44 20.03.2020
6224 Clear 24 1012 100 0 0.89 253 09:20 20.03.2020
6225 Clear 24 1013 100 0 0.89 250 08:43 20.03.2020
6226 Clear 24 1013 100 0 0.89 250 08:23 20.03.2020
6227 Clear 24 1013 100 0 2.73 283 07:57 20.03.2020
6228 Clear 24 1014 100 0 2.73 283 07:38 20.03.2020
6229 Clear 25 1014 100 0 1.34 250 07:19 20.03.2020
6230 Clear 25 1014 100 0 1.34 250 07:19 20.03.2020
6231 Clear 25 1014 100 0 1.34 176 06:42 20.03.2020
6232 Clear 25 1013 100 0 2.73 283 06:18 20.03.2020
6233 Clouds 26 1014 88 9656 0.63 73 04:36 20.03.2020
6234 Clouds 26 1012 88 9656 2.1 110 02:50 20.03.2020
6235 Clouds 27 1011 83 9656 3.6 100 01:50 20.03.2020
6236 Clouds 28 1011 74 9656 3.6 110 00:38 20.03.2020
6237 Clear 29 1011 66 9656 2.6 110 23:58 19.03.2020
6238 Clear 30 1011 66 9656 2.6 110 23:40 19.03.2020
6239 Clear 30 1011 66 9656 2.6 110 23:19 19.03.2020
6240 Clear 30 1011 66 9656 2.6 110 23:19 19.03.2020
6241 Clear 30 1011 66 9656 3.1 100 22:38 19.03.2020
6242 Clear 30 1011 66 9656 3.1 100 22:20 19.03.2020
6243 Clouds 31 1012 66 9656 6.7 70 21:57 19.03.2020
6244 Clouds 31 1012 66 9656 6.7 70 21:38 19.03.2020
6245 Clouds 31 1012 66 9656 6.7 70 21:18 19.03.2020
6246 Clouds 32 1013 49 9656 2.6 110 20:42 19.03.2020
6247 Clouds 32 1013 49 9656 2.6 110 20:42 19.03.2020
6248 Clouds 32 1013 49 9656 2.6 110 20:24 19.03.2020
6249 Clouds 32 1015 52 9656 4.2 85 19:57 19.03.2020
6250 Clouds 32 1015 52 9656 4.2 85 19:38 19.03.2020
6251 Clouds 32 1015 52 9656 4.2 85 19:20 19.03.2020
6252 Clear 31 1016 62 8047 2.6 170 18:57 19.03.2020
6253 Clear 31 1016 62 8047 2.6 170 18:38 19.03.2020
6254 Clear 31 1016 62 8047 2.6 170 18:19 19.03.2020
6255 Haze 29 1016 74 6437 2.6 160 17:42 19.03.2020
6256 Haze 28 1016 74 6437 2.6 160 17:20 19.03.2020
6257 Mist 27 1016 88 4828 3.6 180 16:56 19.03.2020
6258 Mist 26 1016 88 4828 3.6 180 16:37 19.03.2020
6259 Mist 26 1016 88 4828 3.6 180 16:19 19.03.2020
6260 Mist 24 1016 94 3219 2.6 210 15:40 19.03.2020
6261 Fog 23 1016 100 805 1.91 171 15:18 19.03.2020
6262 Fog 23 1016 100 805 1.91 171 14:43 19.03.2020
6263 Mist 23 1015 100 4828 1.91 171 14:21 19.03.2020
6264 Mist 22 1015 100 8047 2.35 150 13:42 19.03.2020
6265 Mist 22 1015 100 8047 2.86 143 13:21 19.03.2020
6266 Clear 22 1013 100 0 0.45 92 12:58 19.03.2020
6267 Clear 22 1013 100 0 2.86 143 12:40 19.03.2020
6268 Clear 22 1013 100 0 2.86 143 12:21 19.03.2020
6269 Clear 22 1013 100 0 2.86 143 11:43 19.03.2020
6270 Clear 22 1013 100 0 2.86 143 11:24 19.03.2020
6271 Clear 22 1013 100 0 1.42 284 10:58 19.03.2020
6272 Clear 22 1013 100 0 1.42 284 10:38 19.03.2020
6273 Clear 22 1013 100 0 1.42 284 10:19 19.03.2020
6274 Clear 22 1013 100 0 1.42 284 09:55 19.03.2020
6275 Clear 22 1013 100 0 1.42 284 09:37 19.03.2020
6276 Clear 22 1013 100 0 1.42 284 09:18 19.03.2020
6277 Clear 23 1013 100 0 1.42 284 08:41 19.03.2020
6278 Clear 23 1014 100 0 1.19 301 08:20 19.03.2020
6279 Clear 23 1014 100 0 0.45 92 07:44 19.03.2020
6280 Clear 23 1014 100 0 0.45 92 07:44 19.03.2020
6281 Clear 23 1014 100 0 1.39 300 07:23 19.03.2020
6282 Clouds 23 1016 94 9656 1.39 300 06:35 19.03.2020
6283 Clouds 24 1016 94 9656 1.39 300 05:48 19.03.2020
6284 Clouds 24 1016 88 9656 1.68 38 04:54 19.03.2020
6285 Clouds 24 1016 88 9656 1.68 38 04:34 19.03.2020
6286 Clouds 26 1014 83 8047 1.5 100 02:37 19.03.2020
6287 Clouds 28 1013 62 9656 3.6 100 00:58 19.03.2020
6288 Clouds 29 1013 62 9656 3.6 100 00:22 19.03.2020
6289 Clear 30 1013 55 9656 4.1 100 23:48 18.03.2020
6290 Clear 31 1013 55 9656 4.1 100 23:27 18.03.2020
6291 Clouds 30 1014 66 9656 4.1 90 22:44 18.03.2020
6292 Clouds 30 1014 66 9656 4.1 90 22:24 18.03.2020
6293 Clouds 32 1014 59 9656 3.6 100 21:59 18.03.2020
6294 Clouds 32 1014 59 9656 3.6 100 21:41 18.03.2020
6295 Clouds 32 1014 59 9656 3.6 100 21:21 18.03.2020
6296 Clouds 31 1015 62 9656 3.6 80 20:57 18.03.2020
6297 Clouds 31 1015 62 9656 3.6 80 20:39 18.03.2020
6298 Clouds 31 1015 62 9656 3.6 80 20:20 18.03.2020
6299 Clouds 30 1016 58 9656 1.5 100 19:55 18.03.2020
6300 Clouds 31 1016 58 9656 1.5 100 19:36 18.03.2020
6301 Clouds 31 1016 58 9656 1.5 100 19:18 18.03.2020
6302 Clouds 30 1017 62 9656 2.1 100 18:41 18.03.2020
6303 Clouds 30 1017 62 9656 2.1 100 18:20 18.03.2020
6304 Clouds 29 1017 69 8047 2.88 99 17:57 18.03.2020
6305 Clouds 29 1017 69 8047 2.88 99 17:39 18.03.2020
6306 Clouds 28 1017 69 8047 2.41 185 17:20 18.03.2020
6307 Clouds 27 1017 88 8047 3.6 170 16:54 18.03.2020
6308 Clouds 26 1017 88 8047 3.6 170 16:36 18.03.2020
6309 Clouds 26 1017 88 8047 3.6 170 16:18 18.03.2020
6310 Clouds 25 1016 94 8047 1.5 150 15:44 18.03.2020
6311 Clouds 24 1016 94 8047 1.5 150 15:20 18.03.2020
6312 Clouds 25 1016 94 8047 2.41 185 14:45 18.03.2020
6313 Clouds 24 1016 94 8047 2.41 185 14:21 18.03.2020
6314 Clouds 24 1015 94 8047 1.5 50 13:42 18.03.2020
6315 Clouds 24 1015 94 8047 1.5 50 13:20 18.03.2020
6316 Clouds 23 1015 94 8047 1.5 50 12:59 18.03.2020
6317 Clouds 23 1015 94 8047 1.5 50 12:59 18.03.2020
6318 Rain 24 1013 100 0 0.89 73 12:41 18.03.2020
6319 Rain 23 1013 100 0 1.32 134 12:19 18.03.2020
6320 Rain 22 1013 100 0 1.32 134 11:39 18.03.2020
6321 Rain 23 1013 100 0 1.32 134 11:21 18.03.2020
6322 Clear 23 1013 100 0 1.59 336 10:58 18.03.2020
6323 Clear 23 1013 100 0 1.59 336 10:38 18.03.2020
6324 Clear 23 1013 100 0 1.34 73 10:20 18.03.2020
6325 Clear 23 1013 100 0 1.59 336 09:43 18.03.2020
6326 Clear 23 1013 100 0 1.59 336 09:25 18.03.2020
6327 Clear 23 1013 100 0 0.45 322 08:57 18.03.2020
6328 Clear 23 1013 100 0 0.45 322 08:39 18.03.2020
6329 Clear 23 1013 100 0 0.45 322 08:39 18.03.2020
6330 Clear 23 1013 100 0 0.89 322 08:20 18.03.2020
6331 Clear 24 1014 100 0 0.89 322 07:46 18.03.2020
6332 Clear 24 1014 100 0 0.89 322 07:28 18.03.2020
6333 Clouds 24 1016 94 11265 1.65 298 06:44 18.03.2020
6334 Clouds 24 1016 94 11265 1.65 298 06:22 18.03.2020
6335 Clouds 25 1016 88 11265 1.5 20 05:35 18.03.2020
6336 Clouds 25 1016 88 11265 1.5 40 04:25 18.03.2020
6337 Clear 26 1015 83 11265 2.1 80 02:44 18.03.2020
6338 Clear 27 1014 69 11265 3.1 100 01:48 18.03.2020
6339 Clear 27 1014 69 11265 3.1 100 01:27 18.03.2020
6340 Clear 29 1013 54 11265 5.1 80 00:24 18.03.2020
6341 Clear 29 1014 58 11265 3.6 100 23:48 17.03.2020
6342 Clear 30 1014 58 11265 3.6 100 23:27 17.03.2020
6343 Clear 30 1014 58 11265 3.6 130 22:57 17.03.2020
6344 Clear 30 1014 58 11265 3.6 130 22:37 17.03.2020
6345 Clear 30 1014 58 11265 3.6 130 22:19 17.03.2020
6346 Clouds 30 1014 58 9656 2.6 110 21:39 17.03.2020
6347 Clouds 30 1014 58 9656 2.6 110 21:21 17.03.2020
6348 Clouds 30 1014 58 9656 2.6 110 21:21 17.03.2020
6349 Clouds 30 1014 58 9656 2.6 110 21:21 17.03.2020
6350 Clouds 29 1016 66 9656 4.6 80 20:40 17.03.2020
6351 Clouds 29 1016 66 9656 4.6 80 20:40 17.03.2020
6352 Clouds 30 1016 66 9656 4.6 80 20:21 17.03.2020
6353 Clouds 29 1017 62 11265 3.31 84 19:58 17.03.2020
6354 Clouds 29 1017 62 11265 3.31 84 19:39 17.03.2020
6355 Clouds 29 1017 62 11265 3.31 84 19:18 17.03.2020
6356 Clouds 30 1018 62 9656 2.1 150 18:56 17.03.2020
6357 Clouds 29 1018 62 9656 2.1 150 18:37 17.03.2020
6358 Clouds 29 1018 62 9656 2.1 150 18:19 17.03.2020
6359 Clouds 28 1019 69 8047 2.1 180 17:40 17.03.2020
6360 -273 0 0 0 0 0 17:21 17.03.2020
6361 Haze 26 1019 88 6437 0.6 64 16:54 17.03.2020
6362 Haze 25 1019 88 6437 0.6 64 16:36 17.03.2020
6363 Haze 25 1019 88 6437 0.6 64 16:18 17.03.2020
6364 Mist 22 1019 100 4828 0.6 64 15:41 17.03.2020
6365 Mist 21 1019 100 4828 0.6 64 15:19 17.03.2020
6366 Clear 21 1017 94 8047 0.6 64 14:42 17.03.2020
6367 Clear 20 1017 94 8047 0.6 64 14:21 17.03.2020
6368 Clear 20 1017 100 9656 1.93 80 13:44 17.03.2020
6369 Clear 20 1017 100 9656 1.93 80 13:26 17.03.2020
6370 Clear 20 1017 100 9656 1.85 63 12:58 17.03.2020
6371 Clouds 20 1015 100 0 1.85 63 12:39 17.03.2020
6372 Clouds 20 1015 100 0 1.85 63 12:21 17.03.2020
6373 Clouds 21 1015 100 0 1.85 63 11:45 17.03.2020
6374 Clouds 21 1015 100 0 1.85 63 11:27 17.03.2020
6375 Clouds 21 1015 100 0 1.4 62 11:27 17.03.2020
6376 Clouds 21 1015 100 0 0.45 96 10:58 17.03.2020
6377 Clouds 21 1015 100 0 0.45 96 10:37 17.03.2020
6378 Clouds 21 1015 100 0 1.79 96 10:19 17.03.2020
6379 Clouds 21 1015 100 0 0.78 311 09:55 17.03.2020
6380 Clouds 22 1015 100 0 0.34 260 09:36 17.03.2020
6381 Clouds 21 1015 100 0 0.89 5 09:18 17.03.2020
6382 Clouds 23 1016 100 0 0.45 5 08:42 17.03.2020
6383 Clouds 22 1016 100 0 0.89 5 08:21 17.03.2020
6384 Clear 22 1016 100 0 0.45 5 07:49 17.03.2020
6385 Clear 23 1017 100 0 2.33 292 07:24 17.03.2020
6386 Clouds 23 1019 94 9656 1.5 320 06:53 17.03.2020
6387 Clouds 23 1019 94 9656 1.5 320 06:27 17.03.2020
6388 Clouds 24 1018 88 9656 2.1 360 05:38 17.03.2020
6389 Clouds 25 1017 83 9656 4.1 30 03:36 17.03.2020
6390 Clouds 25 1017 83 9656 5.1 50 02:38 17.03.2020
6391 Clouds 26 1016 78 11265 5.7 30 01:41 17.03.2020
6392 Clouds 26 1016 78 11265 5.7 30 01:18 17.03.2020
6393 Clear 27 1015 69 9656 5.7 40 00:19 17.03.2020
6394 Clear 28 1016 65 9656 4.6 50 23:43 16.03.2020
6395 Clear 28 1016 65 9656 4.6 50 23:22 16.03.2020
6396 Clear 29 1016 58 9656 3.6 90 22:38 16.03.2020
6397 Clear 29 1016 58 9656 3.6 90 22:20 16.03.2020
6398 Clear 30 1017 58 9656 2.6 90 21:45 16.03.2020
6399 Clear 30 1017 58 9656 2.6 90 21:27 16.03.2020
6400 Clear 30 1018 55 9656 2.6 70 20:59 16.03.2020
6401 Clear 30 1018 55 9656 2.6 70 20:40 16.03.2020
6402 Clear 30 1018 55 9656 2.6 70 20:21 16.03.2020
6403 Clouds 30 1019 54 9656 2.6 90 19:46 16.03.2020
6404 Clouds 29 1019 54 9656 2.6 90 19:25 16.03.2020
6405 Clouds 29 1019 54 9656 2.6 90 19:25 16.03.2020
6406 Clouds 29 1019 62 8047 1.5 120 18:59 16.03.2020
6407 Clouds 29 1019 62 8047 1.5 120 18:39 16.03.2020
6408 Clouds 29 1019 62 8047 1.5 120 18:20 16.03.2020
6409 Clouds 29 1019 65 8047 2.78 41 17:46 16.03.2020
6410 Clouds 28 1019 65 8047 2.78 41 17:25 16.03.2020
6411 Clouds 26 1020 83 9656 0.88 32 16:58 16.03.2020
6412 Clouds 26 1020 83 9656 0.88 32 16:40 16.03.2020
6413 Clouds 26 1020 83 9656 0.88 32 16:21 16.03.2020
6414 Clouds 24 1019 94 8047 0.88 32 15:43 16.03.2020
6415 Clouds 24 1019 94 8047 0.88 32 15:24 16.03.2020
6416 Clouds 23 1019 94 8047 1.5 50 14:48 16.03.2020
6417 Clouds 23 1019 94 8047 1.5 50 14:23 16.03.2020
6418 Clouds 23 1018 94 8047 2.1 80 13:51 16.03.2020
6419 Clouds 23 1018 94 8047 2.1 80 13:29 16.03.2020
6420 Clouds 24 1016 100 0 1.79 76 12:58 16.03.2020
6421 Clouds 24 1016 100 0 1.79 83 12:39 16.03.2020
6422 Clouds 23 1016 100 0 1.34 92 12:20 16.03.2020
6423 Clouds 23 1016 100 0 0.89 90 11:43 16.03.2020
6424 Clouds 23 1016 100 0 2.17 53 11:25 16.03.2020
6425 Clear 23 1016 100 0 0.45 90 10:45 16.03.2020
6426 Clear 23 1016 100 0 1.79 90 10:24 16.03.2020
6427 Clear 23 1016 100 0 0.89 17 09:56 16.03.2020
6428 Clear 22 1016 100 0 2.38 23 09:37 16.03.2020
6429 Clear 23 1016 100 0 2.38 23 09:19 16.03.2020
6430 Clear 23 1016 100 0 2.38 23 08:40 16.03.2020
6431 Clear 23 1016 100 0 2.88 28 08:21 16.03.2020
6432 Clear 23 1016 100 0 3.03 327 07:42 16.03.2020
6433 Clear 23 1017 100 0 0.89 17 07:19 16.03.2020
6434 Clouds 24 1019 94 9656 1 360 06:29 16.03.2020
6435 Clouds 24 1019 94 9656 2.1 360 05:59 16.03.2020
6436 Clouds 25 1018 88 9656 2.1 350 04:21 16.03.2020
6437 Clouds 26 1017 83 11265 5.7 60 01:46 16.03.2020
6438 Clear 27 1016 78 11265 6.7 70 00:45 16.03.2020
6439 Clear 27 1016 78 11265 6.7 70 00:25 16.03.2020
6440 Clear 28 1016 74 11265 6.2 60 23:39 15.03.2020
6441 Clear 28 1016 74 11265 6.2 60 23:18 15.03.2020
6442 Clouds 29 1017 70 11265 3.6 90 22:42 15.03.2020
6443 Clouds 29 1017 70 11265 3.6 90 22:20 15.03.2020
6444 Clouds 29 1018 66 11265 5.7 70 21:39 15.03.2020
6445 Clouds 29 1018 66 11265 5.7 70 21:21 15.03.2020
6446 Clouds 30 1018 62 11265 5.1 70 20:55 15.03.2020
6447 Clouds 30 1018 62 11265 5.1 70 20:36 15.03.2020
6448 Clouds 30 1018 62 11265 5.1 70 20:18 15.03.2020
6449 Clouds 30 1019 66 11265 2.6 100 19:43 15.03.2020
6450 Clouds 29 1019 66 11265 2.6 100 19:25 15.03.2020
6451 Clouds 30 1020 62 9656 1.5 30 18:59 15.03.2020
6452 Clouds 30 1020 62 9656 1.5 30 18:40 15.03.2020
6453 Clouds 29 1020 62 9656 1.5 30 18:22 15.03.2020
6454 Clouds 28 1020 78 8047 2.1 20 17:57 15.03.2020
6455 Clouds 28 1020 78 8047 2.1 20 17:38 15.03.2020
6456 Clouds 28 1020 78 8047 2.1 20 17:18 15.03.2020
6457 Clouds 27 1020 78 8047 2.6 20 16:43 15.03.2020
6458 Clouds 27 1020 78 8047 2.6 20 16:25 15.03.2020
6459 Clouds 26 1019 88 8047 3.1 350 15:58 15.03.2020
6460 Clouds 26 1019 88 8047 3.1 350 15:40 15.03.2020
6461 Clouds 26 1019 88 8047 3.1 350 15:19 15.03.2020
6462 Clouds 25 1019 94 8047 2.1 10 14:46 15.03.2020
6463 Clouds 24 1019 94 8047 2.1 10 14:24 15.03.2020
6464 Clouds 25 1018 88 9656 3.1 20 13:58 15.03.2020
6465 Clouds 25 1018 88 9656 3.1 20 13:38 15.03.2020
6466 Clouds 25 1018 88 9656 3.1 20 13:38 15.03.2020
6467 Clouds 25 1018 88 9656 3.1 20 13:38 15.03.2020
6468 Clouds 24 1018 88 9656 3.1 20 13:20 15.03.2020
6469 Clouds 24 1016 100 0 1.79 40 12:44 15.03.2020
6470 Clouds 24 1016 100 0 1.79 42 12:25 15.03.2020
6471 Clouds 25 1016 100 0 2.68 32 11:56 15.03.2020
6472 Clouds 25 1016 100 0 2.24 18 11:38 15.03.2020
6473 Clear 25 1016 100 0 2.68 30 11:20 15.03.2020
6474 Clear 25 1016 100 0 2.24 29 10:55 15.03.2020
6475 Clear 25 1016 100 0 3.58 29 10:36 15.03.2020
6476 Clear 25 1016 100 0 2.24 10 10:18 15.03.2020
6477 Clear 25 1015 100 0 1.79 5 09:39 15.03.2020
6478 Clear 25 1016 100 0 2.24 11 09:20 15.03.2020
6479 Clear 25 1016 100 0 1.79 18 08:42 15.03.2020
6480 Clear 25 1016 100 0 1.79 25 08:20 15.03.2020
6481 Clear 25 1016 100 0 1.79 15 07:50 15.03.2020
6482 Clear 25 1016 100 0 1.79 11 07:23 15.03.2020
6483 Clouds 25 1017 83 9656 1 360 06:44 15.03.2020
6484 Clouds 25 1017 88 9656 1 50 05:50 15.03.2020
6485 Clouds 25 1017 88 9656 1.5 60 04:58 15.03.2020
6486 Clouds 25 1017 88 9656 1.5 60 04:40 15.03.2020
6487 Clouds 25 1017 88 9656 1.5 60 04:21 15.03.2020
6488 Clouds 25 1016 88 9656 2.96 52 03:25 15.03.2020
6489 Clouds 25 1015 88 8047 2.1 100 02:36 15.03.2020
6490 Clear 26 1014 83 8047 2.6 100 01:19 15.03.2020
6491 Clear 27 1014 78 8047 5.7 70 00:42 15.03.2020
6492 Clear 27 1014 78 8047 5.7 70 00:19 15.03.2020
6493 Clear 28 1014 74 11265 5.1 80 23:41 14.03.2020
6494 Clear 28 1014 74 11265 5.1 80 23:20 14.03.2020
6495 Clear 29 1014 70 11265 4.1 60 22:56 14.03.2020
6496 Clear 29 1014 70 11265 4.1 60 22:38 14.03.2020
6497 Clear 29 1014 70 11265 4.1 60 22:20 14.03.2020
6498 Clear 29 1015 70 9656 3.6 90 21:56 14.03.2020
6499 Clear 29 1015 70 9656 3.6 90 21:36 14.03.2020
6500 Clear 29 1015 70 9656 3.6 90 21:18 14.03.2020
6501 Clear 29 1015 70 9656 3.6 90 21:18 14.03.2020
6502 Clouds 29 1016 70 9656 3.1 70 20:58 14.03.2020
6503 Clouds 29 1016 70 9656 3.1 70 20:39 14.03.2020
6504 Clouds 29 1016 70 9656 3.1 70 20:18 14.03.2020
6505 Clouds 29 1017 66 9656 2.1 70 19:42 14.03.2020
6506 Clouds 29 1017 66 9656 2.1 70 19:24 14.03.2020
6507 Clouds 29 1018 69 9656 2.6 80 18:41 14.03.2020
6508 Clouds 28 1018 69 9656 2.6 80 18:21 14.03.2020
6509 Clouds 28 1018 74 8047 3.1 70 17:44 14.03.2020
6510 Clouds 28 1018 74 8047 3.1 70 17:24 14.03.2020
6511 Mist 27 1018 83 4828 1 350 17:00 14.03.2020
6512 Mist 27 1018 83 4828 1 350 16:40 14.03.2020
6513 Mist 26 1018 83 4828 1 350 16:21 14.03.2020
6514 Mist 25 1017 88 4828 3.6 10 15:51 14.03.2020
6515 Mist 24 1017 94 3219 2.6 10 15:25 14.03.2020
6516 Mist 24 1017 94 3219 1 320 14:45 14.03.2020
6517 Mist 24 1016 94 4828 2.1 330 14:23 14.03.2020
6518 Clouds 24 1016 94 8047 1 350 13:57 14.03.2020
6519 Clouds 24 1016 94 8047 1 350 13:39 14.03.2020
6520 Clouds 24 1016 94 8047 1 350 13:20 14.03.2020
6521 Clouds 24 1016 94 8047 1 350 12:44 14.03.2020
6522 Clear 24 1014 100 0 1.34 355 12:26 14.03.2020
6523 Clear 24 1014 100 0 1.34 355 12:26 14.03.2020
6524 Clear 24 1013 100 0 1.34 339 11:47 14.03.2020
6525 Clear 24 1013 100 0 1.79 5 11:27 14.03.2020
6526 Clear 23 1013 100 0 0.89 71 10:59 14.03.2020
6527 Clear 23 1013 100 0 0.89 71 10:40 14.03.2020
6528 Clear 23 1013 100 0 0.45 71 10:22 14.03.2020
6529 Clear 23 1013 100 0 2.12 312 09:43 14.03.2020
6530 Clear 23 1013 100 0 2.12 312 09:24 14.03.2020
6531 Clear 23 1013 100 0 0.45 71 08:47 14.03.2020
6532 Clear 23 1013 100 0 0.45 71 08:29 14.03.2020
6533 Clear 24 1013 100 0 0.45 71 07:55 14.03.2020
6534 Clear 24 1013 100 0 0.45 71 07:37 14.03.2020
6535 Clear 23 1014 100 0 0.45 71 07:18 14.03.2020
6536 Clouds 23 1015 94 9656 1.9 298 06:40 14.03.2020
6537 Clouds 24 1015 88 9656 2.65 67 05:19 14.03.2020
6538 Clouds 25 1013 94 9656 1.5 60 03:43 14.03.2020
6539 Clouds 24 1013 94 9656 1.5 60 03:23 14.03.2020
6540 Clear 25 1012 88 8047 2.6 80 02:22 14.03.2020
6541 Clear 27 1011 74 9656 2.6 110 00:44 14.03.2020
6542 Clear 28 1011 69 9656 5.1 70 23:45 13.03.2020
6543 Clear 28 1011 69 9656 5.1 70 23:27 13.03.2020
6544 Clear 29 1012 62 9656 3.6 70 22:49 13.03.2020
6545 Clear 30 1012 62 9656 3.6 70 22:26 13.03.2020
6546 Clouds 30 1012 58 8047 4.1 90 21:44 13.03.2020
6547 Clouds 30 1012 58 8047 4.1 90 21:21 13.03.2020
6548 Clouds 31 1013 58 8047 2.1 90 20:58 13.03.2020
6549 Clouds 31 1013 58 8047 2.1 90 20:39 13.03.2020
6550 Clouds 31 1013 58 8047 2.1 90 20:39 13.03.2020
6551 Clouds 31 1013 58 8047 2.1 90 20:20 13.03.2020
6552 Clouds 30 1014 55 6437 3.1 150 19:47 13.03.2020
6553 Clouds 30 1014 55 6437 3.1 150 19:28 13.03.2020
6554 Clouds 29 1015 62 6437 1.5 160 18:47 13.03.2020
6555 Clouds 29 1015 62 6437 1.5 160 18:29 13.03.2020
6556 Haze 28 1015 74 4828 1 210 17:57 13.03.2020
6557 Haze 28 1015 74 4828 1 210 17:38 13.03.2020
6558 Haze 27 1015 74 4828 1 210 17:19 13.03.2020
6559 Mist 25 1015 94 3219 1.86 176 16:42 13.03.2020
6560 Mist 24 1015 94 3219 1.86 176 16:24 13.03.2020
6561 Mist 23 1015 94 3219 1.86 176 15:56 13.03.2020
6562 Mist 23 1015 94 3219 1.86 176 15:37 13.03.2020
6563 Mist 23 1014 88 4828 1.86 176 15:19 13.03.2020
6564 Mist 21 1014 94 4828 1.86 176 14:41 13.03.2020
6565 Mist 21 1014 94 4828 1.86 176 14:41 13.03.2020
6566 Mist 21 1014 94 4828 1.86 176 14:22 13.03.2020
6567 Mist 21 1014 94 4828 1.86 176 14:22 13.03.2020
6568 Mist 20 1013 94 4828 1.65 178 13:56 13.03.2020
6569 Mist 20 1013 94 4828 1.65 178 13:38 13.03.2020
6570 Mist 19 1012 100 9656 1.8 184 13:19 13.03.2020
6571 Clear 19 1011 100 0 1.8 184 12:40 13.03.2020
6572 Clear 21 1010 100 0 1.8 184 12:22 13.03.2020
6573 Clear 20 1010 100 0 1.8 184 11:57 13.03.2020
6574 Clear 21 1010 100 0 1.8 184 11:39 13.03.2020
6575 Clear 21 1010 100 0 0.45 95 11:21 13.03.2020
6576 Clear 21 1010 100 0 0.89 243 10:47 13.03.2020
6577 Clear 21 1010 100 0 0.89 243 10:27 13.03.2020
6578 Clear 21 1010 100 0 0.89 243 09:57 13.03.2020
6579 Clear 21 1010 100 0 0.89 243 09:38 13.03.2020
6580 Clear 22 1011 100 0 0.89 243 09:20 13.03.2020
6581 Clear 22 1011 100 0 0.89 243 08:44 13.03.2020
6582 Clear 22 1011 100 0 0.69 249 08:22 13.03.2020
6583 Clear 22 1012 100 0 0.45 95 07:47 13.03.2020
6584 Clear 22 1012 100 0 0.89 95 07:28 13.03.2020
6585 Clear 22 1014 94 8047 1.08 210 06:47 13.03.2020
6586 Clear 22 1014 94 8047 1.08 210 06:26 13.03.2020
6587 Clear 23 1014 94 8047 1.08 210 05:49 13.03.2020
6588 Clear 23 1014 94 8047 3.09 88 05:20 13.03.2020
6589 Clear 23 1013 88 9656 3.09 88 04:37 13.03.2020
6590 Clouds 24 1012 88 9656 2.6 90 02:58 13.03.2020
6591 Clear 25 1011 78 11265 3.6 90 01:43 13.03.2020
6592 Clear 25 1011 78 11265 3.6 90 01:18 13.03.2020
6593 Clear 27 1011 65 11265 4.1 120 00:46 13.03.2020
6594 Clear 27 1011 65 11265 4.1 120 00:20 13.03.2020
6595 Clear 28 1010 54 11265 3.6 110 23:46 12.03.2020
6596 Clear 28 1010 54 11265 3.6 110 23:26 12.03.2020
6597 Clear 28 1011 48 11265 6.7 80 22:55 12.03.2020
6598 Clear 28 1011 48 11265 6.7 80 22:37 12.03.2020
6599 Clear 28 1011 48 11265 6.7 80 22:37 12.03.2020
6600 Clear 28 1011 48 11265 6.7 80 22:18 12.03.2020
6601 Clouds 28 1012 51 9656 3.1 100 21:42 12.03.2020
6602 Clouds 28 1012 51 9656 3.1 100 21:24 12.03.2020
6603 Clouds 27 1013 61 9656 4.6 110 20:55 12.03.2020
6604 Clouds 28 1013 61 9656 4.6 110 20:36 12.03.2020
6605 Clouds 28 1013 61 9656 4.6 110 20:18 12.03.2020
6606 Clouds 28 1014 65 9656 1.5 150 19:39 12.03.2020
6607 Clouds 28 1014 65 9656 1.5 150 19:19 12.03.2020
6608 Clouds 28 1014 65 9656 1.5 150 19:19 12.03.2020
6609 Clouds 27 1015 65 9656 2.6 100 18:42 12.03.2020
6610 Clouds 27 1015 65 9656 2.6 100 18:23 12.03.2020
6611 Clouds 26 1015 65 9656 4.47 102 17:56 12.03.2020
6612 Clouds 26 1015 65 9656 4.47 102 17:37 12.03.2020
6613 Clouds 26 1015 65 9656 1.56 127 17:18 12.03.2020
6614 Clear 25 1015 73 8047 1.5 160 16:43 12.03.2020
6615 Clear 25 1015 73 8047 1.5 160 16:23 12.03.2020
6616 Clear 22 1015 100 8047 1.56 127 15:59 12.03.2020
6617 Clear 22 1015 100 8047 1.56 127 15:39 12.03.2020
6618 Clear 20 1015 100 8047 1.56 127 15:21 12.03.2020
6619 Mist 19 1015 100 8047 1.56 127 14:38 12.03.2020
6620 Mist 18 1015 100 8047 0.54 221 14:19 12.03.2020
6621 Clear 18 1014 93 9656 0.54 221 13:40 12.03.2020
6622 Clear 18 1014 93 9656 0.46 208 13:21 12.03.2020
6623 Clear 18 1014 93 9656 0.54 221 13:21 12.03.2020
6624 Clear 18 1013 100 0 0.46 208 12:55 12.03.2020
6625 Clear 18 1013 100 0 0.46 208 12:37 12.03.2020
6626 Clear 18 1012 100 0 0.46 208 12:18 12.03.2020
6627 Clear 18 1012 100 0 0.46 208 11:56 12.03.2020
6628 Clear 19 1012 100 0 0.46 208 11:37 12.03.2020
6629 Clear 19 1012 100 0 1.55 266 11:18 12.03.2020
6630 Clear 19 1012 100 0 1.55 266 10:43 12.03.2020
6631 Clear 19 1012 100 0 1.55 266 10:43 12.03.2020
6632 Clear 20 1012 100 0 1.55 266 10:24 12.03.2020
6633 Clear 20 1012 100 0 0.45 48 09:59 12.03.2020
6634 Clear 20 1013 100 0 1.55 266 09:40 12.03.2020
6635 Clear 21 1013 100 0 1.55 266 09:22 12.03.2020
6636 Clear 21 1013 100 0 1.55 266 08:39 12.03.2020
6637 Clouds 21 1014 100 0 0.45 57 08:19 12.03.2020
6638 Clouds 21 1014 100 0 0.45 57 07:48 12.03.2020
6639 Clouds 21 1014 100 0 0.89 57 07:22 12.03.2020
6640 Clouds 22 1017 88 9656 0.61 18 06:33 12.03.2020
6641 Clouds 22 1017 88 9656 0.61 18 05:35 12.03.2020
6642 Clouds 23 1016 78 9656 2.1 50 03:45 12.03.2020
6643 Clouds 23 1016 83 9656 2.6 60 02:19 12.03.2020
6644 Clouds 24 1015 78 9656 3.1 60 01:24 12.03.2020
6645 Clouds 25 1016 78 9656 3.1 80 00:42 12.03.2020
6646 Clouds 26 1016 69 9656 5.1 80 23:59 11.03.2020
6647 Clouds 26 1016 69 9656 5.1 80 23:37 11.03.2020
6648 Clouds 26 1016 69 9656 5.1 80 23:18 11.03.2020
6649 Clouds 26 1017 74 8047 5.1 90 22:41 11.03.2020
6650 Clouds 26 1017 74 8047 5.1 90 22:23 11.03.2020
6651 Clouds 27 1017 69 8047 4.1 60 21:58 11.03.2020
6652 Clouds 27 1017 69 8047 4.1 60 21:39 11.03.2020
6653 Clouds 27 1017 69 8047 4.1 60 21:21 11.03.2020
6654 Clouds 27 1019 65 9656 5.7 90 20:57 11.03.2020
6655 Clouds 27 1019 65 9656 5.7 90 20:57 11.03.2020
6656 Clouds 27 1019 65 9656 5.7 90 20:37 11.03.2020
6657 Clouds 27 1019 65 9656 5.7 90 20:19 11.03.2020
6658 Clouds 27 1020 69 9656 4.1 70 19:42 11.03.2020
6659 Rain 27 1020 69 9656 4.1 70 19:24 11.03.2020
6660 Rain 27 1021 61 9656 3.43 65 18:57 11.03.2020
6661 Rain 27 1021 61 9656 3.43 65 18:38 11.03.2020
6662 Clouds 27 1021 61 9656 3.43 65 18:18 11.03.2020
6663 Clouds 27 1021 69 9656 3.43 65 17:55 11.03.2020
6664 Clouds 26 1021 69 9656 3.43 65 17:37 11.03.2020
6665 Clouds 26 1021 69 9656 1.9 328 17:18 11.03.2020
6666 Clouds 24 1021 83 8047 1.9 328 16:43 11.03.2020
6667 Clouds 24 1021 83 8047 1.9 328 16:19 11.03.2020
6668 Haze 23 1021 94 6437 1.9 328 15:43 11.03.2020
6669 Haze 22 1021 94 6437 1.9 328 15:23 11.03.2020
6670 Mist 21 1020 100 8047 1.9 328 14:54 11.03.2020
6671 Mist 20 1020 100 8047 1.9 328 14:36 11.03.2020
6672 Mist 20 1020 100 8047 2.16 301 14:18 11.03.2020
6673 Clouds 20 1020 94 8047 1.5 310 13:41 11.03.2020
6674 Clouds 20 1020 94 8047 1.5 310 13:22 11.03.2020
6675 Clear 20 1019 100 0 0.45 340 12:56 11.03.2020
6676 Clear 20 1018 100 0 0.45 340 12:38 11.03.2020
6677 Clear 20 1018 100 0 0.45 340 12:19 11.03.2020
6678 Clear 21 1018 100 0 0.89 340 11:41 11.03.2020
6679 Clear 21 1018 100 0 0.45 340 11:20 11.03.2020
6680 Clear 20 1018 100 0 2.62 327 10:47 11.03.2020
6681 Clear 20 1018 100 0 2.62 327 10:21 11.03.2020
6682 Clear 20 1018 100 0 2.62 327 09:59 11.03.2020
6683 Clear 20 1018 100 0 0.45 340 09:40 11.03.2020
6684 Clear 19 1018 100 0 2.62 327 09:21 11.03.2020
6685 Clear 20 1019 100 0 2.62 327 08:43 11.03.2020
6686 Clear 20 1019 100 0 2.31 328 08:24 11.03.2020
6687 Clear 21 1019 100 0 2.63 358 07:47 11.03.2020
6688 Clouds 21 1022 88 11265 1.5 350 07:20 11.03.2020
6689 Clouds 22 1022 88 11265 1.5 350 06:50 11.03.2020
6690 Clouds 22 1022 88 11265 1.5 350 06:30 11.03.2020
6691 Clouds 23 1022 83 11265 2.1 350 05:32 11.03.2020
6692 Clouds 24 1021 78 11265 2.6 30 02:45 11.03.2020
6693 Clouds 25 1020 69 11265 3.6 10 01:52 11.03.2020
6694 Clouds 25 1020 69 11265 3.6 10 01:23 11.03.2020
6695 Clouds 26 1020 61 11265 3.1 40 00:32 11.03.2020
6696 Clouds 26 1020 61 11265 6.2 70 23:49 10.03.2020
6697 Clouds 26 1020 61 11265 6.2 70 23:26 10.03.2020
6698 Clouds 27 1020 61 11265 4.1 70 22:55 10.03.2020
6699 Clouds 27 1020 61 11265 4.1 70 22:37 10.03.2020
6700 Clouds 27 1020 61 11265 4.1 70 22:18 10.03.2020
6701 Clouds 27 1021 54 11265 4.6 80 21:55 10.03.2020
6702 Clouds 27 1021 54 11265 4.6 80 21:37 10.03.2020
6703 Clouds 27 1021 54 11265 4.6 80 21:18 10.03.2020
6704 Clouds 27 1022 61 11265 4.1 70 20:42 10.03.2020
6705 Clouds 27 1022 61 11265 4.1 70 20:42 10.03.2020
6706 Clouds 27 1022 61 11265 4.1 70 20:19 10.03.2020
6707 Clouds 27 1023 61 11265 4.6 50 19:58 10.03.2020
6708 Clouds 27 1023 61 11265 4.6 50 19:40 10.03.2020
6709 Clouds 27 1023 61 11265 4.6 50 19:21 10.03.2020
6710 Clouds 27 1023 65 9656 2.1 70 18:55 10.03.2020
6711 Clouds 26 1023 65 9656 2.1 70 18:36 10.03.2020
6712 Clouds 26 1023 65 9656 2.1 70 18:18 10.03.2020
6713 Clouds 26 1023 69 9656 1 80 17:41 10.03.2020
6714 Clouds 25 1023 69 9656 1 80 17:22 10.03.2020
6715 Clouds 25 1023 78 8047 3.1 80 16:40 10.03.2020
6716 Clouds 25 1023 78 8047 3.1 80 16:40 10.03.2020
6717 Clouds 25 1023 78 8047 3.1 80 16:20 10.03.2020
6718 Clouds 25 1022 88 9656 1.5 80 15:58 10.03.2020
6719 Clouds 24 1022 88 9656 1.5 80 15:40 10.03.2020
6720 Clouds 24 1022 88 9656 1.5 80 15:19 10.03.2020
6721 Clouds 24 1022 94 8047 3.14 27 14:57 10.03.2020
6722 Clouds 23 1022 94 8047 3.14 27 14:39 10.03.2020
6723 Clouds 23 1022 94 8047 3.3 29 14:18 10.03.2020
6724 Clouds 23 1022 88 8047 2.6 10 13:42 10.03.2020
6725 Clouds 23 1022 88 8047 2.6 10 13:42 10.03.2020
6726